<?xml version="1.0" encoding="UTF-8" standalone="no" ?>
<gpx xmlns="http://www.topografix.com/GPX/1/1" xmlns:xsi="http://www.w3.org/2001/XMLSchema-instance" xsi:schemaLocation="http://www.topografix.com/GPX/1/1 http://www.topografix.com/GPX/1/1/gpx.xsd" version="1.1" creator="VisuGPX - https://www.visugpx.com">
  <metadata>
    <name>Crossac 14/11/2021</name>
    <desc><![CDATA[Rando Crossac dimanche 14 novembre 2021]]></desc>
  </metadata>
  <trk>
    <name><![CDATA[Crossac Cyclisme]]></name>
    <trkseg>
      <trkpt lat="47.41041" lon="-2.17076">
        <ele>6.8</ele>
        <time>2021-11-14T07:44:01.000Z</time>
      </trkpt>
      <trkpt lat="47.41034" lon="-2.17061">
        <ele>6.4</ele>
        <time>2021-11-14T07:44:04.000Z</time>
      </trkpt>
      <trkpt lat="47.41031" lon="-2.17055">
        <ele>0.40000000596046</ele>
        <time>2021-11-14T07:44:05.000Z</time>
      </trkpt>
      <trkpt lat="47.41023" lon="-2.17033">
        <ele>0.40000000596046</ele>
        <time>2021-11-14T07:44:08.000Z</time>
      </trkpt>
      <trkpt lat="47.4102" lon="-2.17026">
        <ele>0.40000000596046</ele>
        <time>2021-11-14T07:44:09.000Z</time>
      </trkpt>
      <trkpt lat="47.41017" lon="-2.17013">
        <ele>0.40000000596046</ele>
        <time>2021-11-14T07:44:11.000Z</time>
      </trkpt>
      <trkpt lat="47.41014" lon="-2.16993">
        <ele>0.40000000596046</ele>
        <time>2021-11-14T07:44:14.000Z</time>
      </trkpt>
      <trkpt lat="47.41009" lon="-2.16979">
        <ele>0.40000000596046</ele>
        <time>2021-11-14T07:44:17.000Z</time>
      </trkpt>
      <trkpt lat="47.41005" lon="-2.16977">
        <ele>0.40000000596046</ele>
        <time>2021-11-14T07:44:18.000Z</time>
      </trkpt>
      <trkpt lat="47.40987" lon="-2.16977">
        <ele>0.40000000596046</ele>
        <time>2021-11-14T07:44:22.000Z</time>
      </trkpt>
      <trkpt lat="47.4095" lon="-2.16978">
        <ele>0.40000000596046</ele>
        <time>2021-11-14T07:44:30.000Z</time>
      </trkpt>
      <trkpt lat="47.40912" lon="-2.16986">
        <ele>0.40000000596046</ele>
        <time>2021-11-14T07:44:38.000Z</time>
      </trkpt>
      <trkpt lat="47.40908" lon="-2.16988">
        <ele>0.40000000596046</ele>
        <time>2021-11-14T07:44:39.000Z</time>
      </trkpt>
      <trkpt lat="47.40891" lon="-2.16995">
        <ele>0.80000001192093</ele>
        <time>2021-11-14T07:44:43.000Z</time>
      </trkpt>
      <trkpt lat="47.40887" lon="-2.16998">
        <ele>1.2000000476837</ele>
        <time>2021-11-14T07:44:44.000Z</time>
      </trkpt>
      <trkpt lat="47.40882" lon="-2.17">
        <ele>1.6000000238419</ele>
        <time>2021-11-14T07:44:45.000Z</time>
      </trkpt>
      <trkpt lat="47.40878" lon="-2.17002">
        <ele>2</ele>
        <time>2021-11-14T07:44:46.000Z</time>
      </trkpt>
      <trkpt lat="47.40874" lon="-2.17004">
        <ele>2.4000000953674</ele>
        <time>2021-11-14T07:44:47.000Z</time>
      </trkpt>
      <trkpt lat="47.40856" lon="-2.17014">
        <ele>2.4000000953674</ele>
        <time>2021-11-14T07:44:51.000Z</time>
      </trkpt>
      <trkpt lat="47.40824" lon="-2.17035">
        <ele>2.4000000953674</ele>
        <time>2021-11-14T07:44:58.000Z</time>
      </trkpt>
      <trkpt lat="47.4082" lon="-2.17039">
        <ele>2.4000000953674</ele>
        <time>2021-11-14T07:44:59.000Z</time>
      </trkpt>
      <trkpt lat="47.40797" lon="-2.17062">
        <ele>2.4000000953674</ele>
        <time>2021-11-14T07:45:04.000Z</time>
      </trkpt>
      <trkpt lat="47.40776" lon="-2.17084">
        <ele>2.4000000953674</ele>
        <time>2021-11-14T07:45:09.000Z</time>
      </trkpt>
      <trkpt lat="47.40768" lon="-2.17088">
        <ele>2.4000000953674</ele>
        <time>2021-11-14T07:45:11.000Z</time>
      </trkpt>
      <trkpt lat="47.40766" lon="-2.17087">
        <ele>2.4000000953674</ele>
        <time>2021-11-14T07:45:12.000Z</time>
      </trkpt>
      <trkpt lat="47.40757" lon="-2.17083">
        <ele>2.4000000953674</ele>
        <time>2021-11-14T07:45:15.000Z</time>
      </trkpt>
      <trkpt lat="47.40753" lon="-2.17081">
        <ele>2</ele>
        <time>2021-11-14T07:45:17.000Z</time>
      </trkpt>
      <trkpt lat="47.40751" lon="-2.17078">
        <ele>1.6000000238419</ele>
        <time>2021-11-14T07:45:18.000Z</time>
      </trkpt>
      <trkpt lat="47.4075" lon="-2.17076">
        <ele>1.2000000476837</ele>
        <time>2021-11-14T07:45:19.000Z</time>
      </trkpt>
      <trkpt lat="47.4075" lon="-2.17073">
        <ele>0.80000001192093</ele>
        <time>2021-11-14T07:45:20.000Z</time>
      </trkpt>
      <trkpt lat="47.4075" lon="-2.17071">
        <ele>0.40000000596046</ele>
        <time>2021-11-14T07:45:21.000Z</time>
      </trkpt>
      <trkpt lat="47.40755" lon="-2.1706">
        <ele>0.40000000596046</ele>
        <time>2021-11-14T07:45:24.000Z</time>
      </trkpt>
      <trkpt lat="47.40764" lon="-2.17037">
        <ele>0.40000000596046</ele>
        <time>2021-11-14T07:45:29.000Z</time>
      </trkpt>
      <trkpt lat="47.40778" lon="-2.16993">
        <ele>0.40000000596046</ele>
        <time>2021-11-14T07:45:37.000Z</time>
      </trkpt>
      <trkpt lat="47.40781" lon="-2.1698">
        <ele>0.40000000596046</ele>
        <time>2021-11-14T07:45:39.000Z</time>
      </trkpt>
      <trkpt lat="47.40783" lon="-2.16955">
        <ele>0.40000000596046</ele>
        <time>2021-11-14T07:45:43.000Z</time>
      </trkpt>
      <trkpt lat="47.40784" lon="-2.16947">
        <ele>0.40000000596046</ele>
        <time>2021-11-14T07:45:46.000Z</time>
      </trkpt>
      <trkpt lat="47.40786" lon="-2.16941">
        <ele>0.40000000596046</ele>
        <time>2021-11-14T07:45:48.000Z</time>
      </trkpt>
      <trkpt lat="47.40789" lon="-2.1693">
        <ele>0.40000000596046</ele>
        <time>2021-11-14T07:45:52.000Z</time>
      </trkpt>
      <trkpt lat="47.40795" lon="-2.16909">
        <ele>0.40000000596046</ele>
        <time>2021-11-14T07:45:56.000Z</time>
      </trkpt>
      <trkpt lat="47.40797" lon="-2.16904">
        <ele>0.40000000596046</ele>
        <time>2021-11-14T07:45:57.000Z</time>
      </trkpt>
      <trkpt lat="47.40806" lon="-2.16886">
        <ele>0.40000000596046</ele>
        <time>2021-11-14T07:46:00.000Z</time>
      </trkpt>
      <trkpt lat="47.40816" lon="-2.1687">
        <ele>0.40000000596046</ele>
        <time>2021-11-14T07:46:03.000Z</time>
      </trkpt>
      <trkpt lat="47.4083" lon="-2.16848">
        <ele>0.40000000596046</ele>
        <time>2021-11-14T07:46:07.000Z</time>
      </trkpt>
      <trkpt lat="47.40829" lon="-2.16837">
        <ele>0.40000000596046</ele>
        <time>2021-11-14T07:46:09.000Z</time>
      </trkpt>
      <trkpt lat="47.40825" lon="-2.16822">
        <ele>0.40000000596046</ele>
        <time>2021-11-14T07:46:12.000Z</time>
      </trkpt>
      <trkpt lat="47.40821" lon="-2.1681">
        <ele>0.40000000596046</ele>
        <time>2021-11-14T07:46:14.000Z</time>
      </trkpt>
      <trkpt lat="47.40808" lon="-2.16771">
        <ele>0.40000000596046</ele>
        <time>2021-11-14T07:46:20.000Z</time>
      </trkpt>
      <trkpt lat="47.40787" lon="-2.16707">
        <ele>0.40000000596046</ele>
        <time>2021-11-14T07:46:29.000Z</time>
      </trkpt>
      <trkpt lat="47.4077" lon="-2.16655">
        <ele>0.40000000596046</ele>
        <time>2021-11-14T07:46:36.000Z</time>
      </trkpt>
      <trkpt lat="47.40765" lon="-2.16636">
        <ele>0.40000000596046</ele>
        <time>2021-11-14T07:46:39.000Z</time>
      </trkpt>
      <trkpt lat="47.40761" lon="-2.16628">
        <ele>-0.20000000298023</ele>
        <time>2021-11-14T07:46:41.000Z</time>
      </trkpt>
      <trkpt lat="47.40758" lon="-2.16626">
        <ele>-0.60000002384186</ele>
        <time>2021-11-14T07:46:42.000Z</time>
      </trkpt>
      <trkpt lat="47.40754" lon="-2.16625">
        <ele>-1</ele>
        <time>2021-11-14T07:46:43.000Z</time>
      </trkpt>
      <trkpt lat="47.40751" lon="-2.16625">
        <ele>-1.6000000238419</ele>
        <time>2021-11-14T07:46:44.000Z</time>
      </trkpt>
      <trkpt lat="47.40748" lon="-2.16627">
        <ele>-2</ele>
        <time>2021-11-14T07:46:45.000Z</time>
      </trkpt>
      <trkpt lat="47.40739" lon="-2.16632">
        <ele>-2</ele>
        <time>2021-11-14T07:46:47.000Z</time>
      </trkpt>
      <trkpt lat="47.40735" lon="-2.16636">
        <ele>-2</ele>
        <time>2021-11-14T07:46:48.000Z</time>
      </trkpt>
      <trkpt lat="47.40707" lon="-2.16663">
        <ele>-2</ele>
        <time>2021-11-14T07:46:54.000Z</time>
      </trkpt>
      <trkpt lat="47.40689" lon="-2.16691">
        <ele>-2</ele>
        <time>2021-11-14T07:46:59.000Z</time>
      </trkpt>
      <trkpt lat="47.40661" lon="-2.16736">
        <ele>-2</ele>
        <time>2021-11-14T07:47:06.000Z</time>
      </trkpt>
      <trkpt lat="47.40639" lon="-2.16778">
        <ele>-2</ele>
        <time>2021-11-14T07:47:13.000Z</time>
      </trkpt>
      <trkpt lat="47.40637" lon="-2.16784">
        <ele>-2</ele>
        <time>2021-11-14T07:47:14.000Z</time>
      </trkpt>
      <trkpt lat="47.40634" lon="-2.1679">
        <ele>-2</ele>
        <time>2021-11-14T07:47:17.000Z</time>
      </trkpt>
      <trkpt lat="47.40629" lon="-2.16798">
        <ele>-2</ele>
        <time>2021-11-14T07:47:22.000Z</time>
      </trkpt>
      <trkpt lat="47.40626" lon="-2.16799">
        <ele>-2</ele>
        <time>2021-11-14T07:47:23.000Z</time>
      </trkpt>
      <trkpt lat="47.40617" lon="-2.16794">
        <ele>-2</ele>
        <time>2021-11-14T07:47:27.000Z</time>
      </trkpt>
      <trkpt lat="47.40618" lon="-2.16783">
        <ele>-2</ele>
        <time>2021-11-14T07:47:31.000Z</time>
      </trkpt>
      <trkpt lat="47.40612" lon="-2.16775">
        <ele>-2</ele>
        <time>2021-11-14T07:47:34.000Z</time>
      </trkpt>
      <trkpt lat="47.40601" lon="-2.1677">
        <ele>-2</ele>
        <time>2021-11-14T07:47:37.000Z</time>
      </trkpt>
      <trkpt lat="47.40597" lon="-2.1677">
        <ele>-2</ele>
        <time>2021-11-14T07:47:38.000Z</time>
      </trkpt>
      <trkpt lat="47.40583" lon="-2.16768">
        <ele>-2</ele>
        <time>2021-11-14T07:47:42.000Z</time>
      </trkpt>
      <trkpt lat="47.40567" lon="-2.16761">
        <ele>-2</ele>
        <time>2021-11-14T07:47:46.000Z</time>
      </trkpt>
      <trkpt lat="47.4056" lon="-2.16751">
        <ele>-2</ele>
        <time>2021-11-14T07:47:48.000Z</time>
      </trkpt>
      <trkpt lat="47.40553" lon="-2.16744">
        <ele>-2</ele>
        <time>2021-11-14T07:47:50.000Z</time>
      </trkpt>
      <trkpt lat="47.40543" lon="-2.16739">
        <ele>-2</ele>
        <time>2021-11-14T07:47:52.000Z</time>
      </trkpt>
      <trkpt lat="47.40526" lon="-2.16728">
        <ele>-2</ele>
        <time>2021-11-14T07:47:56.000Z</time>
      </trkpt>
      <trkpt lat="47.40515" lon="-2.16716">
        <ele>-2</ele>
        <time>2021-11-14T07:47:59.000Z</time>
      </trkpt>
      <trkpt lat="47.40504" lon="-2.16692">
        <ele>-2</ele>
        <time>2021-11-14T07:48:04.000Z</time>
      </trkpt>
      <trkpt lat="47.405" lon="-2.16687">
        <ele>-2</ele>
        <time>2021-11-14T07:48:06.000Z</time>
      </trkpt>
      <trkpt lat="47.40498" lon="-2.16686">
        <ele>-2</ele>
        <time>2021-11-14T07:48:07.000Z</time>
      </trkpt>
      <trkpt lat="47.40484" lon="-2.16678">
        <ele>-2</ele>
        <time>2021-11-14T07:48:13.000Z</time>
      </trkpt>
      <trkpt lat="47.40464" lon="-2.1667">
        <ele>-2</ele>
        <time>2021-11-14T07:48:18.000Z</time>
      </trkpt>
      <trkpt lat="47.4045" lon="-2.16663">
        <ele>-2</ele>
        <time>2021-11-14T07:48:22.000Z</time>
      </trkpt>
      <trkpt lat="47.4043" lon="-2.16651">
        <ele>-2</ele>
        <time>2021-11-14T07:48:28.000Z</time>
      </trkpt>
      <trkpt lat="47.40418" lon="-2.16653">
        <ele>-2</ele>
        <time>2021-11-14T07:48:31.000Z</time>
      </trkpt>
      <trkpt lat="47.4041" lon="-2.1666">
        <ele>-2</ele>
        <time>2021-11-14T07:48:34.000Z</time>
      </trkpt>
      <trkpt lat="47.40408" lon="-2.16659">
        <ele>-2</ele>
        <time>2021-11-14T07:48:35.000Z</time>
      </trkpt>
      <trkpt lat="47.40392" lon="-2.16655">
        <ele>-2</ele>
        <time>2021-11-14T07:48:39.000Z</time>
      </trkpt>
      <trkpt lat="47.40387" lon="-2.16656">
        <ele>-2</ele>
        <time>2021-11-14T07:48:40.000Z</time>
      </trkpt>
      <trkpt lat="47.40375" lon="-2.16664">
        <ele>-2</ele>
        <time>2021-11-14T07:48:43.000Z</time>
      </trkpt>
      <trkpt lat="47.40366" lon="-2.16661">
        <ele>-2</ele>
        <time>2021-11-14T07:48:46.000Z</time>
      </trkpt>
      <trkpt lat="47.4036" lon="-2.16663">
        <ele>-2</ele>
        <time>2021-11-14T07:48:49.000Z</time>
      </trkpt>
      <trkpt lat="47.40356" lon="-2.16667">
        <ele>-2</ele>
        <time>2021-11-14T07:48:51.000Z</time>
      </trkpt>
      <trkpt lat="47.4034" lon="-2.1668">
        <ele>-2</ele>
        <time>2021-11-14T07:48:56.000Z</time>
      </trkpt>
      <trkpt lat="47.40319" lon="-2.16691">
        <ele>-2</ele>
        <time>2021-11-14T07:49:02.000Z</time>
      </trkpt>
      <trkpt lat="47.40302" lon="-2.1671">
        <ele>-2</ele>
        <time>2021-11-14T07:49:07.000Z</time>
      </trkpt>
      <trkpt lat="47.40295" lon="-2.16716">
        <ele>-2</ele>
        <time>2021-11-14T07:49:09.000Z</time>
      </trkpt>
      <trkpt lat="47.40292" lon="-2.16719">
        <ele>-2</ele>
        <time>2021-11-14T07:49:10.000Z</time>
      </trkpt>
      <trkpt lat="47.4029" lon="-2.16723">
        <ele>-2</ele>
        <time>2021-11-14T07:49:11.000Z</time>
      </trkpt>
      <trkpt lat="47.40288" lon="-2.1673">
        <ele>-2</ele>
        <time>2021-11-14T07:49:13.000Z</time>
      </trkpt>
      <trkpt lat="47.40294" lon="-2.16748">
        <ele>-2</ele>
        <time>2021-11-14T07:49:17.000Z</time>
      </trkpt>
      <trkpt lat="47.40303" lon="-2.16761">
        <ele>-2</ele>
        <time>2021-11-14T07:49:20.000Z</time>
      </trkpt>
      <trkpt lat="47.40308" lon="-2.16768">
        <ele>-2</ele>
        <time>2021-11-14T07:49:22.000Z</time>
      </trkpt>
      <trkpt lat="47.40316" lon="-2.1679">
        <ele>-2</ele>
        <time>2021-11-14T07:49:27.000Z</time>
      </trkpt>
      <trkpt lat="47.40318" lon="-2.16789">
        <ele>-2</ele>
        <time>2021-11-14T07:49:28.000Z</time>
      </trkpt>
      <trkpt lat="47.4032" lon="-2.16789">
        <ele>-1.6000000238419</ele>
        <time>2021-11-14T07:49:29.000Z</time>
      </trkpt>
      <trkpt lat="47.40322" lon="-2.16787">
        <ele>-1.2000000476837</ele>
        <time>2021-11-14T07:49:30.000Z</time>
      </trkpt>
      <trkpt lat="47.40324" lon="-2.16786">
        <ele>-0.40000000596046</ele>
        <time>2021-11-14T07:49:31.000Z</time>
      </trkpt>
      <trkpt lat="47.40326" lon="-2.16784">
        <ele>6.9</ele>
        <time>2021-11-14T07:49:32.000Z</time>
      </trkpt>
      <trkpt lat="47.40334" lon="-2.16785">
        <ele>7.3</ele>
        <time>2021-11-14T07:49:35.000Z</time>
      </trkpt>
      <trkpt lat="47.40337" lon="-2.16784">
        <ele>7.4</ele>
        <time>2021-11-14T07:49:36.000Z</time>
      </trkpt>
      <trkpt lat="47.40342" lon="-2.16781">
        <ele>7.5</ele>
        <time>2021-11-14T07:49:38.000Z</time>
      </trkpt>
      <trkpt lat="47.40349" lon="-2.16788">
        <ele>8.2</ele>
        <time>2021-11-14T07:49:41.000Z</time>
      </trkpt>
      <trkpt lat="47.40356" lon="-2.16782">
        <ele>8.1</ele>
        <time>2021-11-14T07:49:44.000Z</time>
      </trkpt>
      <trkpt lat="47.40367" lon="-2.16784">
        <ele>8.2</ele>
        <time>2021-11-14T07:49:48.000Z</time>
      </trkpt>
      <trkpt lat="47.40376" lon="-2.16794">
        <ele>0.40000000596046</ele>
        <time>2021-11-14T07:49:51.000Z</time>
      </trkpt>
      <trkpt lat="47.40377" lon="-2.16797">
        <ele>0.80000001192093</ele>
        <time>2021-11-14T07:49:52.000Z</time>
      </trkpt>
      <trkpt lat="47.40377" lon="-2.16801">
        <ele>1.2000000476837</ele>
        <time>2021-11-14T07:49:53.000Z</time>
      </trkpt>
      <trkpt lat="47.40377" lon="-2.16805">
        <ele>2</ele>
        <time>2021-11-14T07:49:54.000Z</time>
      </trkpt>
      <trkpt lat="47.40374" lon="-2.16811">
        <ele>2</ele>
        <time>2021-11-14T07:49:56.000Z</time>
      </trkpt>
      <trkpt lat="47.40371" lon="-2.1682">
        <ele>2</ele>
        <time>2021-11-14T07:49:59.000Z</time>
      </trkpt>
      <trkpt lat="47.40366" lon="-2.16813">
        <ele>2</ele>
        <time>2021-11-14T07:50:02.000Z</time>
      </trkpt>
      <trkpt lat="47.4036" lon="-2.16802">
        <ele>2</ele>
        <time>2021-11-14T07:50:06.000Z</time>
      </trkpt>
      <trkpt lat="47.40354" lon="-2.16808">
        <ele>2</ele>
        <time>2021-11-14T07:50:09.000Z</time>
      </trkpt>
      <trkpt lat="47.40351" lon="-2.16808">
        <ele>2</ele>
        <time>2021-11-14T07:50:10.000Z</time>
      </trkpt>
      <trkpt lat="47.40345" lon="-2.1681">
        <ele>2</ele>
        <time>2021-11-14T07:50:12.000Z</time>
      </trkpt>
      <trkpt lat="47.40342" lon="-2.16808">
        <ele>2</ele>
        <time>2021-11-14T07:50:13.000Z</time>
      </trkpt>
      <trkpt lat="47.40336" lon="-2.16797">
        <ele>2</ele>
        <time>2021-11-14T07:50:16.000Z</time>
      </trkpt>
      <trkpt lat="47.40333" lon="-2.16794">
        <ele>2</ele>
        <time>2021-11-14T07:50:17.000Z</time>
      </trkpt>
      <trkpt lat="47.40326" lon="-2.16792">
        <ele>2</ele>
        <time>2021-11-14T07:50:20.000Z</time>
      </trkpt>
      <trkpt lat="47.40321" lon="-2.16799">
        <ele>2</ele>
        <time>2021-11-14T07:50:23.000Z</time>
      </trkpt>
      <trkpt lat="47.40328" lon="-2.16812">
        <ele>2</ele>
        <time>2021-11-14T07:50:28.000Z</time>
      </trkpt>
      <trkpt lat="47.40337" lon="-2.16821">
        <ele>2</ele>
        <time>2021-11-14T07:50:32.000Z</time>
      </trkpt>
      <trkpt lat="47.4034" lon="-2.16823">
        <ele>2</ele>
        <time>2021-11-14T07:50:33.000Z</time>
      </trkpt>
      <trkpt lat="47.4035" lon="-2.16839">
        <ele>2</ele>
        <time>2021-11-14T07:50:37.000Z</time>
      </trkpt>
      <trkpt lat="47.4036" lon="-2.16851">
        <ele>2</ele>
        <time>2021-11-14T07:50:41.000Z</time>
      </trkpt>
      <trkpt lat="47.40364" lon="-2.16847">
        <ele>2</ele>
        <time>2021-11-14T07:50:42.000Z</time>
      </trkpt>
      <trkpt lat="47.40364" lon="-2.16841">
        <ele>2</ele>
        <time>2021-11-14T07:50:43.000Z</time>
      </trkpt>
      <trkpt lat="47.40364" lon="-2.16836">
        <ele>2</ele>
        <time>2021-11-14T07:50:44.000Z</time>
      </trkpt>
      <trkpt lat="47.40367" lon="-2.16829">
        <ele>2</ele>
        <time>2021-11-14T07:50:46.000Z</time>
      </trkpt>
      <trkpt lat="47.4037" lon="-2.16828">
        <ele>2</ele>
        <time>2021-11-14T07:50:47.000Z</time>
      </trkpt>
      <trkpt lat="47.40374" lon="-2.16829">
        <ele>2.4000000953674</ele>
        <time>2021-11-14T07:50:49.000Z</time>
      </trkpt>
      <trkpt lat="47.40376" lon="-2.16831">
        <ele>2.7999999523163</ele>
        <time>2021-11-14T07:50:50.000Z</time>
      </trkpt>
      <trkpt lat="47.40378" lon="-2.16832">
        <ele>3.2000000476837</ele>
        <time>2021-11-14T07:50:51.000Z</time>
      </trkpt>
      <trkpt lat="47.4038" lon="-2.1683">
        <ele>3.5999999046326</ele>
        <time>2021-11-14T07:50:52.000Z</time>
      </trkpt>
      <trkpt lat="47.40382" lon="-2.16828">
        <ele>4</ele>
        <time>2021-11-14T07:50:53.000Z</time>
      </trkpt>
      <trkpt lat="47.40385" lon="-2.16829">
        <ele>4</ele>
        <time>2021-11-14T07:50:54.000Z</time>
      </trkpt>
      <trkpt lat="47.4039" lon="-2.16832">
        <ele>4</ele>
        <time>2021-11-14T07:50:56.000Z</time>
      </trkpt>
      <trkpt lat="47.40393" lon="-2.1683">
        <ele>4</ele>
        <time>2021-11-14T07:50:58.000Z</time>
      </trkpt>
      <trkpt lat="47.40395" lon="-2.16821">
        <ele>3.5999999046326</ele>
        <time>2021-11-14T07:51:01.000Z</time>
      </trkpt>
      <trkpt lat="47.40397" lon="-2.16819">
        <ele>3.2000000476837</ele>
        <time>2021-11-14T07:51:02.000Z</time>
      </trkpt>
      <trkpt lat="47.40399" lon="-2.16817">
        <ele>2.7999999523163</ele>
        <time>2021-11-14T07:51:03.000Z</time>
      </trkpt>
      <trkpt lat="47.40402" lon="-2.1682">
        <ele>2.2000000476837</ele>
        <time>2021-11-14T07:51:04.000Z</time>
      </trkpt>
      <trkpt lat="47.40405" lon="-2.16823">
        <ele>1.7999999523163</ele>
        <time>2021-11-14T07:51:05.000Z</time>
      </trkpt>
      <trkpt lat="47.40407" lon="-2.16827">
        <ele>1.7999999523163</ele>
        <time>2021-11-14T07:51:06.000Z</time>
      </trkpt>
      <trkpt lat="47.40402" lon="-2.16836">
        <ele>1.7999999523163</ele>
        <time>2021-11-14T07:51:09.000Z</time>
      </trkpt>
      <trkpt lat="47.4039" lon="-2.16838">
        <ele>1.7999999523163</ele>
        <time>2021-11-14T07:51:13.000Z</time>
      </trkpt>
      <trkpt lat="47.40384" lon="-2.16839">
        <ele>2.2000000476837</ele>
        <time>2021-11-14T07:51:15.000Z</time>
      </trkpt>
      <trkpt lat="47.40382" lon="-2.1684">
        <ele>2.5999999046326</ele>
        <time>2021-11-14T07:51:16.000Z</time>
      </trkpt>
      <trkpt lat="47.4038" lon="-2.16841">
        <ele>3.2000000476837</ele>
        <time>2021-11-14T07:51:17.000Z</time>
      </trkpt>
      <trkpt lat="47.40378" lon="-2.16843">
        <ele>3.5999999046326</ele>
        <time>2021-11-14T07:51:18.000Z</time>
      </trkpt>
      <trkpt lat="47.40376" lon="-2.16847">
        <ele>4</ele>
        <time>2021-11-14T07:51:19.000Z</time>
      </trkpt>
      <trkpt lat="47.40369" lon="-2.16857">
        <ele>4</ele>
        <time>2021-11-14T07:51:22.000Z</time>
      </trkpt>
      <trkpt lat="47.4036" lon="-2.1686">
        <ele>4</ele>
        <time>2021-11-14T07:51:24.000Z</time>
      </trkpt>
      <trkpt lat="47.40355" lon="-2.16869">
        <ele>4</ele>
        <time>2021-11-14T07:51:26.000Z</time>
      </trkpt>
      <trkpt lat="47.40356" lon="-2.16883">
        <ele>4</ele>
        <time>2021-11-14T07:51:30.000Z</time>
      </trkpt>
      <trkpt lat="47.40364" lon="-2.16876">
        <ele>4</ele>
        <time>2021-11-14T07:51:33.000Z</time>
      </trkpt>
      <trkpt lat="47.40367" lon="-2.16872">
        <ele>4</ele>
        <time>2021-11-14T07:51:34.000Z</time>
      </trkpt>
      <trkpt lat="47.4037" lon="-2.1687">
        <ele>4</ele>
        <time>2021-11-14T07:51:35.000Z</time>
      </trkpt>
      <trkpt lat="47.40372" lon="-2.16871">
        <ele>4</ele>
        <time>2021-11-14T07:51:36.000Z</time>
      </trkpt>
      <trkpt lat="47.40376" lon="-2.16871">
        <ele>4</ele>
        <time>2021-11-14T07:51:40.000Z</time>
      </trkpt>
      <trkpt lat="47.40377" lon="-2.16869">
        <ele>4.4000000953674</ele>
        <time>2021-11-14T07:51:43.000Z</time>
      </trkpt>
      <trkpt lat="47.40378" lon="-2.16866">
        <ele>5</ele>
        <time>2021-11-14T07:51:44.000Z</time>
      </trkpt>
      <trkpt lat="47.40379" lon="-2.16863">
        <ele>5.5999999046326</ele>
        <time>2021-11-14T07:51:45.000Z</time>
      </trkpt>
      <trkpt lat="47.4038" lon="-2.16859">
        <ele>6</ele>
        <time>2021-11-14T07:51:46.000Z</time>
      </trkpt>
      <trkpt lat="47.40381" lon="-2.16856">
        <ele>6.5999999046326</ele>
        <time>2021-11-14T07:51:47.000Z</time>
      </trkpt>
      <trkpt lat="47.40385" lon="-2.16848">
        <ele>6.5999999046326</ele>
        <time>2021-11-14T07:51:50.000Z</time>
      </trkpt>
      <trkpt lat="47.40387" lon="-2.16848">
        <ele>6.5999999046326</ele>
        <time>2021-11-14T07:51:51.000Z</time>
      </trkpt>
      <trkpt lat="47.40394" lon="-2.16849">
        <ele>6</ele>
        <time>2021-11-14T07:51:54.000Z</time>
      </trkpt>
      <trkpt lat="47.40398" lon="-2.16849">
        <ele>5.5999999046326</ele>
        <time>2021-11-14T07:51:55.000Z</time>
      </trkpt>
      <trkpt lat="47.40401" lon="-2.16846">
        <ele>5.1999998092651</ele>
        <time>2021-11-14T07:51:56.000Z</time>
      </trkpt>
      <trkpt lat="47.40405" lon="-2.16844">
        <ele>4.1999998092651</ele>
        <time>2021-11-14T07:51:57.000Z</time>
      </trkpt>
      <trkpt lat="47.40408" lon="-2.16842">
        <ele>4.1999998092651</ele>
        <time>2021-11-14T07:51:58.000Z</time>
      </trkpt>
      <trkpt lat="47.40411" lon="-2.16844">
        <ele>3.5999999046326</ele>
        <time>2021-11-14T07:51:59.000Z</time>
      </trkpt>
      <trkpt lat="47.40413" lon="-2.16845">
        <ele>3.2000000476837</ele>
        <time>2021-11-14T07:52:00.000Z</time>
      </trkpt>
      <trkpt lat="47.40415" lon="-2.16851">
        <ele>2.5999999046326</ele>
        <time>2021-11-14T07:52:01.000Z</time>
      </trkpt>
      <trkpt lat="47.40417" lon="-2.16856">
        <ele>2.2000000476837</ele>
        <time>2021-11-14T07:52:02.000Z</time>
      </trkpt>
      <trkpt lat="47.40418" lon="-2.16862">
        <ele>1.7999999523163</ele>
        <time>2021-11-14T07:52:03.000Z</time>
      </trkpt>
      <trkpt lat="47.40413" lon="-2.16868">
        <ele>1.7999999523163</ele>
        <time>2021-11-14T07:52:05.000Z</time>
      </trkpt>
      <trkpt lat="47.4041" lon="-2.16867">
        <ele>1.7999999523163</ele>
        <time>2021-11-14T07:52:07.000Z</time>
      </trkpt>
      <trkpt lat="47.40409" lon="-2.16865">
        <ele>1.7999999523163</ele>
        <time>2021-11-14T07:52:08.000Z</time>
      </trkpt>
      <trkpt lat="47.40403" lon="-2.16859">
        <ele>1.7999999523163</ele>
        <time>2021-11-14T07:52:11.000Z</time>
      </trkpt>
      <trkpt lat="47.40397" lon="-2.16862">
        <ele>1.7999999523163</ele>
        <time>2021-11-14T07:52:13.000Z</time>
      </trkpt>
      <trkpt lat="47.40396" lon="-2.16864">
        <ele>2.2000000476837</ele>
        <time>2021-11-14T07:52:14.000Z</time>
      </trkpt>
      <trkpt lat="47.40396" lon="-2.16865">
        <ele>2.5999999046326</ele>
        <time>2021-11-14T07:52:15.000Z</time>
      </trkpt>
      <trkpt lat="47.40395" lon="-2.16864">
        <ele>3</ele>
        <time>2021-11-14T07:52:16.000Z</time>
      </trkpt>
      <trkpt lat="47.40396" lon="-2.16865">
        <ele>3.4000000953674</ele>
        <time>2021-11-14T07:52:17.000Z</time>
      </trkpt>
      <trkpt lat="47.40396" lon="-2.16867">
        <ele>3.7999999523163</ele>
        <time>2021-11-14T07:52:18.000Z</time>
      </trkpt>
      <trkpt lat="47.40398" lon="-2.1687">
        <ele>3.7999999523163</ele>
        <time>2021-11-14T07:52:21.000Z</time>
      </trkpt>
      <trkpt lat="47.404" lon="-2.16869">
        <ele>3.7999999523163</ele>
        <time>2021-11-14T07:52:22.000Z</time>
      </trkpt>
      <trkpt lat="47.40404" lon="-2.16871">
        <ele>3.7999999523163</ele>
        <time>2021-11-14T07:52:24.000Z</time>
      </trkpt>
      <trkpt lat="47.40413" lon="-2.16887">
        <ele>3.4000000953674</ele>
        <time>2021-11-14T07:52:29.000Z</time>
      </trkpt>
      <trkpt lat="47.40416" lon="-2.16891">
        <ele>2.7999999523163</ele>
        <time>2021-11-14T07:52:30.000Z</time>
      </trkpt>
      <trkpt lat="47.40417" lon="-2.16895">
        <ele>2.4000000953674</ele>
        <time>2021-11-14T07:52:31.000Z</time>
      </trkpt>
      <trkpt lat="47.40416" lon="-2.16898">
        <ele>2</ele>
        <time>2021-11-14T07:52:32.000Z</time>
      </trkpt>
      <trkpt lat="47.40413" lon="-2.16901">
        <ele>1.3999999761581</ele>
        <time>2021-11-14T07:52:33.000Z</time>
      </trkpt>
      <trkpt lat="47.40403" lon="-2.16911">
        <ele>1.3999999761581</ele>
        <time>2021-11-14T07:52:36.000Z</time>
      </trkpt>
      <trkpt lat="47.404" lon="-2.16919">
        <ele>1.3999999761581</ele>
        <time>2021-11-14T07:52:38.000Z</time>
      </trkpt>
      <trkpt lat="47.40394" lon="-2.16925">
        <ele>1.3999999761581</ele>
        <time>2021-11-14T07:52:40.000Z</time>
      </trkpt>
      <trkpt lat="47.40388" lon="-2.16928">
        <ele>1.3999999761581</ele>
        <time>2021-11-14T07:52:42.000Z</time>
      </trkpt>
      <trkpt lat="47.4038" lon="-2.16926">
        <ele>1.3999999761581</ele>
        <time>2021-11-14T07:52:44.000Z</time>
      </trkpt>
      <trkpt lat="47.40376" lon="-2.16924">
        <ele>1.3999999761581</ele>
        <time>2021-11-14T07:52:45.000Z</time>
      </trkpt>
      <trkpt lat="47.40365" lon="-2.16919">
        <ele>1.3999999761581</ele>
        <time>2021-11-14T07:52:49.000Z</time>
      </trkpt>
      <trkpt lat="47.40363" lon="-2.1692">
        <ele>1.3999999761581</ele>
        <time>2021-11-14T07:52:50.000Z</time>
      </trkpt>
      <trkpt lat="47.40354" lon="-2.16936">
        <ele>1.3999999761581</ele>
        <time>2021-11-14T07:52:54.000Z</time>
      </trkpt>
      <trkpt lat="47.40344" lon="-2.16937">
        <ele>1.3999999761581</ele>
        <time>2021-11-14T07:52:57.000Z</time>
      </trkpt>
      <trkpt lat="47.40343" lon="-2.16925">
        <ele>1.3999999761581</ele>
        <time>2021-11-14T07:53:00.000Z</time>
      </trkpt>
      <trkpt lat="47.40343" lon="-2.16911">
        <ele>1.3999999761581</ele>
        <time>2021-11-14T07:53:03.000Z</time>
      </trkpt>
      <trkpt lat="47.40336" lon="-2.1691">
        <ele>1.3999999761581</ele>
        <time>2021-11-14T07:53:05.000Z</time>
      </trkpt>
      <trkpt lat="47.40322" lon="-2.16919">
        <ele>1.3999999761581</ele>
        <time>2021-11-14T07:53:10.000Z</time>
      </trkpt>
      <trkpt lat="47.40322" lon="-2.16938">
        <ele>1.3999999761581</ele>
        <time>2021-11-14T07:53:13.000Z</time>
      </trkpt>
      <trkpt lat="47.40319" lon="-2.16951">
        <ele>1</ele>
        <time>2021-11-14T07:53:16.000Z</time>
      </trkpt>
      <trkpt lat="47.40315" lon="-2.16953">
        <ele>0.60000002384186</ele>
        <time>2021-11-14T07:53:17.000Z</time>
      </trkpt>
      <trkpt lat="47.40311" lon="-2.16954">
        <ele>0.20000000298023</ele>
        <time>2021-11-14T07:53:18.000Z</time>
      </trkpt>
      <trkpt lat="47.40307" lon="-2.16958">
        <ele>-0.20000000298023</ele>
        <time>2021-11-14T07:53:19.000Z</time>
      </trkpt>
      <trkpt lat="47.40304" lon="-2.16963">
        <ele>-0.60000002384186</ele>
        <time>2021-11-14T07:53:20.000Z</time>
      </trkpt>
      <trkpt lat="47.40302" lon="-2.16965">
        <ele>-0.60000002384186</ele>
        <time>2021-11-14T07:53:21.000Z</time>
      </trkpt>
      <trkpt lat="47.40293" lon="-2.16961">
        <ele>-0.60000002384186</ele>
        <time>2021-11-14T07:53:24.000Z</time>
      </trkpt>
      <trkpt lat="47.40281" lon="-2.1697">
        <ele>-0.60000002384186</ele>
        <time>2021-11-14T07:53:28.000Z</time>
      </trkpt>
      <trkpt lat="47.40276" lon="-2.1698">
        <ele>-0.60000002384186</ele>
        <time>2021-11-14T07:53:30.000Z</time>
      </trkpt>
      <trkpt lat="47.40274" lon="-2.1699">
        <ele>-1</ele>
        <time>2021-11-14T07:53:32.000Z</time>
      </trkpt>
      <trkpt lat="47.40273" lon="-2.16993">
        <ele>-1.3999999761581</ele>
        <time>2021-11-14T07:53:33.000Z</time>
      </trkpt>
      <trkpt lat="47.40271" lon="-2.16995">
        <ele>-1.7999999523163</ele>
        <time>2021-11-14T07:53:34.000Z</time>
      </trkpt>
      <trkpt lat="47.4027" lon="-2.16994">
        <ele>-2.5999999046326</ele>
        <time>2021-11-14T07:53:35.000Z</time>
      </trkpt>
      <trkpt lat="47.40268" lon="-2.16993">
        <ele>-2.5999999046326</ele>
        <time>2021-11-14T07:53:36.000Z</time>
      </trkpt>
      <trkpt lat="47.40261" lon="-2.16989">
        <ele>-2.5999999046326</ele>
        <time>2021-11-14T07:53:39.000Z</time>
      </trkpt>
      <trkpt lat="47.40265" lon="-2.1698">
        <ele>-2.5999999046326</ele>
        <time>2021-11-14T07:53:42.000Z</time>
      </trkpt>
      <trkpt lat="47.40273" lon="-2.16971">
        <ele>-2.5999999046326</ele>
        <time>2021-11-14T07:53:46.000Z</time>
      </trkpt>
      <trkpt lat="47.40272" lon="-2.1696">
        <ele>-2.5999999046326</ele>
        <time>2021-11-14T07:53:50.000Z</time>
      </trkpt>
      <trkpt lat="47.40266" lon="-2.16938">
        <ele>-2.5999999046326</ele>
        <time>2021-11-14T07:53:54.000Z</time>
      </trkpt>
      <trkpt lat="47.40263" lon="-2.16925">
        <ele>-2.5999999046326</ele>
        <time>2021-11-14T07:53:58.000Z</time>
      </trkpt>
      <trkpt lat="47.40264" lon="-2.16922">
        <ele>-2.5999999046326</ele>
        <time>2021-11-14T07:53:59.000Z</time>
      </trkpt>
      <trkpt lat="47.40269" lon="-2.16919">
        <ele>-2.5999999046326</ele>
        <time>2021-11-14T07:54:01.000Z</time>
      </trkpt>
      <trkpt lat="47.40271" lon="-2.1692">
        <ele>-2.5999999046326</ele>
        <time>2021-11-14T07:54:02.000Z</time>
      </trkpt>
      <trkpt lat="47.40279" lon="-2.16917">
        <ele>-2.5999999046326</ele>
        <time>2021-11-14T07:54:06.000Z</time>
      </trkpt>
      <trkpt lat="47.40286" lon="-2.16927">
        <ele>-2.5999999046326</ele>
        <time>2021-11-14T07:54:10.000Z</time>
      </trkpt>
      <trkpt lat="47.40286" lon="-2.16929">
        <ele>-2.5999999046326</ele>
        <time>2021-11-14T07:54:11.000Z</time>
      </trkpt>
      <trkpt lat="47.40285" lon="-2.16931">
        <ele>-2.5999999046326</ele>
        <time>2021-11-14T07:54:12.000Z</time>
      </trkpt>
      <trkpt lat="47.40284" lon="-2.16934">
        <ele>-2.5999999046326</ele>
        <time>2021-11-14T07:54:14.000Z</time>
      </trkpt>
      <trkpt lat="47.40286" lon="-2.16939">
        <ele>-2.5999999046326</ele>
        <time>2021-11-14T07:54:17.000Z</time>
      </trkpt>
      <trkpt lat="47.40291" lon="-2.16943">
        <ele>-2.5999999046326</ele>
        <time>2021-11-14T07:54:19.000Z</time>
      </trkpt>
      <trkpt lat="47.403" lon="-2.16948">
        <ele>-2.5999999046326</ele>
        <time>2021-11-14T07:54:22.000Z</time>
      </trkpt>
      <trkpt lat="47.40303" lon="-2.16944">
        <ele>-2.5999999046326</ele>
        <time>2021-11-14T07:54:23.000Z</time>
      </trkpt>
      <trkpt lat="47.40305" lon="-2.16933">
        <ele>-2.5999999046326</ele>
        <time>2021-11-14T07:54:26.000Z</time>
      </trkpt>
      <trkpt lat="47.40308" lon="-2.1693">
        <ele>-2.2000000476837</ele>
        <time>2021-11-14T07:54:27.000Z</time>
      </trkpt>
      <trkpt lat="47.40311" lon="-2.16929">
        <ele>-1.7999999523163</ele>
        <time>2021-11-14T07:54:28.000Z</time>
      </trkpt>
      <trkpt lat="47.40314" lon="-2.16927">
        <ele>-1.3999999761581</ele>
        <time>2021-11-14T07:54:29.000Z</time>
      </trkpt>
      <trkpt lat="47.40315" lon="-2.16925">
        <ele>-1</ele>
        <time>2021-11-14T07:54:30.000Z</time>
      </trkpt>
      <trkpt lat="47.40314" lon="-2.16925">
        <ele>-0.60000002384186</ele>
        <time>2021-11-14T07:54:31.000Z</time>
      </trkpt>
      <trkpt lat="47.40314" lon="-2.16925">
        <ele>-0.60000002384186</ele>
        <time>2021-11-14T07:54:32.000Z</time>
      </trkpt>
      <trkpt lat="47.40313" lon="-2.16926">
        <ele>-0.60000002384186</ele>
        <time>2021-11-14T07:54:33.000Z</time>
      </trkpt>
      <trkpt lat="47.40309" lon="-2.16923">
        <ele>-0.60000002384186</ele>
        <time>2021-11-14T07:54:36.000Z</time>
      </trkpt>
      <trkpt lat="47.40295" lon="-2.16913">
        <ele>-0.60000002384186</ele>
        <time>2021-11-14T07:54:40.000Z</time>
      </trkpt>
      <trkpt lat="47.40279" lon="-2.16915">
        <ele>-0.60000002384186</ele>
        <time>2021-11-14T07:54:45.000Z</time>
      </trkpt>
      <trkpt lat="47.40267" lon="-2.16911">
        <ele>-0.60000002384186</ele>
        <time>2021-11-14T07:54:49.000Z</time>
      </trkpt>
      <trkpt lat="47.4026" lon="-2.16905">
        <ele>-1</ele>
        <time>2021-11-14T07:54:53.000Z</time>
      </trkpt>
      <trkpt lat="47.4026" lon="-2.16903">
        <ele>-1.3999999761581</ele>
        <time>2021-11-14T07:54:54.000Z</time>
      </trkpt>
      <trkpt lat="47.40261" lon="-2.169">
        <ele>-1.7999999523163</ele>
        <time>2021-11-14T07:54:55.000Z</time>
      </trkpt>
      <trkpt lat="47.40262" lon="-2.16899">
        <ele>-2.4000000953674</ele>
        <time>2021-11-14T07:54:56.000Z</time>
      </trkpt>
      <trkpt lat="47.40264" lon="-2.16899">
        <ele>-2.7999999523163</ele>
        <time>2021-11-14T07:54:57.000Z</time>
      </trkpt>
      <trkpt lat="47.40265" lon="-2.16898">
        <ele>-2.7999999523163</ele>
        <time>2021-11-14T07:54:59.000Z</time>
      </trkpt>
      <trkpt lat="47.40267" lon="-2.16899">
        <ele>-2.7999999523163</ele>
        <time>2021-11-14T07:55:00.000Z</time>
      </trkpt>
      <trkpt lat="47.40275" lon="-2.169">
        <ele>-2.7999999523163</ele>
        <time>2021-11-14T07:55:03.000Z</time>
      </trkpt>
      <trkpt lat="47.40276" lon="-2.16891">
        <ele>-2.7999999523163</ele>
        <time>2021-11-14T07:55:06.000Z</time>
      </trkpt>
      <trkpt lat="47.40268" lon="-2.16888">
        <ele>-2.7999999523163</ele>
        <time>2021-11-14T07:55:10.000Z</time>
      </trkpt>
      <trkpt lat="47.4027" lon="-2.16883">
        <ele>-2.7999999523163</ele>
        <time>2021-11-14T07:55:13.000Z</time>
      </trkpt>
      <trkpt lat="47.40278" lon="-2.16877">
        <ele>-2.7999999523163</ele>
        <time>2021-11-14T07:55:18.000Z</time>
      </trkpt>
      <trkpt lat="47.40279" lon="-2.16876">
        <ele>-2.7999999523163</ele>
        <time>2021-11-14T07:55:20.000Z</time>
      </trkpt>
      <trkpt lat="47.40284" lon="-2.16873">
        <ele>-2.7999999523163</ele>
        <time>2021-11-14T07:55:36.000Z</time>
      </trkpt>
      <trkpt lat="47.40285" lon="-2.1687">
        <ele>-2.7999999523163</ele>
        <time>2021-11-14T07:55:37.000Z</time>
      </trkpt>
      <trkpt lat="47.40288" lon="-2.16854">
        <ele>-2.7999999523163</ele>
        <time>2021-11-14T07:55:42.000Z</time>
      </trkpt>
      <trkpt lat="47.40284" lon="-2.16851">
        <ele>-2.7999999523163</ele>
        <time>2021-11-14T07:55:45.000Z</time>
      </trkpt>
      <trkpt lat="47.40283" lon="-2.16853">
        <ele>-2.7999999523163</ele>
        <time>2021-11-14T07:55:46.000Z</time>
      </trkpt>
      <trkpt lat="47.40278" lon="-2.16866">
        <ele>-2.7999999523163</ele>
        <time>2021-11-14T07:55:50.000Z</time>
      </trkpt>
      <trkpt lat="47.4027" lon="-2.16862">
        <ele>-2.7999999523163</ele>
        <time>2021-11-14T07:55:53.000Z</time>
      </trkpt>
      <trkpt lat="47.40273" lon="-2.16853">
        <ele>-2.7999999523163</ele>
        <time>2021-11-14T07:55:56.000Z</time>
      </trkpt>
      <trkpt lat="47.40274" lon="-2.1685">
        <ele>-2.7999999523163</ele>
        <time>2021-11-14T07:55:57.000Z</time>
      </trkpt>
      <trkpt lat="47.40277" lon="-2.16844">
        <ele>-2.7999999523163</ele>
        <time>2021-11-14T07:56:00.000Z</time>
      </trkpt>
      <trkpt lat="47.40272" lon="-2.16843">
        <ele>-2.7999999523163</ele>
        <time>2021-11-14T07:56:01.000Z</time>
      </trkpt>
      <trkpt lat="47.40252" lon="-2.1683">
        <ele>-2.7999999523163</ele>
        <time>2021-11-14T07:56:05.000Z</time>
      </trkpt>
      <trkpt lat="47.40252" lon="-2.16827">
        <ele>-2.7999999523163</ele>
        <time>2021-11-14T07:56:06.000Z</time>
      </trkpt>
      <trkpt lat="47.40252" lon="-2.16824">
        <ele>-2.7999999523163</ele>
        <time>2021-11-14T07:56:08.000Z</time>
      </trkpt>
      <trkpt lat="47.40253" lon="-2.16825">
        <ele>-2.7999999523163</ele>
        <time>2021-11-14T07:56:09.000Z</time>
      </trkpt>
      <trkpt lat="47.40258" lon="-2.16829">
        <ele>-2.7999999523163</ele>
        <time>2021-11-14T07:56:12.000Z</time>
      </trkpt>
      <trkpt lat="47.40269" lon="-2.16832">
        <ele>-2.7999999523163</ele>
        <time>2021-11-14T07:56:15.000Z</time>
      </trkpt>
      <trkpt lat="47.40281" lon="-2.16831">
        <ele>-2.7999999523163</ele>
        <time>2021-11-14T07:56:19.000Z</time>
      </trkpt>
      <trkpt lat="47.40285" lon="-2.16835">
        <ele>-2.4000000953674</ele>
        <time>2021-11-14T07:56:21.000Z</time>
      </trkpt>
      <trkpt lat="47.40287" lon="-2.16836">
        <ele>-2</ele>
        <time>2021-11-14T07:56:22.000Z</time>
      </trkpt>
      <trkpt lat="47.4029" lon="-2.16837">
        <ele>-1.6000000238419</ele>
        <time>2021-11-14T07:56:23.000Z</time>
      </trkpt>
      <trkpt lat="47.40291" lon="-2.16838">
        <ele>-1.2000000476837</ele>
        <time>2021-11-14T07:56:24.000Z</time>
      </trkpt>
      <trkpt lat="47.40292" lon="-2.16838">
        <ele>-0.80000001192093</ele>
        <time>2021-11-14T07:56:25.000Z</time>
      </trkpt>
      <trkpt lat="47.40292" lon="-2.16837">
        <ele>-0.80000001192093</ele>
        <time>2021-11-14T07:56:26.000Z</time>
      </trkpt>
      <trkpt lat="47.40288" lon="-2.1683">
        <ele>-0.80000001192093</ele>
        <time>2021-11-14T07:56:28.000Z</time>
      </trkpt>
      <trkpt lat="47.4028" lon="-2.16809">
        <ele>-0.80000001192093</ele>
        <time>2021-11-14T07:56:33.000Z</time>
      </trkpt>
      <trkpt lat="47.40281" lon="-2.16805">
        <ele>-0.80000001192093</ele>
        <time>2021-11-14T07:56:34.000Z</time>
      </trkpt>
      <trkpt lat="47.40284" lon="-2.16805">
        <ele>-0.80000001192093</ele>
        <time>2021-11-14T07:56:35.000Z</time>
      </trkpt>
      <trkpt lat="47.40287" lon="-2.16806">
        <ele>-0.80000001192093</ele>
        <time>2021-11-14T07:56:36.000Z</time>
      </trkpt>
      <trkpt lat="47.40309" lon="-2.16826">
        <ele>-0.80000001192093</ele>
        <time>2021-11-14T07:56:44.000Z</time>
      </trkpt>
      <trkpt lat="47.4032" lon="-2.16855">
        <ele>-0.40000000596046</ele>
        <time>2021-11-14T07:56:50.000Z</time>
      </trkpt>
      <trkpt lat="47.40322" lon="-2.16858">
        <ele>0.20000000298023</ele>
        <time>2021-11-14T07:56:51.000Z</time>
      </trkpt>
      <trkpt lat="47.40324" lon="-2.16859">
        <ele>0.60000002384186</ele>
        <time>2021-11-14T07:56:52.000Z</time>
      </trkpt>
      <trkpt lat="47.40327" lon="-2.1686">
        <ele>1.3999999761581</ele>
        <time>2021-11-14T07:56:53.000Z</time>
      </trkpt>
      <trkpt lat="47.40333" lon="-2.1686">
        <ele>1.3999999761581</ele>
        <time>2021-11-14T07:56:55.000Z</time>
      </trkpt>
      <trkpt lat="47.40339" lon="-2.1685">
        <ele>1.3999999761581</ele>
        <time>2021-11-14T07:56:59.000Z</time>
      </trkpt>
      <trkpt lat="47.40336" lon="-2.16839">
        <ele>1.3999999761581</ele>
        <time>2021-11-14T07:57:01.000Z</time>
      </trkpt>
      <trkpt lat="47.40335" lon="-2.16835">
        <ele>1.3999999761581</ele>
        <time>2021-11-14T07:57:02.000Z</time>
      </trkpt>
      <trkpt lat="47.40333" lon="-2.16825">
        <ele>1.3999999761581</ele>
        <time>2021-11-14T07:57:05.000Z</time>
      </trkpt>
      <trkpt lat="47.4033" lon="-2.16823">
        <ele>1.3999999761581</ele>
        <time>2021-11-14T07:57:06.000Z</time>
      </trkpt>
      <trkpt lat="47.40321" lon="-2.16824">
        <ele>1.3999999761581</ele>
        <time>2021-11-14T07:57:10.000Z</time>
      </trkpt>
      <trkpt lat="47.40319" lon="-2.16825">
        <ele>1.3999999761581</ele>
        <time>2021-11-14T07:57:11.000Z</time>
      </trkpt>
      <trkpt lat="47.40316" lon="-2.16825">
        <ele>1.3999999761581</ele>
        <time>2021-11-14T07:57:13.000Z</time>
      </trkpt>
      <trkpt lat="47.40314" lon="-2.16822">
        <ele>1.3999999761581</ele>
        <time>2021-11-14T07:57:15.000Z</time>
      </trkpt>
      <trkpt lat="47.40318" lon="-2.16812">
        <ele>1.3999999761581</ele>
        <time>2021-11-14T07:57:19.000Z</time>
      </trkpt>
      <trkpt lat="47.4031" lon="-2.1681">
        <ele>1.3999999761581</ele>
        <time>2021-11-14T07:57:22.000Z</time>
      </trkpt>
      <trkpt lat="47.40302" lon="-2.16798">
        <ele>1.3999999761581</ele>
        <time>2021-11-14T07:57:26.000Z</time>
      </trkpt>
      <trkpt lat="47.40286" lon="-2.16786">
        <ele>1.3999999761581</ele>
        <time>2021-11-14T07:57:30.000Z</time>
      </trkpt>
      <trkpt lat="47.40281" lon="-2.16784">
        <ele>0.80000001192093</ele>
        <time>2021-11-14T07:57:31.000Z</time>
      </trkpt>
      <trkpt lat="47.40277" lon="-2.16784">
        <ele>0.40000000596046</ele>
        <time>2021-11-14T07:57:32.000Z</time>
      </trkpt>
      <trkpt lat="47.40273" lon="-2.16785">
        <ele>4.4</ele>
        <time>2021-11-14T07:57:33.000Z</time>
      </trkpt>
      <trkpt lat="47.40271" lon="-2.16787">
        <ele>-0.40000000596046</ele>
        <time>2021-11-14T07:57:34.000Z</time>
      </trkpt>
      <trkpt lat="47.40268" lon="-2.1679">
        <ele>-0.80000001192093</ele>
        <time>2021-11-14T07:57:35.000Z</time>
      </trkpt>
      <trkpt lat="47.40266" lon="-2.16792">
        <ele>-0.80000001192093</ele>
        <time>2021-11-14T07:57:36.000Z</time>
      </trkpt>
      <trkpt lat="47.40262" lon="-2.16798">
        <ele>-0.80000001192093</ele>
        <time>2021-11-14T07:57:38.000Z</time>
      </trkpt>
      <trkpt lat="47.40264" lon="-2.16801">
        <ele>-0.80000001192093</ele>
        <time>2021-11-14T07:57:39.000Z</time>
      </trkpt>
      <trkpt lat="47.40264" lon="-2.16811">
        <ele>-0.80000001192093</ele>
        <time>2021-11-14T07:57:42.000Z</time>
      </trkpt>
      <trkpt lat="47.40263" lon="-2.16812">
        <ele>-0.80000001192093</ele>
        <time>2021-11-14T07:57:43.000Z</time>
      </trkpt>
      <trkpt lat="47.4026" lon="-2.1681">
        <ele>-0.80000001192093</ele>
        <time>2021-11-14T07:57:44.000Z</time>
      </trkpt>
      <trkpt lat="47.40256" lon="-2.16801">
        <ele>-0.80000001192093</ele>
        <time>2021-11-14T07:57:47.000Z</time>
      </trkpt>
      <trkpt lat="47.40262" lon="-2.16793">
        <ele>-0.80000001192093</ele>
        <time>2021-11-14T07:57:50.000Z</time>
      </trkpt>
      <trkpt lat="47.40267" lon="-2.16783">
        <ele>-0.80000001192093</ele>
        <time>2021-11-14T07:57:54.000Z</time>
      </trkpt>
      <trkpt lat="47.40273" lon="-2.16781">
        <ele>-0.80000001192093</ele>
        <time>2021-11-14T07:57:57.000Z</time>
      </trkpt>
      <trkpt lat="47.40276" lon="-2.16776">
        <ele>-0.80000001192093</ele>
        <time>2021-11-14T07:57:59.000Z</time>
      </trkpt>
      <trkpt lat="47.40276" lon="-2.16772">
        <ele>-0.80000001192093</ele>
        <time>2021-11-14T07:58:00.000Z</time>
      </trkpt>
      <trkpt lat="47.4027" lon="-2.16755">
        <ele>-0.80000001192093</ele>
        <time>2021-11-14T07:58:05.000Z</time>
      </trkpt>
      <trkpt lat="47.40268" lon="-2.16747">
        <ele>-0.80000001192093</ele>
        <time>2021-11-14T07:58:07.000Z</time>
      </trkpt>
      <trkpt lat="47.40271" lon="-2.1674">
        <ele>-0.80000001192093</ele>
        <time>2021-11-14T07:58:09.000Z</time>
      </trkpt>
      <trkpt lat="47.4027" lon="-2.16728">
        <ele>-0.80000001192093</ele>
        <time>2021-11-14T07:58:12.000Z</time>
      </trkpt>
      <trkpt lat="47.40268" lon="-2.16725">
        <ele>-0.80000001192093</ele>
        <time>2021-11-14T07:58:13.000Z</time>
      </trkpt>
      <trkpt lat="47.40251" lon="-2.1672">
        <ele>-0.80000001192093</ele>
        <time>2021-11-14T07:58:17.000Z</time>
      </trkpt>
      <trkpt lat="47.40234" lon="-2.16706">
        <ele>-0.80000001192093</ele>
        <time>2021-11-14T07:58:23.000Z</time>
      </trkpt>
      <trkpt lat="47.40229" lon="-2.16701">
        <ele>-0.80000001192093</ele>
        <time>2021-11-14T07:58:25.000Z</time>
      </trkpt>
      <trkpt lat="47.40222" lon="-2.16701">
        <ele>-0.80000001192093</ele>
        <time>2021-11-14T07:58:27.000Z</time>
      </trkpt>
      <trkpt lat="47.40218" lon="-2.16689">
        <ele>-0.80000001192093</ele>
        <time>2021-11-14T07:58:30.000Z</time>
      </trkpt>
      <trkpt lat="47.40216" lon="-2.16684">
        <ele>-0.80000001192093</ele>
        <time>2021-11-14T07:58:31.000Z</time>
      </trkpt>
      <trkpt lat="47.4022" lon="-2.16661">
        <ele>-0.80000001192093</ele>
        <time>2021-11-14T07:58:35.000Z</time>
      </trkpt>
      <trkpt lat="47.40221" lon="-2.1665">
        <ele>-1.3999999761581</ele>
        <time>2021-11-14T07:58:38.000Z</time>
      </trkpt>
      <trkpt lat="47.40219" lon="-2.16648">
        <ele>-1.7999999523163</ele>
        <time>2021-11-14T07:58:39.000Z</time>
      </trkpt>
      <trkpt lat="47.40215" lon="-2.16647">
        <ele>-2.2000000476837</ele>
        <time>2021-11-14T07:58:40.000Z</time>
      </trkpt>
      <trkpt lat="47.40211" lon="-2.16648">
        <ele>-2.5999999046326</ele>
        <time>2021-11-14T07:58:41.000Z</time>
      </trkpt>
      <trkpt lat="47.40207" lon="-2.16649">
        <ele>-3</ele>
        <time>2021-11-14T07:58:42.000Z</time>
      </trkpt>
      <trkpt lat="47.402" lon="-2.16664">
        <ele>-3</ele>
        <time>2021-11-14T07:58:45.000Z</time>
      </trkpt>
      <trkpt lat="47.40197" lon="-2.16675">
        <ele>-3</ele>
        <time>2021-11-14T07:58:47.000Z</time>
      </trkpt>
      <trkpt lat="47.40194" lon="-2.16679">
        <ele>-3</ele>
        <time>2021-11-14T07:58:49.000Z</time>
      </trkpt>
      <trkpt lat="47.40191" lon="-2.1668">
        <ele>-3</ele>
        <time>2021-11-14T07:58:51.000Z</time>
      </trkpt>
      <trkpt lat="47.40189" lon="-2.16679">
        <ele>-3</ele>
        <time>2021-11-14T07:58:53.000Z</time>
      </trkpt>
      <trkpt lat="47.40188" lon="-2.16677">
        <ele>-3</ele>
        <time>2021-11-14T07:58:55.000Z</time>
      </trkpt>
      <trkpt lat="47.40188" lon="-2.16676">
        <ele>-3</ele>
        <time>2021-11-14T07:58:57.000Z</time>
      </trkpt>
      <trkpt lat="47.40173" lon="-2.16672">
        <ele>-3</ele>
        <time>2021-11-14T08:00:12.000Z</time>
      </trkpt>
      <trkpt lat="47.4017" lon="-2.1667">
        <ele>-3</ele>
        <time>2021-11-14T08:00:15.000Z</time>
      </trkpt>
      <trkpt lat="47.40168" lon="-2.16671">
        <ele>-3</ele>
        <time>2021-11-14T08:00:17.000Z</time>
      </trkpt>
      <trkpt lat="47.40165" lon="-2.16671">
        <ele>-3</ele>
        <time>2021-11-14T08:00:20.000Z</time>
      </trkpt>
      <trkpt lat="47.40164" lon="-2.16671">
        <ele>-3</ele>
        <time>2021-11-14T08:00:28.000Z</time>
      </trkpt>
      <trkpt lat="47.40162" lon="-2.16672">
        <ele>-3</ele>
        <time>2021-11-14T08:00:30.000Z</time>
      </trkpt>
      <trkpt lat="47.40154" lon="-2.16671">
        <ele>-3</ele>
        <time>2021-11-14T08:00:37.000Z</time>
      </trkpt>
      <trkpt lat="47.40146" lon="-2.16671">
        <ele>-3</ele>
        <time>2021-11-14T08:00:43.000Z</time>
      </trkpt>
      <trkpt lat="47.40131" lon="-2.16668">
        <ele>-3</ele>
        <time>2021-11-14T08:00:49.000Z</time>
      </trkpt>
      <trkpt lat="47.40117" lon="-2.16666">
        <ele>-3</ele>
        <time>2021-11-14T08:00:55.000Z</time>
      </trkpt>
      <trkpt lat="47.40098" lon="-2.16662">
        <ele>-3</ele>
        <time>2021-11-14T08:00:59.000Z</time>
      </trkpt>
      <trkpt lat="47.40065" lon="-2.16656">
        <ele>-3</ele>
        <time>2021-11-14T08:01:06.000Z</time>
      </trkpt>
      <trkpt lat="47.40061" lon="-2.16654">
        <ele>-3</ele>
        <time>2021-11-14T08:01:07.000Z</time>
      </trkpt>
      <trkpt lat="47.40055" lon="-2.16645">
        <ele>-3</ele>
        <time>2021-11-14T08:01:09.000Z</time>
      </trkpt>
      <trkpt lat="47.40055" lon="-2.16623">
        <ele>-3</ele>
        <time>2021-11-14T08:01:12.000Z</time>
      </trkpt>
      <trkpt lat="47.40058" lon="-2.16574">
        <ele>-3</ele>
        <time>2021-11-14T08:01:18.000Z</time>
      </trkpt>
      <trkpt lat="47.40056" lon="-2.16539">
        <ele>-3</ele>
        <time>2021-11-14T08:01:22.000Z</time>
      </trkpt>
      <trkpt lat="47.40054" lon="-2.1653">
        <ele>-3</ele>
        <time>2021-11-14T08:01:23.000Z</time>
      </trkpt>
      <trkpt lat="47.40043" lon="-2.16503">
        <ele>-3</ele>
        <time>2021-11-14T08:01:27.000Z</time>
      </trkpt>
      <trkpt lat="47.40036" lon="-2.16481">
        <ele>-3</ele>
        <time>2021-11-14T08:01:30.000Z</time>
      </trkpt>
      <trkpt lat="47.40031" lon="-2.16456">
        <ele>-3</ele>
        <time>2021-11-14T08:01:33.000Z</time>
      </trkpt>
      <trkpt lat="47.40029" lon="-2.16448">
        <ele>-3</ele>
        <time>2021-11-14T08:01:34.000Z</time>
      </trkpt>
      <trkpt lat="47.40025" lon="-2.16432">
        <ele>-3</ele>
        <time>2021-11-14T08:01:36.000Z</time>
      </trkpt>
      <trkpt lat="47.40022" lon="-2.16415">
        <ele>-3</ele>
        <time>2021-11-14T08:01:38.000Z</time>
      </trkpt>
      <trkpt lat="47.40015" lon="-2.16391">
        <ele>-3</ele>
        <time>2021-11-14T08:01:41.000Z</time>
      </trkpt>
      <trkpt lat="47.40008" lon="-2.16379">
        <ele>-3</ele>
        <time>2021-11-14T08:01:43.000Z</time>
      </trkpt>
      <trkpt lat="47.39994" lon="-2.16376">
        <ele>-3</ele>
        <time>2021-11-14T08:01:46.000Z</time>
      </trkpt>
      <trkpt lat="47.3999" lon="-2.16378">
        <ele>-2.5999999046326</ele>
        <time>2021-11-14T08:01:47.000Z</time>
      </trkpt>
      <trkpt lat="47.39986" lon="-2.1638">
        <ele>-2.2000000476837</ele>
        <time>2021-11-14T08:01:48.000Z</time>
      </trkpt>
      <trkpt lat="47.39982" lon="-2.16382">
        <ele>-1.3999999761581</ele>
        <time>2021-11-14T08:01:49.000Z</time>
      </trkpt>
      <trkpt lat="47.39979" lon="-2.16385">
        <ele>-1</ele>
        <time>2021-11-14T08:01:50.000Z</time>
      </trkpt>
      <trkpt lat="47.39971" lon="-2.16388">
        <ele>-1</ele>
        <time>2021-11-14T08:01:52.000Z</time>
      </trkpt>
      <trkpt lat="47.39967" lon="-2.1639">
        <ele>-0.40000000596046</ele>
        <time>2021-11-14T08:01:53.000Z</time>
      </trkpt>
      <trkpt lat="47.39964" lon="-2.1639">
        <ele>5.7</ele>
        <time>2021-11-14T08:01:54.000Z</time>
      </trkpt>
      <trkpt lat="47.3996" lon="-2.16389">
        <ele>0.40000000596046</ele>
        <time>2021-11-14T08:01:55.000Z</time>
      </trkpt>
      <trkpt lat="47.39958" lon="-2.16386">
        <ele>0.80000001192093</ele>
        <time>2021-11-14T08:01:56.000Z</time>
      </trkpt>
      <trkpt lat="47.39955" lon="-2.16382">
        <ele>1.2000000476837</ele>
        <time>2021-11-14T08:01:57.000Z</time>
      </trkpt>
      <trkpt lat="47.39945" lon="-2.16359">
        <ele>1.2000000476837</ele>
        <time>2021-11-14T08:02:01.000Z</time>
      </trkpt>
      <trkpt lat="47.39943" lon="-2.16353">
        <ele>1.2000000476837</ele>
        <time>2021-11-14T08:02:02.000Z</time>
      </trkpt>
      <trkpt lat="47.39939" lon="-2.16337">
        <ele>1.2000000476837</ele>
        <time>2021-11-14T08:02:04.000Z</time>
      </trkpt>
      <trkpt lat="47.39936" lon="-2.16319">
        <ele>1.2000000476837</ele>
        <time>2021-11-14T08:02:06.000Z</time>
      </trkpt>
      <trkpt lat="47.39929" lon="-2.16253">
        <ele>1.2000000476837</ele>
        <time>2021-11-14T08:02:13.000Z</time>
      </trkpt>
      <trkpt lat="47.39925" lon="-2.16221">
        <ele>1.2000000476837</ele>
        <time>2021-11-14T08:02:17.000Z</time>
      </trkpt>
      <trkpt lat="47.39922" lon="-2.16215">
        <ele>1.2000000476837</ele>
        <time>2021-11-14T08:02:18.000Z</time>
      </trkpt>
      <trkpt lat="47.39908" lon="-2.16215">
        <ele>1.2000000476837</ele>
        <time>2021-11-14T08:02:21.000Z</time>
      </trkpt>
      <trkpt lat="47.39899" lon="-2.16223">
        <ele>1.2000000476837</ele>
        <time>2021-11-14T08:02:23.000Z</time>
      </trkpt>
      <trkpt lat="47.39878" lon="-2.1624">
        <ele>1.2000000476837</ele>
        <time>2021-11-14T08:02:27.000Z</time>
      </trkpt>
      <trkpt lat="47.39845" lon="-2.16252">
        <ele>1.2000000476837</ele>
        <time>2021-11-14T08:02:33.000Z</time>
      </trkpt>
      <trkpt lat="47.39798" lon="-2.16261">
        <ele>1.2000000476837</ele>
        <time>2021-11-14T08:02:41.000Z</time>
      </trkpt>
      <trkpt lat="47.39746" lon="-2.16285">
        <ele>1.2000000476837</ele>
        <time>2021-11-14T08:02:50.000Z</time>
      </trkpt>
      <trkpt lat="47.39741" lon="-2.16289">
        <ele>1.2000000476837</ele>
        <time>2021-11-14T08:02:51.000Z</time>
      </trkpt>
      <trkpt lat="47.39728" lon="-2.16302">
        <ele>1.2000000476837</ele>
        <time>2021-11-14T08:02:54.000Z</time>
      </trkpt>
      <trkpt lat="47.39725" lon="-2.16303">
        <ele>0.80000001192093</ele>
        <time>2021-11-14T08:02:55.000Z</time>
      </trkpt>
      <trkpt lat="47.39722" lon="-2.16301">
        <ele>0.40000000596046</ele>
        <time>2021-11-14T08:02:56.000Z</time>
      </trkpt>
      <trkpt lat="47.39719" lon="-2.16296">
        <ele>2.5</ele>
        <time>2021-11-14T08:02:57.000Z</time>
      </trkpt>
      <trkpt lat="47.39718" lon="-2.1629">
        <ele>-0.40000000596046</ele>
        <time>2021-11-14T08:02:58.000Z</time>
      </trkpt>
      <trkpt lat="47.39717" lon="-2.16283">
        <ele>-0.80000001192093</ele>
        <time>2021-11-14T08:02:59.000Z</time>
      </trkpt>
      <trkpt lat="47.39717" lon="-2.16267">
        <ele>-0.80000001192093</ele>
        <time>2021-11-14T08:03:01.000Z</time>
      </trkpt>
      <trkpt lat="47.39714" lon="-2.16214">
        <ele>-0.80000001192093</ele>
        <time>2021-11-14T08:03:07.000Z</time>
      </trkpt>
      <trkpt lat="47.39709" lon="-2.16141">
        <ele>-0.80000001192093</ele>
        <time>2021-11-14T08:03:15.000Z</time>
      </trkpt>
      <trkpt lat="47.39706" lon="-2.16088">
        <ele>-0.80000001192093</ele>
        <time>2021-11-14T08:03:21.000Z</time>
      </trkpt>
      <trkpt lat="47.39703" lon="-2.16028">
        <ele>-0.80000001192093</ele>
        <time>2021-11-14T08:03:28.000Z</time>
      </trkpt>
      <trkpt lat="47.39698" lon="-2.15971">
        <ele>-0.80000001192093</ele>
        <time>2021-11-14T08:03:35.000Z</time>
      </trkpt>
      <trkpt lat="47.39692" lon="-2.15911">
        <ele>-0.80000001192093</ele>
        <time>2021-11-14T08:03:42.000Z</time>
      </trkpt>
      <trkpt lat="47.39686" lon="-2.15851">
        <ele>-0.80000001192093</ele>
        <time>2021-11-14T08:03:49.000Z</time>
      </trkpt>
      <trkpt lat="47.3968" lon="-2.15793">
        <ele>-0.80000001192093</ele>
        <time>2021-11-14T08:03:56.000Z</time>
      </trkpt>
      <trkpt lat="47.39677" lon="-2.15766">
        <ele>-0.80000001192093</ele>
        <time>2021-11-14T08:04:00.000Z</time>
      </trkpt>
      <trkpt lat="47.39674" lon="-2.15762">
        <ele>-0.80000001192093</ele>
        <time>2021-11-14T08:04:01.000Z</time>
      </trkpt>
      <trkpt lat="47.39664" lon="-2.15764">
        <ele>-0.80000001192093</ele>
        <time>2021-11-14T08:04:04.000Z</time>
      </trkpt>
      <trkpt lat="47.39658" lon="-2.15773">
        <ele>-0.80000001192093</ele>
        <time>2021-11-14T08:04:06.000Z</time>
      </trkpt>
      <trkpt lat="47.39652" lon="-2.15778">
        <ele>-0.80000001192093</ele>
        <time>2021-11-14T08:04:08.000Z</time>
      </trkpt>
      <trkpt lat="47.39645" lon="-2.1577">
        <ele>-0.80000001192093</ele>
        <time>2021-11-14T08:04:11.000Z</time>
      </trkpt>
      <trkpt lat="47.39644" lon="-2.15759">
        <ele>-0.80000001192093</ele>
        <time>2021-11-14T08:04:13.000Z</time>
      </trkpt>
      <trkpt lat="47.39644" lon="-2.15746">
        <ele>-0.80000001192093</ele>
        <time>2021-11-14T08:04:15.000Z</time>
      </trkpt>
      <trkpt lat="47.39645" lon="-2.15739">
        <ele>-0.80000001192093</ele>
        <time>2021-11-14T08:04:16.000Z</time>
      </trkpt>
      <trkpt lat="47.3965" lon="-2.1572">
        <ele>-0.80000001192093</ele>
        <time>2021-11-14T08:04:19.000Z</time>
      </trkpt>
      <trkpt lat="47.39658" lon="-2.15696">
        <ele>-0.80000001192093</ele>
        <time>2021-11-14T08:04:23.000Z</time>
      </trkpt>
      <trkpt lat="47.39659" lon="-2.1569">
        <ele>-0.80000001192093</ele>
        <time>2021-11-14T08:04:24.000Z</time>
      </trkpt>
      <trkpt lat="47.39661" lon="-2.1565">
        <ele>-0.80000001192093</ele>
        <time>2021-11-14T08:04:30.000Z</time>
      </trkpt>
      <trkpt lat="47.3966" lon="-2.15643">
        <ele>-0.80000001192093</ele>
        <time>2021-11-14T08:04:31.000Z</time>
      </trkpt>
      <trkpt lat="47.39654" lon="-2.15624">
        <ele>-0.80000001192093</ele>
        <time>2021-11-14T08:04:34.000Z</time>
      </trkpt>
      <trkpt lat="47.39652" lon="-2.15618">
        <ele>-0.80000001192093</ele>
        <time>2021-11-14T08:04:35.000Z</time>
      </trkpt>
      <trkpt lat="47.3965" lon="-2.15612">
        <ele>-0.80000001192093</ele>
        <time>2021-11-14T08:04:36.000Z</time>
      </trkpt>
      <trkpt lat="47.39641" lon="-2.15585">
        <ele>-0.80000001192093</ele>
        <time>2021-11-14T08:04:40.000Z</time>
      </trkpt>
      <trkpt lat="47.39633" lon="-2.15558">
        <ele>-0.80000001192093</ele>
        <time>2021-11-14T08:04:44.000Z</time>
      </trkpt>
      <trkpt lat="47.3963" lon="-2.15551">
        <ele>-0.80000001192093</ele>
        <time>2021-11-14T08:04:45.000Z</time>
      </trkpt>
      <trkpt lat="47.39616" lon="-2.15507">
        <ele>-0.80000001192093</ele>
        <time>2021-11-14T08:04:51.000Z</time>
      </trkpt>
      <trkpt lat="47.396" lon="-2.15455">
        <ele>-0.80000001192093</ele>
        <time>2021-11-14T08:04:58.000Z</time>
      </trkpt>
      <trkpt lat="47.39598" lon="-2.15448">
        <ele>-0.80000001192093</ele>
        <time>2021-11-14T08:04:59.000Z</time>
      </trkpt>
      <trkpt lat="47.39592" lon="-2.15426">
        <ele>-0.80000001192093</ele>
        <time>2021-11-14T08:05:02.000Z</time>
      </trkpt>
      <trkpt lat="47.39582" lon="-2.15395">
        <ele>-0.80000001192093</ele>
        <time>2021-11-14T08:05:06.000Z</time>
      </trkpt>
      <trkpt lat="47.3956" lon="-2.15333">
        <ele>-0.80000001192093</ele>
        <time>2021-11-14T08:05:14.000Z</time>
      </trkpt>
      <trkpt lat="47.39557" lon="-2.15326">
        <ele>-0.80000001192093</ele>
        <time>2021-11-14T08:05:15.000Z</time>
      </trkpt>
      <trkpt lat="47.39555" lon="-2.15319">
        <ele>-0.80000001192093</ele>
        <time>2021-11-14T08:05:16.000Z</time>
      </trkpt>
      <trkpt lat="47.39546" lon="-2.1529">
        <ele>-0.80000001192093</ele>
        <time>2021-11-14T08:05:20.000Z</time>
      </trkpt>
      <trkpt lat="47.3954" lon="-2.15277">
        <ele>-0.80000001192093</ele>
        <time>2021-11-14T08:05:22.000Z</time>
      </trkpt>
      <trkpt lat="47.39531" lon="-2.15273">
        <ele>-0.80000001192093</ele>
        <time>2021-11-14T08:05:24.000Z</time>
      </trkpt>
      <trkpt lat="47.39516" lon="-2.15283">
        <ele>-0.80000001192093</ele>
        <time>2021-11-14T08:05:27.000Z</time>
      </trkpt>
      <trkpt lat="47.395" lon="-2.15298">
        <ele>-0.80000001192093</ele>
        <time>2021-11-14T08:05:30.000Z</time>
      </trkpt>
      <trkpt lat="47.39482" lon="-2.15309">
        <ele>-0.80000001192093</ele>
        <time>2021-11-14T08:05:33.000Z</time>
      </trkpt>
      <trkpt lat="47.39462" lon="-2.15319">
        <ele>-0.80000001192093</ele>
        <time>2021-11-14T08:05:37.000Z</time>
      </trkpt>
      <trkpt lat="47.39457" lon="-2.1532">
        <ele>-0.80000001192093</ele>
        <time>2021-11-14T08:05:38.000Z</time>
      </trkpt>
      <trkpt lat="47.3942" lon="-2.15328">
        <ele>-0.80000001192093</ele>
        <time>2021-11-14T08:05:45.000Z</time>
      </trkpt>
      <trkpt lat="47.39408" lon="-2.15333">
        <ele>-0.80000001192093</ele>
        <time>2021-11-14T08:05:47.000Z</time>
      </trkpt>
      <trkpt lat="47.39397" lon="-2.15338">
        <ele>-0.80000001192093</ele>
        <time>2021-11-14T08:05:49.000Z</time>
      </trkpt>
      <trkpt lat="47.39391" lon="-2.15341">
        <ele>-0.80000001192093</ele>
        <time>2021-11-14T08:05:50.000Z</time>
      </trkpt>
      <trkpt lat="47.39347" lon="-2.15362">
        <ele>-0.80000001192093</ele>
        <time>2021-11-14T08:05:57.000Z</time>
      </trkpt>
      <trkpt lat="47.39323" lon="-2.15374">
        <ele>-0.80000001192093</ele>
        <time>2021-11-14T08:06:01.000Z</time>
      </trkpt>
      <trkpt lat="47.39317" lon="-2.15373">
        <ele>-0.80000001192093</ele>
        <time>2021-11-14T08:06:02.000Z</time>
      </trkpt>
      <trkpt lat="47.39297" lon="-2.15359">
        <ele>-0.80000001192093</ele>
        <time>2021-11-14T08:06:06.000Z</time>
      </trkpt>
      <trkpt lat="47.39266" lon="-2.15332">
        <ele>-0.80000001192093</ele>
        <time>2021-11-14T08:06:12.000Z</time>
      </trkpt>
      <trkpt lat="47.39233" lon="-2.15303">
        <ele>-0.80000001192093</ele>
        <time>2021-11-14T08:06:19.000Z</time>
      </trkpt>
      <trkpt lat="47.39222" lon="-2.15295">
        <ele>-0.80000001192093</ele>
        <time>2021-11-14T08:06:23.000Z</time>
      </trkpt>
      <trkpt lat="47.39215" lon="-2.15298">
        <ele>-0.80000001192093</ele>
        <time>2021-11-14T08:06:25.000Z</time>
      </trkpt>
      <trkpt lat="47.39212" lon="-2.15302">
        <ele>-0.80000001192093</ele>
        <time>2021-11-14T08:06:26.000Z</time>
      </trkpt>
      <trkpt lat="47.39205" lon="-2.15311">
        <ele>-0.80000001192093</ele>
        <time>2021-11-14T08:06:28.000Z</time>
      </trkpt>
      <trkpt lat="47.39191" lon="-2.15321">
        <ele>-0.80000001192093</ele>
        <time>2021-11-14T08:06:31.000Z</time>
      </trkpt>
      <trkpt lat="47.39176" lon="-2.15328">
        <ele>-0.80000001192093</ele>
        <time>2021-11-14T08:06:34.000Z</time>
      </trkpt>
      <trkpt lat="47.39167" lon="-2.15327">
        <ele>-0.80000001192093</ele>
        <time>2021-11-14T08:06:36.000Z</time>
      </trkpt>
      <trkpt lat="47.39151" lon="-2.15308">
        <ele>-0.80000001192093</ele>
        <time>2021-11-14T08:06:40.000Z</time>
      </trkpt>
      <trkpt lat="47.39145" lon="-2.15277">
        <ele>-0.80000001192093</ele>
        <time>2021-11-14T08:06:44.000Z</time>
      </trkpt>
      <trkpt lat="47.39148" lon="-2.15253">
        <ele>-0.80000001192093</ele>
        <time>2021-11-14T08:06:47.000Z</time>
      </trkpt>
      <trkpt lat="47.39149" lon="-2.15244">
        <ele>-0.80000001192093</ele>
        <time>2021-11-14T08:06:48.000Z</time>
      </trkpt>
      <trkpt lat="47.39152" lon="-2.15228">
        <ele>-0.80000001192093</ele>
        <time>2021-11-14T08:06:50.000Z</time>
      </trkpt>
      <trkpt lat="47.39157" lon="-2.15213">
        <ele>-0.80000001192093</ele>
        <time>2021-11-14T08:06:52.000Z</time>
      </trkpt>
      <trkpt lat="47.3916" lon="-2.15208">
        <ele>-0.80000001192093</ele>
        <time>2021-11-14T08:06:53.000Z</time>
      </trkpt>
      <trkpt lat="47.39176" lon="-2.15195">
        <ele>-0.80000001192093</ele>
        <time>2021-11-14T08:06:57.000Z</time>
      </trkpt>
      <trkpt lat="47.39188" lon="-2.15199">
        <ele>-0.80000001192093</ele>
        <time>2021-11-14T08:06:59.000Z</time>
      </trkpt>
      <trkpt lat="47.39194" lon="-2.15201">
        <ele>-0.80000001192093</ele>
        <time>2021-11-14T08:07:00.000Z</time>
      </trkpt>
      <trkpt lat="47.39205" lon="-2.15207">
        <ele>-0.80000001192093</ele>
        <time>2021-11-14T08:07:02.000Z</time>
      </trkpt>
      <trkpt lat="47.39213" lon="-2.15219">
        <ele>-0.80000001192093</ele>
        <time>2021-11-14T08:07:04.000Z</time>
      </trkpt>
      <trkpt lat="47.39219" lon="-2.15233">
        <ele>-0.80000001192093</ele>
        <time>2021-11-14T08:07:06.000Z</time>
      </trkpt>
      <trkpt lat="47.39222" lon="-2.15248">
        <ele>-0.80000001192093</ele>
        <time>2021-11-14T08:07:08.000Z</time>
      </trkpt>
      <trkpt lat="47.39223" lon="-2.15269">
        <ele>-0.80000001192093</ele>
        <time>2021-11-14T08:07:11.000Z</time>
      </trkpt>
      <trkpt lat="47.39223" lon="-2.15276">
        <ele>-0.80000001192093</ele>
        <time>2021-11-14T08:07:12.000Z</time>
      </trkpt>
      <trkpt lat="47.3923" lon="-2.15295">
        <ele>-0.80000001192093</ele>
        <time>2021-11-14T08:07:16.000Z</time>
      </trkpt>
      <trkpt lat="47.39243" lon="-2.15308">
        <ele>-0.80000001192093</ele>
        <time>2021-11-14T08:07:19.000Z</time>
      </trkpt>
      <trkpt lat="47.39262" lon="-2.15325">
        <ele>-1.2000000476837</ele>
        <time>2021-11-14T08:07:23.000Z</time>
      </trkpt>
      <trkpt lat="47.39267" lon="-2.15329">
        <ele>-1.6000000238419</ele>
        <time>2021-11-14T08:07:24.000Z</time>
      </trkpt>
      <trkpt lat="47.39273" lon="-2.15333">
        <ele>-2</ele>
        <time>2021-11-14T08:07:25.000Z</time>
      </trkpt>
      <trkpt lat="47.39278" lon="-2.15336">
        <ele>-2.4000000953674</ele>
        <time>2021-11-14T08:07:26.000Z</time>
      </trkpt>
      <trkpt lat="47.39283" lon="-2.1534">
        <ele>-2.7999999523163</ele>
        <time>2021-11-14T08:07:27.000Z</time>
      </trkpt>
      <trkpt lat="47.39308" lon="-2.15359">
        <ele>-2.7999999523163</ele>
        <time>2021-11-14T08:07:32.000Z</time>
      </trkpt>
      <trkpt lat="47.39321" lon="-2.15369">
        <ele>-2.7999999523163</ele>
        <time>2021-11-14T08:07:35.000Z</time>
      </trkpt>
      <trkpt lat="47.39325" lon="-2.15369">
        <ele>-2.7999999523163</ele>
        <time>2021-11-14T08:07:36.000Z</time>
      </trkpt>
      <trkpt lat="47.39341" lon="-2.15363">
        <ele>-2.7999999523163</ele>
        <time>2021-11-14T08:07:39.000Z</time>
      </trkpt>
      <trkpt lat="47.39346" lon="-2.15361">
        <ele>-2.7999999523163</ele>
        <time>2021-11-14T08:07:40.000Z</time>
      </trkpt>
      <trkpt lat="47.39363" lon="-2.15351">
        <ele>-2.7999999523163</ele>
        <time>2021-11-14T08:07:43.000Z</time>
      </trkpt>
      <trkpt lat="47.39379" lon="-2.15342">
        <ele>-2.7999999523163</ele>
        <time>2021-11-14T08:07:46.000Z</time>
      </trkpt>
      <trkpt lat="47.39385" lon="-2.15339">
        <ele>-2.4000000953674</ele>
        <time>2021-11-14T08:07:47.000Z</time>
      </trkpt>
      <trkpt lat="47.39391" lon="-2.15337">
        <ele>-2</ele>
        <time>2021-11-14T08:07:48.000Z</time>
      </trkpt>
      <trkpt lat="47.39397" lon="-2.15335">
        <ele>-1.6000000238419</ele>
        <time>2021-11-14T08:07:49.000Z</time>
      </trkpt>
      <trkpt lat="47.39402" lon="-2.15333">
        <ele>-1.2000000476837</ele>
        <time>2021-11-14T08:07:50.000Z</time>
      </trkpt>
      <trkpt lat="47.39408" lon="-2.15332">
        <ele>-0.80000001192093</ele>
        <time>2021-11-14T08:07:51.000Z</time>
      </trkpt>
      <trkpt lat="47.3942" lon="-2.15329">
        <ele>-0.80000001192093</ele>
        <time>2021-11-14T08:07:53.000Z</time>
      </trkpt>
      <trkpt lat="47.39462" lon="-2.15321">
        <ele>-0.80000001192093</ele>
        <time>2021-11-14T08:08:00.000Z</time>
      </trkpt>
      <trkpt lat="47.395" lon="-2.15299">
        <ele>-0.80000001192093</ele>
        <time>2021-11-14T08:08:06.000Z</time>
      </trkpt>
      <trkpt lat="47.39529" lon="-2.15275">
        <ele>-0.80000001192093</ele>
        <time>2021-11-14T08:08:11.000Z</time>
      </trkpt>
      <trkpt lat="47.39534" lon="-2.15269">
        <ele>-0.80000001192093</ele>
        <time>2021-11-14T08:08:12.000Z</time>
      </trkpt>
      <trkpt lat="47.3954" lon="-2.15252">
        <ele>-0.80000001192093</ele>
        <time>2021-11-14T08:08:14.000Z</time>
      </trkpt>
      <trkpt lat="47.39539" lon="-2.15223">
        <ele>-0.80000001192093</ele>
        <time>2021-11-14T08:08:17.000Z</time>
      </trkpt>
      <trkpt lat="47.39535" lon="-2.15204">
        <ele>-0.80000001192093</ele>
        <time>2021-11-14T08:08:19.000Z</time>
      </trkpt>
      <trkpt lat="47.39531" lon="-2.15165">
        <ele>-0.80000001192093</ele>
        <time>2021-11-14T08:08:23.000Z</time>
      </trkpt>
      <trkpt lat="47.39525" lon="-2.15106">
        <ele>-0.80000001192093</ele>
        <time>2021-11-14T08:08:29.000Z</time>
      </trkpt>
      <trkpt lat="47.3952" lon="-2.15047">
        <ele>-0.80000001192093</ele>
        <time>2021-11-14T08:08:35.000Z</time>
      </trkpt>
      <trkpt lat="47.39513" lon="-2.14988">
        <ele>-0.80000001192093</ele>
        <time>2021-11-14T08:08:41.000Z</time>
      </trkpt>
      <trkpt lat="47.39504" lon="-2.14952">
        <ele>-0.80000001192093</ele>
        <time>2021-11-14T08:08:45.000Z</time>
      </trkpt>
      <trkpt lat="47.395" lon="-2.14944">
        <ele>-1.2000000476837</ele>
        <time>2021-11-14T08:08:46.000Z</time>
      </trkpt>
      <trkpt lat="47.39495" lon="-2.14936">
        <ele>-1.6000000238419</ele>
        <time>2021-11-14T08:08:47.000Z</time>
      </trkpt>
      <trkpt lat="47.39491" lon="-2.14929">
        <ele>-2</ele>
        <time>2021-11-14T08:08:48.000Z</time>
      </trkpt>
      <trkpt lat="47.39486" lon="-2.14923">
        <ele>-3</ele>
        <time>2021-11-14T08:08:49.000Z</time>
      </trkpt>
      <trkpt lat="47.39467" lon="-2.14894">
        <ele>-3</ele>
        <time>2021-11-14T08:08:53.000Z</time>
      </trkpt>
      <trkpt lat="47.39436" lon="-2.14854">
        <ele>-3</ele>
        <time>2021-11-14T08:08:59.000Z</time>
      </trkpt>
      <trkpt lat="47.39405" lon="-2.14814">
        <ele>-3</ele>
        <time>2021-11-14T08:09:05.000Z</time>
      </trkpt>
      <trkpt lat="47.3936" lon="-2.14777">
        <ele>-3</ele>
        <time>2021-11-14T08:09:12.000Z</time>
      </trkpt>
      <trkpt lat="47.39317" lon="-2.14743">
        <ele>-3</ele>
        <time>2021-11-14T08:09:19.000Z</time>
      </trkpt>
      <trkpt lat="47.39282" lon="-2.14715">
        <ele>-3</ele>
        <time>2021-11-14T08:09:25.000Z</time>
      </trkpt>
      <trkpt lat="47.39242" lon="-2.14681">
        <ele>-3</ele>
        <time>2021-11-14T08:09:32.000Z</time>
      </trkpt>
      <trkpt lat="47.39205" lon="-2.14648">
        <ele>-3</ele>
        <time>2021-11-14T08:09:39.000Z</time>
      </trkpt>
      <trkpt lat="47.39171" lon="-2.14619">
        <ele>-3</ele>
        <time>2021-11-14T08:09:45.000Z</time>
      </trkpt>
      <trkpt lat="47.39133" lon="-2.14582">
        <ele>-3</ele>
        <time>2021-11-14T08:09:52.000Z</time>
      </trkpt>
      <trkpt lat="47.39113" lon="-2.14548">
        <ele>-3</ele>
        <time>2021-11-14T08:09:57.000Z</time>
      </trkpt>
      <trkpt lat="47.39105" lon="-2.14535">
        <ele>-3</ele>
        <time>2021-11-14T08:09:59.000Z</time>
      </trkpt>
      <trkpt lat="47.39101" lon="-2.14528">
        <ele>-2.4000000953674</ele>
        <time>2021-11-14T08:10:00.000Z</time>
      </trkpt>
      <trkpt lat="47.39097" lon="-2.14521">
        <ele>-2</ele>
        <time>2021-11-14T08:10:01.000Z</time>
      </trkpt>
      <trkpt lat="47.39093" lon="-2.14515">
        <ele>-1.6000000238419</ele>
        <time>2021-11-14T08:10:02.000Z</time>
      </trkpt>
      <trkpt lat="47.39089" lon="-2.14508">
        <ele>-0.80000001192093</ele>
        <time>2021-11-14T08:10:03.000Z</time>
      </trkpt>
      <trkpt lat="47.39065" lon="-2.14469">
        <ele>-0.80000001192093</ele>
        <time>2021-11-14T08:10:09.000Z</time>
      </trkpt>
      <trkpt lat="47.39061" lon="-2.14462">
        <ele>-0.40000000596046</ele>
        <time>2021-11-14T08:10:10.000Z</time>
      </trkpt>
      <trkpt lat="47.39057" lon="-2.14456">
        <ele>7.2</ele>
        <time>2021-11-14T08:10:11.000Z</time>
      </trkpt>
      <trkpt lat="47.39053" lon="-2.14449">
        <ele>0.40000000596046</ele>
        <time>2021-11-14T08:10:12.000Z</time>
      </trkpt>
      <trkpt lat="47.39049" lon="-2.14442">
        <ele>0.80000001192093</ele>
        <time>2021-11-14T08:10:13.000Z</time>
      </trkpt>
      <trkpt lat="47.39045" lon="-2.14435">
        <ele>1.2000000476837</ele>
        <time>2021-11-14T08:10:14.000Z</time>
      </trkpt>
      <trkpt lat="47.39041" lon="-2.14428">
        <ele>1.2000000476837</ele>
        <time>2021-11-14T08:10:15.000Z</time>
      </trkpt>
      <trkpt lat="47.39018" lon="-2.14386">
        <ele>1.2000000476837</ele>
        <time>2021-11-14T08:10:21.000Z</time>
      </trkpt>
      <trkpt lat="47.39007" lon="-2.14364">
        <ele>1.6000000238419</ele>
        <time>2021-11-14T08:10:24.000Z</time>
      </trkpt>
      <trkpt lat="47.39004" lon="-2.14357">
        <ele>2.2000000476837</ele>
        <time>2021-11-14T08:10:25.000Z</time>
      </trkpt>
      <trkpt lat="47.39002" lon="-2.14351">
        <ele>2.5999999046326</ele>
        <time>2021-11-14T08:10:26.000Z</time>
      </trkpt>
      <trkpt lat="47.38999" lon="-2.14345">
        <ele>3</ele>
        <time>2021-11-14T08:10:27.000Z</time>
      </trkpt>
      <trkpt lat="47.38996" lon="-2.14339">
        <ele>3.4000000953674</ele>
        <time>2021-11-14T08:10:28.000Z</time>
      </trkpt>
      <trkpt lat="47.38978" lon="-2.14306">
        <ele>3.4000000953674</ele>
        <time>2021-11-14T08:10:35.000Z</time>
      </trkpt>
      <trkpt lat="47.3897" lon="-2.14295">
        <ele>3.4000000953674</ele>
        <time>2021-11-14T08:10:40.000Z</time>
      </trkpt>
      <trkpt lat="47.38964" lon="-2.14301">
        <ele>3.4000000953674</ele>
        <time>2021-11-14T08:10:44.000Z</time>
      </trkpt>
      <trkpt lat="47.38961" lon="-2.14304">
        <ele>3.4000000953674</ele>
        <time>2021-11-14T08:10:45.000Z</time>
      </trkpt>
      <trkpt lat="47.38954" lon="-2.14313">
        <ele>3.4000000953674</ele>
        <time>2021-11-14T08:10:47.000Z</time>
      </trkpt>
      <trkpt lat="47.3895" lon="-2.14318">
        <ele>3.4000000953674</ele>
        <time>2021-11-14T08:10:48.000Z</time>
      </trkpt>
      <trkpt lat="47.38926" lon="-2.14351">
        <ele>3</ele>
        <time>2021-11-14T08:10:53.000Z</time>
      </trkpt>
      <trkpt lat="47.38919" lon="-2.14357">
        <ele>2.5999999046326</ele>
        <time>2021-11-14T08:10:54.000Z</time>
      </trkpt>
      <trkpt lat="47.38912" lon="-2.14361">
        <ele>2.2000000476837</ele>
        <time>2021-11-14T08:10:55.000Z</time>
      </trkpt>
      <trkpt lat="47.38904" lon="-2.14363">
        <ele>1.7999999523163</ele>
        <time>2021-11-14T08:10:56.000Z</time>
      </trkpt>
      <trkpt lat="47.38896" lon="-2.14364">
        <ele>1.3999999761581</ele>
        <time>2021-11-14T08:10:57.000Z</time>
      </trkpt>
      <trkpt lat="47.38888" lon="-2.14365">
        <ele>1.3999999761581</ele>
        <time>2021-11-14T08:10:58.000Z</time>
      </trkpt>
      <trkpt lat="47.38881" lon="-2.14368">
        <ele>1</ele>
        <time>2021-11-14T08:10:59.000Z</time>
      </trkpt>
      <trkpt lat="47.38873" lon="-2.14371">
        <ele>0.60000002384186</ele>
        <time>2021-11-14T08:11:00.000Z</time>
      </trkpt>
      <trkpt lat="47.38866" lon="-2.14374">
        <ele>0.20000000298023</ele>
        <time>2021-11-14T08:11:01.000Z</time>
      </trkpt>
      <trkpt lat="47.38859" lon="-2.14378">
        <ele>-0.20000000298023</ele>
        <time>2021-11-14T08:11:02.000Z</time>
      </trkpt>
      <trkpt lat="47.38852" lon="-2.14381">
        <ele>-0.60000002384186</ele>
        <time>2021-11-14T08:11:03.000Z</time>
      </trkpt>
      <trkpt lat="47.3882" lon="-2.14393">
        <ele>-0.60000002384186</ele>
        <time>2021-11-14T08:11:08.000Z</time>
      </trkpt>
      <trkpt lat="47.38783" lon="-2.144">
        <ele>-0.60000002384186</ele>
        <time>2021-11-14T08:11:14.000Z</time>
      </trkpt>
      <trkpt lat="47.38752" lon="-2.14409">
        <ele>-0.60000002384186</ele>
        <time>2021-11-14T08:11:19.000Z</time>
      </trkpt>
      <trkpt lat="47.3874" lon="-2.14415">
        <ele>-0.60000002384186</ele>
        <time>2021-11-14T08:11:21.000Z</time>
      </trkpt>
      <trkpt lat="47.38728" lon="-2.14423">
        <ele>-0.60000002384186</ele>
        <time>2021-11-14T08:11:23.000Z</time>
      </trkpt>
      <trkpt lat="47.38713" lon="-2.14441">
        <ele>-0.60000002384186</ele>
        <time>2021-11-14T08:11:26.000Z</time>
      </trkpt>
      <trkpt lat="47.38709" lon="-2.14448">
        <ele>-0.60000002384186</ele>
        <time>2021-11-14T08:11:27.000Z</time>
      </trkpt>
      <trkpt lat="47.38695" lon="-2.14476">
        <ele>-0.60000002384186</ele>
        <time>2021-11-14T08:11:31.000Z</time>
      </trkpt>
      <trkpt lat="47.38693" lon="-2.14484">
        <ele>-0.60000002384186</ele>
        <time>2021-11-14T08:11:32.000Z</time>
      </trkpt>
      <trkpt lat="47.38683" lon="-2.14526">
        <ele>-0.60000002384186</ele>
        <time>2021-11-14T08:11:37.000Z</time>
      </trkpt>
      <trkpt lat="47.38681" lon="-2.14533">
        <ele>-0.60000002384186</ele>
        <time>2021-11-14T08:11:38.000Z</time>
      </trkpt>
      <trkpt lat="47.3867" lon="-2.14539">
        <ele>-0.60000002384186</ele>
        <time>2021-11-14T08:11:41.000Z</time>
      </trkpt>
      <trkpt lat="47.38662" lon="-2.14532">
        <ele>-0.60000002384186</ele>
        <time>2021-11-14T08:11:44.000Z</time>
      </trkpt>
      <trkpt lat="47.3866" lon="-2.14528">
        <ele>-0.60000002384186</ele>
        <time>2021-11-14T08:11:45.000Z</time>
      </trkpt>
      <trkpt lat="47.38647" lon="-2.14501">
        <ele>-0.60000002384186</ele>
        <time>2021-11-14T08:11:50.000Z</time>
      </trkpt>
      <trkpt lat="47.38637" lon="-2.14498">
        <ele>-0.20000000298023</ele>
        <time>2021-11-14T08:11:52.000Z</time>
      </trkpt>
      <trkpt lat="47.38632" lon="-2.14499">
        <ele>0.20000000298023</ele>
        <time>2021-11-14T08:11:53.000Z</time>
      </trkpt>
      <trkpt lat="47.38627" lon="-2.14501">
        <ele>0.60000002384186</ele>
        <time>2021-11-14T08:11:54.000Z</time>
      </trkpt>
      <trkpt lat="47.38623" lon="-2.14503">
        <ele>1</ele>
        <time>2021-11-14T08:11:55.000Z</time>
      </trkpt>
      <trkpt lat="47.38618" lon="-2.14506">
        <ele>1.3999999761581</ele>
        <time>2021-11-14T08:11:56.000Z</time>
      </trkpt>
      <trkpt lat="47.38614" lon="-2.1451">
        <ele>1.3999999761581</ele>
        <time>2021-11-14T08:11:57.000Z</time>
      </trkpt>
      <trkpt lat="47.38599" lon="-2.1452">
        <ele>1.3999999761581</ele>
        <time>2021-11-14T08:12:01.000Z</time>
      </trkpt>
      <trkpt lat="47.3858" lon="-2.14515">
        <ele>1.3999999761581</ele>
        <time>2021-11-14T08:12:06.000Z</time>
      </trkpt>
      <trkpt lat="47.38557" lon="-2.14507">
        <ele>1.3999999761581</ele>
        <time>2021-11-14T08:12:11.000Z</time>
      </trkpt>
      <trkpt lat="47.38551" lon="-2.14505">
        <ele>1.3999999761581</ele>
        <time>2021-11-14T08:12:12.000Z</time>
      </trkpt>
      <trkpt lat="47.38546" lon="-2.14505">
        <ele>1</ele>
        <time>2021-11-14T08:12:13.000Z</time>
      </trkpt>
      <trkpt lat="47.3854" lon="-2.14504">
        <ele>0.60000002384186</ele>
        <time>2021-11-14T08:12:14.000Z</time>
      </trkpt>
      <trkpt lat="47.38535" lon="-2.14504">
        <ele>0.20000000298023</ele>
        <time>2021-11-14T08:12:15.000Z</time>
      </trkpt>
      <trkpt lat="47.3853" lon="-2.14505">
        <ele>-0.40000000596046</ele>
        <time>2021-11-14T08:12:16.000Z</time>
      </trkpt>
      <trkpt lat="47.38525" lon="-2.14505">
        <ele>-0.80000001192093</ele>
        <time>2021-11-14T08:12:17.000Z</time>
      </trkpt>
      <trkpt lat="47.38521" lon="-2.14504">
        <ele>-0.80000001192093</ele>
        <time>2021-11-14T08:12:18.000Z</time>
      </trkpt>
      <trkpt lat="47.38514" lon="-2.14495">
        <ele>-0.80000001192093</ele>
        <time>2021-11-14T08:12:20.000Z</time>
      </trkpt>
      <trkpt lat="47.38509" lon="-2.14471">
        <ele>-0.80000001192093</ele>
        <time>2021-11-14T08:12:23.000Z</time>
      </trkpt>
      <trkpt lat="47.38506" lon="-2.14454">
        <ele>-0.80000001192093</ele>
        <time>2021-11-14T08:12:25.000Z</time>
      </trkpt>
      <trkpt lat="47.38507" lon="-2.14436">
        <ele>-0.80000001192093</ele>
        <time>2021-11-14T08:12:27.000Z</time>
      </trkpt>
      <trkpt lat="47.38514" lon="-2.14411">
        <ele>-0.80000001192093</ele>
        <time>2021-11-14T08:12:30.000Z</time>
      </trkpt>
      <trkpt lat="47.3852" lon="-2.14394">
        <ele>-0.80000001192093</ele>
        <time>2021-11-14T08:12:32.000Z</time>
      </trkpt>
      <trkpt lat="47.38533" lon="-2.14372">
        <ele>-0.80000001192093</ele>
        <time>2021-11-14T08:12:35.000Z</time>
      </trkpt>
      <trkpt lat="47.38548" lon="-2.14354">
        <ele>-0.80000001192093</ele>
        <time>2021-11-14T08:12:38.000Z</time>
      </trkpt>
      <trkpt lat="47.38557" lon="-2.14339">
        <ele>-0.80000001192093</ele>
        <time>2021-11-14T08:12:40.000Z</time>
      </trkpt>
      <trkpt lat="47.38562" lon="-2.14322">
        <ele>-0.80000001192093</ele>
        <time>2021-11-14T08:12:42.000Z</time>
      </trkpt>
      <trkpt lat="47.38566" lon="-2.14305">
        <ele>-0.80000001192093</ele>
        <time>2021-11-14T08:12:44.000Z</time>
      </trkpt>
      <trkpt lat="47.38576" lon="-2.14263">
        <ele>-0.80000001192093</ele>
        <time>2021-11-14T08:12:49.000Z</time>
      </trkpt>
      <trkpt lat="47.38591" lon="-2.14197">
        <ele>-0.80000001192093</ele>
        <time>2021-11-14T08:12:57.000Z</time>
      </trkpt>
      <trkpt lat="47.38606" lon="-2.14152">
        <ele>-0.80000001192093</ele>
        <time>2021-11-14T08:13:03.000Z</time>
      </trkpt>
      <trkpt lat="47.38611" lon="-2.14132">
        <ele>-0.80000001192093</ele>
        <time>2021-11-14T08:13:06.000Z</time>
      </trkpt>
      <trkpt lat="47.38609" lon="-2.14121">
        <ele>-0.80000001192093</ele>
        <time>2021-11-14T08:13:08.000Z</time>
      </trkpt>
      <trkpt lat="47.38597" lon="-2.14112">
        <ele>-0.80000001192093</ele>
        <time>2021-11-14T08:13:11.000Z</time>
      </trkpt>
      <trkpt lat="47.38592" lon="-2.14109">
        <ele>-0.80000001192093</ele>
        <time>2021-11-14T08:13:12.000Z</time>
      </trkpt>
      <trkpt lat="47.38564" lon="-2.14094">
        <ele>-0.80000001192093</ele>
        <time>2021-11-14T08:13:17.000Z</time>
      </trkpt>
      <trkpt lat="47.38531" lon="-2.14065">
        <ele>-0.80000001192093</ele>
        <time>2021-11-14T08:13:23.000Z</time>
      </trkpt>
      <trkpt lat="47.3849" lon="-2.14022">
        <ele>-0.80000001192093</ele>
        <time>2021-11-14T08:13:30.000Z</time>
      </trkpt>
      <trkpt lat="47.38455" lon="-2.13983">
        <ele>-0.80000001192093</ele>
        <time>2021-11-14T08:13:36.000Z</time>
      </trkpt>
      <trkpt lat="47.38431" lon="-2.13956">
        <ele>-1.2000000476837</ele>
        <time>2021-11-14T08:13:40.000Z</time>
      </trkpt>
      <trkpt lat="47.38426" lon="-2.1395">
        <ele>-1.6000000238419</ele>
        <time>2021-11-14T08:13:41.000Z</time>
      </trkpt>
      <trkpt lat="47.3842" lon="-2.13944">
        <ele>-2</ele>
        <time>2021-11-14T08:13:42.000Z</time>
      </trkpt>
      <trkpt lat="47.38414" lon="-2.13938">
        <ele>-2.4000000953674</ele>
        <time>2021-11-14T08:13:43.000Z</time>
      </trkpt>
      <trkpt lat="47.38409" lon="-2.13933">
        <ele>-2.7999999523163</ele>
        <time>2021-11-14T08:13:44.000Z</time>
      </trkpt>
      <trkpt lat="47.38398" lon="-2.13924">
        <ele>-2.7999999523163</ele>
        <time>2021-11-14T08:13:46.000Z</time>
      </trkpt>
      <trkpt lat="47.38386" lon="-2.13918">
        <ele>-2.7999999523163</ele>
        <time>2021-11-14T08:13:48.000Z</time>
      </trkpt>
      <trkpt lat="47.38343" lon="-2.13902">
        <ele>-2.7999999523163</ele>
        <time>2021-11-14T08:13:55.000Z</time>
      </trkpt>
      <trkpt lat="47.38301" lon="-2.13886">
        <ele>-2.7999999523163</ele>
        <time>2021-11-14T08:14:02.000Z</time>
      </trkpt>
      <trkpt lat="47.38283" lon="-2.13876">
        <ele>-2.7999999523163</ele>
        <time>2021-11-14T08:14:05.000Z</time>
      </trkpt>
      <trkpt lat="47.38272" lon="-2.13865">
        <ele>-2.7999999523163</ele>
        <time>2021-11-14T08:14:07.000Z</time>
      </trkpt>
      <trkpt lat="47.3826" lon="-2.13844">
        <ele>-2.7999999523163</ele>
        <time>2021-11-14T08:14:10.000Z</time>
      </trkpt>
      <trkpt lat="47.38256" lon="-2.13836">
        <ele>-2.7999999523163</ele>
        <time>2021-11-14T08:14:11.000Z</time>
      </trkpt>
      <trkpt lat="47.38229" lon="-2.13773">
        <ele>-2.7999999523163</ele>
        <time>2021-11-14T08:14:19.000Z</time>
      </trkpt>
      <trkpt lat="47.38219" lon="-2.1375">
        <ele>-2.7999999523163</ele>
        <time>2021-11-14T08:14:22.000Z</time>
      </trkpt>
      <trkpt lat="47.38213" lon="-2.13736">
        <ele>-2.7999999523163</ele>
        <time>2021-11-14T08:14:24.000Z</time>
      </trkpt>
      <trkpt lat="47.38211" lon="-2.13727">
        <ele>-2.7999999523163</ele>
        <time>2021-11-14T08:14:25.000Z</time>
      </trkpt>
      <trkpt lat="47.38215" lon="-2.13701">
        <ele>-2.7999999523163</ele>
        <time>2021-11-14T08:14:28.000Z</time>
      </trkpt>
      <trkpt lat="47.38228" lon="-2.13684">
        <ele>-2.7999999523163</ele>
        <time>2021-11-14T08:14:31.000Z</time>
      </trkpt>
      <trkpt lat="47.38233" lon="-2.13679">
        <ele>-2.7999999523163</ele>
        <time>2021-11-14T08:14:32.000Z</time>
      </trkpt>
      <trkpt lat="47.3827" lon="-2.1364">
        <ele>-2.7999999523163</ele>
        <time>2021-11-14T08:14:40.000Z</time>
      </trkpt>
      <trkpt lat="47.38279" lon="-2.13631">
        <ele>-2.4000000953674</ele>
        <time>2021-11-14T08:14:42.000Z</time>
      </trkpt>
      <trkpt lat="47.38283" lon="-2.13627">
        <ele>-2</ele>
        <time>2021-11-14T08:14:43.000Z</time>
      </trkpt>
      <trkpt lat="47.38287" lon="-2.13623">
        <ele>-1.6000000238419</ele>
        <time>2021-11-14T08:14:44.000Z</time>
      </trkpt>
      <trkpt lat="47.38291" lon="-2.13619">
        <ele>-1.2000000476837</ele>
        <time>2021-11-14T08:14:45.000Z</time>
      </trkpt>
      <trkpt lat="47.38295" lon="-2.13614">
        <ele>-0.80000001192093</ele>
        <time>2021-11-14T08:14:46.000Z</time>
      </trkpt>
      <trkpt lat="47.38297" lon="-2.13607">
        <ele>-0.80000001192093</ele>
        <time>2021-11-14T08:14:47.000Z</time>
      </trkpt>
      <trkpt lat="47.38302" lon="-2.13586">
        <ele>-0.80000001192093</ele>
        <time>2021-11-14T08:14:50.000Z</time>
      </trkpt>
      <trkpt lat="47.38305" lon="-2.13572">
        <ele>-0.80000001192093</ele>
        <time>2021-11-14T08:14:52.000Z</time>
      </trkpt>
      <trkpt lat="47.38308" lon="-2.13566">
        <ele>-0.40000000596046</ele>
        <time>2021-11-14T08:14:53.000Z</time>
      </trkpt>
      <trkpt lat="47.3831" lon="-2.13558">
        <ele>6.2</ele>
        <time>2021-11-14T08:14:54.000Z</time>
      </trkpt>
      <trkpt lat="47.38313" lon="-2.13551">
        <ele>0.40000000596046</ele>
        <time>2021-11-14T08:14:55.000Z</time>
      </trkpt>
      <trkpt lat="47.38316" lon="-2.13544">
        <ele>0.80000001192093</ele>
        <time>2021-11-14T08:14:56.000Z</time>
      </trkpt>
      <trkpt lat="47.38319" lon="-2.13537">
        <ele>1.2000000476837</ele>
        <time>2021-11-14T08:14:57.000Z</time>
      </trkpt>
      <trkpt lat="47.38325" lon="-2.13525">
        <ele>1.2000000476837</ele>
        <time>2021-11-14T08:14:59.000Z</time>
      </trkpt>
      <trkpt lat="47.38327" lon="-2.13518">
        <ele>1.2000000476837</ele>
        <time>2021-11-14T08:15:00.000Z</time>
      </trkpt>
      <trkpt lat="47.38326" lon="-2.13505">
        <ele>1.2000000476837</ele>
        <time>2021-11-14T08:15:02.000Z</time>
      </trkpt>
      <trkpt lat="47.38315" lon="-2.13493">
        <ele>1.2000000476837</ele>
        <time>2021-11-14T08:15:05.000Z</time>
      </trkpt>
      <trkpt lat="47.38311" lon="-2.13489">
        <ele>1.2000000476837</ele>
        <time>2021-11-14T08:15:06.000Z</time>
      </trkpt>
      <trkpt lat="47.38285" lon="-2.13464">
        <ele>1.2000000476837</ele>
        <time>2021-11-14T08:15:11.000Z</time>
      </trkpt>
      <trkpt lat="47.3824" lon="-2.13417">
        <ele>1.2000000476837</ele>
        <time>2021-11-14T08:15:19.000Z</time>
      </trkpt>
      <trkpt lat="47.38217" lon="-2.13382">
        <ele>1.2000000476837</ele>
        <time>2021-11-14T08:15:24.000Z</time>
      </trkpt>
      <trkpt lat="47.38191" lon="-2.1334">
        <ele>1.2000000476837</ele>
        <time>2021-11-14T08:15:30.000Z</time>
      </trkpt>
      <trkpt lat="47.38183" lon="-2.13325">
        <ele>0.80000001192093</ele>
        <time>2021-11-14T08:15:32.000Z</time>
      </trkpt>
      <trkpt lat="47.38178" lon="-2.13318">
        <ele>0.40000000596046</ele>
        <time>2021-11-14T08:15:33.000Z</time>
      </trkpt>
      <trkpt lat="47.38174" lon="-2.1331">
        <ele>2.3</ele>
        <time>2021-11-14T08:15:34.000Z</time>
      </trkpt>
      <trkpt lat="47.3817" lon="-2.13303">
        <ele>-0.40000000596046</ele>
        <time>2021-11-14T08:15:35.000Z</time>
      </trkpt>
      <trkpt lat="47.38165" lon="-2.13295">
        <ele>-0.80000001192093</ele>
        <time>2021-11-14T08:15:36.000Z</time>
      </trkpt>
      <trkpt lat="47.38134" lon="-2.13243">
        <ele>-0.80000001192093</ele>
        <time>2021-11-14T08:15:43.000Z</time>
      </trkpt>
      <trkpt lat="47.38108" lon="-2.13194">
        <ele>-0.80000001192093</ele>
        <time>2021-11-14T08:15:50.000Z</time>
      </trkpt>
      <trkpt lat="47.38104" lon="-2.13188">
        <ele>-0.80000001192093</ele>
        <time>2021-11-14T08:15:51.000Z</time>
      </trkpt>
      <trkpt lat="47.38089" lon="-2.13174">
        <ele>-0.80000001192093</ele>
        <time>2021-11-14T08:15:54.000Z</time>
      </trkpt>
      <trkpt lat="47.38083" lon="-2.1317">
        <ele>-0.80000001192093</ele>
        <time>2021-11-14T08:15:55.000Z</time>
      </trkpt>
      <trkpt lat="47.38045" lon="-2.13148">
        <ele>-0.80000001192093</ele>
        <time>2021-11-14T08:16:02.000Z</time>
      </trkpt>
      <trkpt lat="47.38007" lon="-2.13128">
        <ele>-0.40000000596046</ele>
        <time>2021-11-14T08:16:09.000Z</time>
      </trkpt>
      <trkpt lat="47.38002" lon="-2.13125">
        <ele>0.20000000298023</ele>
        <time>2021-11-14T08:16:10.000Z</time>
      </trkpt>
      <trkpt lat="47.37997" lon="-2.13122">
        <ele>0.60000002384186</ele>
        <time>2021-11-14T08:16:11.000Z</time>
      </trkpt>
      <trkpt lat="47.37991" lon="-2.13119">
        <ele>1</ele>
        <time>2021-11-14T08:16:12.000Z</time>
      </trkpt>
      <trkpt lat="47.37986" lon="-2.13116">
        <ele>1.3999999761581</ele>
        <time>2021-11-14T08:16:13.000Z</time>
      </trkpt>
      <trkpt lat="47.37981" lon="-2.13114">
        <ele>1.3999999761581</ele>
        <time>2021-11-14T08:16:14.000Z</time>
      </trkpt>
      <trkpt lat="47.37976" lon="-2.13115">
        <ele>1.3999999761581</ele>
        <time>2021-11-14T08:16:15.000Z</time>
      </trkpt>
      <trkpt lat="47.37968" lon="-2.13128">
        <ele>1.3999999761581</ele>
        <time>2021-11-14T08:16:17.000Z</time>
      </trkpt>
      <trkpt lat="47.3797" lon="-2.13155">
        <ele>1.3999999761581</ele>
        <time>2021-11-14T08:16:20.000Z</time>
      </trkpt>
      <trkpt lat="47.37975" lon="-2.1317">
        <ele>1.3999999761581</ele>
        <time>2021-11-14T08:16:22.000Z</time>
      </trkpt>
      <trkpt lat="47.37981" lon="-2.13187">
        <ele>1.3999999761581</ele>
        <time>2021-11-14T08:16:24.000Z</time>
      </trkpt>
      <trkpt lat="47.37986" lon="-2.13206">
        <ele>1.3999999761581</ele>
        <time>2021-11-14T08:16:26.000Z</time>
      </trkpt>
      <trkpt lat="47.37985" lon="-2.13225">
        <ele>1.3999999761581</ele>
        <time>2021-11-14T08:16:28.000Z</time>
      </trkpt>
      <trkpt lat="47.37975" lon="-2.13245">
        <ele>1.3999999761581</ele>
        <time>2021-11-14T08:16:31.000Z</time>
      </trkpt>
      <trkpt lat="47.3796" lon="-2.13253">
        <ele>1.3999999761581</ele>
        <time>2021-11-14T08:16:34.000Z</time>
      </trkpt>
      <trkpt lat="47.37934" lon="-2.13259">
        <ele>1.3999999761581</ele>
        <time>2021-11-14T08:16:39.000Z</time>
      </trkpt>
      <trkpt lat="47.37923" lon="-2.13259">
        <ele>1.3999999761581</ele>
        <time>2021-11-14T08:16:41.000Z</time>
      </trkpt>
      <trkpt lat="47.37898" lon="-2.13263">
        <ele>1.7999999523163</ele>
        <time>2021-11-14T08:16:46.000Z</time>
      </trkpt>
      <trkpt lat="47.37893" lon="-2.13263">
        <ele>2.2000000476837</ele>
        <time>2021-11-14T08:16:47.000Z</time>
      </trkpt>
      <trkpt lat="47.37888" lon="-2.13264">
        <ele>2.5999999046326</ele>
        <time>2021-11-14T08:16:48.000Z</time>
      </trkpt>
      <trkpt lat="47.37883" lon="-2.13264">
        <ele>3</ele>
        <time>2021-11-14T08:16:49.000Z</time>
      </trkpt>
      <trkpt lat="47.37878" lon="-2.13265">
        <ele>3.4000000953674</ele>
        <time>2021-11-14T08:16:50.000Z</time>
      </trkpt>
      <trkpt lat="47.37849" lon="-2.13267">
        <ele>3.4000000953674</ele>
        <time>2021-11-14T08:16:55.000Z</time>
      </trkpt>
      <trkpt lat="47.378" lon="-2.13272">
        <ele>3.4000000953674</ele>
        <time>2021-11-14T08:17:03.000Z</time>
      </trkpt>
      <trkpt lat="47.37762" lon="-2.13274">
        <ele>3.4000000953674</ele>
        <time>2021-11-14T08:17:09.000Z</time>
      </trkpt>
      <trkpt lat="47.37736" lon="-2.13277">
        <ele>3.4000000953674</ele>
        <time>2021-11-14T08:17:13.000Z</time>
      </trkpt>
      <trkpt lat="47.37729" lon="-2.13278">
        <ele>3.4000000953674</ele>
        <time>2021-11-14T08:17:14.000Z</time>
      </trkpt>
      <trkpt lat="47.37717" lon="-2.13281">
        <ele>3.4000000953674</ele>
        <time>2021-11-14T08:17:16.000Z</time>
      </trkpt>
      <trkpt lat="47.37694" lon="-2.13292">
        <ele>3.4000000953674</ele>
        <time>2021-11-14T08:17:20.000Z</time>
      </trkpt>
      <trkpt lat="47.37677" lon="-2.13298">
        <ele>3.4000000953674</ele>
        <time>2021-11-14T08:17:23.000Z</time>
      </trkpt>
      <trkpt lat="47.37659" lon="-2.13305">
        <ele>3.4000000953674</ele>
        <time>2021-11-14T08:17:26.000Z</time>
      </trkpt>
      <trkpt lat="47.37637" lon="-2.13314">
        <ele>3.4000000953674</ele>
        <time>2021-11-14T08:17:30.000Z</time>
      </trkpt>
      <trkpt lat="47.37603" lon="-2.13323">
        <ele>3.4000000953674</ele>
        <time>2021-11-14T08:17:36.000Z</time>
      </trkpt>
      <trkpt lat="47.37597" lon="-2.13322">
        <ele>3.4000000953674</ele>
        <time>2021-11-14T08:17:37.000Z</time>
      </trkpt>
      <trkpt lat="47.37562" lon="-2.13313">
        <ele>3.4000000953674</ele>
        <time>2021-11-14T08:17:43.000Z</time>
      </trkpt>
      <trkpt lat="47.37515" lon="-2.13302">
        <ele>3.4000000953674</ele>
        <time>2021-11-14T08:17:51.000Z</time>
      </trkpt>
      <trkpt lat="47.37466" lon="-2.13292">
        <ele>3.4000000953674</ele>
        <time>2021-11-14T08:17:59.000Z</time>
      </trkpt>
      <trkpt lat="47.37423" lon="-2.13284">
        <ele>3.4000000953674</ele>
        <time>2021-11-14T08:18:07.000Z</time>
      </trkpt>
      <trkpt lat="47.37376" lon="-2.13276">
        <ele>3.4000000953674</ele>
        <time>2021-11-14T08:18:16.000Z</time>
      </trkpt>
      <trkpt lat="47.37342" lon="-2.13269">
        <ele>3.4000000953674</ele>
        <time>2021-11-14T08:18:22.000Z</time>
      </trkpt>
      <trkpt lat="47.37306" lon="-2.13258">
        <ele>3.4000000953674</ele>
        <time>2021-11-14T08:18:28.000Z</time>
      </trkpt>
      <trkpt lat="47.37263" lon="-2.13243">
        <ele>3.4000000953674</ele>
        <time>2021-11-14T08:18:35.000Z</time>
      </trkpt>
      <trkpt lat="47.37214" lon="-2.13227">
        <ele>3.4000000953674</ele>
        <time>2021-11-14T08:18:43.000Z</time>
      </trkpt>
      <trkpt lat="47.37167" lon="-2.13211">
        <ele>3.4000000953674</ele>
        <time>2021-11-14T08:18:51.000Z</time>
      </trkpt>
      <trkpt lat="47.37126" lon="-2.13197">
        <ele>3.4000000953674</ele>
        <time>2021-11-14T08:18:58.000Z</time>
      </trkpt>
      <trkpt lat="47.3708" lon="-2.1318">
        <ele>3.4000000953674</ele>
        <time>2021-11-14T08:19:06.000Z</time>
      </trkpt>
      <trkpt lat="47.37077" lon="-2.13173">
        <ele>3</ele>
        <time>2021-11-14T08:19:07.000Z</time>
      </trkpt>
      <trkpt lat="47.37075" lon="-2.13165">
        <ele>2.5999999046326</ele>
        <time>2021-11-14T08:19:08.000Z</time>
      </trkpt>
      <trkpt lat="47.37074" lon="-2.13156">
        <ele>2.2000000476837</ele>
        <time>2021-11-14T08:19:09.000Z</time>
      </trkpt>
      <trkpt lat="47.37075" lon="-2.13145">
        <ele>1.6000000238419</ele>
        <time>2021-11-14T08:19:10.000Z</time>
      </trkpt>
      <trkpt lat="47.37076" lon="-2.13136">
        <ele>1.2000000476837</ele>
        <time>2021-11-14T08:19:11.000Z</time>
      </trkpt>
      <trkpt lat="47.37078" lon="-2.13126">
        <ele>1.2000000476837</ele>
        <time>2021-11-14T08:19:12.000Z</time>
      </trkpt>
      <trkpt lat="47.37084" lon="-2.13107">
        <ele>1.2000000476837</ele>
        <time>2021-11-14T08:19:14.000Z</time>
      </trkpt>
      <trkpt lat="47.37096" lon="-2.1307">
        <ele>1.2000000476837</ele>
        <time>2021-11-14T08:19:18.000Z</time>
      </trkpt>
      <trkpt lat="47.37116" lon="-2.1302">
        <ele>1.2000000476837</ele>
        <time>2021-11-14T08:19:24.000Z</time>
      </trkpt>
      <trkpt lat="47.37139" lon="-2.12977">
        <ele>1.2000000476837</ele>
        <time>2021-11-14T08:19:30.000Z</time>
      </trkpt>
      <trkpt lat="47.37142" lon="-2.12969">
        <ele>1.2000000476837</ele>
        <time>2021-11-14T08:19:31.000Z</time>
      </trkpt>
      <trkpt lat="47.37144" lon="-2.12956">
        <ele>1.2000000476837</ele>
        <time>2021-11-14T08:19:33.000Z</time>
      </trkpt>
      <trkpt lat="47.3715" lon="-2.12914">
        <ele>1.2000000476837</ele>
        <time>2021-11-14T08:19:39.000Z</time>
      </trkpt>
      <trkpt lat="47.37161" lon="-2.12848">
        <ele>1.2000000476837</ele>
        <time>2021-11-14T08:19:47.000Z</time>
      </trkpt>
      <trkpt lat="47.37166" lon="-2.12825">
        <ele>1.2000000476837</ele>
        <time>2021-11-14T08:19:50.000Z</time>
      </trkpt>
      <trkpt lat="47.3717" lon="-2.12802">
        <ele>1.2000000476837</ele>
        <time>2021-11-14T08:19:53.000Z</time>
      </trkpt>
      <trkpt lat="47.37178" lon="-2.12744">
        <ele>1.2000000476837</ele>
        <time>2021-11-14T08:20:00.000Z</time>
      </trkpt>
      <trkpt lat="47.37189" lon="-2.12687">
        <ele>1.2000000476837</ele>
        <time>2021-11-14T08:20:07.000Z</time>
      </trkpt>
      <trkpt lat="47.37199" lon="-2.12624">
        <ele>1.2000000476837</ele>
        <time>2021-11-14T08:20:15.000Z</time>
      </trkpt>
      <trkpt lat="47.372" lon="-2.12616">
        <ele>1.6000000238419</ele>
        <time>2021-11-14T08:20:16.000Z</time>
      </trkpt>
      <trkpt lat="47.37201" lon="-2.12609">
        <ele>2</ele>
        <time>2021-11-14T08:20:17.000Z</time>
      </trkpt>
      <trkpt lat="47.37202" lon="-2.12601">
        <ele>2.4000000953674</ele>
        <time>2021-11-14T08:20:18.000Z</time>
      </trkpt>
      <trkpt lat="47.37203" lon="-2.12594">
        <ele>2.7999999523163</ele>
        <time>2021-11-14T08:20:19.000Z</time>
      </trkpt>
      <trkpt lat="47.37205" lon="-2.12586">
        <ele>3.2000000476837</ele>
        <time>2021-11-14T08:20:20.000Z</time>
      </trkpt>
      <trkpt lat="47.37209" lon="-2.12572">
        <ele>3.2000000476837</ele>
        <time>2021-11-14T08:20:22.000Z</time>
      </trkpt>
      <trkpt lat="47.3722" lon="-2.12558">
        <ele>3.2000000476837</ele>
        <time>2021-11-14T08:20:25.000Z</time>
      </trkpt>
      <trkpt lat="47.37242" lon="-2.12552">
        <ele>3.2000000476837</ele>
        <time>2021-11-14T08:20:29.000Z</time>
      </trkpt>
      <trkpt lat="47.3728" lon="-2.12545">
        <ele>3.2000000476837</ele>
        <time>2021-11-14T08:20:36.000Z</time>
      </trkpt>
      <trkpt lat="47.37308" lon="-2.12534">
        <ele>3.2000000476837</ele>
        <time>2021-11-14T08:20:42.000Z</time>
      </trkpt>
      <trkpt lat="47.37331" lon="-2.12517">
        <ele>3.2000000476837</ele>
        <time>2021-11-14T08:20:47.000Z</time>
      </trkpt>
      <trkpt lat="47.37372" lon="-2.12493">
        <ele>3.2000000476837</ele>
        <time>2021-11-14T08:20:54.000Z</time>
      </trkpt>
      <trkpt lat="47.37401" lon="-2.1247">
        <ele>3.2000000476837</ele>
        <time>2021-11-14T08:20:59.000Z</time>
      </trkpt>
      <trkpt lat="47.37429" lon="-2.12433">
        <ele>3.2000000476837</ele>
        <time>2021-11-14T08:21:05.000Z</time>
      </trkpt>
      <trkpt lat="47.37464" lon="-2.12385">
        <ele>3.2000000476837</ele>
        <time>2021-11-14T08:21:13.000Z</time>
      </trkpt>
      <trkpt lat="47.37472" lon="-2.12372">
        <ele>3.2000000476837</ele>
        <time>2021-11-14T08:21:15.000Z</time>
      </trkpt>
      <trkpt lat="47.37491" lon="-2.12346">
        <ele>3.2000000476837</ele>
        <time>2021-11-14T08:21:19.000Z</time>
      </trkpt>
      <trkpt lat="47.37507" lon="-2.12329">
        <ele>3.2000000476837</ele>
        <time>2021-11-14T08:21:22.000Z</time>
      </trkpt>
      <trkpt lat="47.3752" lon="-2.12323">
        <ele>3.2000000476837</ele>
        <time>2021-11-14T08:21:24.000Z</time>
      </trkpt>
      <trkpt lat="47.3754" lon="-2.12327">
        <ele>3.2000000476837</ele>
        <time>2021-11-14T08:21:27.000Z</time>
      </trkpt>
      <trkpt lat="47.37546" lon="-2.1233">
        <ele>3.2000000476837</ele>
        <time>2021-11-14T08:21:28.000Z</time>
      </trkpt>
      <trkpt lat="47.37575" lon="-2.12346">
        <ele>3.2000000476837</ele>
        <time>2021-11-14T08:21:33.000Z</time>
      </trkpt>
      <trkpt lat="47.37613" lon="-2.1237">
        <ele>3.2000000476837</ele>
        <time>2021-11-14T08:21:40.000Z</time>
      </trkpt>
      <trkpt lat="47.37656" lon="-2.12398">
        <ele>3.2000000476837</ele>
        <time>2021-11-14T08:21:48.000Z</time>
      </trkpt>
      <trkpt lat="47.37687" lon="-2.12417">
        <ele>3.2000000476837</ele>
        <time>2021-11-14T08:21:54.000Z</time>
      </trkpt>
      <trkpt lat="47.37714" lon="-2.12435">
        <ele>3.2000000476837</ele>
        <time>2021-11-14T08:22:00.000Z</time>
      </trkpt>
      <trkpt lat="47.37741" lon="-2.12452">
        <ele>3.2000000476837</ele>
        <time>2021-11-14T08:22:06.000Z</time>
      </trkpt>
      <trkpt lat="47.37749" lon="-2.12458">
        <ele>3.7999999523163</ele>
        <time>2021-11-14T08:22:08.000Z</time>
      </trkpt>
      <trkpt lat="47.37754" lon="-2.12461">
        <ele>4.1999998092651</ele>
        <time>2021-11-14T08:22:09.000Z</time>
      </trkpt>
      <trkpt lat="47.37759" lon="-2.12465">
        <ele>4.5999999046326</ele>
        <time>2021-11-14T08:22:10.000Z</time>
      </trkpt>
      <trkpt lat="47.37763" lon="-2.12469">
        <ele>5</ele>
        <time>2021-11-14T08:22:11.000Z</time>
      </trkpt>
      <trkpt lat="47.37768" lon="-2.12473">
        <ele>5.4000000953674</ele>
        <time>2021-11-14T08:22:12.000Z</time>
      </trkpt>
      <trkpt lat="47.37776" lon="-2.12481">
        <ele>5.4000000953674</ele>
        <time>2021-11-14T08:22:14.000Z</time>
      </trkpt>
      <trkpt lat="47.3781" lon="-2.12513">
        <ele>5.4000000953674</ele>
        <time>2021-11-14T08:22:22.000Z</time>
      </trkpt>
      <trkpt lat="47.37839" lon="-2.1254">
        <ele>5.8000001907349</ele>
        <time>2021-11-14T08:22:29.000Z</time>
      </trkpt>
      <trkpt lat="47.37843" lon="-2.12544">
        <ele>6.1999998092651</ele>
        <time>2021-11-14T08:22:30.000Z</time>
      </trkpt>
      <trkpt lat="47.37847" lon="-2.12548">
        <ele>6.5999999046326</ele>
        <time>2021-11-14T08:22:31.000Z</time>
      </trkpt>
      <trkpt lat="47.37851" lon="-2.12551">
        <ele>7</ele>
        <time>2021-11-14T08:22:32.000Z</time>
      </trkpt>
      <trkpt lat="47.37855" lon="-2.12555">
        <ele>7.4000000953674</ele>
        <time>2021-11-14T08:22:33.000Z</time>
      </trkpt>
      <trkpt lat="47.37867" lon="-2.12566">
        <ele>7.4000000953674</ele>
        <time>2021-11-14T08:22:36.000Z</time>
      </trkpt>
      <trkpt lat="47.37896" lon="-2.12595">
        <ele>7.4000000953674</ele>
        <time>2021-11-14T08:22:43.000Z</time>
      </trkpt>
      <trkpt lat="47.37922" lon="-2.12626">
        <ele>7.4000000953674</ele>
        <time>2021-11-14T08:22:49.000Z</time>
      </trkpt>
      <trkpt lat="47.37959" lon="-2.12671">
        <ele>7.4000000953674</ele>
        <time>2021-11-14T08:22:57.000Z</time>
      </trkpt>
      <trkpt lat="47.37993" lon="-2.12724">
        <ele>7.4000000953674</ele>
        <time>2021-11-14T08:23:05.000Z</time>
      </trkpt>
      <trkpt lat="47.38021" lon="-2.12775">
        <ele>7.4000000953674</ele>
        <time>2021-11-14T08:23:13.000Z</time>
      </trkpt>
      <trkpt lat="47.38041" lon="-2.12816">
        <ele>7.4000000953674</ele>
        <time>2021-11-14T08:23:19.000Z</time>
      </trkpt>
      <trkpt lat="47.38067" lon="-2.12889">
        <ele>7</ele>
        <time>2021-11-14T08:23:28.000Z</time>
      </trkpt>
      <trkpt lat="47.3807" lon="-2.12898">
        <ele>6.5999999046326</ele>
        <time>2021-11-14T08:23:29.000Z</time>
      </trkpt>
      <trkpt lat="47.38073" lon="-2.12907">
        <ele>6.1999998092651</ele>
        <time>2021-11-14T08:23:30.000Z</time>
      </trkpt>
      <trkpt lat="47.38076" lon="-2.12916">
        <ele>5.8000001907349</ele>
        <time>2021-11-14T08:23:31.000Z</time>
      </trkpt>
      <trkpt lat="47.38079" lon="-2.12925">
        <ele>5.1999998092651</ele>
        <time>2021-11-14T08:23:32.000Z</time>
      </trkpt>
      <trkpt lat="47.38097" lon="-2.12964">
        <ele>4.4000000953674</ele>
        <time>2021-11-14T08:23:37.000Z</time>
      </trkpt>
      <trkpt lat="47.38101" lon="-2.12972">
        <ele>4</ele>
        <time>2021-11-14T08:23:38.000Z</time>
      </trkpt>
      <trkpt lat="47.38104" lon="-2.1298">
        <ele>3.5999999046326</ele>
        <time>2021-11-14T08:23:39.000Z</time>
      </trkpt>
      <trkpt lat="47.38108" lon="-2.12987">
        <ele>3.2000000476837</ele>
        <time>2021-11-14T08:23:40.000Z</time>
      </trkpt>
      <trkpt lat="47.3812" lon="-2.13015">
        <ele>3.2000000476837</ele>
        <time>2021-11-14T08:23:44.000Z</time>
      </trkpt>
      <trkpt lat="47.38129" lon="-2.13014">
        <ele>2.7999999523163</ele>
        <time>2021-11-14T08:23:46.000Z</time>
      </trkpt>
      <trkpt lat="47.38133" lon="-2.1301">
        <ele>2.4000000953674</ele>
        <time>2021-11-14T08:23:47.000Z</time>
      </trkpt>
      <trkpt lat="47.38136" lon="-2.13004">
        <ele>1.7999999523163</ele>
        <time>2021-11-14T08:23:48.000Z</time>
      </trkpt>
      <trkpt lat="47.3814" lon="-2.12999">
        <ele>1.3999999761581</ele>
        <time>2021-11-14T08:23:49.000Z</time>
      </trkpt>
      <trkpt lat="47.38144" lon="-2.12994">
        <ele>1</ele>
        <time>2021-11-14T08:23:50.000Z</time>
      </trkpt>
      <trkpt lat="47.38165" lon="-2.12966">
        <ele>1</ele>
        <time>2021-11-14T08:23:55.000Z</time>
      </trkpt>
      <trkpt lat="47.38194" lon="-2.12926">
        <ele>1</ele>
        <time>2021-11-14T08:24:01.000Z</time>
      </trkpt>
      <trkpt lat="47.38198" lon="-2.12917">
        <ele>0.60000002384186</ele>
        <time>2021-11-14T08:24:02.000Z</time>
      </trkpt>
      <trkpt lat="47.38201" lon="-2.12908">
        <ele>0.20000000298023</ele>
        <time>2021-11-14T08:24:03.000Z</time>
      </trkpt>
      <trkpt lat="47.38204" lon="-2.12898">
        <ele>-0.20000000298023</ele>
        <time>2021-11-14T08:24:04.000Z</time>
      </trkpt>
      <trkpt lat="47.38207" lon="-2.12888">
        <ele>-0.80000001192093</ele>
        <time>2021-11-14T08:24:05.000Z</time>
      </trkpt>
      <trkpt lat="47.38209" lon="-2.12878">
        <ele>-1.2000000476837</ele>
        <time>2021-11-14T08:24:06.000Z</time>
      </trkpt>
      <trkpt lat="47.38212" lon="-2.12848">
        <ele>-1.2000000476837</ele>
        <time>2021-11-14T08:24:09.000Z</time>
      </trkpt>
      <trkpt lat="47.38214" lon="-2.12767">
        <ele>-1.2000000476837</ele>
        <time>2021-11-14T08:24:17.000Z</time>
      </trkpt>
      <trkpt lat="47.38214" lon="-2.12758">
        <ele>-1.2000000476837</ele>
        <time>2021-11-14T08:24:18.000Z</time>
      </trkpt>
      <trkpt lat="47.38212" lon="-2.12738">
        <ele>-1.2000000476837</ele>
        <time>2021-11-14T08:24:20.000Z</time>
      </trkpt>
      <trkpt lat="47.38208" lon="-2.1272">
        <ele>-1.2000000476837</ele>
        <time>2021-11-14T08:24:22.000Z</time>
      </trkpt>
      <trkpt lat="47.38197" lon="-2.12694">
        <ele>-1.2000000476837</ele>
        <time>2021-11-14T08:24:25.000Z</time>
      </trkpt>
      <trkpt lat="47.38189" lon="-2.12679">
        <ele>-1.2000000476837</ele>
        <time>2021-11-14T08:24:27.000Z</time>
      </trkpt>
      <trkpt lat="47.38164" lon="-2.12647">
        <ele>-1.2000000476837</ele>
        <time>2021-11-14T08:24:32.000Z</time>
      </trkpt>
      <trkpt lat="47.38121" lon="-2.12608">
        <ele>-1.2000000476837</ele>
        <time>2021-11-14T08:24:40.000Z</time>
      </trkpt>
      <trkpt lat="47.38116" lon="-2.12603">
        <ele>-1.2000000476837</ele>
        <time>2021-11-14T08:24:41.000Z</time>
      </trkpt>
      <trkpt lat="47.38111" lon="-2.12588">
        <ele>-1.2000000476837</ele>
        <time>2021-11-14T08:24:43.000Z</time>
      </trkpt>
      <trkpt lat="47.38115" lon="-2.12572">
        <ele>-1.2000000476837</ele>
        <time>2021-11-14T08:24:45.000Z</time>
      </trkpt>
      <trkpt lat="47.38129" lon="-2.12554">
        <ele>-1.2000000476837</ele>
        <time>2021-11-14T08:24:48.000Z</time>
      </trkpt>
      <trkpt lat="47.38134" lon="-2.12547">
        <ele>-1.2000000476837</ele>
        <time>2021-11-14T08:24:49.000Z</time>
      </trkpt>
      <trkpt lat="47.38161" lon="-2.12509">
        <ele>-1.2000000476837</ele>
        <time>2021-11-14T08:24:55.000Z</time>
      </trkpt>
      <trkpt lat="47.38189" lon="-2.12458">
        <ele>-1.2000000476837</ele>
        <time>2021-11-14T08:25:02.000Z</time>
      </trkpt>
      <trkpt lat="47.38222" lon="-2.124">
        <ele>-1.2000000476837</ele>
        <time>2021-11-14T08:25:10.000Z</time>
      </trkpt>
      <trkpt lat="47.38258" lon="-2.12338">
        <ele>-1.2000000476837</ele>
        <time>2021-11-14T08:25:19.000Z</time>
      </trkpt>
      <trkpt lat="47.38289" lon="-2.12285">
        <ele>-1.2000000476837</ele>
        <time>2021-11-14T08:25:27.000Z</time>
      </trkpt>
      <trkpt lat="47.38299" lon="-2.12262">
        <ele>-1.2000000476837</ele>
        <time>2021-11-14T08:25:31.000Z</time>
      </trkpt>
      <trkpt lat="47.38297" lon="-2.12256">
        <ele>-1.2000000476837</ele>
        <time>2021-11-14T08:25:32.000Z</time>
      </trkpt>
      <trkpt lat="47.38288" lon="-2.1225">
        <ele>-1.2000000476837</ele>
        <time>2021-11-14T08:25:34.000Z</time>
      </trkpt>
      <trkpt lat="47.38284" lon="-2.12247">
        <ele>-1.2000000476837</ele>
        <time>2021-11-14T08:25:35.000Z</time>
      </trkpt>
      <trkpt lat="47.38254" lon="-2.12227">
        <ele>-1.2000000476837</ele>
        <time>2021-11-14T08:25:41.000Z</time>
      </trkpt>
      <trkpt lat="47.38239" lon="-2.12217">
        <ele>-1.2000000476837</ele>
        <time>2021-11-14T08:25:44.000Z</time>
      </trkpt>
      <trkpt lat="47.38228" lon="-2.1221">
        <ele>-1.2000000476837</ele>
        <time>2021-11-14T08:25:46.000Z</time>
      </trkpt>
      <trkpt lat="47.38192" lon="-2.12182">
        <ele>-1.2000000476837</ele>
        <time>2021-11-14T08:25:53.000Z</time>
      </trkpt>
      <trkpt lat="47.38162" lon="-2.12151">
        <ele>-1.2000000476837</ele>
        <time>2021-11-14T08:25:59.000Z</time>
      </trkpt>
      <trkpt lat="47.38153" lon="-2.12139">
        <ele>-1.2000000476837</ele>
        <time>2021-11-14T08:26:01.000Z</time>
      </trkpt>
      <trkpt lat="47.38145" lon="-2.12127">
        <ele>-1.2000000476837</ele>
        <time>2021-11-14T08:26:03.000Z</time>
      </trkpt>
      <trkpt lat="47.38141" lon="-2.1212">
        <ele>-1.2000000476837</ele>
        <time>2021-11-14T08:26:04.000Z</time>
      </trkpt>
      <trkpt lat="47.38121" lon="-2.12077">
        <ele>-1.2000000476837</ele>
        <time>2021-11-14T08:26:10.000Z</time>
      </trkpt>
      <trkpt lat="47.381" lon="-2.12021">
        <ele>-1.2000000476837</ele>
        <time>2021-11-14T08:26:17.000Z</time>
      </trkpt>
      <trkpt lat="47.38079" lon="-2.11975">
        <ele>-1.2000000476837</ele>
        <time>2021-11-14T08:26:23.000Z</time>
      </trkpt>
      <trkpt lat="47.38069" lon="-2.11963">
        <ele>-1.2000000476837</ele>
        <time>2021-11-14T08:26:25.000Z</time>
      </trkpt>
      <trkpt lat="47.38058" lon="-2.11954">
        <ele>-1.2000000476837</ele>
        <time>2021-11-14T08:26:27.000Z</time>
      </trkpt>
      <trkpt lat="47.38054" lon="-2.1195">
        <ele>-1.2000000476837</ele>
        <time>2021-11-14T08:26:28.000Z</time>
      </trkpt>
      <trkpt lat="47.38018" lon="-2.11919">
        <ele>-1.2000000476837</ele>
        <time>2021-11-14T08:26:35.000Z</time>
      </trkpt>
      <trkpt lat="47.37986" lon="-2.11894">
        <ele>-1.2000000476837</ele>
        <time>2021-11-14T08:26:41.000Z</time>
      </trkpt>
      <trkpt lat="47.37964" lon="-2.11876">
        <ele>-1.2000000476837</ele>
        <time>2021-11-14T08:26:45.000Z</time>
      </trkpt>
      <trkpt lat="47.37959" lon="-2.11871">
        <ele>-1.2000000476837</ele>
        <time>2021-11-14T08:26:46.000Z</time>
      </trkpt>
      <trkpt lat="47.37932" lon="-2.11836">
        <ele>-1.2000000476837</ele>
        <time>2021-11-14T08:26:52.000Z</time>
      </trkpt>
      <trkpt lat="47.37924" lon="-2.11822">
        <ele>-1.2000000476837</ele>
        <time>2021-11-14T08:26:54.000Z</time>
      </trkpt>
      <trkpt lat="47.37916" lon="-2.118">
        <ele>-1.2000000476837</ele>
        <time>2021-11-14T08:26:57.000Z</time>
      </trkpt>
      <trkpt lat="47.37905" lon="-2.11748">
        <ele>-1.2000000476837</ele>
        <time>2021-11-14T08:27:03.000Z</time>
      </trkpt>
      <trkpt lat="47.37912" lon="-2.11716">
        <ele>-1.2000000476837</ele>
        <time>2021-11-14T08:27:07.000Z</time>
      </trkpt>
      <trkpt lat="47.37929" lon="-2.11691">
        <ele>-1.2000000476837</ele>
        <time>2021-11-14T08:27:11.000Z</time>
      </trkpt>
      <trkpt lat="47.37934" lon="-2.11685">
        <ele>-1.2000000476837</ele>
        <time>2021-11-14T08:27:12.000Z</time>
      </trkpt>
      <trkpt lat="47.3797" lon="-2.11654">
        <ele>-1.2000000476837</ele>
        <time>2021-11-14T08:27:19.000Z</time>
      </trkpt>
      <trkpt lat="47.38005" lon="-2.11625">
        <ele>-1.2000000476837</ele>
        <time>2021-11-14T08:27:26.000Z</time>
      </trkpt>
      <trkpt lat="47.38023" lon="-2.11606">
        <ele>-1.2000000476837</ele>
        <time>2021-11-14T08:27:30.000Z</time>
      </trkpt>
      <trkpt lat="47.3803" lon="-2.11594">
        <ele>-1.2000000476837</ele>
        <time>2021-11-14T08:27:32.000Z</time>
      </trkpt>
      <trkpt lat="47.38046" lon="-2.11558">
        <ele>-1.2000000476837</ele>
        <time>2021-11-14T08:27:38.000Z</time>
      </trkpt>
      <trkpt lat="47.38049" lon="-2.11553">
        <ele>-1.2000000476837</ele>
        <time>2021-11-14T08:27:39.000Z</time>
      </trkpt>
      <trkpt lat="47.38051" lon="-2.11548">
        <ele>-0.80000001192093</ele>
        <time>2021-11-14T08:27:40.000Z</time>
      </trkpt>
      <trkpt lat="47.38054" lon="-2.11543">
        <ele>-0.20000000298023</ele>
        <time>2021-11-14T08:27:41.000Z</time>
      </trkpt>
      <trkpt lat="47.38057" lon="-2.11538">
        <ele>0.20000000298023</ele>
        <time>2021-11-14T08:27:42.000Z</time>
      </trkpt>
      <trkpt lat="47.38059" lon="-2.11534">
        <ele>1</ele>
        <time>2021-11-14T08:27:43.000Z</time>
      </trkpt>
      <trkpt lat="47.38067" lon="-2.11528">
        <ele>1</ele>
        <time>2021-11-14T08:27:45.000Z</time>
      </trkpt>
      <trkpt lat="47.38075" lon="-2.11528">
        <ele>1</ele>
        <time>2021-11-14T08:27:47.000Z</time>
      </trkpt>
      <trkpt lat="47.38079" lon="-2.11531">
        <ele>1.3999999761581</ele>
        <time>2021-11-14T08:27:48.000Z</time>
      </trkpt>
      <trkpt lat="47.38082" lon="-2.11535">
        <ele>1.7999999523163</ele>
        <time>2021-11-14T08:27:49.000Z</time>
      </trkpt>
      <trkpt lat="47.38084" lon="-2.1154">
        <ele>2.2000000476837</ele>
        <time>2021-11-14T08:27:50.000Z</time>
      </trkpt>
      <trkpt lat="47.38087" lon="-2.11545">
        <ele>2.7999999523163</ele>
        <time>2021-11-14T08:27:51.000Z</time>
      </trkpt>
      <trkpt lat="47.3809" lon="-2.11551">
        <ele>3.2000000476837</ele>
        <time>2021-11-14T08:27:52.000Z</time>
      </trkpt>
      <trkpt lat="47.381" lon="-2.11573">
        <ele>3.2000000476837</ele>
        <time>2021-11-14T08:27:56.000Z</time>
      </trkpt>
      <trkpt lat="47.38113" lon="-2.11596">
        <ele>3.5999999046326</ele>
        <time>2021-11-14T08:28:00.000Z</time>
      </trkpt>
      <trkpt lat="47.38117" lon="-2.11602">
        <ele>4</ele>
        <time>2021-11-14T08:28:01.000Z</time>
      </trkpt>
      <trkpt lat="47.3812" lon="-2.11608">
        <ele>4.4000000953674</ele>
        <time>2021-11-14T08:28:02.000Z</time>
      </trkpt>
      <trkpt lat="47.38123" lon="-2.11613">
        <ele>4.8000001907349</ele>
        <time>2021-11-14T08:28:03.000Z</time>
      </trkpt>
      <trkpt lat="47.38126" lon="-2.11619">
        <ele>5.1999998092651</ele>
        <time>2021-11-14T08:28:04.000Z</time>
      </trkpt>
      <trkpt lat="47.38157" lon="-2.11666">
        <ele>5.1999998092651</ele>
        <time>2021-11-14T08:28:13.000Z</time>
      </trkpt>
      <trkpt lat="47.38182" lon="-2.11699">
        <ele>5.1999998092651</ele>
        <time>2021-11-14T08:28:19.000Z</time>
      </trkpt>
      <trkpt lat="47.38218" lon="-2.11749">
        <ele>5.1999998092651</ele>
        <time>2021-11-14T08:28:27.000Z</time>
      </trkpt>
      <trkpt lat="47.38254" lon="-2.11792">
        <ele>5.1999998092651</ele>
        <time>2021-11-14T08:28:34.000Z</time>
      </trkpt>
      <trkpt lat="47.38302" lon="-2.11841">
        <ele>5.1999998092651</ele>
        <time>2021-11-14T08:28:43.000Z</time>
      </trkpt>
      <trkpt lat="47.3833" lon="-2.11878">
        <ele>5.1999998092651</ele>
        <time>2021-11-14T08:28:49.000Z</time>
      </trkpt>
      <trkpt lat="47.38361" lon="-2.11935">
        <ele>5.1999998092651</ele>
        <time>2021-11-14T08:28:57.000Z</time>
      </trkpt>
      <trkpt lat="47.38386" lon="-2.11997">
        <ele>5.1999998092651</ele>
        <time>2021-11-14T08:29:05.000Z</time>
      </trkpt>
      <trkpt lat="47.38393" lon="-2.12011">
        <ele>4.8000001907349</ele>
        <time>2021-11-14T08:29:07.000Z</time>
      </trkpt>
      <trkpt lat="47.38397" lon="-2.12019">
        <ele>4.4000000953674</ele>
        <time>2021-11-14T08:29:08.000Z</time>
      </trkpt>
      <trkpt lat="47.38401" lon="-2.12026">
        <ele>4</ele>
        <time>2021-11-14T08:29:09.000Z</time>
      </trkpt>
      <trkpt lat="47.38404" lon="-2.12033">
        <ele>3.5999999046326</ele>
        <time>2021-11-14T08:29:10.000Z</time>
      </trkpt>
      <trkpt lat="47.38409" lon="-2.1204">
        <ele>3.2000000476837</ele>
        <time>2021-11-14T08:29:11.000Z</time>
      </trkpt>
      <trkpt lat="47.38434" lon="-2.12069">
        <ele>3.2000000476837</ele>
        <time>2021-11-14T08:29:16.000Z</time>
      </trkpt>
      <trkpt lat="47.38476" lon="-2.12106">
        <ele>3.2000000476837</ele>
        <time>2021-11-14T08:29:24.000Z</time>
      </trkpt>
      <trkpt lat="47.3851" lon="-2.12138">
        <ele>3.2000000476837</ele>
        <time>2021-11-14T08:29:30.000Z</time>
      </trkpt>
      <trkpt lat="47.38559" lon="-2.12185">
        <ele>3.2000000476837</ele>
        <time>2021-11-14T08:29:38.000Z</time>
      </trkpt>
      <trkpt lat="47.38572" lon="-2.12198">
        <ele>2.7999999523163</ele>
        <time>2021-11-14T08:29:40.000Z</time>
      </trkpt>
      <trkpt lat="47.38578" lon="-2.12205">
        <ele>2.4000000953674</ele>
        <time>2021-11-14T08:29:41.000Z</time>
      </trkpt>
      <trkpt lat="47.38585" lon="-2.12211">
        <ele>1.7999999523163</ele>
        <time>2021-11-14T08:29:42.000Z</time>
      </trkpt>
      <trkpt lat="47.38591" lon="-2.12218">
        <ele>1.3999999761581</ele>
        <time>2021-11-14T08:29:43.000Z</time>
      </trkpt>
      <trkpt lat="47.38598" lon="-2.12224">
        <ele>1</ele>
        <time>2021-11-14T08:29:44.000Z</time>
      </trkpt>
      <trkpt lat="47.38604" lon="-2.12231">
        <ele>1</ele>
        <time>2021-11-14T08:29:45.000Z</time>
      </trkpt>
      <trkpt lat="47.38628" lon="-2.12256">
        <ele>1</ele>
        <time>2021-11-14T08:29:49.000Z</time>
      </trkpt>
      <trkpt lat="47.38669" lon="-2.12293">
        <ele>1</ele>
        <time>2021-11-14T08:29:56.000Z</time>
      </trkpt>
      <trkpt lat="47.38701" lon="-2.12302">
        <ele>1</ele>
        <time>2021-11-14T08:30:01.000Z</time>
      </trkpt>
      <trkpt lat="47.38738" lon="-2.12299">
        <ele>1</ele>
        <time>2021-11-14T08:30:07.000Z</time>
      </trkpt>
      <trkpt lat="47.38778" lon="-2.12296">
        <ele>1</ele>
        <time>2021-11-14T08:30:13.000Z</time>
      </trkpt>
      <trkpt lat="47.38785" lon="-2.12296">
        <ele>1</ele>
        <time>2021-11-14T08:30:14.000Z</time>
      </trkpt>
      <trkpt lat="47.38818" lon="-2.12304">
        <ele>1</ele>
        <time>2021-11-14T08:30:19.000Z</time>
      </trkpt>
      <trkpt lat="47.38855" lon="-2.12318">
        <ele>1</ele>
        <time>2021-11-14T08:30:25.000Z</time>
      </trkpt>
      <trkpt lat="47.38872" lon="-2.12323">
        <ele>1</ele>
        <time>2021-11-14T08:30:28.000Z</time>
      </trkpt>
      <trkpt lat="47.38876" lon="-2.12329">
        <ele>1</ele>
        <time>2021-11-14T08:30:29.000Z</time>
      </trkpt>
      <trkpt lat="47.38879" lon="-2.12354">
        <ele>1</ele>
        <time>2021-11-14T08:30:32.000Z</time>
      </trkpt>
      <trkpt lat="47.38871" lon="-2.12396">
        <ele>1</ele>
        <time>2021-11-14T08:30:37.000Z</time>
      </trkpt>
      <trkpt lat="47.38859" lon="-2.12417">
        <ele>1</ele>
        <time>2021-11-14T08:30:40.000Z</time>
      </trkpt>
      <trkpt lat="47.38851" lon="-2.12432">
        <ele>1</ele>
        <time>2021-11-14T08:30:42.000Z</time>
      </trkpt>
      <trkpt lat="47.38845" lon="-2.12449">
        <ele>1</ele>
        <time>2021-11-14T08:30:44.000Z</time>
      </trkpt>
      <trkpt lat="47.38841" lon="-2.12469">
        <ele>1</ele>
        <time>2021-11-14T08:30:46.000Z</time>
      </trkpt>
      <trkpt lat="47.38839" lon="-2.1251">
        <ele>1</ele>
        <time>2021-11-14T08:30:50.000Z</time>
      </trkpt>
      <trkpt lat="47.38845" lon="-2.12549">
        <ele>1</ele>
        <time>2021-11-14T08:30:54.000Z</time>
      </trkpt>
      <trkpt lat="47.38847" lon="-2.12558">
        <ele>1</ele>
        <time>2021-11-14T08:30:55.000Z</time>
      </trkpt>
      <trkpt lat="47.38855" lon="-2.12574">
        <ele>1</ele>
        <time>2021-11-14T08:30:57.000Z</time>
      </trkpt>
      <trkpt lat="47.38864" lon="-2.12586">
        <ele>1</ele>
        <time>2021-11-14T08:30:59.000Z</time>
      </trkpt>
      <trkpt lat="47.38883" lon="-2.12591">
        <ele>1</ele>
        <time>2021-11-14T08:31:02.000Z</time>
      </trkpt>
      <trkpt lat="47.389" lon="-2.12587">
        <ele>1</ele>
        <time>2021-11-14T08:31:05.000Z</time>
      </trkpt>
      <trkpt lat="47.38906" lon="-2.12586">
        <ele>1</ele>
        <time>2021-11-14T08:31:06.000Z</time>
      </trkpt>
      <trkpt lat="47.38911" lon="-2.12584">
        <ele>1</ele>
        <time>2021-11-14T08:31:07.000Z</time>
      </trkpt>
      <trkpt lat="47.38933" lon="-2.12579">
        <ele>1</ele>
        <time>2021-11-14T08:31:11.000Z</time>
      </trkpt>
      <trkpt lat="47.38956" lon="-2.12573">
        <ele>1.3999999761581</ele>
        <time>2021-11-14T08:31:15.000Z</time>
      </trkpt>
      <trkpt lat="47.38962" lon="-2.12572">
        <ele>1.7999999523163</ele>
        <time>2021-11-14T08:31:16.000Z</time>
      </trkpt>
      <trkpt lat="47.38967" lon="-2.12571">
        <ele>2.4000000953674</ele>
        <time>2021-11-14T08:31:17.000Z</time>
      </trkpt>
      <trkpt lat="47.38973" lon="-2.12569">
        <ele>2.7999999523163</ele>
        <time>2021-11-14T08:31:18.000Z</time>
      </trkpt>
      <trkpt lat="47.38978" lon="-2.12568">
        <ele>3.2000000476837</ele>
        <time>2021-11-14T08:31:19.000Z</time>
      </trkpt>
      <trkpt lat="47.3901" lon="-2.12561">
        <ele>3.2000000476837</ele>
        <time>2021-11-14T08:31:25.000Z</time>
      </trkpt>
      <trkpt lat="47.39021" lon="-2.12559">
        <ele>3.5999999046326</ele>
        <time>2021-11-14T08:31:27.000Z</time>
      </trkpt>
      <trkpt lat="47.39026" lon="-2.12558">
        <ele>4</ele>
        <time>2021-11-14T08:31:28.000Z</time>
      </trkpt>
      <trkpt lat="47.39031" lon="-2.12556">
        <ele>4.4000000953674</ele>
        <time>2021-11-14T08:31:29.000Z</time>
      </trkpt>
      <trkpt lat="47.39036" lon="-2.12556">
        <ele>4.8000001907349</ele>
        <time>2021-11-14T08:31:30.000Z</time>
      </trkpt>
      <trkpt lat="47.39041" lon="-2.12555">
        <ele>5.1999998092651</ele>
        <time>2021-11-14T08:31:31.000Z</time>
      </trkpt>
      <trkpt lat="47.39046" lon="-2.12554">
        <ele>5.1999998092651</ele>
        <time>2021-11-14T08:31:32.000Z</time>
      </trkpt>
      <trkpt lat="47.39088" lon="-2.12545">
        <ele>5.1999998092651</ele>
        <time>2021-11-14T08:31:40.000Z</time>
      </trkpt>
      <trkpt lat="47.39138" lon="-2.12537">
        <ele>5.1999998092651</ele>
        <time>2021-11-14T08:31:48.000Z</time>
      </trkpt>
      <trkpt lat="47.39176" lon="-2.12526">
        <ele>4.8000001907349</ele>
        <time>2021-11-14T08:31:53.000Z</time>
      </trkpt>
      <trkpt lat="47.39184" lon="-2.12523">
        <ele>4.4000000953674</ele>
        <time>2021-11-14T08:31:54.000Z</time>
      </trkpt>
      <trkpt lat="47.39193" lon="-2.12518">
        <ele>4</ele>
        <time>2021-11-14T08:31:55.000Z</time>
      </trkpt>
      <trkpt lat="47.39201" lon="-2.12511">
        <ele>3.5999999046326</ele>
        <time>2021-11-14T08:31:56.000Z</time>
      </trkpt>
      <trkpt lat="47.39207" lon="-2.12504">
        <ele>3.2000000476837</ele>
        <time>2021-11-14T08:31:57.000Z</time>
      </trkpt>
      <trkpt lat="47.39244" lon="-2.12472">
        <ele>3.2000000476837</ele>
        <time>2021-11-14T08:32:03.000Z</time>
      </trkpt>
      <trkpt lat="47.39255" lon="-2.12467">
        <ele>3.2000000476837</ele>
        <time>2021-11-14T08:32:05.000Z</time>
      </trkpt>
      <trkpt lat="47.39272" lon="-2.12464">
        <ele>3.2000000476837</ele>
        <time>2021-11-14T08:32:08.000Z</time>
      </trkpt>
      <trkpt lat="47.39304" lon="-2.12469">
        <ele>3.2000000476837</ele>
        <time>2021-11-14T08:32:13.000Z</time>
      </trkpt>
      <trkpt lat="47.39358" lon="-2.12476">
        <ele>3.2000000476837</ele>
        <time>2021-11-14T08:32:21.000Z</time>
      </trkpt>
      <trkpt lat="47.39364" lon="-2.12477">
        <ele>3.2000000476837</ele>
        <time>2021-11-14T08:32:22.000Z</time>
      </trkpt>
      <trkpt lat="47.3941" lon="-2.12473">
        <ele>3.2000000476837</ele>
        <time>2021-11-14T08:32:29.000Z</time>
      </trkpt>
      <trkpt lat="47.3945" lon="-2.12472">
        <ele>3.2000000476837</ele>
        <time>2021-11-14T08:32:35.000Z</time>
      </trkpt>
      <trkpt lat="47.39505" lon="-2.12483">
        <ele>3.2000000476837</ele>
        <time>2021-11-14T08:32:44.000Z</time>
      </trkpt>
      <trkpt lat="47.39543" lon="-2.12486">
        <ele>3.2000000476837</ele>
        <time>2021-11-14T08:32:50.000Z</time>
      </trkpt>
      <trkpt lat="47.39549" lon="-2.12485">
        <ele>3.2000000476837</ele>
        <time>2021-11-14T08:32:51.000Z</time>
      </trkpt>
      <trkpt lat="47.39582" lon="-2.12467">
        <ele>3.2000000476837</ele>
        <time>2021-11-14T08:32:57.000Z</time>
      </trkpt>
      <trkpt lat="47.39626" lon="-2.12439">
        <ele>3.2000000476837</ele>
        <time>2021-11-14T08:33:06.000Z</time>
      </trkpt>
      <trkpt lat="47.39651" lon="-2.12418">
        <ele>3.2000000476837</ele>
        <time>2021-11-14T08:33:12.000Z</time>
      </trkpt>
      <trkpt lat="47.39653" lon="-2.12411">
        <ele>3.2000000476837</ele>
        <time>2021-11-14T08:33:13.000Z</time>
      </trkpt>
      <trkpt lat="47.3965" lon="-2.12389">
        <ele>3.2000000476837</ele>
        <time>2021-11-14T08:33:16.000Z</time>
      </trkpt>
      <trkpt lat="47.39634" lon="-2.12324">
        <ele>3.2000000476837</ele>
        <time>2021-11-14T08:33:23.000Z</time>
      </trkpt>
      <trkpt lat="47.39619" lon="-2.12276">
        <ele>3.2000000476837</ele>
        <time>2021-11-14T08:33:28.000Z</time>
      </trkpt>
      <trkpt lat="47.39615" lon="-2.12266">
        <ele>3.2000000476837</ele>
        <time>2021-11-14T08:33:29.000Z</time>
      </trkpt>
      <trkpt lat="47.39581" lon="-2.1221">
        <ele>3.2000000476837</ele>
        <time>2021-11-14T08:33:36.000Z</time>
      </trkpt>
      <trkpt lat="47.39538" lon="-2.1215">
        <ele>3.2000000476837</ele>
        <time>2021-11-14T08:33:44.000Z</time>
      </trkpt>
      <trkpt lat="47.39533" lon="-2.12143">
        <ele>3.2000000476837</ele>
        <time>2021-11-14T08:33:45.000Z</time>
      </trkpt>
      <trkpt lat="47.39489" lon="-2.12084">
        <ele>3.2000000476837</ele>
        <time>2021-11-14T08:33:53.000Z</time>
      </trkpt>
      <trkpt lat="47.39446" lon="-2.12025">
        <ele>3.2000000476837</ele>
        <time>2021-11-14T08:34:01.000Z</time>
      </trkpt>
      <trkpt lat="47.39419" lon="-2.11974">
        <ele>3.2000000476837</ele>
        <time>2021-11-14T08:34:07.000Z</time>
      </trkpt>
      <trkpt lat="47.39393" lon="-2.11913">
        <ele>3.2000000476837</ele>
        <time>2021-11-14T08:34:14.000Z</time>
      </trkpt>
      <trkpt lat="47.39382" lon="-2.11888">
        <ele>3.2000000476837</ele>
        <time>2021-11-14T08:34:17.000Z</time>
      </trkpt>
      <trkpt lat="47.39377" lon="-2.11869">
        <ele>3.2000000476837</ele>
        <time>2021-11-14T08:34:19.000Z</time>
      </trkpt>
      <trkpt lat="47.39374" lon="-2.11831">
        <ele>3.2000000476837</ele>
        <time>2021-11-14T08:34:23.000Z</time>
      </trkpt>
      <trkpt lat="47.39379" lon="-2.11769">
        <ele>3.2000000476837</ele>
        <time>2021-11-14T08:34:30.000Z</time>
      </trkpt>
      <trkpt lat="47.39379" lon="-2.11744">
        <ele>2.7999999523163</ele>
        <time>2021-11-14T08:34:34.000Z</time>
      </trkpt>
      <trkpt lat="47.3938" lon="-2.11741">
        <ele>2.2000000476837</ele>
        <time>2021-11-14T08:34:35.000Z</time>
      </trkpt>
      <trkpt lat="47.39381" lon="-2.11738">
        <ele>1.7999999523163</ele>
        <time>2021-11-14T08:34:36.000Z</time>
      </trkpt>
      <trkpt lat="47.39382" lon="-2.11735">
        <ele>1.3999999761581</ele>
        <time>2021-11-14T08:34:37.000Z</time>
      </trkpt>
      <trkpt lat="47.39384" lon="-2.11734">
        <ele>1</ele>
        <time>2021-11-14T08:34:38.000Z</time>
      </trkpt>
      <trkpt lat="47.39403" lon="-2.11729">
        <ele>1</ele>
        <time>2021-11-14T08:34:43.000Z</time>
      </trkpt>
      <trkpt lat="47.39417" lon="-2.11727">
        <ele>1</ele>
        <time>2021-11-14T08:34:46.000Z</time>
      </trkpt>
      <trkpt lat="47.39434" lon="-2.11727">
        <ele>1</ele>
        <time>2021-11-14T08:34:49.000Z</time>
      </trkpt>
      <trkpt lat="47.39472" lon="-2.11728">
        <ele>1</ele>
        <time>2021-11-14T08:34:56.000Z</time>
      </trkpt>
      <trkpt lat="47.39505" lon="-2.11731">
        <ele>1</ele>
        <time>2021-11-14T08:35:02.000Z</time>
      </trkpt>
      <trkpt lat="47.39525" lon="-2.11731">
        <ele>1.3999999761581</ele>
        <time>2021-11-14T08:35:06.000Z</time>
      </trkpt>
      <trkpt lat="47.39529" lon="-2.11731">
        <ele>2</ele>
        <time>2021-11-14T08:35:07.000Z</time>
      </trkpt>
      <trkpt lat="47.39533" lon="-2.11731">
        <ele>2.7999999523163</ele>
        <time>2021-11-14T08:35:08.000Z</time>
      </trkpt>
      <trkpt lat="47.39538" lon="-2.11732">
        <ele>3.2000000476837</ele>
        <time>2021-11-14T08:35:09.000Z</time>
      </trkpt>
      <trkpt lat="47.39554" lon="-2.11733">
        <ele>3.7999999523163</ele>
        <time>2021-11-14T08:35:13.000Z</time>
      </trkpt>
      <trkpt lat="47.39557" lon="-2.11734">
        <ele>4.1999998092651</ele>
        <time>2021-11-14T08:35:14.000Z</time>
      </trkpt>
      <trkpt lat="47.39561" lon="-2.11735">
        <ele>4.5999999046326</ele>
        <time>2021-11-14T08:35:15.000Z</time>
      </trkpt>
      <trkpt lat="47.39565" lon="-2.11736">
        <ele>5</ele>
        <time>2021-11-14T08:35:16.000Z</time>
      </trkpt>
      <trkpt lat="47.39569" lon="-2.11737">
        <ele>5.4000000953674</ele>
        <time>2021-11-14T08:35:17.000Z</time>
      </trkpt>
      <trkpt lat="47.39578" lon="-2.11737">
        <ele>5.4000000953674</ele>
        <time>2021-11-14T08:35:19.000Z</time>
      </trkpt>
      <trkpt lat="47.39615" lon="-2.11735">
        <ele>5.4000000953674</ele>
        <time>2021-11-14T08:35:26.000Z</time>
      </trkpt>
      <trkpt lat="47.3965" lon="-2.11732">
        <ele>5.4000000953674</ele>
        <time>2021-11-14T08:35:33.000Z</time>
      </trkpt>
      <trkpt lat="47.3966" lon="-2.11738">
        <ele>5.4000000953674</ele>
        <time>2021-11-14T08:35:36.000Z</time>
      </trkpt>
      <trkpt lat="47.39658" lon="-2.11748">
        <ele>5.4000000953674</ele>
        <time>2021-11-14T08:35:39.000Z</time>
      </trkpt>
      <trkpt lat="47.39651" lon="-2.1175">
        <ele>5.4000000953674</ele>
        <time>2021-11-14T08:35:41.000Z</time>
      </trkpt>
      <trkpt lat="47.39642" lon="-2.11755">
        <ele>5.4000000953674</ele>
        <time>2021-11-14T08:35:44.000Z</time>
      </trkpt>
      <trkpt lat="47.39641" lon="-2.11769">
        <ele>5.4000000953674</ele>
        <time>2021-11-14T08:35:47.000Z</time>
      </trkpt>
      <trkpt lat="47.39639" lon="-2.1179">
        <ele>5.4000000953674</ele>
        <time>2021-11-14T08:35:51.000Z</time>
      </trkpt>
      <trkpt lat="47.39639" lon="-2.11794">
        <ele>5.4000000953674</ele>
        <time>2021-11-14T08:35:52.000Z</time>
      </trkpt>
      <trkpt lat="47.39635" lon="-2.11806">
        <ele>5.4000000953674</ele>
        <time>2021-11-14T08:35:56.000Z</time>
      </trkpt>
      <trkpt lat="47.3963" lon="-2.11799">
        <ele>5.4000000953674</ele>
        <time>2021-11-14T08:35:59.000Z</time>
      </trkpt>
      <trkpt lat="47.39629" lon="-2.11788">
        <ele>5.4000000953674</ele>
        <time>2021-11-14T08:36:02.000Z</time>
      </trkpt>
      <trkpt lat="47.39621" lon="-2.11789">
        <ele>5.4000000953674</ele>
        <time>2021-11-14T08:36:05.000Z</time>
      </trkpt>
      <trkpt lat="47.39619" lon="-2.11789">
        <ele>5.4000000953674</ele>
        <time>2021-11-14T08:36:06.000Z</time>
      </trkpt>
      <trkpt lat="47.39617" lon="-2.11782">
        <ele>5.4000000953674</ele>
        <time>2021-11-14T08:36:08.000Z</time>
      </trkpt>
      <trkpt lat="47.39611" lon="-2.11774">
        <ele>5.4000000953674</ele>
        <time>2021-11-14T08:36:12.000Z</time>
      </trkpt>
      <trkpt lat="47.39609" lon="-2.11764">
        <ele>5.4000000953674</ele>
        <time>2021-11-14T08:36:15.000Z</time>
      </trkpt>
      <trkpt lat="47.39617" lon="-2.11763">
        <ele>5.4000000953674</ele>
        <time>2021-11-14T08:36:18.000Z</time>
      </trkpt>
      <trkpt lat="47.39626" lon="-2.11766">
        <ele>5.4000000953674</ele>
        <time>2021-11-14T08:36:21.000Z</time>
      </trkpt>
      <trkpt lat="47.39632" lon="-2.11751">
        <ele>5.4000000953674</ele>
        <time>2021-11-14T08:36:24.000Z</time>
      </trkpt>
      <trkpt lat="47.39628" lon="-2.11745">
        <ele>5.4000000953674</ele>
        <time>2021-11-14T08:36:26.000Z</time>
      </trkpt>
      <trkpt lat="47.39611" lon="-2.11748">
        <ele>5.4000000953674</ele>
        <time>2021-11-14T08:36:30.000Z</time>
      </trkpt>
      <trkpt lat="47.39597" lon="-2.11751">
        <ele>5.4000000953674</ele>
        <time>2021-11-14T08:36:34.000Z</time>
      </trkpt>
      <trkpt lat="47.39595" lon="-2.11764">
        <ele>5.4000000953674</ele>
        <time>2021-11-14T08:36:37.000Z</time>
      </trkpt>
      <trkpt lat="47.39592" lon="-2.11783">
        <ele>5.4000000953674</ele>
        <time>2021-11-14T08:36:41.000Z</time>
      </trkpt>
      <trkpt lat="47.39598" lon="-2.11803">
        <ele>5.4000000953674</ele>
        <time>2021-11-14T08:36:46.000Z</time>
      </trkpt>
      <trkpt lat="47.39612" lon="-2.11806">
        <ele>5.4000000953674</ele>
        <time>2021-11-14T08:36:50.000Z</time>
      </trkpt>
      <trkpt lat="47.39621" lon="-2.11817">
        <ele>5.4000000953674</ele>
        <time>2021-11-14T08:36:53.000Z</time>
      </trkpt>
      <trkpt lat="47.39623" lon="-2.1182">
        <ele>5.4000000953674</ele>
        <time>2021-11-14T08:36:54.000Z</time>
      </trkpt>
      <trkpt lat="47.39629" lon="-2.11824">
        <ele>5.4000000953674</ele>
        <time>2021-11-14T08:36:56.000Z</time>
      </trkpt>
      <trkpt lat="47.39635" lon="-2.11824">
        <ele>5.4000000953674</ele>
        <time>2021-11-14T08:36:58.000Z</time>
      </trkpt>
      <trkpt lat="47.39639" lon="-2.11833">
        <ele>5.4000000953674</ele>
        <time>2021-11-14T08:37:01.000Z</time>
      </trkpt>
      <trkpt lat="47.39639" lon="-2.11838">
        <ele>5.4000000953674</ele>
        <time>2021-11-14T08:37:02.000Z</time>
      </trkpt>
      <trkpt lat="47.3964" lon="-2.11861">
        <ele>5.8000001907349</ele>
        <time>2021-11-14T08:37:07.000Z</time>
      </trkpt>
      <trkpt lat="47.39641" lon="-2.11866">
        <ele>6.1999998092651</ele>
        <time>2021-11-14T08:37:08.000Z</time>
      </trkpt>
      <trkpt lat="47.39642" lon="-2.11871">
        <ele>6.5999999046326</ele>
        <time>2021-11-14T08:37:09.000Z</time>
      </trkpt>
      <trkpt lat="47.39643" lon="-2.11876">
        <ele>7</ele>
        <time>2021-11-14T08:37:10.000Z</time>
      </trkpt>
      <trkpt lat="47.39645" lon="-2.11878">
        <ele>7.4000000953674</ele>
        <time>2021-11-14T08:37:11.000Z</time>
      </trkpt>
      <trkpt lat="47.39648" lon="-2.11878">
        <ele>7.4000000953674</ele>
        <time>2021-11-14T08:37:12.000Z</time>
      </trkpt>
      <trkpt lat="47.39654" lon="-2.11876">
        <ele>7.4000000953674</ele>
        <time>2021-11-14T08:37:14.000Z</time>
      </trkpt>
      <trkpt lat="47.39656" lon="-2.11882">
        <ele>7.4000000953674</ele>
        <time>2021-11-14T08:37:16.000Z</time>
      </trkpt>
      <trkpt lat="47.39655" lon="-2.11903">
        <ele>7.4000000953674</ele>
        <time>2021-11-14T08:37:21.000Z</time>
      </trkpt>
      <trkpt lat="47.39662" lon="-2.11906">
        <ele>7.4000000953674</ele>
        <time>2021-11-14T08:37:24.000Z</time>
      </trkpt>
      <trkpt lat="47.39666" lon="-2.11895">
        <ele>7.4000000953674</ele>
        <time>2021-11-14T08:37:27.000Z</time>
      </trkpt>
      <trkpt lat="47.39673" lon="-2.11891">
        <ele>7.4000000953674</ele>
        <time>2021-11-14T08:37:31.000Z</time>
      </trkpt>
      <trkpt lat="47.39676" lon="-2.11879">
        <ele>7.8000001907349</ele>
        <time>2021-11-14T08:37:36.000Z</time>
      </trkpt>
      <trkpt lat="47.39677" lon="-2.11878">
        <ele>8.6000003814697</ele>
        <time>2021-11-14T08:37:37.000Z</time>
      </trkpt>
      <trkpt lat="47.39679" lon="-2.11878">
        <ele>9.1999998092651</ele>
        <time>2021-11-14T08:37:38.000Z</time>
      </trkpt>
      <trkpt lat="47.3968" lon="-2.1188">
        <ele>9.6000003814697</ele>
        <time>2021-11-14T08:37:39.000Z</time>
      </trkpt>
      <trkpt lat="47.39681" lon="-2.11883">
        <ele>9.6000003814697</ele>
        <time>2021-11-14T08:37:40.000Z</time>
      </trkpt>
      <trkpt lat="47.39689" lon="-2.11887">
        <ele>9.6000003814697</ele>
        <time>2021-11-14T08:37:43.000Z</time>
      </trkpt>
      <trkpt lat="47.39702" lon="-2.11892">
        <ele>9.6000003814697</ele>
        <time>2021-11-14T08:37:48.000Z</time>
      </trkpt>
      <trkpt lat="47.39706" lon="-2.11896">
        <ele>9.6000003814697</ele>
        <time>2021-11-14T08:37:50.000Z</time>
      </trkpt>
      <trkpt lat="47.39708" lon="-2.11902">
        <ele>9.6000003814697</ele>
        <time>2021-11-14T08:37:52.000Z</time>
      </trkpt>
      <trkpt lat="47.39709" lon="-2.11905">
        <ele>9.6000003814697</ele>
        <time>2021-11-14T08:37:53.000Z</time>
      </trkpt>
      <trkpt lat="47.39703" lon="-2.11908">
        <ele>9.6000003814697</ele>
        <time>2021-11-14T08:37:56.000Z</time>
      </trkpt>
      <trkpt lat="47.39697" lon="-2.11904">
        <ele>9.6000003814697</ele>
        <time>2021-11-14T08:37:58.000Z</time>
      </trkpt>
      <trkpt lat="47.39695" lon="-2.11902">
        <ele>9.6000003814697</ele>
        <time>2021-11-14T08:37:59.000Z</time>
      </trkpt>
      <trkpt lat="47.39692" lon="-2.11903">
        <ele>9.6000003814697</ele>
        <time>2021-11-14T08:38:00.000Z</time>
      </trkpt>
      <trkpt lat="47.39691" lon="-2.11912">
        <ele>9.6000003814697</ele>
        <time>2021-11-14T08:38:03.000Z</time>
      </trkpt>
      <trkpt lat="47.39698" lon="-2.11918">
        <ele>9.6000003814697</ele>
        <time>2021-11-14T08:38:06.000Z</time>
      </trkpt>
      <trkpt lat="47.39699" lon="-2.1193">
        <ele>9.6000003814697</ele>
        <time>2021-11-14T08:38:10.000Z</time>
      </trkpt>
      <trkpt lat="47.39685" lon="-2.11935">
        <ele>9.6000003814697</ele>
        <time>2021-11-14T08:38:14.000Z</time>
      </trkpt>
      <trkpt lat="47.39681" lon="-2.11945">
        <ele>9.6000003814697</ele>
        <time>2021-11-14T08:38:17.000Z</time>
      </trkpt>
      <trkpt lat="47.39689" lon="-2.11948">
        <ele>9.6000003814697</ele>
        <time>2021-11-14T08:38:20.000Z</time>
      </trkpt>
      <trkpt lat="47.39695" lon="-2.11943">
        <ele>9.6000003814697</ele>
        <time>2021-11-14T08:38:22.000Z</time>
      </trkpt>
      <trkpt lat="47.39697" lon="-2.11942">
        <ele>9.6000003814697</ele>
        <time>2021-11-14T08:38:23.000Z</time>
      </trkpt>
      <trkpt lat="47.397" lon="-2.11942">
        <ele>9.6000003814697</ele>
        <time>2021-11-14T08:38:24.000Z</time>
      </trkpt>
      <trkpt lat="47.39709" lon="-2.11947">
        <ele>9.6000003814697</ele>
        <time>2021-11-14T08:38:28.000Z</time>
      </trkpt>
      <trkpt lat="47.39718" lon="-2.11934">
        <ele>9.6000003814697</ele>
        <time>2021-11-14T08:38:32.000Z</time>
      </trkpt>
      <trkpt lat="47.3972" lon="-2.11913">
        <ele>9.6000003814697</ele>
        <time>2021-11-14T08:38:36.000Z</time>
      </trkpt>
      <trkpt lat="47.39726" lon="-2.11906">
        <ele>9.6000003814697</ele>
        <time>2021-11-14T08:38:39.000Z</time>
      </trkpt>
      <trkpt lat="47.39728" lon="-2.11894">
        <ele>9.6000003814697</ele>
        <time>2021-11-14T08:38:42.000Z</time>
      </trkpt>
      <trkpt lat="47.39733" lon="-2.11875">
        <ele>9.6000003814697</ele>
        <time>2021-11-14T08:38:46.000Z</time>
      </trkpt>
      <trkpt lat="47.39741" lon="-2.11876">
        <ele>9.6000003814697</ele>
        <time>2021-11-14T08:38:49.000Z</time>
      </trkpt>
      <trkpt lat="47.39751" lon="-2.11886">
        <ele>9.6000003814697</ele>
        <time>2021-11-14T08:38:53.000Z</time>
      </trkpt>
      <trkpt lat="47.3976" lon="-2.11876">
        <ele>9.6000003814697</ele>
        <time>2021-11-14T08:38:57.000Z</time>
      </trkpt>
      <trkpt lat="47.39766" lon="-2.11875">
        <ele>9.6000003814697</ele>
        <time>2021-11-14T08:38:59.000Z</time>
      </trkpt>
      <trkpt lat="47.39775" lon="-2.11874">
        <ele>9.6000003814697</ele>
        <time>2021-11-14T08:39:01.000Z</time>
      </trkpt>
      <trkpt lat="47.39789" lon="-2.11876">
        <ele>9.6000003814697</ele>
        <time>2021-11-14T08:39:04.000Z</time>
      </trkpt>
      <trkpt lat="47.39794" lon="-2.11875">
        <ele>9</ele>
        <time>2021-11-14T08:39:05.000Z</time>
      </trkpt>
      <trkpt lat="47.39799" lon="-2.11874">
        <ele>8.6000003814697</ele>
        <time>2021-11-14T08:39:06.000Z</time>
      </trkpt>
      <trkpt lat="47.39803" lon="-2.11874">
        <ele>8.1999998092651</ele>
        <time>2021-11-14T08:39:07.000Z</time>
      </trkpt>
      <trkpt lat="47.39806" lon="-2.11875">
        <ele>7.8000001907349</ele>
        <time>2021-11-14T08:39:08.000Z</time>
      </trkpt>
      <trkpt lat="47.39809" lon="-2.11875">
        <ele>7.4000000953674</ele>
        <time>2021-11-14T08:39:09.000Z</time>
      </trkpt>
      <trkpt lat="47.39813" lon="-2.11876">
        <ele>7</ele>
        <time>2021-11-14T08:39:11.000Z</time>
      </trkpt>
      <trkpt lat="47.39815" lon="-2.11878">
        <ele>6.4000000953674</ele>
        <time>2021-11-14T08:39:12.000Z</time>
      </trkpt>
      <trkpt lat="47.39816" lon="-2.11879">
        <ele>6</ele>
        <time>2021-11-14T08:39:13.000Z</time>
      </trkpt>
      <trkpt lat="47.39818" lon="-2.1188">
        <ele>5.5999999046326</ele>
        <time>2021-11-14T08:39:14.000Z</time>
      </trkpt>
      <trkpt lat="47.3982" lon="-2.1188">
        <ele>5.1999998092651</ele>
        <time>2021-11-14T08:39:15.000Z</time>
      </trkpt>
      <trkpt lat="47.39824" lon="-2.11875">
        <ele>5.1999998092651</ele>
        <time>2021-11-14T08:39:18.000Z</time>
      </trkpt>
      <trkpt lat="47.39832" lon="-2.11875">
        <ele>5.1999998092651</ele>
        <time>2021-11-14T08:39:22.000Z</time>
      </trkpt>
      <trkpt lat="47.39837" lon="-2.11874">
        <ele>4.8000001907349</ele>
        <time>2021-11-14T08:39:24.000Z</time>
      </trkpt>
      <trkpt lat="47.39839" lon="-2.11873">
        <ele>4.4000000953674</ele>
        <time>2021-11-14T08:39:25.000Z</time>
      </trkpt>
      <trkpt lat="47.39841" lon="-2.11872">
        <ele>4</ele>
        <time>2021-11-14T08:39:26.000Z</time>
      </trkpt>
      <trkpt lat="47.39843" lon="-2.11871">
        <ele>3.4000000953674</ele>
        <time>2021-11-14T08:39:27.000Z</time>
      </trkpt>
      <trkpt lat="47.39845" lon="-2.11871">
        <ele>3</ele>
        <time>2021-11-14T08:39:28.000Z</time>
      </trkpt>
      <trkpt lat="47.39852" lon="-2.11878">
        <ele>3</ele>
        <time>2021-11-14T08:39:31.000Z</time>
      </trkpt>
      <trkpt lat="47.39863" lon="-2.11891">
        <ele>3</ele>
        <time>2021-11-14T08:39:36.000Z</time>
      </trkpt>
      <trkpt lat="47.39875" lon="-2.11897">
        <ele>3</ele>
        <time>2021-11-14T08:39:40.000Z</time>
      </trkpt>
      <trkpt lat="47.39889" lon="-2.11888">
        <ele>3</ele>
        <time>2021-11-14T08:39:46.000Z</time>
      </trkpt>
      <trkpt lat="47.39896" lon="-2.11883">
        <ele>3</ele>
        <time>2021-11-14T08:39:51.000Z</time>
      </trkpt>
      <trkpt lat="47.39905" lon="-2.11894">
        <ele>3</ele>
        <time>2021-11-14T08:39:56.000Z</time>
      </trkpt>
      <trkpt lat="47.39904" lon="-2.11902">
        <ele>3</ele>
        <time>2021-11-14T08:40:00.000Z</time>
      </trkpt>
      <trkpt lat="47.39899" lon="-2.11918">
        <ele>3</ele>
        <time>2021-11-14T08:40:04.000Z</time>
      </trkpt>
      <trkpt lat="47.39901" lon="-2.11937">
        <ele>3</ele>
        <time>2021-11-14T08:40:08.000Z</time>
      </trkpt>
      <trkpt lat="47.399" lon="-2.11969">
        <ele>3</ele>
        <time>2021-11-14T08:40:14.000Z</time>
      </trkpt>
      <trkpt lat="47.39902" lon="-2.12005">
        <ele>3</ele>
        <time>2021-11-14T08:40:20.000Z</time>
      </trkpt>
      <trkpt lat="47.39902" lon="-2.12014">
        <ele>3</ele>
        <time>2021-11-14T08:40:22.000Z</time>
      </trkpt>
      <trkpt lat="47.399" lon="-2.12017">
        <ele>3</ele>
        <time>2021-11-14T08:40:23.000Z</time>
      </trkpt>
      <trkpt lat="47.3989" lon="-2.12015">
        <ele>3</ele>
        <time>2021-11-14T08:40:27.000Z</time>
      </trkpt>
      <trkpt lat="47.39887" lon="-2.12005">
        <ele>3</ele>
        <time>2021-11-14T08:40:30.000Z</time>
      </trkpt>
      <trkpt lat="47.39891" lon="-2.11982">
        <ele>3</ele>
        <time>2021-11-14T08:40:35.000Z</time>
      </trkpt>
      <trkpt lat="47.39885" lon="-2.11974">
        <ele>3</ele>
        <time>2021-11-14T08:40:38.000Z</time>
      </trkpt>
      <trkpt lat="47.3988" lon="-2.11969">
        <ele>3</ele>
        <time>2021-11-14T08:40:41.000Z</time>
      </trkpt>
      <trkpt lat="47.39886" lon="-2.11961">
        <ele>3</ele>
        <time>2021-11-14T08:40:44.000Z</time>
      </trkpt>
      <trkpt lat="47.39889" lon="-2.11947">
        <ele>3</ele>
        <time>2021-11-14T08:40:48.000Z</time>
      </trkpt>
      <trkpt lat="47.39874" lon="-2.11948">
        <ele>3</ele>
        <time>2021-11-14T08:40:52.000Z</time>
      </trkpt>
      <trkpt lat="47.39863" lon="-2.11944">
        <ele>3</ele>
        <time>2021-11-14T08:40:55.000Z</time>
      </trkpt>
      <trkpt lat="47.39857" lon="-2.11944">
        <ele>3</ele>
        <time>2021-11-14T08:40:57.000Z</time>
      </trkpt>
      <trkpt lat="47.39855" lon="-2.11945">
        <ele>3</ele>
        <time>2021-11-14T08:40:58.000Z</time>
      </trkpt>
      <trkpt lat="47.39854" lon="-2.11954">
        <ele>3</ele>
        <time>2021-11-14T08:41:00.000Z</time>
      </trkpt>
      <trkpt lat="47.39855" lon="-2.11965">
        <ele>3</ele>
        <time>2021-11-14T08:41:02.000Z</time>
      </trkpt>
      <trkpt lat="47.39859" lon="-2.11988">
        <ele>3</ele>
        <time>2021-11-14T08:41:06.000Z</time>
      </trkpt>
      <trkpt lat="47.39862" lon="-2.12007">
        <ele>3</ele>
        <time>2021-11-14T08:41:11.000Z</time>
      </trkpt>
      <trkpt lat="47.39857" lon="-2.12014">
        <ele>3</ele>
        <time>2021-11-14T08:41:14.000Z</time>
      </trkpt>
      <trkpt lat="47.39855" lon="-2.12014">
        <ele>3</ele>
        <time>2021-11-14T08:41:15.000Z</time>
      </trkpt>
      <trkpt lat="47.39851" lon="-2.12005">
        <ele>3</ele>
        <time>2021-11-14T08:41:18.000Z</time>
      </trkpt>
      <trkpt lat="47.3985" lon="-2.12">
        <ele>3</ele>
        <time>2021-11-14T08:41:19.000Z</time>
      </trkpt>
      <trkpt lat="47.39838" lon="-2.11975">
        <ele>3</ele>
        <time>2021-11-14T08:41:24.000Z</time>
      </trkpt>
      <trkpt lat="47.39836" lon="-2.11952">
        <ele>3</ele>
        <time>2021-11-14T08:41:29.000Z</time>
      </trkpt>
      <trkpt lat="47.39829" lon="-2.11935">
        <ele>3</ele>
        <time>2021-11-14T08:41:33.000Z</time>
      </trkpt>
      <trkpt lat="47.39826" lon="-2.11928">
        <ele>3</ele>
        <time>2021-11-14T08:41:35.000Z</time>
      </trkpt>
      <trkpt lat="47.39827" lon="-2.11918">
        <ele>3</ele>
        <time>2021-11-14T08:41:37.000Z</time>
      </trkpt>
      <trkpt lat="47.39833" lon="-2.11908">
        <ele>3</ele>
        <time>2021-11-14T08:41:39.000Z</time>
      </trkpt>
      <trkpt lat="47.39838" lon="-2.11895">
        <ele>3</ele>
        <time>2021-11-14T08:41:42.000Z</time>
      </trkpt>
      <trkpt lat="47.39838" lon="-2.11891">
        <ele>3</ele>
        <time>2021-11-14T08:41:43.000Z</time>
      </trkpt>
      <trkpt lat="47.39836" lon="-2.11888">
        <ele>3</ele>
        <time>2021-11-14T08:41:45.000Z</time>
      </trkpt>
      <trkpt lat="47.39833" lon="-2.11891">
        <ele>3</ele>
        <time>2021-11-14T08:41:48.000Z</time>
      </trkpt>
      <trkpt lat="47.39831" lon="-2.11893">
        <ele>3</ele>
        <time>2021-11-14T08:41:49.000Z</time>
      </trkpt>
      <trkpt lat="47.39827" lon="-2.11894">
        <ele>3</ele>
        <time>2021-11-14T08:41:52.000Z</time>
      </trkpt>
      <trkpt lat="47.39824" lon="-2.11892">
        <ele>3</ele>
        <time>2021-11-14T08:41:54.000Z</time>
      </trkpt>
      <trkpt lat="47.39813" lon="-2.1189">
        <ele>3</ele>
        <time>2021-11-14T08:41:59.000Z</time>
      </trkpt>
      <trkpt lat="47.39811" lon="-2.1189">
        <ele>3.4000000953674</ele>
        <time>2021-11-14T08:42:00.000Z</time>
      </trkpt>
      <trkpt lat="47.39809" lon="-2.1189">
        <ele>3.7999999523163</ele>
        <time>2021-11-14T08:42:01.000Z</time>
      </trkpt>
      <trkpt lat="47.39807" lon="-2.11891">
        <ele>4.1999998092651</ele>
        <time>2021-11-14T08:42:02.000Z</time>
      </trkpt>
      <trkpt lat="47.39805" lon="-2.11892">
        <ele>4.5999999046326</ele>
        <time>2021-11-14T08:42:03.000Z</time>
      </trkpt>
      <trkpt lat="47.39803" lon="-2.11893">
        <ele>5</ele>
        <time>2021-11-14T08:42:04.000Z</time>
      </trkpt>
      <trkpt lat="47.39795" lon="-2.11892">
        <ele>5</ele>
        <time>2021-11-14T08:42:08.000Z</time>
      </trkpt>
      <trkpt lat="47.3979" lon="-2.1189">
        <ele>5</ele>
        <time>2021-11-14T08:42:14.000Z</time>
      </trkpt>
      <trkpt lat="47.39787" lon="-2.11889">
        <ele>5</ele>
        <time>2021-11-14T08:42:16.000Z</time>
      </trkpt>
      <trkpt lat="47.39783" lon="-2.1189">
        <ele>5.4000000953674</ele>
        <time>2021-11-14T08:42:18.000Z</time>
      </trkpt>
      <trkpt lat="47.3978" lon="-2.1189">
        <ele>6</ele>
        <time>2021-11-14T08:42:19.000Z</time>
      </trkpt>
      <trkpt lat="47.39776" lon="-2.11891">
        <ele>6.4000000953674</ele>
        <time>2021-11-14T08:42:20.000Z</time>
      </trkpt>
      <trkpt lat="47.39773" lon="-2.11891">
        <ele>6.8000001907349</ele>
        <time>2021-11-14T08:42:21.000Z</time>
      </trkpt>
      <trkpt lat="47.39772" lon="-2.11893">
        <ele>7.1999998092651</ele>
        <time>2021-11-14T08:42:22.000Z</time>
      </trkpt>
      <trkpt lat="47.39771" lon="-2.11894">
        <ele>7.1999998092651</ele>
        <time>2021-11-14T08:42:23.000Z</time>
      </trkpt>
      <trkpt lat="47.39772" lon="-2.11896">
        <ele>7.1999998092651</ele>
        <time>2021-11-14T08:42:25.000Z</time>
      </trkpt>
      <trkpt lat="47.39777" lon="-2.11895">
        <ele>7.1999998092651</ele>
        <time>2021-11-14T08:42:27.000Z</time>
      </trkpt>
      <trkpt lat="47.3978" lon="-2.11897">
        <ele>7.1999998092651</ele>
        <time>2021-11-14T08:42:29.000Z</time>
      </trkpt>
      <trkpt lat="47.39782" lon="-2.11897">
        <ele>7.1999998092651</ele>
        <time>2021-11-14T08:42:31.000Z</time>
      </trkpt>
      <trkpt lat="47.39782" lon="-2.11898">
        <ele>7.1999998092651</ele>
        <time>2021-11-14T08:42:32.000Z</time>
      </trkpt>
      <trkpt lat="47.39786" lon="-2.119">
        <ele>7.1999998092651</ele>
        <time>2021-11-14T08:42:47.000Z</time>
      </trkpt>
      <trkpt lat="47.3979" lon="-2.119">
        <ele>7.1999998092651</ele>
        <time>2021-11-14T08:42:49.000Z</time>
      </trkpt>
      <trkpt lat="47.39799" lon="-2.11902">
        <ele>7.1999998092651</ele>
        <time>2021-11-14T08:42:53.000Z</time>
      </trkpt>
      <trkpt lat="47.39801" lon="-2.11904">
        <ele>7.1999998092651</ele>
        <time>2021-11-14T08:42:54.000Z</time>
      </trkpt>
      <trkpt lat="47.39804" lon="-2.1191">
        <ele>7.1999998092651</ele>
        <time>2021-11-14T08:42:57.000Z</time>
      </trkpt>
      <trkpt lat="47.39805" lon="-2.11915">
        <ele>7.1999998092651</ele>
        <time>2021-11-14T08:42:59.000Z</time>
      </trkpt>
      <trkpt lat="47.39804" lon="-2.11918">
        <ele>7.1999998092651</ele>
        <time>2021-11-14T08:43:00.000Z</time>
      </trkpt>
      <trkpt lat="47.39801" lon="-2.1192">
        <ele>7.1999998092651</ele>
        <time>2021-11-14T08:43:02.000Z</time>
      </trkpt>
      <trkpt lat="47.39795" lon="-2.11919">
        <ele>7.1999998092651</ele>
        <time>2021-11-14T08:43:05.000Z</time>
      </trkpt>
      <trkpt lat="47.39791" lon="-2.11916">
        <ele>7.1999998092651</ele>
        <time>2021-11-14T08:43:07.000Z</time>
      </trkpt>
      <trkpt lat="47.39786" lon="-2.11913">
        <ele>7.1999998092651</ele>
        <time>2021-11-14T08:43:10.000Z</time>
      </trkpt>
      <trkpt lat="47.39783" lon="-2.11914">
        <ele>7.1999998092651</ele>
        <time>2021-11-14T08:43:12.000Z</time>
      </trkpt>
      <trkpt lat="47.39774" lon="-2.11914">
        <ele>7.1999998092651</ele>
        <time>2021-11-14T08:43:17.000Z</time>
      </trkpt>
      <trkpt lat="47.39764" lon="-2.11917">
        <ele>7.1999998092651</ele>
        <time>2021-11-14T08:43:21.000Z</time>
      </trkpt>
      <trkpt lat="47.39756" lon="-2.11924">
        <ele>7.1999998092651</ele>
        <time>2021-11-14T08:43:25.000Z</time>
      </trkpt>
      <trkpt lat="47.39754" lon="-2.11937">
        <ele>7.5999999046326</ele>
        <time>2021-11-14T08:43:29.000Z</time>
      </trkpt>
      <trkpt lat="47.39752" lon="-2.1194">
        <ele>8</ele>
        <time>2021-11-14T08:43:30.000Z</time>
      </trkpt>
      <trkpt lat="47.3975" lon="-2.11941">
        <ele>8.3999996185303</ele>
        <time>2021-11-14T08:43:31.000Z</time>
      </trkpt>
      <trkpt lat="47.39748" lon="-2.11942">
        <ele>8.8000001907349</ele>
        <time>2021-11-14T08:43:32.000Z</time>
      </trkpt>
      <trkpt lat="47.39745" lon="-2.11942">
        <ele>9.1999998092651</ele>
        <time>2021-11-14T08:43:33.000Z</time>
      </trkpt>
      <trkpt lat="47.39734" lon="-2.11941">
        <ele>9.1999998092651</ele>
        <time>2021-11-14T08:43:37.000Z</time>
      </trkpt>
      <trkpt lat="47.39732" lon="-2.11937">
        <ele>9.1999998092651</ele>
        <time>2021-11-14T08:43:38.000Z</time>
      </trkpt>
      <trkpt lat="47.39724" lon="-2.11936">
        <ele>9.1999998092651</ele>
        <time>2021-11-14T08:43:42.000Z</time>
      </trkpt>
      <trkpt lat="47.39721" lon="-2.11947">
        <ele>9.1999998092651</ele>
        <time>2021-11-14T08:43:45.000Z</time>
      </trkpt>
      <trkpt lat="47.39717" lon="-2.11954">
        <ele>9.1999998092651</ele>
        <time>2021-11-14T08:43:47.000Z</time>
      </trkpt>
      <trkpt lat="47.39713" lon="-2.11957">
        <ele>9.1999998092651</ele>
        <time>2021-11-14T08:43:49.000Z</time>
      </trkpt>
      <trkpt lat="47.39707" lon="-2.11958">
        <ele>9.1999998092651</ele>
        <time>2021-11-14T08:43:51.000Z</time>
      </trkpt>
      <trkpt lat="47.39705" lon="-2.11961">
        <ele>9.1999998092651</ele>
        <time>2021-11-14T08:43:52.000Z</time>
      </trkpt>
      <trkpt lat="47.39705" lon="-2.11969">
        <ele>9.1999998092651</ele>
        <time>2021-11-14T08:43:54.000Z</time>
      </trkpt>
      <trkpt lat="47.39712" lon="-2.11973">
        <ele>9.1999998092651</ele>
        <time>2021-11-14T08:43:57.000Z</time>
      </trkpt>
      <trkpt lat="47.39724" lon="-2.11964">
        <ele>9.1999998092651</ele>
        <time>2021-11-14T08:44:01.000Z</time>
      </trkpt>
      <trkpt lat="47.39736" lon="-2.1196">
        <ele>9.1999998092651</ele>
        <time>2021-11-14T08:44:05.000Z</time>
      </trkpt>
      <trkpt lat="47.3974" lon="-2.11971">
        <ele>9.1999998092651</ele>
        <time>2021-11-14T08:44:08.000Z</time>
      </trkpt>
      <trkpt lat="47.39735" lon="-2.11982">
        <ele>9.1999998092651</ele>
        <time>2021-11-14T08:44:11.000Z</time>
      </trkpt>
      <trkpt lat="47.39728" lon="-2.12004">
        <ele>9.1999998092651</ele>
        <time>2021-11-14T08:44:16.000Z</time>
      </trkpt>
      <trkpt lat="47.39728" lon="-2.12008">
        <ele>9.1999998092651</ele>
        <time>2021-11-14T08:44:17.000Z</time>
      </trkpt>
      <trkpt lat="47.39726" lon="-2.12015">
        <ele>9.1999998092651</ele>
        <time>2021-11-14T08:44:19.000Z</time>
      </trkpt>
      <trkpt lat="47.39721" lon="-2.12018">
        <ele>9.1999998092651</ele>
        <time>2021-11-14T08:44:21.000Z</time>
      </trkpt>
      <trkpt lat="47.39713" lon="-2.12029">
        <ele>9.1999998092651</ele>
        <time>2021-11-14T08:44:24.000Z</time>
      </trkpt>
      <trkpt lat="47.3971" lon="-2.12033">
        <ele>9.1999998092651</ele>
        <time>2021-11-14T08:44:25.000Z</time>
      </trkpt>
      <trkpt lat="47.39703" lon="-2.12036">
        <ele>9.1999998092651</ele>
        <time>2021-11-14T08:44:27.000Z</time>
      </trkpt>
      <trkpt lat="47.39686" lon="-2.1204">
        <ele>9.1999998092651</ele>
        <time>2021-11-14T08:44:32.000Z</time>
      </trkpt>
      <trkpt lat="47.39669" lon="-2.12045">
        <ele>9.1999998092651</ele>
        <time>2021-11-14T08:44:37.000Z</time>
      </trkpt>
      <trkpt lat="47.39666" lon="-2.12059">
        <ele>9.1999998092651</ele>
        <time>2021-11-14T08:44:41.000Z</time>
      </trkpt>
      <trkpt lat="47.39674" lon="-2.12059">
        <ele>9.1999998092651</ele>
        <time>2021-11-14T08:44:44.000Z</time>
      </trkpt>
      <trkpt lat="47.39687" lon="-2.12057">
        <ele>9.1999998092651</ele>
        <time>2021-11-14T08:44:48.000Z</time>
      </trkpt>
      <trkpt lat="47.39696" lon="-2.12058">
        <ele>9.1999998092651</ele>
        <time>2021-11-14T08:44:51.000Z</time>
      </trkpt>
      <trkpt lat="47.39699" lon="-2.12055">
        <ele>9.1999998092651</ele>
        <time>2021-11-14T08:44:52.000Z</time>
      </trkpt>
      <trkpt lat="47.39705" lon="-2.12052">
        <ele>9.1999998092651</ele>
        <time>2021-11-14T08:44:55.000Z</time>
      </trkpt>
      <trkpt lat="47.39705" lon="-2.12066">
        <ele>9.1999998092651</ele>
        <time>2021-11-14T08:44:59.000Z</time>
      </trkpt>
      <trkpt lat="47.39705" lon="-2.12079">
        <ele>9.1999998092651</ele>
        <time>2021-11-14T08:45:03.000Z</time>
      </trkpt>
      <trkpt lat="47.39698" lon="-2.12082">
        <ele>9.1999998092651</ele>
        <time>2021-11-14T08:45:06.000Z</time>
      </trkpt>
      <trkpt lat="47.39696" lon="-2.12081">
        <ele>9.1999998092651</ele>
        <time>2021-11-14T08:45:07.000Z</time>
      </trkpt>
      <trkpt lat="47.39689" lon="-2.12075">
        <ele>9.1999998092651</ele>
        <time>2021-11-14T08:45:11.000Z</time>
      </trkpt>
      <trkpt lat="47.39675" lon="-2.12078">
        <ele>9.1999998092651</ele>
        <time>2021-11-14T08:45:15.000Z</time>
      </trkpt>
      <trkpt lat="47.39669" lon="-2.12085">
        <ele>9.1999998092651</ele>
        <time>2021-11-14T08:45:18.000Z</time>
      </trkpt>
      <trkpt lat="47.39667" lon="-2.12095">
        <ele>9.1999998092651</ele>
        <time>2021-11-14T08:45:22.000Z</time>
      </trkpt>
      <trkpt lat="47.39666" lon="-2.12099">
        <ele>9.1999998092651</ele>
        <time>2021-11-14T08:45:23.000Z</time>
      </trkpt>
      <trkpt lat="47.39661" lon="-2.12109">
        <ele>9.1999998092651</ele>
        <time>2021-11-14T08:45:26.000Z</time>
      </trkpt>
      <trkpt lat="47.39661" lon="-2.12113">
        <ele>9.1999998092651</ele>
        <time>2021-11-14T08:45:27.000Z</time>
      </trkpt>
      <trkpt lat="47.39661" lon="-2.12118">
        <ele>9.1999998092651</ele>
        <time>2021-11-14T08:45:29.000Z</time>
      </trkpt>
      <trkpt lat="47.39663" lon="-2.1212">
        <ele>9.1999998092651</ele>
        <time>2021-11-14T08:45:30.000Z</time>
      </trkpt>
      <trkpt lat="47.39676" lon="-2.12132">
        <ele>9.1999998092651</ele>
        <time>2021-11-14T08:45:35.000Z</time>
      </trkpt>
      <trkpt lat="47.39686" lon="-2.12138">
        <ele>9.1999998092651</ele>
        <time>2021-11-14T08:45:39.000Z</time>
      </trkpt>
      <trkpt lat="47.39702" lon="-2.12136">
        <ele>9.1999998092651</ele>
        <time>2021-11-14T08:45:44.000Z</time>
      </trkpt>
      <trkpt lat="47.39718" lon="-2.1213">
        <ele>9.1999998092651</ele>
        <time>2021-11-14T08:45:49.000Z</time>
      </trkpt>
      <trkpt lat="47.39726" lon="-2.12118">
        <ele>9.1999998092651</ele>
        <time>2021-11-14T08:45:54.000Z</time>
      </trkpt>
      <trkpt lat="47.39719" lon="-2.12117">
        <ele>9.1999998092651</ele>
        <time>2021-11-14T08:45:57.000Z</time>
      </trkpt>
      <trkpt lat="47.39712" lon="-2.12116">
        <ele>9.1999998092651</ele>
        <time>2021-11-14T08:45:59.000Z</time>
      </trkpt>
      <trkpt lat="47.39705" lon="-2.12117">
        <ele>9.1999998092651</ele>
        <time>2021-11-14T08:46:01.000Z</time>
      </trkpt>
      <trkpt lat="47.39698" lon="-2.12122">
        <ele>9.1999998092651</ele>
        <time>2021-11-14T08:46:04.000Z</time>
      </trkpt>
      <trkpt lat="47.39696" lon="-2.12123">
        <ele>9.1999998092651</ele>
        <time>2021-11-14T08:46:05.000Z</time>
      </trkpt>
      <trkpt lat="47.3969" lon="-2.12119">
        <ele>9.1999998092651</ele>
        <time>2021-11-14T08:46:09.000Z</time>
      </trkpt>
      <trkpt lat="47.39685" lon="-2.1211">
        <ele>9.1999998092651</ele>
        <time>2021-11-14T08:46:14.000Z</time>
      </trkpt>
      <trkpt lat="47.39685" lon="-2.12104">
        <ele>9.1999998092651</ele>
        <time>2021-11-14T08:46:16.000Z</time>
      </trkpt>
      <trkpt lat="47.39687" lon="-2.12102">
        <ele>9.1999998092651</ele>
        <time>2021-11-14T08:46:17.000Z</time>
      </trkpt>
      <trkpt lat="47.39693" lon="-2.12103">
        <ele>9.1999998092651</ele>
        <time>2021-11-14T08:46:19.000Z</time>
      </trkpt>
      <trkpt lat="47.39698" lon="-2.12103">
        <ele>9.1999998092651</ele>
        <time>2021-11-14T08:46:21.000Z</time>
      </trkpt>
      <trkpt lat="47.39704" lon="-2.12105">
        <ele>9.1999998092651</ele>
        <time>2021-11-14T08:46:23.000Z</time>
      </trkpt>
      <trkpt lat="47.39711" lon="-2.12105">
        <ele>9.1999998092651</ele>
        <time>2021-11-14T08:46:25.000Z</time>
      </trkpt>
      <trkpt lat="47.39717" lon="-2.12101">
        <ele>9.1999998092651</ele>
        <time>2021-11-14T08:46:27.000Z</time>
      </trkpt>
      <trkpt lat="47.39731" lon="-2.12094">
        <ele>9.1999998092651</ele>
        <time>2021-11-14T08:46:32.000Z</time>
      </trkpt>
      <trkpt lat="47.39734" lon="-2.12083">
        <ele>9.1999998092651</ele>
        <time>2021-11-14T08:46:35.000Z</time>
      </trkpt>
      <trkpt lat="47.39731" lon="-2.12073">
        <ele>9.1999998092651</ele>
        <time>2021-11-14T08:46:38.000Z</time>
      </trkpt>
      <trkpt lat="47.39726" lon="-2.1207">
        <ele>9.1999998092651</ele>
        <time>2021-11-14T08:46:40.000Z</time>
      </trkpt>
      <trkpt lat="47.39723" lon="-2.12071">
        <ele>9.1999998092651</ele>
        <time>2021-11-14T08:46:41.000Z</time>
      </trkpt>
      <trkpt lat="47.39716" lon="-2.1207">
        <ele>9.1999998092651</ele>
        <time>2021-11-14T08:46:45.000Z</time>
      </trkpt>
      <trkpt lat="47.39721" lon="-2.12062">
        <ele>9.1999998092651</ele>
        <time>2021-11-14T08:46:49.000Z</time>
      </trkpt>
      <trkpt lat="47.3973" lon="-2.12045">
        <ele>9.1999998092651</ele>
        <time>2021-11-14T08:46:54.000Z</time>
      </trkpt>
      <trkpt lat="47.39737" lon="-2.12027">
        <ele>9.1999998092651</ele>
        <time>2021-11-14T08:46:59.000Z</time>
      </trkpt>
      <trkpt lat="47.39736" lon="-2.1201">
        <ele>9.1999998092651</ele>
        <time>2021-11-14T08:47:03.000Z</time>
      </trkpt>
      <trkpt lat="47.39738" lon="-2.12001">
        <ele>9.1999998092651</ele>
        <time>2021-11-14T08:47:05.000Z</time>
      </trkpt>
      <trkpt lat="47.39745" lon="-2.11987">
        <ele>9.1999998092651</ele>
        <time>2021-11-14T08:47:09.000Z</time>
      </trkpt>
      <trkpt lat="47.39749" lon="-2.11988">
        <ele>9.1999998092651</ele>
        <time>2021-11-14T08:47:10.000Z</time>
      </trkpt>
      <trkpt lat="47.39753" lon="-2.11994">
        <ele>9.1999998092651</ele>
        <time>2021-11-14T08:47:12.000Z</time>
      </trkpt>
      <trkpt lat="47.39761" lon="-2.11998">
        <ele>9.1999998092651</ele>
        <time>2021-11-14T08:47:16.000Z</time>
      </trkpt>
      <trkpt lat="47.39767" lon="-2.12002">
        <ele>9.1999998092651</ele>
        <time>2021-11-14T08:47:19.000Z</time>
      </trkpt>
      <trkpt lat="47.39764" lon="-2.12016">
        <ele>9.1999998092651</ele>
        <time>2021-11-14T08:47:23.000Z</time>
      </trkpt>
      <trkpt lat="47.39762" lon="-2.12019">
        <ele>9.1999998092651</ele>
        <time>2021-11-14T08:47:24.000Z</time>
      </trkpt>
      <trkpt lat="47.39752" lon="-2.12034">
        <ele>9.1999998092651</ele>
        <time>2021-11-14T08:47:29.000Z</time>
      </trkpt>
      <trkpt lat="47.3974" lon="-2.12046">
        <ele>9.1999998092651</ele>
        <time>2021-11-14T08:47:34.000Z</time>
      </trkpt>
      <trkpt lat="47.39739" lon="-2.12049">
        <ele>9.1999998092651</ele>
        <time>2021-11-14T08:47:35.000Z</time>
      </trkpt>
      <trkpt lat="47.39739" lon="-2.12056">
        <ele>9.1999998092651</ele>
        <time>2021-11-14T08:47:38.000Z</time>
      </trkpt>
      <trkpt lat="47.39741" lon="-2.12068">
        <ele>9.1999998092651</ele>
        <time>2021-11-14T08:47:42.000Z</time>
      </trkpt>
      <trkpt lat="47.39742" lon="-2.12071">
        <ele>9.1999998092651</ele>
        <time>2021-11-14T08:47:43.000Z</time>
      </trkpt>
      <trkpt lat="47.39747" lon="-2.12084">
        <ele>9.1999998092651</ele>
        <time>2021-11-14T08:47:47.000Z</time>
      </trkpt>
      <trkpt lat="47.39755" lon="-2.12077">
        <ele>9.1999998092651</ele>
        <time>2021-11-14T08:47:52.000Z</time>
      </trkpt>
      <trkpt lat="47.39761" lon="-2.12057">
        <ele>9.1999998092651</ele>
        <time>2021-11-14T08:47:57.000Z</time>
      </trkpt>
      <trkpt lat="47.3977" lon="-2.12041">
        <ele>9.1999998092651</ele>
        <time>2021-11-14T08:48:02.000Z</time>
      </trkpt>
      <trkpt lat="47.39782" lon="-2.12028">
        <ele>9.1999998092651</ele>
        <time>2021-11-14T08:48:08.000Z</time>
      </trkpt>
      <trkpt lat="47.39782" lon="-2.12025">
        <ele>9.1999998092651</ele>
        <time>2021-11-14T08:48:09.000Z</time>
      </trkpt>
      <trkpt lat="47.39782" lon="-2.12018">
        <ele>9.1999998092651</ele>
        <time>2021-11-14T08:48:12.000Z</time>
      </trkpt>
      <trkpt lat="47.3978" lon="-2.12002">
        <ele>9.1999998092651</ele>
        <time>2021-11-14T08:48:18.000Z</time>
      </trkpt>
      <trkpt lat="47.39776" lon="-2.11986">
        <ele>9.1999998092651</ele>
        <time>2021-11-14T08:48:22.000Z</time>
      </trkpt>
      <trkpt lat="47.39776" lon="-2.11981">
        <ele>9.1999998092651</ele>
        <time>2021-11-14T08:48:23.000Z</time>
      </trkpt>
      <trkpt lat="47.39773" lon="-2.11953">
        <ele>9.1999998092651</ele>
        <time>2021-11-14T08:48:29.000Z</time>
      </trkpt>
      <trkpt lat="47.39773" lon="-2.11947">
        <ele>9.1999998092651</ele>
        <time>2021-11-14T08:48:31.000Z</time>
      </trkpt>
      <trkpt lat="47.39778" lon="-2.11943">
        <ele>9.1999998092651</ele>
        <time>2021-11-14T08:48:33.000Z</time>
      </trkpt>
      <trkpt lat="47.39787" lon="-2.11941">
        <ele>8.8000001907349</ele>
        <time>2021-11-14T08:48:35.000Z</time>
      </trkpt>
      <trkpt lat="47.3979" lon="-2.11943">
        <ele>8.3999996185303</ele>
        <time>2021-11-14T08:48:36.000Z</time>
      </trkpt>
      <trkpt lat="47.39792" lon="-2.11947">
        <ele>8</ele>
        <time>2021-11-14T08:48:37.000Z</time>
      </trkpt>
      <trkpt lat="47.39793" lon="-2.11952">
        <ele>7.5999999046326</ele>
        <time>2021-11-14T08:48:38.000Z</time>
      </trkpt>
      <trkpt lat="47.39793" lon="-2.11957">
        <ele>7.1999998092651</ele>
        <time>2021-11-14T08:48:39.000Z</time>
      </trkpt>
      <trkpt lat="47.39793" lon="-2.11968">
        <ele>7.1999998092651</ele>
        <time>2021-11-14T08:48:42.000Z</time>
      </trkpt>
      <trkpt lat="47.39792" lon="-2.11978">
        <ele>7.1999998092651</ele>
        <time>2021-11-14T08:48:45.000Z</time>
      </trkpt>
      <trkpt lat="47.39794" lon="-2.11988">
        <ele>7.1999998092651</ele>
        <time>2021-11-14T08:48:48.000Z</time>
      </trkpt>
      <trkpt lat="47.39797" lon="-2.11988">
        <ele>7.1999998092651</ele>
        <time>2021-11-14T08:48:49.000Z</time>
      </trkpt>
      <trkpt lat="47.39805" lon="-2.11986">
        <ele>7.1999998092651</ele>
        <time>2021-11-14T08:48:52.000Z</time>
      </trkpt>
      <trkpt lat="47.39808" lon="-2.11985">
        <ele>7.1999998092651</ele>
        <time>2021-11-14T08:48:53.000Z</time>
      </trkpt>
      <trkpt lat="47.39813" lon="-2.11994">
        <ele>7.1999998092651</ele>
        <time>2021-11-14T08:48:55.000Z</time>
      </trkpt>
      <trkpt lat="47.39814" lon="-2.1201">
        <ele>7.1999998092651</ele>
        <time>2021-11-14T08:48:58.000Z</time>
      </trkpt>
      <trkpt lat="47.39815" lon="-2.12016">
        <ele>7.1999998092651</ele>
        <time>2021-11-14T08:48:59.000Z</time>
      </trkpt>
      <trkpt lat="47.39816" lon="-2.12022">
        <ele>7.1999998092651</ele>
        <time>2021-11-14T08:49:00.000Z</time>
      </trkpt>
      <trkpt lat="47.3982" lon="-2.12033">
        <ele>6.8000001907349</ele>
        <time>2021-11-14T08:49:02.000Z</time>
      </trkpt>
      <trkpt lat="47.39821" lon="-2.12038">
        <ele>6.4000000953674</ele>
        <time>2021-11-14T08:49:03.000Z</time>
      </trkpt>
      <trkpt lat="47.39822" lon="-2.12043">
        <ele>6</ele>
        <time>2021-11-14T08:49:04.000Z</time>
      </trkpt>
      <trkpt lat="47.39823" lon="-2.12048">
        <ele>5.5999999046326</ele>
        <time>2021-11-14T08:49:05.000Z</time>
      </trkpt>
      <trkpt lat="47.39824" lon="-2.12053">
        <ele>5.1999998092651</ele>
        <time>2021-11-14T08:49:06.000Z</time>
      </trkpt>
      <trkpt lat="47.39827" lon="-2.12056">
        <ele>5.1999998092651</ele>
        <time>2021-11-14T08:49:07.000Z</time>
      </trkpt>
      <trkpt lat="47.3983" lon="-2.12056">
        <ele>5.1999998092651</ele>
        <time>2021-11-14T08:49:08.000Z</time>
      </trkpt>
      <trkpt lat="47.39838" lon="-2.12065">
        <ele>5.1999998092651</ele>
        <time>2021-11-14T08:49:12.000Z</time>
      </trkpt>
      <trkpt lat="47.3984" lon="-2.12068">
        <ele>5.1999998092651</ele>
        <time>2021-11-14T08:49:13.000Z</time>
      </trkpt>
      <trkpt lat="47.39845" lon="-2.12078">
        <ele>5.1999998092651</ele>
        <time>2021-11-14T08:49:16.000Z</time>
      </trkpt>
      <trkpt lat="47.39846" lon="-2.12082">
        <ele>5.1999998092651</ele>
        <time>2021-11-14T08:49:17.000Z</time>
      </trkpt>
      <trkpt lat="47.39845" lon="-2.12091">
        <ele>5.1999998092651</ele>
        <time>2021-11-14T08:49:19.000Z</time>
      </trkpt>
      <trkpt lat="47.39841" lon="-2.12101">
        <ele>5.1999998092651</ele>
        <time>2021-11-14T08:49:21.000Z</time>
      </trkpt>
      <trkpt lat="47.39835" lon="-2.12106">
        <ele>5.1999998092651</ele>
        <time>2021-11-14T08:49:23.000Z</time>
      </trkpt>
      <trkpt lat="47.39832" lon="-2.12106">
        <ele>5.1999998092651</ele>
        <time>2021-11-14T08:49:24.000Z</time>
      </trkpt>
      <trkpt lat="47.3982" lon="-2.12112">
        <ele>5.1999998092651</ele>
        <time>2021-11-14T08:49:28.000Z</time>
      </trkpt>
      <trkpt lat="47.39813" lon="-2.12108">
        <ele>5.1999998092651</ele>
        <time>2021-11-14T08:49:31.000Z</time>
      </trkpt>
      <trkpt lat="47.39809" lon="-2.12101">
        <ele>5.1999998092651</ele>
        <time>2021-11-14T08:49:33.000Z</time>
      </trkpt>
      <trkpt lat="47.39807" lon="-2.12099">
        <ele>5.1999998092651</ele>
        <time>2021-11-14T08:49:34.000Z</time>
      </trkpt>
      <trkpt lat="47.39804" lon="-2.12096">
        <ele>5.1999998092651</ele>
        <time>2021-11-14T08:49:35.000Z</time>
      </trkpt>
      <trkpt lat="47.39795" lon="-2.12082">
        <ele>5.1999998092651</ele>
        <time>2021-11-14T08:49:40.000Z</time>
      </trkpt>
      <trkpt lat="47.39793" lon="-2.1208">
        <ele>5.1999998092651</ele>
        <time>2021-11-14T08:49:41.000Z</time>
      </trkpt>
      <trkpt lat="47.39786" lon="-2.12078">
        <ele>5.1999998092651</ele>
        <time>2021-11-14T08:49:44.000Z</time>
      </trkpt>
      <trkpt lat="47.3978" lon="-2.12073">
        <ele>5.1999998092651</ele>
        <time>2021-11-14T08:49:49.000Z</time>
      </trkpt>
      <trkpt lat="47.39781" lon="-2.12071">
        <ele>5.5999999046326</ele>
        <time>2021-11-14T08:49:51.000Z</time>
      </trkpt>
      <trkpt lat="47.39782" lon="-2.12071">
        <ele>6</ele>
        <time>2021-11-14T08:49:52.000Z</time>
      </trkpt>
      <trkpt lat="47.39784" lon="-2.1207">
        <ele>6.4000000953674</ele>
        <time>2021-11-14T08:49:53.000Z</time>
      </trkpt>
      <trkpt lat="47.39787" lon="-2.12068">
        <ele>6.8000001907349</ele>
        <time>2021-11-14T08:49:54.000Z</time>
      </trkpt>
      <trkpt lat="47.3979" lon="-2.12065">
        <ele>7.1999998092651</ele>
        <time>2021-11-14T08:49:55.000Z</time>
      </trkpt>
      <trkpt lat="47.39792" lon="-2.12061">
        <ele>7.1999998092651</ele>
        <time>2021-11-14T08:49:56.000Z</time>
      </trkpt>
      <trkpt lat="47.39792" lon="-2.1205">
        <ele>7.1999998092651</ele>
        <time>2021-11-14T08:49:59.000Z</time>
      </trkpt>
      <trkpt lat="47.3979" lon="-2.12047">
        <ele>7.1999998092651</ele>
        <time>2021-11-14T08:50:00.000Z</time>
      </trkpt>
      <trkpt lat="47.39785" lon="-2.12045">
        <ele>7.1999998092651</ele>
        <time>2021-11-14T08:50:03.000Z</time>
      </trkpt>
      <trkpt lat="47.39784" lon="-2.12045">
        <ele>7.1999998092651</ele>
        <time>2021-11-14T08:50:04.000Z</time>
      </trkpt>
      <trkpt lat="47.39783" lon="-2.12046">
        <ele>7.1999998092651</ele>
        <time>2021-11-14T08:50:05.000Z</time>
      </trkpt>
      <trkpt lat="47.39781" lon="-2.12052">
        <ele>7.1999998092651</ele>
        <time>2021-11-14T08:50:09.000Z</time>
      </trkpt>
      <trkpt lat="47.39779" lon="-2.12055">
        <ele>7.1999998092651</ele>
        <time>2021-11-14T08:50:11.000Z</time>
      </trkpt>
      <trkpt lat="47.39775" lon="-2.12056">
        <ele>7.1999998092651</ele>
        <time>2021-11-14T08:50:14.000Z</time>
      </trkpt>
      <trkpt lat="47.39771" lon="-2.12062">
        <ele>7.1999998092651</ele>
        <time>2021-11-14T08:50:18.000Z</time>
      </trkpt>
      <trkpt lat="47.3977" lon="-2.12066">
        <ele>7.1999998092651</ele>
        <time>2021-11-14T08:50:19.000Z</time>
      </trkpt>
      <trkpt lat="47.39773" lon="-2.12076">
        <ele>7.1999998092651</ele>
        <time>2021-11-14T08:50:22.000Z</time>
      </trkpt>
      <trkpt lat="47.39775" lon="-2.1208">
        <ele>7.1999998092651</ele>
        <time>2021-11-14T08:50:23.000Z</time>
      </trkpt>
      <trkpt lat="47.39787" lon="-2.12086">
        <ele>7.1999998092651</ele>
        <time>2021-11-14T08:50:27.000Z</time>
      </trkpt>
      <trkpt lat="47.39787" lon="-2.12098">
        <ele>7.1999998092651</ele>
        <time>2021-11-14T08:50:31.000Z</time>
      </trkpt>
      <trkpt lat="47.39785" lon="-2.12104">
        <ele>7.1999998092651</ele>
        <time>2021-11-14T08:50:33.000Z</time>
      </trkpt>
      <trkpt lat="47.39778" lon="-2.12106">
        <ele>7.1999998092651</ele>
        <time>2021-11-14T08:50:36.000Z</time>
      </trkpt>
      <trkpt lat="47.39771" lon="-2.12104">
        <ele>7.1999998092651</ele>
        <time>2021-11-14T08:50:38.000Z</time>
      </trkpt>
      <trkpt lat="47.39759" lon="-2.12101">
        <ele>7.5999999046326</ele>
        <time>2021-11-14T08:50:42.000Z</time>
      </trkpt>
      <trkpt lat="47.39757" lon="-2.12101">
        <ele>8</ele>
        <time>2021-11-14T08:50:43.000Z</time>
      </trkpt>
      <trkpt lat="47.39755" lon="-2.12102">
        <ele>8.6000003814697</ele>
        <time>2021-11-14T08:50:44.000Z</time>
      </trkpt>
      <trkpt lat="47.39752" lon="-2.12103">
        <ele>9</ele>
        <time>2021-11-14T08:50:45.000Z</time>
      </trkpt>
      <trkpt lat="47.3975" lon="-2.12105">
        <ele>9.3999996185303</ele>
        <time>2021-11-14T08:50:46.000Z</time>
      </trkpt>
      <trkpt lat="47.39748" lon="-2.12107">
        <ele>9.3999996185303</ele>
        <time>2021-11-14T08:50:47.000Z</time>
      </trkpt>
      <trkpt lat="47.39744" lon="-2.1211">
        <ele>9.3999996185303</ele>
        <time>2021-11-14T08:50:49.000Z</time>
      </trkpt>
      <trkpt lat="47.39738" lon="-2.12117">
        <ele>9.3999996185303</ele>
        <time>2021-11-14T08:50:52.000Z</time>
      </trkpt>
      <trkpt lat="47.39737" lon="-2.1212">
        <ele>9.3999996185303</ele>
        <time>2021-11-14T08:50:53.000Z</time>
      </trkpt>
      <trkpt lat="47.39741" lon="-2.12124">
        <ele>9.3999996185303</ele>
        <time>2021-11-14T08:50:56.000Z</time>
      </trkpt>
      <trkpt lat="47.39751" lon="-2.12119">
        <ele>9.3999996185303</ele>
        <time>2021-11-14T08:51:00.000Z</time>
      </trkpt>
      <trkpt lat="47.3976" lon="-2.12117">
        <ele>9.3999996185303</ele>
        <time>2021-11-14T08:51:04.000Z</time>
      </trkpt>
      <trkpt lat="47.39762" lon="-2.12119">
        <ele>9.3999996185303</ele>
        <time>2021-11-14T08:51:05.000Z</time>
      </trkpt>
      <trkpt lat="47.39767" lon="-2.12119">
        <ele>9.3999996185303</ele>
        <time>2021-11-14T08:51:07.000Z</time>
      </trkpt>
      <trkpt lat="47.39769" lon="-2.12119">
        <ele>9.3999996185303</ele>
        <time>2021-11-14T08:51:08.000Z</time>
      </trkpt>
      <trkpt lat="47.39776" lon="-2.12112">
        <ele>9.3999996185303</ele>
        <time>2021-11-14T08:51:11.000Z</time>
      </trkpt>
      <trkpt lat="47.39779" lon="-2.1211">
        <ele>9</ele>
        <time>2021-11-14T08:51:13.000Z</time>
      </trkpt>
      <trkpt lat="47.39782" lon="-2.12113">
        <ele>8.6000003814697</ele>
        <time>2021-11-14T08:51:14.000Z</time>
      </trkpt>
      <trkpt lat="47.39783" lon="-2.12117">
        <ele>8.1999998092651</ele>
        <time>2021-11-14T08:51:15.000Z</time>
      </trkpt>
      <trkpt lat="47.39782" lon="-2.12122">
        <ele>7.5999999046326</ele>
        <time>2021-11-14T08:51:16.000Z</time>
      </trkpt>
      <trkpt lat="47.3978" lon="-2.12125">
        <ele>7.1999998092651</ele>
        <time>2021-11-14T08:51:17.000Z</time>
      </trkpt>
      <trkpt lat="47.39774" lon="-2.12129">
        <ele>7.1999998092651</ele>
        <time>2021-11-14T08:51:19.000Z</time>
      </trkpt>
      <trkpt lat="47.3977" lon="-2.1213">
        <ele>7.1999998092651</ele>
        <time>2021-11-14T08:51:20.000Z</time>
      </trkpt>
      <trkpt lat="47.39766" lon="-2.12133">
        <ele>7.1999998092651</ele>
        <time>2021-11-14T08:51:21.000Z</time>
      </trkpt>
      <trkpt lat="47.39754" lon="-2.12137">
        <ele>7.1999998092651</ele>
        <time>2021-11-14T08:51:25.000Z</time>
      </trkpt>
      <trkpt lat="47.39753" lon="-2.12139">
        <ele>7.1999998092651</ele>
        <time>2021-11-14T08:51:26.000Z</time>
      </trkpt>
      <trkpt lat="47.3975" lon="-2.12144">
        <ele>7.1999998092651</ele>
        <time>2021-11-14T08:51:29.000Z</time>
      </trkpt>
      <trkpt lat="47.39748" lon="-2.12144">
        <ele>7.1999998092651</ele>
        <time>2021-11-14T08:51:33.000Z</time>
      </trkpt>
      <trkpt lat="47.3974" lon="-2.12143">
        <ele>7.1999998092651</ele>
        <time>2021-11-14T08:51:49.000Z</time>
      </trkpt>
      <trkpt lat="47.39731" lon="-2.12146">
        <ele>7.1999998092651</ele>
        <time>2021-11-14T08:51:53.000Z</time>
      </trkpt>
      <trkpt lat="47.39729" lon="-2.12146">
        <ele>7.5999999046326</ele>
        <time>2021-11-14T08:51:54.000Z</time>
      </trkpt>
      <trkpt lat="47.39727" lon="-2.12147">
        <ele>8.1999998092651</ele>
        <time>2021-11-14T08:51:55.000Z</time>
      </trkpt>
      <trkpt lat="47.39724" lon="-2.12147">
        <ele>8.6000003814697</ele>
        <time>2021-11-14T08:51:56.000Z</time>
      </trkpt>
      <trkpt lat="47.39721" lon="-2.12148">
        <ele>9</ele>
        <time>2021-11-14T08:51:57.000Z</time>
      </trkpt>
      <trkpt lat="47.39717" lon="-2.12149">
        <ele>9.3999996185303</ele>
        <time>2021-11-14T08:51:58.000Z</time>
      </trkpt>
      <trkpt lat="47.39711" lon="-2.12151">
        <ele>9.3999996185303</ele>
        <time>2021-11-14T08:51:59.000Z</time>
      </trkpt>
      <trkpt lat="47.39703" lon="-2.12151">
        <ele>9.3999996185303</ele>
        <time>2021-11-14T08:52:01.000Z</time>
      </trkpt>
      <trkpt lat="47.39689" lon="-2.12155">
        <ele>9.3999996185303</ele>
        <time>2021-11-14T08:52:05.000Z</time>
      </trkpt>
      <trkpt lat="47.39681" lon="-2.12154">
        <ele>9.3999996185303</ele>
        <time>2021-11-14T08:52:08.000Z</time>
      </trkpt>
      <trkpt lat="47.39675" lon="-2.12161">
        <ele>9.3999996185303</ele>
        <time>2021-11-14T08:52:10.000Z</time>
      </trkpt>
      <trkpt lat="47.39668" lon="-2.12165">
        <ele>9.3999996185303</ele>
        <time>2021-11-14T08:52:12.000Z</time>
      </trkpt>
      <trkpt lat="47.39665" lon="-2.12164">
        <ele>9.3999996185303</ele>
        <time>2021-11-14T08:52:13.000Z</time>
      </trkpt>
      <trkpt lat="47.39662" lon="-2.12157">
        <ele>9.3999996185303</ele>
        <time>2021-11-14T08:52:15.000Z</time>
      </trkpt>
      <trkpt lat="47.39657" lon="-2.12142">
        <ele>9.3999996185303</ele>
        <time>2021-11-14T08:52:19.000Z</time>
      </trkpt>
      <trkpt lat="47.39655" lon="-2.12141">
        <ele>9.3999996185303</ele>
        <time>2021-11-14T08:52:20.000Z</time>
      </trkpt>
      <trkpt lat="47.39648" lon="-2.12133">
        <ele>9.3999996185303</ele>
        <time>2021-11-14T08:52:24.000Z</time>
      </trkpt>
      <trkpt lat="47.39647" lon="-2.12132">
        <ele>9.3999996185303</ele>
        <time>2021-11-14T08:52:26.000Z</time>
      </trkpt>
      <trkpt lat="47.39643" lon="-2.12109">
        <ele>9.3999996185303</ele>
        <time>2021-11-14T08:57:15.000Z</time>
      </trkpt>
      <trkpt lat="47.39644" lon="-2.12107">
        <ele>9.3999996185303</ele>
        <time>2021-11-14T08:57:16.000Z</time>
      </trkpt>
      <trkpt lat="47.39647" lon="-2.12097">
        <ele>9.3999996185303</ele>
        <time>2021-11-14T08:57:20.000Z</time>
      </trkpt>
      <trkpt lat="47.39654" lon="-2.12084">
        <ele>9.3999996185303</ele>
        <time>2021-11-14T08:57:24.000Z</time>
      </trkpt>
      <trkpt lat="47.39648" lon="-2.12076">
        <ele>9.3999996185303</ele>
        <time>2021-11-14T08:57:27.000Z</time>
      </trkpt>
      <trkpt lat="47.39639" lon="-2.12081">
        <ele>9.3999996185303</ele>
        <time>2021-11-14T08:57:30.000Z</time>
      </trkpt>
      <trkpt lat="47.39634" lon="-2.12068">
        <ele>9.3999996185303</ele>
        <time>2021-11-14T08:57:33.000Z</time>
      </trkpt>
      <trkpt lat="47.39638" lon="-2.12053">
        <ele>9.3999996185303</ele>
        <time>2021-11-14T08:57:36.000Z</time>
      </trkpt>
      <trkpt lat="47.39644" lon="-2.12058">
        <ele>9.3999996185303</ele>
        <time>2021-11-14T08:57:38.000Z</time>
      </trkpt>
      <trkpt lat="47.39655" lon="-2.12052">
        <ele>9.3999996185303</ele>
        <time>2021-11-14T08:57:42.000Z</time>
      </trkpt>
      <trkpt lat="47.39653" lon="-2.1204">
        <ele>9.3999996185303</ele>
        <time>2021-11-14T08:57:45.000Z</time>
      </trkpt>
      <trkpt lat="47.39641" lon="-2.1204">
        <ele>9.3999996185303</ele>
        <time>2021-11-14T08:57:48.000Z</time>
      </trkpt>
      <trkpt lat="47.39634" lon="-2.12027">
        <ele>9</ele>
        <time>2021-11-14T08:57:51.000Z</time>
      </trkpt>
      <trkpt lat="47.39634" lon="-2.12021">
        <ele>8.6000003814697</ele>
        <time>2021-11-14T08:57:52.000Z</time>
      </trkpt>
      <trkpt lat="47.39635" lon="-2.12017">
        <ele>8.1999998092651</ele>
        <time>2021-11-14T08:57:53.000Z</time>
      </trkpt>
      <trkpt lat="47.39638" lon="-2.12015">
        <ele>7.8000001907349</ele>
        <time>2021-11-14T08:57:54.000Z</time>
      </trkpt>
      <trkpt lat="47.39641" lon="-2.12015">
        <ele>7.4000000953674</ele>
        <time>2021-11-14T08:57:55.000Z</time>
      </trkpt>
      <trkpt lat="47.39645" lon="-2.12024">
        <ele>7.4000000953674</ele>
        <time>2021-11-14T08:57:57.000Z</time>
      </trkpt>
      <trkpt lat="47.39654" lon="-2.12023">
        <ele>7.4000000953674</ele>
        <time>2021-11-14T08:58:00.000Z</time>
      </trkpt>
      <trkpt lat="47.39662" lon="-2.1202">
        <ele>7.4000000953674</ele>
        <time>2021-11-14T08:58:02.000Z</time>
      </trkpt>
      <trkpt lat="47.39668" lon="-2.1201">
        <ele>7.4000000953674</ele>
        <time>2021-11-14T08:58:05.000Z</time>
      </trkpt>
      <trkpt lat="47.39675" lon="-2.12003">
        <ele>7.4000000953674</ele>
        <time>2021-11-14T08:58:09.000Z</time>
      </trkpt>
      <trkpt lat="47.39677" lon="-2.12014">
        <ele>7.4000000953674</ele>
        <time>2021-11-14T08:58:12.000Z</time>
      </trkpt>
      <trkpt lat="47.39686" lon="-2.12013">
        <ele>7.4000000953674</ele>
        <time>2021-11-14T08:58:15.000Z</time>
      </trkpt>
      <trkpt lat="47.39693" lon="-2.12011">
        <ele>7.8000001907349</ele>
        <time>2021-11-14T08:58:17.000Z</time>
      </trkpt>
      <trkpt lat="47.39696" lon="-2.12009">
        <ele>8.1999998092651</ele>
        <time>2021-11-14T08:58:18.000Z</time>
      </trkpt>
      <trkpt lat="47.39699" lon="-2.12007">
        <ele>8.6000003814697</ele>
        <time>2021-11-14T08:58:19.000Z</time>
      </trkpt>
      <trkpt lat="47.39702" lon="-2.12005">
        <ele>9</ele>
        <time>2021-11-14T08:58:20.000Z</time>
      </trkpt>
      <trkpt lat="47.39704" lon="-2.12003">
        <ele>9.3999996185303</ele>
        <time>2021-11-14T08:58:21.000Z</time>
      </trkpt>
      <trkpt lat="47.39703" lon="-2.11997">
        <ele>9.3999996185303</ele>
        <time>2021-11-14T08:58:24.000Z</time>
      </trkpt>
      <trkpt lat="47.39692" lon="-2.12001">
        <ele>9.3999996185303</ele>
        <time>2021-11-14T08:58:27.000Z</time>
      </trkpt>
      <trkpt lat="47.39676" lon="-2.12005">
        <ele>9.3999996185303</ele>
        <time>2021-11-14T08:58:30.000Z</time>
      </trkpt>
      <trkpt lat="47.39671" lon="-2.12008">
        <ele>9.3999996185303</ele>
        <time>2021-11-14T08:58:31.000Z</time>
      </trkpt>
      <trkpt lat="47.39667" lon="-2.12012">
        <ele>9.3999996185303</ele>
        <time>2021-11-14T08:58:32.000Z</time>
      </trkpt>
      <trkpt lat="47.39651" lon="-2.12012">
        <ele>9.3999996185303</ele>
        <time>2021-11-14T08:58:35.000Z</time>
      </trkpt>
      <trkpt lat="47.39646" lon="-2.12001">
        <ele>9.3999996185303</ele>
        <time>2021-11-14T08:58:37.000Z</time>
      </trkpt>
      <trkpt lat="47.39648" lon="-2.11984">
        <ele>9.3999996185303</ele>
        <time>2021-11-14T08:58:40.000Z</time>
      </trkpt>
      <trkpt lat="47.39643" lon="-2.11969">
        <ele>9.3999996185303</ele>
        <time>2021-11-14T08:58:43.000Z</time>
      </trkpt>
      <trkpt lat="47.39648" lon="-2.11955">
        <ele>9.3999996185303</ele>
        <time>2021-11-14T08:58:46.000Z</time>
      </trkpt>
      <trkpt lat="47.39658" lon="-2.11945">
        <ele>9.3999996185303</ele>
        <time>2021-11-14T08:58:50.000Z</time>
      </trkpt>
      <trkpt lat="47.39664" lon="-2.1193">
        <ele>9.3999996185303</ele>
        <time>2021-11-14T08:58:54.000Z</time>
      </trkpt>
      <trkpt lat="47.39654" lon="-2.11931">
        <ele>9.3999996185303</ele>
        <time>2021-11-14T08:58:57.000Z</time>
      </trkpt>
      <trkpt lat="47.39642" lon="-2.11936">
        <ele>9.3999996185303</ele>
        <time>2021-11-14T08:59:01.000Z</time>
      </trkpt>
      <trkpt lat="47.39639" lon="-2.11917">
        <ele>9.3999996185303</ele>
        <time>2021-11-14T08:59:04.000Z</time>
      </trkpt>
      <trkpt lat="47.39636" lon="-2.11904">
        <ele>9.3999996185303</ele>
        <time>2021-11-14T08:59:06.000Z</time>
      </trkpt>
      <trkpt lat="47.39633" lon="-2.11879">
        <ele>9.3999996185303</ele>
        <time>2021-11-14T08:59:10.000Z</time>
      </trkpt>
      <trkpt lat="47.39628" lon="-2.11867">
        <ele>9.3999996185303</ele>
        <time>2021-11-14T08:59:13.000Z</time>
      </trkpt>
      <trkpt lat="47.39623" lon="-2.11868">
        <ele>9.3999996185303</ele>
        <time>2021-11-14T08:59:14.000Z</time>
      </trkpt>
      <trkpt lat="47.39604" lon="-2.11871">
        <ele>9.3999996185303</ele>
        <time>2021-11-14T08:59:18.000Z</time>
      </trkpt>
      <trkpt lat="47.39582" lon="-2.11871">
        <ele>9.3999996185303</ele>
        <time>2021-11-14T08:59:23.000Z</time>
      </trkpt>
      <trkpt lat="47.39581" lon="-2.11865">
        <ele>9.3999996185303</ele>
        <time>2021-11-14T08:59:24.000Z</time>
      </trkpt>
      <trkpt lat="47.39587" lon="-2.11855">
        <ele>9.3999996185303</ele>
        <time>2021-11-14T08:59:27.000Z</time>
      </trkpt>
      <trkpt lat="47.39603" lon="-2.11845">
        <ele>9.3999996185303</ele>
        <time>2021-11-14T08:59:31.000Z</time>
      </trkpt>
      <trkpt lat="47.396" lon="-2.11831">
        <ele>9.3999996185303</ele>
        <time>2021-11-14T08:59:34.000Z</time>
      </trkpt>
      <trkpt lat="47.39591" lon="-2.11831">
        <ele>9.3999996185303</ele>
        <time>2021-11-14T08:59:36.000Z</time>
      </trkpt>
      <trkpt lat="47.39585" lon="-2.11824">
        <ele>9.3999996185303</ele>
        <time>2021-11-14T08:59:38.000Z</time>
      </trkpt>
      <trkpt lat="47.39585" lon="-2.11817">
        <ele>9.3999996185303</ele>
        <time>2021-11-14T08:59:39.000Z</time>
      </trkpt>
      <trkpt lat="47.39587" lon="-2.11793">
        <ele>9.3999996185303</ele>
        <time>2021-11-14T08:59:43.000Z</time>
      </trkpt>
      <trkpt lat="47.39589" lon="-2.11786">
        <ele>9.3999996185303</ele>
        <time>2021-11-14T08:59:44.000Z</time>
      </trkpt>
      <trkpt lat="47.39586" lon="-2.11767">
        <ele>9.3999996185303</ele>
        <time>2021-11-14T08:59:47.000Z</time>
      </trkpt>
      <trkpt lat="47.39579" lon="-2.11747">
        <ele>9.3999996185303</ele>
        <time>2021-11-14T08:59:51.000Z</time>
      </trkpt>
      <trkpt lat="47.39579" lon="-2.11742">
        <ele>9.3999996185303</ele>
        <time>2021-11-14T08:59:52.000Z</time>
      </trkpt>
      <trkpt lat="47.39577" lon="-2.11738">
        <ele>9.3999996185303</ele>
        <time>2021-11-14T08:59:53.000Z</time>
      </trkpt>
      <trkpt lat="47.3957" lon="-2.11737">
        <ele>9.3999996185303</ele>
        <time>2021-11-14T08:59:55.000Z</time>
      </trkpt>
      <trkpt lat="47.3955" lon="-2.11737">
        <ele>9.3999996185303</ele>
        <time>2021-11-14T09:00:00.000Z</time>
      </trkpt>
      <trkpt lat="47.39539" lon="-2.11737">
        <ele>9</ele>
        <time>2021-11-14T09:00:02.000Z</time>
      </trkpt>
      <trkpt lat="47.39533" lon="-2.11736">
        <ele>8.6000003814697</ele>
        <time>2021-11-14T09:00:03.000Z</time>
      </trkpt>
      <trkpt lat="47.39526" lon="-2.11735">
        <ele>8.1999998092651</ele>
        <time>2021-11-14T09:00:04.000Z</time>
      </trkpt>
      <trkpt lat="47.3952" lon="-2.11735">
        <ele>7.5999999046326</ele>
        <time>2021-11-14T09:00:05.000Z</time>
      </trkpt>
      <trkpt lat="47.39514" lon="-2.11734">
        <ele>7.1999998092651</ele>
        <time>2021-11-14T09:00:06.000Z</time>
      </trkpt>
      <trkpt lat="47.39506" lon="-2.11735">
        <ele>6.8000001907349</ele>
        <time>2021-11-14T09:00:07.000Z</time>
      </trkpt>
      <trkpt lat="47.39499" lon="-2.11734">
        <ele>6.1999998092651</ele>
        <time>2021-11-14T09:00:08.000Z</time>
      </trkpt>
      <trkpt lat="47.39492" lon="-2.11734">
        <ele>5.8000001907349</ele>
        <time>2021-11-14T09:00:09.000Z</time>
      </trkpt>
      <trkpt lat="47.39485" lon="-2.11733">
        <ele>5.1999998092651</ele>
        <time>2021-11-14T09:00:10.000Z</time>
      </trkpt>
      <trkpt lat="47.39463" lon="-2.1173">
        <ele>4.4000000953674</ele>
        <time>2021-11-14T09:00:13.000Z</time>
      </trkpt>
      <trkpt lat="47.39456" lon="-2.1173">
        <ele>4</ele>
        <time>2021-11-14T09:00:14.000Z</time>
      </trkpt>
      <trkpt lat="47.39448" lon="-2.1173">
        <ele>3.5999999046326</ele>
        <time>2021-11-14T09:00:15.000Z</time>
      </trkpt>
      <trkpt lat="47.3944" lon="-2.11729">
        <ele>3.2000000476837</ele>
        <time>2021-11-14T09:00:16.000Z</time>
      </trkpt>
      <trkpt lat="47.39402" lon="-2.11731">
        <ele>3.2000000476837</ele>
        <time>2021-11-14T09:00:22.000Z</time>
      </trkpt>
      <trkpt lat="47.39388" lon="-2.1173">
        <ele>3.2000000476837</ele>
        <time>2021-11-14T09:00:25.000Z</time>
      </trkpt>
      <trkpt lat="47.39385" lon="-2.11729">
        <ele>3.2000000476837</ele>
        <time>2021-11-14T09:00:26.000Z</time>
      </trkpt>
      <trkpt lat="47.39375" lon="-2.11712">
        <ele>3.2000000476837</ele>
        <time>2021-11-14T09:00:30.000Z</time>
      </trkpt>
      <trkpt lat="47.39371" lon="-2.11698">
        <ele>3.2000000476837</ele>
        <time>2021-11-14T09:00:32.000Z</time>
      </trkpt>
      <trkpt lat="47.39365" lon="-2.11674">
        <ele>3.2000000476837</ele>
        <time>2021-11-14T09:00:35.000Z</time>
      </trkpt>
      <trkpt lat="47.39347" lon="-2.11624">
        <ele>3.2000000476837</ele>
        <time>2021-11-14T09:00:41.000Z</time>
      </trkpt>
      <trkpt lat="47.3933" lon="-2.11574">
        <ele>3.2000000476837</ele>
        <time>2021-11-14T09:00:47.000Z</time>
      </trkpt>
      <trkpt lat="47.39326" lon="-2.11557">
        <ele>3.2000000476837</ele>
        <time>2021-11-14T09:00:49.000Z</time>
      </trkpt>
      <trkpt lat="47.39319" lon="-2.11524">
        <ele>3.2000000476837</ele>
        <time>2021-11-14T09:00:53.000Z</time>
      </trkpt>
      <trkpt lat="47.39305" lon="-2.11453">
        <ele>3.2000000476837</ele>
        <time>2021-11-14T09:01:01.000Z</time>
      </trkpt>
      <trkpt lat="47.39298" lon="-2.11399">
        <ele>3.2000000476837</ele>
        <time>2021-11-14T09:01:06.000Z</time>
      </trkpt>
      <trkpt lat="47.39295" lon="-2.11336">
        <ele>3.2000000476837</ele>
        <time>2021-11-14T09:01:12.000Z</time>
      </trkpt>
      <trkpt lat="47.39294" lon="-2.11259">
        <ele>3.2000000476837</ele>
        <time>2021-11-14T09:01:20.000Z</time>
      </trkpt>
      <trkpt lat="47.39287" lon="-2.11196">
        <ele>3.2000000476837</ele>
        <time>2021-11-14T09:01:27.000Z</time>
      </trkpt>
      <trkpt lat="47.39276" lon="-2.11125">
        <ele>3.2000000476837</ele>
        <time>2021-11-14T09:01:35.000Z</time>
      </trkpt>
      <trkpt lat="47.39263" lon="-2.11052">
        <ele>3.2000000476837</ele>
        <time>2021-11-14T09:01:43.000Z</time>
      </trkpt>
      <trkpt lat="47.39262" lon="-2.11023">
        <ele>3.2000000476837</ele>
        <time>2021-11-14T09:01:46.000Z</time>
      </trkpt>
      <trkpt lat="47.39264" lon="-2.11004">
        <ele>3.2000000476837</ele>
        <time>2021-11-14T09:01:48.000Z</time>
      </trkpt>
      <trkpt lat="47.39268" lon="-2.10985">
        <ele>3.2000000476837</ele>
        <time>2021-11-14T09:01:50.000Z</time>
      </trkpt>
      <trkpt lat="47.39274" lon="-2.1096">
        <ele>3.2000000476837</ele>
        <time>2021-11-14T09:01:53.000Z</time>
      </trkpt>
      <trkpt lat="47.39278" lon="-2.10932">
        <ele>3.2000000476837</ele>
        <time>2021-11-14T09:01:56.000Z</time>
      </trkpt>
      <trkpt lat="47.39278" lon="-2.10923">
        <ele>2.7999999523163</ele>
        <time>2021-11-14T09:01:57.000Z</time>
      </trkpt>
      <trkpt lat="47.39279" lon="-2.10914">
        <ele>2.2000000476837</ele>
        <time>2021-11-14T09:01:58.000Z</time>
      </trkpt>
      <trkpt lat="47.39279" lon="-2.10905">
        <ele>1.7999999523163</ele>
        <time>2021-11-14T09:01:59.000Z</time>
      </trkpt>
      <trkpt lat="47.39279" lon="-2.10896">
        <ele>1.3999999761581</ele>
        <time>2021-11-14T09:02:00.000Z</time>
      </trkpt>
      <trkpt lat="47.39278" lon="-2.10887">
        <ele>1</ele>
        <time>2021-11-14T09:02:01.000Z</time>
      </trkpt>
      <trkpt lat="47.39277" lon="-2.10878">
        <ele>1</ele>
        <time>2021-11-14T09:02:02.000Z</time>
      </trkpt>
      <trkpt lat="47.39276" lon="-2.1087">
        <ele>1</ele>
        <time>2021-11-14T09:02:03.000Z</time>
      </trkpt>
      <trkpt lat="47.39264" lon="-2.10827">
        <ele>1</ele>
        <time>2021-11-14T09:02:09.000Z</time>
      </trkpt>
      <trkpt lat="47.3925" lon="-2.10789">
        <ele>1</ele>
        <time>2021-11-14T09:02:15.000Z</time>
      </trkpt>
      <trkpt lat="47.39242" lon="-2.10762">
        <ele>1</ele>
        <time>2021-11-14T09:02:19.000Z</time>
      </trkpt>
      <trkpt lat="47.39238" lon="-2.10748">
        <ele>1</ele>
        <time>2021-11-14T09:02:21.000Z</time>
      </trkpt>
      <trkpt lat="47.39224" lon="-2.1068">
        <ele>1</ele>
        <time>2021-11-14T09:02:30.000Z</time>
      </trkpt>
      <trkpt lat="47.39213" lon="-2.10624">
        <ele>1</ele>
        <time>2021-11-14T09:02:37.000Z</time>
      </trkpt>
      <trkpt lat="47.39199" lon="-2.10543">
        <ele>1</ele>
        <time>2021-11-14T09:02:46.000Z</time>
      </trkpt>
      <trkpt lat="47.39188" lon="-2.10485">
        <ele>1</ele>
        <time>2021-11-14T09:02:53.000Z</time>
      </trkpt>
      <trkpt lat="47.39177" lon="-2.10438">
        <ele>1</ele>
        <time>2021-11-14T09:03:00.000Z</time>
      </trkpt>
      <trkpt lat="47.39168" lon="-2.10386">
        <ele>1</ele>
        <time>2021-11-14T09:03:07.000Z</time>
      </trkpt>
      <trkpt lat="47.39155" lon="-2.1032">
        <ele>1</ele>
        <time>2021-11-14T09:03:14.000Z</time>
      </trkpt>
      <trkpt lat="47.39152" lon="-2.10272">
        <ele>1</ele>
        <time>2021-11-14T09:03:19.000Z</time>
      </trkpt>
      <trkpt lat="47.39154" lon="-2.10254">
        <ele>1</ele>
        <time>2021-11-14T09:03:21.000Z</time>
      </trkpt>
      <trkpt lat="47.39159" lon="-2.10228">
        <ele>1</ele>
        <time>2021-11-14T09:03:24.000Z</time>
      </trkpt>
      <trkpt lat="47.39178" lon="-2.10154">
        <ele>1</ele>
        <time>2021-11-14T09:03:33.000Z</time>
      </trkpt>
      <trkpt lat="47.39193" lon="-2.10097">
        <ele>1</ele>
        <time>2021-11-14T09:03:41.000Z</time>
      </trkpt>
      <trkpt lat="47.39199" lon="-2.10067">
        <ele>1</ele>
        <time>2021-11-14T09:03:45.000Z</time>
      </trkpt>
      <trkpt lat="47.39196" lon="-2.10051">
        <ele>1</ele>
        <time>2021-11-14T09:03:47.000Z</time>
      </trkpt>
      <trkpt lat="47.39194" lon="-2.10034">
        <ele>1</ele>
        <time>2021-11-14T09:03:49.000Z</time>
      </trkpt>
      <trkpt lat="47.39198" lon="-2.10017">
        <ele>1</ele>
        <time>2021-11-14T09:03:51.000Z</time>
      </trkpt>
      <trkpt lat="47.39212" lon="-2.09995">
        <ele>1</ele>
        <time>2021-11-14T09:03:54.000Z</time>
      </trkpt>
      <trkpt lat="47.39216" lon="-2.09988">
        <ele>1</ele>
        <time>2021-11-14T09:03:55.000Z</time>
      </trkpt>
      <trkpt lat="47.39231" lon="-2.0996">
        <ele>1</ele>
        <time>2021-11-14T09:03:59.000Z</time>
      </trkpt>
      <trkpt lat="47.3926" lon="-2.09908">
        <ele>1</ele>
        <time>2021-11-14T09:04:07.000Z</time>
      </trkpt>
      <trkpt lat="47.39264" lon="-2.09897">
        <ele>1</ele>
        <time>2021-11-14T09:04:09.000Z</time>
      </trkpt>
      <trkpt lat="47.39262" lon="-2.09884">
        <ele>1</ele>
        <time>2021-11-14T09:04:11.000Z</time>
      </trkpt>
      <trkpt lat="47.39249" lon="-2.09866">
        <ele>1</ele>
        <time>2021-11-14T09:04:14.000Z</time>
      </trkpt>
      <trkpt lat="47.39244" lon="-2.0986">
        <ele>1</ele>
        <time>2021-11-14T09:04:15.000Z</time>
      </trkpt>
      <trkpt lat="47.39221" lon="-2.09823">
        <ele>1</ele>
        <time>2021-11-14T09:04:20.000Z</time>
      </trkpt>
      <trkpt lat="47.39197" lon="-2.09775">
        <ele>1</ele>
        <time>2021-11-14T09:04:26.000Z</time>
      </trkpt>
      <trkpt lat="47.39181" lon="-2.09741">
        <ele>1</ele>
        <time>2021-11-14T09:04:31.000Z</time>
      </trkpt>
      <trkpt lat="47.39158" lon="-2.09693">
        <ele>1</ele>
        <time>2021-11-14T09:04:38.000Z</time>
      </trkpt>
      <trkpt lat="47.39154" lon="-2.09689">
        <ele>1</ele>
        <time>2021-11-14T09:04:39.000Z</time>
      </trkpt>
      <trkpt lat="47.39143" lon="-2.09685">
        <ele>1</ele>
        <time>2021-11-14T09:04:41.000Z</time>
      </trkpt>
      <trkpt lat="47.3912" lon="-2.09686">
        <ele>1</ele>
        <time>2021-11-14T09:04:45.000Z</time>
      </trkpt>
      <trkpt lat="47.39114" lon="-2.09686">
        <ele>1</ele>
        <time>2021-11-14T09:04:46.000Z</time>
      </trkpt>
      <trkpt lat="47.39096" lon="-2.09687">
        <ele>1</ele>
        <time>2021-11-14T09:04:49.000Z</time>
      </trkpt>
      <trkpt lat="47.39083" lon="-2.09687">
        <ele>1</ele>
        <time>2021-11-14T09:04:51.000Z</time>
      </trkpt>
      <trkpt lat="47.39039" lon="-2.0969">
        <ele>0.60000002384186</ele>
        <time>2021-11-14T09:04:57.000Z</time>
      </trkpt>
      <trkpt lat="47.39032" lon="-2.09691">
        <ele>0.20000000298023</ele>
        <time>2021-11-14T09:04:58.000Z</time>
      </trkpt>
      <trkpt lat="47.39026" lon="-2.09692">
        <ele>-0.20000000298023</ele>
        <time>2021-11-14T09:04:59.000Z</time>
      </trkpt>
      <trkpt lat="47.39019" lon="-2.09694">
        <ele>-0.60000002384186</ele>
        <time>2021-11-14T09:05:00.000Z</time>
      </trkpt>
      <trkpt lat="47.39013" lon="-2.09695">
        <ele>-1</ele>
        <time>2021-11-14T09:05:01.000Z</time>
      </trkpt>
      <trkpt lat="47.39002" lon="-2.09697">
        <ele>-1</ele>
        <time>2021-11-14T09:05:03.000Z</time>
      </trkpt>
      <trkpt lat="47.38963" lon="-2.09706">
        <ele>-1</ele>
        <time>2021-11-14T09:05:10.000Z</time>
      </trkpt>
      <trkpt lat="47.38943" lon="-2.0971">
        <ele>-1</ele>
        <time>2021-11-14T09:05:14.000Z</time>
      </trkpt>
      <trkpt lat="47.38934" lon="-2.09705">
        <ele>-1</ele>
        <time>2021-11-14T09:05:16.000Z</time>
      </trkpt>
      <trkpt lat="47.38925" lon="-2.09684">
        <ele>-1</ele>
        <time>2021-11-14T09:05:19.000Z</time>
      </trkpt>
      <trkpt lat="47.38923" lon="-2.09677">
        <ele>-1</ele>
        <time>2021-11-14T09:05:20.000Z</time>
      </trkpt>
      <trkpt lat="47.38913" lon="-2.09644">
        <ele>-1</ele>
        <time>2021-11-14T09:05:25.000Z</time>
      </trkpt>
      <trkpt lat="47.38906" lon="-2.09617">
        <ele>-1</ele>
        <time>2021-11-14T09:05:29.000Z</time>
      </trkpt>
      <trkpt lat="47.38902" lon="-2.09603">
        <ele>-1</ele>
        <time>2021-11-14T09:05:31.000Z</time>
      </trkpt>
      <trkpt lat="47.38896" lon="-2.09583">
        <ele>-0.60000002384186</ele>
        <time>2021-11-14T09:05:34.000Z</time>
      </trkpt>
      <trkpt lat="47.38894" lon="-2.09576">
        <ele>0.20000000298023</ele>
        <time>2021-11-14T09:05:35.000Z</time>
      </trkpt>
      <trkpt lat="47.38892" lon="-2.09569">
        <ele>0.60000002384186</ele>
        <time>2021-11-14T09:05:36.000Z</time>
      </trkpt>
      <trkpt lat="47.3889" lon="-2.09561">
        <ele>1</ele>
        <time>2021-11-14T09:05:37.000Z</time>
      </trkpt>
      <trkpt lat="47.38888" lon="-2.09554">
        <ele>1</ele>
        <time>2021-11-14T09:05:38.000Z</time>
      </trkpt>
      <trkpt lat="47.38872" lon="-2.09509">
        <ele>1</ele>
        <time>2021-11-14T09:05:45.000Z</time>
      </trkpt>
      <trkpt lat="47.38856" lon="-2.09504">
        <ele>1</ele>
        <time>2021-11-14T09:05:48.000Z</time>
      </trkpt>
      <trkpt lat="47.38846" lon="-2.09507">
        <ele>1</ele>
        <time>2021-11-14T09:05:50.000Z</time>
      </trkpt>
      <trkpt lat="47.38835" lon="-2.09507">
        <ele>1</ele>
        <time>2021-11-14T09:05:52.000Z</time>
      </trkpt>
      <trkpt lat="47.3881" lon="-2.09507">
        <ele>1</ele>
        <time>2021-11-14T09:05:57.000Z</time>
      </trkpt>
      <trkpt lat="47.388" lon="-2.09506">
        <ele>1</ele>
        <time>2021-11-14T09:05:59.000Z</time>
      </trkpt>
      <trkpt lat="47.38791" lon="-2.09503">
        <ele>1</ele>
        <time>2021-11-14T09:06:01.000Z</time>
      </trkpt>
      <trkpt lat="47.38777" lon="-2.09497">
        <ele>1</ele>
        <time>2021-11-14T09:06:04.000Z</time>
      </trkpt>
      <trkpt lat="47.38743" lon="-2.09477">
        <ele>1</ele>
        <time>2021-11-14T09:06:11.000Z</time>
      </trkpt>
      <trkpt lat="47.3873" lon="-2.09464">
        <ele>1</ele>
        <time>2021-11-14T09:06:14.000Z</time>
      </trkpt>
      <trkpt lat="47.38723" lon="-2.0945">
        <ele>1</ele>
        <time>2021-11-14T09:06:16.000Z</time>
      </trkpt>
      <trkpt lat="47.38701" lon="-2.09403">
        <ele>1</ele>
        <time>2021-11-14T09:06:23.000Z</time>
      </trkpt>
      <trkpt lat="47.38688" lon="-2.09387">
        <ele>1</ele>
        <time>2021-11-14T09:06:26.000Z</time>
      </trkpt>
      <trkpt lat="47.38679" lon="-2.09379">
        <ele>1</ele>
        <time>2021-11-14T09:06:28.000Z</time>
      </trkpt>
      <trkpt lat="47.38664" lon="-2.09369">
        <ele>1</ele>
        <time>2021-11-14T09:06:31.000Z</time>
      </trkpt>
      <trkpt lat="47.38652" lon="-2.09357">
        <ele>1</ele>
        <time>2021-11-14T09:06:34.000Z</time>
      </trkpt>
      <trkpt lat="47.38642" lon="-2.09345">
        <ele>1</ele>
        <time>2021-11-14T09:06:38.000Z</time>
      </trkpt>
      <trkpt lat="47.3864" lon="-2.09339">
        <ele>1</ele>
        <time>2021-11-14T09:06:40.000Z</time>
      </trkpt>
      <trkpt lat="47.3863" lon="-2.09328">
        <ele>1</ele>
        <time>2021-11-14T09:06:46.000Z</time>
      </trkpt>
      <trkpt lat="47.38632" lon="-2.09315">
        <ele>1</ele>
        <time>2021-11-14T09:06:50.000Z</time>
      </trkpt>
      <trkpt lat="47.38632" lon="-2.09312">
        <ele>1</ele>
        <time>2021-11-14T09:06:51.000Z</time>
      </trkpt>
      <trkpt lat="47.38631" lon="-2.09309">
        <ele>1</ele>
        <time>2021-11-14T09:06:53.000Z</time>
      </trkpt>
      <trkpt lat="47.3863" lon="-2.09309">
        <ele>1</ele>
        <time>2021-11-14T09:06:54.000Z</time>
      </trkpt>
      <trkpt lat="47.38623" lon="-2.09308">
        <ele>1</ele>
        <time>2021-11-14T09:06:58.000Z</time>
      </trkpt>
      <trkpt lat="47.3862" lon="-2.09309">
        <ele>1.3999999761581</ele>
        <time>2021-11-14T09:06:59.000Z</time>
      </trkpt>
      <trkpt lat="47.38617" lon="-2.09307">
        <ele>1.7999999523163</ele>
        <time>2021-11-14T09:07:00.000Z</time>
      </trkpt>
      <trkpt lat="47.38615" lon="-2.09303">
        <ele>2.2000000476837</ele>
        <time>2021-11-14T09:07:01.000Z</time>
      </trkpt>
      <trkpt lat="47.38615" lon="-2.09299">
        <ele>2.5999999046326</ele>
        <time>2021-11-14T09:07:02.000Z</time>
      </trkpt>
      <trkpt lat="47.38617" lon="-2.09298">
        <ele>3.2000000476837</ele>
        <time>2021-11-14T09:07:03.000Z</time>
      </trkpt>
      <trkpt lat="47.38623" lon="-2.09292">
        <ele>3.2000000476837</ele>
        <time>2021-11-14T09:07:06.000Z</time>
      </trkpt>
      <trkpt lat="47.38625" lon="-2.0929">
        <ele>3.2000000476837</ele>
        <time>2021-11-14T09:07:07.000Z</time>
      </trkpt>
      <trkpt lat="47.38628" lon="-2.09287">
        <ele>3.2000000476837</ele>
        <time>2021-11-14T09:07:09.000Z</time>
      </trkpt>
      <trkpt lat="47.38628" lon="-2.09284">
        <ele>3.2000000476837</ele>
        <time>2021-11-14T09:07:11.000Z</time>
      </trkpt>
      <trkpt lat="47.38623" lon="-2.09285">
        <ele>3.2000000476837</ele>
        <time>2021-11-14T09:07:14.000Z</time>
      </trkpt>
      <trkpt lat="47.38621" lon="-2.09287">
        <ele>3.2000000476837</ele>
        <time>2021-11-14T09:07:15.000Z</time>
      </trkpt>
      <trkpt lat="47.38618" lon="-2.09288">
        <ele>3.2000000476837</ele>
        <time>2021-11-14T09:07:18.000Z</time>
      </trkpt>
      <trkpt lat="47.38618" lon="-2.09284">
        <ele>3.2000000476837</ele>
        <time>2021-11-14T09:07:20.000Z</time>
      </trkpt>
      <trkpt lat="47.3862" lon="-2.0928">
        <ele>3.2000000476837</ele>
        <time>2021-11-14T09:07:22.000Z</time>
      </trkpt>
      <trkpt lat="47.38628" lon="-2.0928">
        <ele>3.2000000476837</ele>
        <time>2021-11-14T09:07:26.000Z</time>
      </trkpt>
      <trkpt lat="47.38631" lon="-2.0928">
        <ele>3.2000000476837</ele>
        <time>2021-11-14T09:07:27.000Z</time>
      </trkpt>
      <trkpt lat="47.38645" lon="-2.09279">
        <ele>3.2000000476837</ele>
        <time>2021-11-14T09:07:32.000Z</time>
      </trkpt>
      <trkpt lat="47.38646" lon="-2.0928">
        <ele>3.2000000476837</ele>
        <time>2021-11-14T09:07:33.000Z</time>
      </trkpt>
      <trkpt lat="47.38647" lon="-2.09285">
        <ele>3.2000000476837</ele>
        <time>2021-11-14T09:07:35.000Z</time>
      </trkpt>
      <trkpt lat="47.3865" lon="-2.093">
        <ele>3.2000000476837</ele>
        <time>2021-11-14T09:07:39.000Z</time>
      </trkpt>
      <trkpt lat="47.38663" lon="-2.09306">
        <ele>3.2000000476837</ele>
        <time>2021-11-14T09:07:42.000Z</time>
      </trkpt>
      <trkpt lat="47.38668" lon="-2.09305">
        <ele>3.2000000476837</ele>
        <time>2021-11-14T09:07:43.000Z</time>
      </trkpt>
      <trkpt lat="47.38703" lon="-2.09298">
        <ele>3.2000000476837</ele>
        <time>2021-11-14T09:07:50.000Z</time>
      </trkpt>
      <trkpt lat="47.38732" lon="-2.09295">
        <ele>3.2000000476837</ele>
        <time>2021-11-14T09:07:56.000Z</time>
      </trkpt>
      <trkpt lat="47.3874" lon="-2.09293">
        <ele>3.5999999046326</ele>
        <time>2021-11-14T09:07:58.000Z</time>
      </trkpt>
      <trkpt lat="47.38743" lon="-2.09292">
        <ele>4</ele>
        <time>2021-11-14T09:07:59.000Z</time>
      </trkpt>
      <trkpt lat="47.38747" lon="-2.0929">
        <ele>4.4000000953674</ele>
        <time>2021-11-14T09:08:00.000Z</time>
      </trkpt>
      <trkpt lat="47.3875" lon="-2.09287">
        <ele>4.8000001907349</ele>
        <time>2021-11-14T09:08:01.000Z</time>
      </trkpt>
      <trkpt lat="47.38752" lon="-2.09283">
        <ele>5.1999998092651</ele>
        <time>2021-11-14T09:08:02.000Z</time>
      </trkpt>
      <trkpt lat="47.38752" lon="-2.09273">
        <ele>5.1999998092651</ele>
        <time>2021-11-14T09:08:04.000Z</time>
      </trkpt>
      <trkpt lat="47.3875" lon="-2.09261">
        <ele>5.1999998092651</ele>
        <time>2021-11-14T09:08:06.000Z</time>
      </trkpt>
      <trkpt lat="47.38747" lon="-2.09246">
        <ele>5.1999998092651</ele>
        <time>2021-11-14T09:08:09.000Z</time>
      </trkpt>
      <trkpt lat="47.38744" lon="-2.09239">
        <ele>5.1999998092651</ele>
        <time>2021-11-14T09:08:11.000Z</time>
      </trkpt>
      <trkpt lat="47.38738" lon="-2.09236">
        <ele>5.1999998092651</ele>
        <time>2021-11-14T09:08:13.000Z</time>
      </trkpt>
      <trkpt lat="47.38727" lon="-2.09238">
        <ele>5.1999998092651</ele>
        <time>2021-11-14T09:08:16.000Z</time>
      </trkpt>
      <trkpt lat="47.38719" lon="-2.09244">
        <ele>5.1999998092651</ele>
        <time>2021-11-14T09:08:18.000Z</time>
      </trkpt>
      <trkpt lat="47.38685" lon="-2.09255">
        <ele>5.1999998092651</ele>
        <time>2021-11-14T09:08:26.000Z</time>
      </trkpt>
      <trkpt lat="47.38671" lon="-2.0926">
        <ele>5.1999998092651</ele>
        <time>2021-11-14T09:08:29.000Z</time>
      </trkpt>
      <trkpt lat="47.38657" lon="-2.09265">
        <ele>5.1999998092651</ele>
        <time>2021-11-14T09:08:32.000Z</time>
      </trkpt>
      <trkpt lat="47.3864" lon="-2.09266">
        <ele>5.1999998092651</ele>
        <time>2021-11-14T09:08:35.000Z</time>
      </trkpt>
      <trkpt lat="47.38628" lon="-2.09267">
        <ele>5.1999998092651</ele>
        <time>2021-11-14T09:08:37.000Z</time>
      </trkpt>
      <trkpt lat="47.38615" lon="-2.09273">
        <ele>5.1999998092651</ele>
        <time>2021-11-14T09:08:40.000Z</time>
      </trkpt>
      <trkpt lat="47.38611" lon="-2.09275">
        <ele>4.8000001907349</ele>
        <time>2021-11-14T09:08:41.000Z</time>
      </trkpt>
      <trkpt lat="47.38607" lon="-2.09275">
        <ele>4.4000000953674</ele>
        <time>2021-11-14T09:08:42.000Z</time>
      </trkpt>
      <trkpt lat="47.38605" lon="-2.09273">
        <ele>4</ele>
        <time>2021-11-14T09:08:43.000Z</time>
      </trkpt>
      <trkpt lat="47.38603" lon="-2.0927">
        <ele>3.5999999046326</ele>
        <time>2021-11-14T09:08:44.000Z</time>
      </trkpt>
      <trkpt lat="47.38601" lon="-2.09266">
        <ele>3.2000000476837</ele>
        <time>2021-11-14T09:08:45.000Z</time>
      </trkpt>
      <trkpt lat="47.38599" lon="-2.09255">
        <ele>3.2000000476837</ele>
        <time>2021-11-14T09:08:48.000Z</time>
      </trkpt>
      <trkpt lat="47.38596" lon="-2.09248">
        <ele>3.2000000476837</ele>
        <time>2021-11-14T09:08:50.000Z</time>
      </trkpt>
      <trkpt lat="47.38591" lon="-2.09242">
        <ele>3.2000000476837</ele>
        <time>2021-11-14T09:08:52.000Z</time>
      </trkpt>
      <trkpt lat="47.38595" lon="-2.09228">
        <ele>2.5999999046326</ele>
        <time>2021-11-14T09:08:56.000Z</time>
      </trkpt>
      <trkpt lat="47.38596" lon="-2.09228">
        <ele>2.2000000476837</ele>
        <time>2021-11-14T09:08:57.000Z</time>
      </trkpt>
      <trkpt lat="47.38598" lon="-2.09228">
        <ele>1.6000000238419</ele>
        <time>2021-11-14T09:08:58.000Z</time>
      </trkpt>
      <trkpt lat="47.38599" lon="-2.0923">
        <ele>1.2000000476837</ele>
        <time>2021-11-14T09:08:59.000Z</time>
      </trkpt>
      <trkpt lat="47.386" lon="-2.09231">
        <ele>0.60000002384186</ele>
        <time>2021-11-14T09:09:00.000Z</time>
      </trkpt>
      <trkpt lat="47.38605" lon="-2.09238">
        <ele>0.60000002384186</ele>
        <time>2021-11-14T09:09:03.000Z</time>
      </trkpt>
      <trkpt lat="47.38607" lon="-2.0924">
        <ele>0.60000002384186</ele>
        <time>2021-11-14T09:09:04.000Z</time>
      </trkpt>
      <trkpt lat="47.38609" lon="-2.0924">
        <ele>1.2000000476837</ele>
        <time>2021-11-14T09:09:05.000Z</time>
      </trkpt>
      <trkpt lat="47.3861" lon="-2.0924">
        <ele>1.6000000238419</ele>
        <time>2021-11-14T09:09:06.000Z</time>
      </trkpt>
      <trkpt lat="47.38611" lon="-2.09239">
        <ele>2.2000000476837</ele>
        <time>2021-11-14T09:09:07.000Z</time>
      </trkpt>
      <trkpt lat="47.38611" lon="-2.09236">
        <ele>2.5999999046326</ele>
        <time>2021-11-14T09:09:08.000Z</time>
      </trkpt>
      <trkpt lat="47.38611" lon="-2.09232">
        <ele>3</ele>
        <time>2021-11-14T09:09:09.000Z</time>
      </trkpt>
      <trkpt lat="47.38613" lon="-2.09225">
        <ele>3</ele>
        <time>2021-11-14T09:09:11.000Z</time>
      </trkpt>
      <trkpt lat="47.38615" lon="-2.09224">
        <ele>3</ele>
        <time>2021-11-14T09:09:12.000Z</time>
      </trkpt>
      <trkpt lat="47.38628" lon="-2.09224">
        <ele>3</ele>
        <time>2021-11-14T09:09:17.000Z</time>
      </trkpt>
      <trkpt lat="47.3863" lon="-2.09225">
        <ele>3.7999999523163</ele>
        <time>2021-11-14T09:09:18.000Z</time>
      </trkpt>
      <trkpt lat="47.38632" lon="-2.09224">
        <ele>4.1999998092651</ele>
        <time>2021-11-14T09:09:19.000Z</time>
      </trkpt>
      <trkpt lat="47.38634" lon="-2.09223">
        <ele>4.5999999046326</ele>
        <time>2021-11-14T09:09:20.000Z</time>
      </trkpt>
      <trkpt lat="47.38636" lon="-2.09221">
        <ele>5</ele>
        <time>2021-11-14T09:09:21.000Z</time>
      </trkpt>
      <trkpt lat="47.38644" lon="-2.09221">
        <ele>5</ele>
        <time>2021-11-14T09:09:25.000Z</time>
      </trkpt>
      <trkpt lat="47.3865" lon="-2.09224">
        <ele>5</ele>
        <time>2021-11-14T09:09:27.000Z</time>
      </trkpt>
      <trkpt lat="47.38655" lon="-2.09224">
        <ele>5</ele>
        <time>2021-11-14T09:09:29.000Z</time>
      </trkpt>
      <trkpt lat="47.38672" lon="-2.09218">
        <ele>5</ele>
        <time>2021-11-14T09:09:34.000Z</time>
      </trkpt>
      <trkpt lat="47.38675" lon="-2.09218">
        <ele>5</ele>
        <time>2021-11-14T09:09:35.000Z</time>
      </trkpt>
      <trkpt lat="47.38683" lon="-2.09225">
        <ele>5</ele>
        <time>2021-11-14T09:09:38.000Z</time>
      </trkpt>
      <trkpt lat="47.38697" lon="-2.09227">
        <ele>5</ele>
        <time>2021-11-14T09:09:43.000Z</time>
      </trkpt>
      <trkpt lat="47.38712" lon="-2.09223">
        <ele>5</ele>
        <time>2021-11-14T09:09:48.000Z</time>
      </trkpt>
      <trkpt lat="47.38713" lon="-2.0922">
        <ele>5.4000000953674</ele>
        <time>2021-11-14T09:09:49.000Z</time>
      </trkpt>
      <trkpt lat="47.38714" lon="-2.09217">
        <ele>5.8000001907349</ele>
        <time>2021-11-14T09:09:50.000Z</time>
      </trkpt>
      <trkpt lat="47.38715" lon="-2.09214">
        <ele>6.4000000953674</ele>
        <time>2021-11-14T09:09:51.000Z</time>
      </trkpt>
      <trkpt lat="47.38715" lon="-2.09211">
        <ele>6.8000001907349</ele>
        <time>2021-11-14T09:09:52.000Z</time>
      </trkpt>
      <trkpt lat="47.38715" lon="-2.09208">
        <ele>7.1999998092651</ele>
        <time>2021-11-14T09:09:53.000Z</time>
      </trkpt>
      <trkpt lat="47.38713" lon="-2.09204">
        <ele>7.1999998092651</ele>
        <time>2021-11-14T09:09:55.000Z</time>
      </trkpt>
      <trkpt lat="47.38711" lon="-2.09203">
        <ele>7.1999998092651</ele>
        <time>2021-11-14T09:09:56.000Z</time>
      </trkpt>
      <trkpt lat="47.38703" lon="-2.09204">
        <ele>7.1999998092651</ele>
        <time>2021-11-14T09:09:59.000Z</time>
      </trkpt>
      <trkpt lat="47.38678" lon="-2.09209">
        <ele>7.1999998092651</ele>
        <time>2021-11-14T09:10:06.000Z</time>
      </trkpt>
      <trkpt lat="47.38664" lon="-2.09209">
        <ele>7.1999998092651</ele>
        <time>2021-11-14T09:10:09.000Z</time>
      </trkpt>
      <trkpt lat="47.38655" lon="-2.09204">
        <ele>7.1999998092651</ele>
        <time>2021-11-14T09:10:11.000Z</time>
      </trkpt>
      <trkpt lat="47.3864" lon="-2.09199">
        <ele>7.1999998092651</ele>
        <time>2021-11-14T09:10:15.000Z</time>
      </trkpt>
      <trkpt lat="47.38627" lon="-2.092">
        <ele>6.5999999046326</ele>
        <time>2021-11-14T09:10:18.000Z</time>
      </trkpt>
      <trkpt lat="47.38623" lon="-2.09199">
        <ele>6.1999998092651</ele>
        <time>2021-11-14T09:10:19.000Z</time>
      </trkpt>
      <trkpt lat="47.38621" lon="-2.09199">
        <ele>5.8000001907349</ele>
        <time>2021-11-14T09:10:20.000Z</time>
      </trkpt>
      <trkpt lat="47.38618" lon="-2.09199">
        <ele>5.4000000953674</ele>
        <time>2021-11-14T09:10:21.000Z</time>
      </trkpt>
      <trkpt lat="47.38616" lon="-2.092">
        <ele>5</ele>
        <time>2021-11-14T09:10:22.000Z</time>
      </trkpt>
      <trkpt lat="47.38608" lon="-2.09204">
        <ele>5</ele>
        <time>2021-11-14T09:10:26.000Z</time>
      </trkpt>
      <trkpt lat="47.38605" lon="-2.09205">
        <ele>4.5999999046326</ele>
        <time>2021-11-14T09:10:27.000Z</time>
      </trkpt>
      <trkpt lat="47.38601" lon="-2.09205">
        <ele>4.1999998092651</ele>
        <time>2021-11-14T09:10:28.000Z</time>
      </trkpt>
      <trkpt lat="47.38597" lon="-2.09205">
        <ele>3.7999999523163</ele>
        <time>2021-11-14T09:10:29.000Z</time>
      </trkpt>
      <trkpt lat="47.38592" lon="-2.09204">
        <ele>3</ele>
        <time>2021-11-14T09:10:30.000Z</time>
      </trkpt>
      <trkpt lat="47.38588" lon="-2.09203">
        <ele>2.4000000953674</ele>
        <time>2021-11-14T09:10:31.000Z</time>
      </trkpt>
      <trkpt lat="47.38584" lon="-2.09201">
        <ele>1</ele>
        <time>2021-11-14T09:10:32.000Z</time>
      </trkpt>
      <trkpt lat="47.38582" lon="-2.09198">
        <ele>0.40000000596046</ele>
        <time>2021-11-14T09:10:33.000Z</time>
      </trkpt>
      <trkpt lat="47.3858" lon="-2.09196">
        <ele>0.40000000596046</ele>
        <time>2021-11-14T09:10:34.000Z</time>
      </trkpt>
      <trkpt lat="47.38574" lon="-2.09189">
        <ele>0.40000000596046</ele>
        <time>2021-11-14T09:10:38.000Z</time>
      </trkpt>
      <trkpt lat="47.38571" lon="-2.09175">
        <ele>0.40000000596046</ele>
        <time>2021-11-14T09:11:06.000Z</time>
      </trkpt>
      <trkpt lat="47.3857" lon="-2.09166">
        <ele>0.40000000596046</ele>
        <time>2021-11-14T09:11:10.000Z</time>
      </trkpt>
      <trkpt lat="47.38572" lon="-2.09163">
        <ele>0.40000000596046</ele>
        <time>2021-11-14T09:11:14.000Z</time>
      </trkpt>
      <trkpt lat="47.38578" lon="-2.09162">
        <ele>0.40000000596046</ele>
        <time>2021-11-14T09:11:19.000Z</time>
      </trkpt>
      <trkpt lat="47.38578" lon="-2.09161">
        <ele>0.40000000596046</ele>
        <time>2021-11-14T09:11:20.000Z</time>
      </trkpt>
      <trkpt lat="47.38578" lon="-2.09155">
        <ele>0.40000000596046</ele>
        <time>2021-11-14T09:11:25.000Z</time>
      </trkpt>
      <trkpt lat="47.38576" lon="-2.0915">
        <ele>0.40000000596046</ele>
        <time>2021-11-14T09:11:27.000Z</time>
      </trkpt>
      <trkpt lat="47.38578" lon="-2.09133">
        <ele>0.40000000596046</ele>
        <time>2021-11-14T09:11:30.000Z</time>
      </trkpt>
      <trkpt lat="47.38582" lon="-2.091">
        <ele>0.40000000596046</ele>
        <time>2021-11-14T09:11:35.000Z</time>
      </trkpt>
      <trkpt lat="47.38585" lon="-2.09096">
        <ele>0.40000000596046</ele>
        <time>2021-11-14T09:11:36.000Z</time>
      </trkpt>
      <trkpt lat="47.38591" lon="-2.09089">
        <ele>0.40000000596046</ele>
        <time>2021-11-14T09:11:38.000Z</time>
      </trkpt>
      <trkpt lat="47.38614" lon="-2.09084">
        <ele>0.80000001192093</ele>
        <time>2021-11-14T09:11:44.000Z</time>
      </trkpt>
      <trkpt lat="47.38619" lon="-2.09083">
        <ele>1.2000000476837</ele>
        <time>2021-11-14T09:11:45.000Z</time>
      </trkpt>
      <trkpt lat="47.38623" lon="-2.09083">
        <ele>2.2000000476837</ele>
        <time>2021-11-14T09:11:46.000Z</time>
      </trkpt>
      <trkpt lat="47.38628" lon="-2.09082">
        <ele>2.5999999046326</ele>
        <time>2021-11-14T09:11:47.000Z</time>
      </trkpt>
      <trkpt lat="47.38641" lon="-2.0908">
        <ele>2.5999999046326</ele>
        <time>2021-11-14T09:11:50.000Z</time>
      </trkpt>
      <trkpt lat="47.38649" lon="-2.09077">
        <ele>3</ele>
        <time>2021-11-14T09:11:52.000Z</time>
      </trkpt>
      <trkpt lat="47.38652" lon="-2.09076">
        <ele>3.4000000953674</ele>
        <time>2021-11-14T09:11:53.000Z</time>
      </trkpt>
      <trkpt lat="47.38656" lon="-2.09075">
        <ele>3.7999999523163</ele>
        <time>2021-11-14T09:11:54.000Z</time>
      </trkpt>
      <trkpt lat="47.38659" lon="-2.09076">
        <ele>4.1999998092651</ele>
        <time>2021-11-14T09:11:55.000Z</time>
      </trkpt>
      <trkpt lat="47.38662" lon="-2.09076">
        <ele>4.5999999046326</ele>
        <time>2021-11-14T09:11:56.000Z</time>
      </trkpt>
      <trkpt lat="47.38668" lon="-2.09073">
        <ele>4.5999999046326</ele>
        <time>2021-11-14T09:11:58.000Z</time>
      </trkpt>
      <trkpt lat="47.38672" lon="-2.09067">
        <ele>4.5999999046326</ele>
        <time>2021-11-14T09:12:00.000Z</time>
      </trkpt>
      <trkpt lat="47.38675" lon="-2.0906">
        <ele>5</ele>
        <time>2021-11-14T09:12:02.000Z</time>
      </trkpt>
      <trkpt lat="47.38677" lon="-2.09056">
        <ele>5.5999999046326</ele>
        <time>2021-11-14T09:12:03.000Z</time>
      </trkpt>
      <trkpt lat="47.38679" lon="-2.09053">
        <ele>6</ele>
        <time>2021-11-14T09:12:04.000Z</time>
      </trkpt>
      <trkpt lat="47.3868" lon="-2.0905">
        <ele>6.4000000953674</ele>
        <time>2021-11-14T09:12:05.000Z</time>
      </trkpt>
      <trkpt lat="47.3868" lon="-2.09047">
        <ele>6.8000001907349</ele>
        <time>2021-11-14T09:12:06.000Z</time>
      </trkpt>
      <trkpt lat="47.38686" lon="-2.0903">
        <ele>6.8000001907349</ele>
        <time>2021-11-14T09:12:11.000Z</time>
      </trkpt>
      <trkpt lat="47.38689" lon="-2.09028">
        <ele>6.8000001907349</ele>
        <time>2021-11-14T09:12:12.000Z</time>
      </trkpt>
      <trkpt lat="47.38697" lon="-2.0902">
        <ele>6.8000001907349</ele>
        <time>2021-11-14T09:12:15.000Z</time>
      </trkpt>
      <trkpt lat="47.3871" lon="-2.09011">
        <ele>6.8000001907349</ele>
        <time>2021-11-14T09:12:20.000Z</time>
      </trkpt>
      <trkpt lat="47.38719" lon="-2.09002">
        <ele>6.8000001907349</ele>
        <time>2021-11-14T09:12:24.000Z</time>
      </trkpt>
      <trkpt lat="47.38722" lon="-2.09001">
        <ele>6.8000001907349</ele>
        <time>2021-11-14T09:12:25.000Z</time>
      </trkpt>
      <trkpt lat="47.38725" lon="-2.09">
        <ele>7.1999998092651</ele>
        <time>2021-11-14T09:12:26.000Z</time>
      </trkpt>
      <trkpt lat="47.38728" lon="-2.09">
        <ele>7.5999999046326</ele>
        <time>2021-11-14T09:12:27.000Z</time>
      </trkpt>
      <trkpt lat="47.38731" lon="-2.09001">
        <ele>8</ele>
        <time>2021-11-14T09:12:28.000Z</time>
      </trkpt>
      <trkpt lat="47.38732" lon="-2.09004">
        <ele>8.3999996185303</ele>
        <time>2021-11-14T09:12:29.000Z</time>
      </trkpt>
      <trkpt lat="47.38733" lon="-2.09006">
        <ele>8.8000001907349</ele>
        <time>2021-11-14T09:12:30.000Z</time>
      </trkpt>
      <trkpt lat="47.3873" lon="-2.09013">
        <ele>8.8000001907349</ele>
        <time>2021-11-14T09:12:33.000Z</time>
      </trkpt>
      <trkpt lat="47.38722" lon="-2.09023">
        <ele>8.8000001907349</ele>
        <time>2021-11-14T09:12:38.000Z</time>
      </trkpt>
      <trkpt lat="47.38708" lon="-2.09037">
        <ele>8.8000001907349</ele>
        <time>2021-11-14T09:12:44.000Z</time>
      </trkpt>
      <trkpt lat="47.38694" lon="-2.09053">
        <ele>8.8000001907349</ele>
        <time>2021-11-14T09:12:49.000Z</time>
      </trkpt>
      <trkpt lat="47.38694" lon="-2.09056">
        <ele>8.8000001907349</ele>
        <time>2021-11-14T09:12:50.000Z</time>
      </trkpt>
      <trkpt lat="47.38696" lon="-2.0906">
        <ele>8.8000001907349</ele>
        <time>2021-11-14T09:12:52.000Z</time>
      </trkpt>
      <trkpt lat="47.38706" lon="-2.09061">
        <ele>8.8000001907349</ele>
        <time>2021-11-14T09:12:57.000Z</time>
      </trkpt>
      <trkpt lat="47.38713" lon="-2.09054">
        <ele>8.8000001907349</ele>
        <time>2021-11-14T09:13:01.000Z</time>
      </trkpt>
      <trkpt lat="47.38721" lon="-2.0904">
        <ele>8.8000001907349</ele>
        <time>2021-11-14T09:13:06.000Z</time>
      </trkpt>
      <trkpt lat="47.38727" lon="-2.09023">
        <ele>8.8000001907349</ele>
        <time>2021-11-14T09:13:10.000Z</time>
      </trkpt>
      <trkpt lat="47.38733" lon="-2.09016">
        <ele>8.8000001907349</ele>
        <time>2021-11-14T09:13:12.000Z</time>
      </trkpt>
      <trkpt lat="47.38738" lon="-2.09015">
        <ele>8.8000001907349</ele>
        <time>2021-11-14T09:13:13.000Z</time>
      </trkpt>
      <trkpt lat="47.38761" lon="-2.09013">
        <ele>8.8000001907349</ele>
        <time>2021-11-14T09:13:18.000Z</time>
      </trkpt>
      <trkpt lat="47.38775" lon="-2.09006">
        <ele>8.8000001907349</ele>
        <time>2021-11-14T09:13:23.000Z</time>
      </trkpt>
      <trkpt lat="47.38777" lon="-2.08981">
        <ele>8.8000001907349</ele>
        <time>2021-11-14T09:13:28.000Z</time>
      </trkpt>
      <trkpt lat="47.38775" lon="-2.08974">
        <ele>8.8000001907349</ele>
        <time>2021-11-14T09:13:29.000Z</time>
      </trkpt>
      <trkpt lat="47.38772" lon="-2.08959">
        <ele>8.8000001907349</ele>
        <time>2021-11-14T09:13:31.000Z</time>
      </trkpt>
      <trkpt lat="47.38768" lon="-2.08943">
        <ele>8.8000001907349</ele>
        <time>2021-11-14T09:13:33.000Z</time>
      </trkpt>
      <trkpt lat="47.38767" lon="-2.08934">
        <ele>8.8000001907349</ele>
        <time>2021-11-14T09:13:34.000Z</time>
      </trkpt>
      <trkpt lat="47.38761" lon="-2.08895">
        <ele>8.8000001907349</ele>
        <time>2021-11-14T09:13:38.000Z</time>
      </trkpt>
      <trkpt lat="47.38749" lon="-2.08833">
        <ele>8.8000001907349</ele>
        <time>2021-11-14T09:13:44.000Z</time>
      </trkpt>
      <trkpt lat="47.38746" lon="-2.08813">
        <ele>8.3999996185303</ele>
        <time>2021-11-14T09:13:46.000Z</time>
      </trkpt>
      <trkpt lat="47.38746" lon="-2.08802">
        <ele>7.8000001907349</ele>
        <time>2021-11-14T09:13:47.000Z</time>
      </trkpt>
      <trkpt lat="47.38747" lon="-2.08792">
        <ele>7.4000000953674</ele>
        <time>2021-11-14T09:13:48.000Z</time>
      </trkpt>
      <trkpt lat="47.3875" lon="-2.08784">
        <ele>7</ele>
        <time>2021-11-14T09:13:49.000Z</time>
      </trkpt>
      <trkpt lat="47.38755" lon="-2.08778">
        <ele>6.5999999046326</ele>
        <time>2021-11-14T09:13:50.000Z</time>
      </trkpt>
      <trkpt lat="47.38762" lon="-2.08775">
        <ele>6.5999999046326</ele>
        <time>2021-11-14T09:13:51.000Z</time>
      </trkpt>
      <trkpt lat="47.38768" lon="-2.08772">
        <ele>6.5999999046326</ele>
        <time>2021-11-14T09:13:52.000Z</time>
      </trkpt>
      <trkpt lat="47.38809" lon="-2.08759">
        <ele>6.5999999046326</ele>
        <time>2021-11-14T09:13:58.000Z</time>
      </trkpt>
      <trkpt lat="47.38839" lon="-2.08748">
        <ele>6.5999999046326</ele>
        <time>2021-11-14T09:14:03.000Z</time>
      </trkpt>
      <trkpt lat="47.38864" lon="-2.08733">
        <ele>6.5999999046326</ele>
        <time>2021-11-14T09:14:08.000Z</time>
      </trkpt>
      <trkpt lat="47.38869" lon="-2.08729">
        <ele>6.5999999046326</ele>
        <time>2021-11-14T09:14:09.000Z</time>
      </trkpt>
      <trkpt lat="47.38874" lon="-2.08725">
        <ele>6.5999999046326</ele>
        <time>2021-11-14T09:14:10.000Z</time>
      </trkpt>
      <trkpt lat="47.38893" lon="-2.08709">
        <ele>6.5999999046326</ele>
        <time>2021-11-14T09:14:14.000Z</time>
      </trkpt>
      <trkpt lat="47.38923" lon="-2.08692">
        <ele>6.5999999046326</ele>
        <time>2021-11-14T09:14:20.000Z</time>
      </trkpt>
      <trkpt lat="47.38951" lon="-2.08683">
        <ele>6.5999999046326</ele>
        <time>2021-11-14T09:14:26.000Z</time>
      </trkpt>
      <trkpt lat="47.38962" lon="-2.08674">
        <ele>6.5999999046326</ele>
        <time>2021-11-14T09:14:30.000Z</time>
      </trkpt>
      <trkpt lat="47.38957" lon="-2.08664">
        <ele>6.5999999046326</ele>
        <time>2021-11-14T09:14:33.000Z</time>
      </trkpt>
      <trkpt lat="47.38947" lon="-2.08656">
        <ele>6.5999999046326</ele>
        <time>2021-11-14T09:14:36.000Z</time>
      </trkpt>
      <trkpt lat="47.38938" lon="-2.08649">
        <ele>6.5999999046326</ele>
        <time>2021-11-14T09:14:38.000Z</time>
      </trkpt>
      <trkpt lat="47.389" lon="-2.08621">
        <ele>6.5999999046326</ele>
        <time>2021-11-14T09:14:46.000Z</time>
      </trkpt>
      <trkpt lat="47.3887" lon="-2.08598">
        <ele>6.5999999046326</ele>
        <time>2021-11-14T09:14:52.000Z</time>
      </trkpt>
      <trkpt lat="47.3883" lon="-2.08573">
        <ele>6.5999999046326</ele>
        <time>2021-11-14T09:14:59.000Z</time>
      </trkpt>
      <trkpt lat="47.38812" lon="-2.08562">
        <ele>6.5999999046326</ele>
        <time>2021-11-14T09:15:02.000Z</time>
      </trkpt>
      <trkpt lat="47.38792" lon="-2.08553">
        <ele>6.5999999046326</ele>
        <time>2021-11-14T09:15:05.000Z</time>
      </trkpt>
      <trkpt lat="47.38781" lon="-2.08546">
        <ele>6.1999998092651</ele>
        <time>2021-11-14T09:15:07.000Z</time>
      </trkpt>
      <trkpt lat="47.38776" lon="-2.08541">
        <ele>5.8000001907349</ele>
        <time>2021-11-14T09:15:08.000Z</time>
      </trkpt>
      <trkpt lat="47.38772" lon="-2.08534">
        <ele>5.4000000953674</ele>
        <time>2021-11-14T09:15:09.000Z</time>
      </trkpt>
      <trkpt lat="47.38769" lon="-2.08526">
        <ele>4.8000001907349</ele>
        <time>2021-11-14T09:15:10.000Z</time>
      </trkpt>
      <trkpt lat="47.38768" lon="-2.08517">
        <ele>4.4000000953674</ele>
        <time>2021-11-14T09:15:11.000Z</time>
      </trkpt>
      <trkpt lat="47.38768" lon="-2.08508">
        <ele>4.4000000953674</ele>
        <time>2021-11-14T09:15:12.000Z</time>
      </trkpt>
      <trkpt lat="47.38769" lon="-2.08488">
        <ele>4.4000000953674</ele>
        <time>2021-11-14T09:15:14.000Z</time>
      </trkpt>
      <trkpt lat="47.38771" lon="-2.08447">
        <ele>4.4000000953674</ele>
        <time>2021-11-14T09:15:18.000Z</time>
      </trkpt>
      <trkpt lat="47.38773" lon="-2.08404">
        <ele>4</ele>
        <time>2021-11-14T09:15:22.000Z</time>
      </trkpt>
      <trkpt lat="47.38774" lon="-2.08394">
        <ele>3.5999999046326</ele>
        <time>2021-11-14T09:15:23.000Z</time>
      </trkpt>
      <trkpt lat="47.38774" lon="-2.08384">
        <ele>3.2000000476837</ele>
        <time>2021-11-14T09:15:24.000Z</time>
      </trkpt>
      <trkpt lat="47.38775" lon="-2.08373">
        <ele>2.7999999523163</ele>
        <time>2021-11-14T09:15:25.000Z</time>
      </trkpt>
      <trkpt lat="47.38776" lon="-2.08362">
        <ele>2.4000000953674</ele>
        <time>2021-11-14T09:15:26.000Z</time>
      </trkpt>
      <trkpt lat="47.38782" lon="-2.08283">
        <ele>2.4000000953674</ele>
        <time>2021-11-14T09:15:34.000Z</time>
      </trkpt>
      <trkpt lat="47.38789" lon="-2.08259">
        <ele>2.4000000953674</ele>
        <time>2021-11-14T09:15:37.000Z</time>
      </trkpt>
      <trkpt lat="47.38793" lon="-2.08253">
        <ele>2.4000000953674</ele>
        <time>2021-11-14T09:15:38.000Z</time>
      </trkpt>
      <trkpt lat="47.38807" lon="-2.08239">
        <ele>2.4000000953674</ele>
        <time>2021-11-14T09:15:41.000Z</time>
      </trkpt>
      <trkpt lat="47.38812" lon="-2.08234">
        <ele>2.4000000953674</ele>
        <time>2021-11-14T09:15:42.000Z</time>
      </trkpt>
      <trkpt lat="47.38816" lon="-2.08228">
        <ele>2.4000000953674</ele>
        <time>2021-11-14T09:15:43.000Z</time>
      </trkpt>
      <trkpt lat="47.38826" lon="-2.08218">
        <ele>2.4000000953674</ele>
        <time>2021-11-14T09:15:45.000Z</time>
      </trkpt>
      <trkpt lat="47.38837" lon="-2.08212">
        <ele>2.4000000953674</ele>
        <time>2021-11-14T09:15:47.000Z</time>
      </trkpt>
      <trkpt lat="47.3885" lon="-2.08209">
        <ele>2.4000000953674</ele>
        <time>2021-11-14T09:15:49.000Z</time>
      </trkpt>
      <trkpt lat="47.38875" lon="-2.08203">
        <ele>2.4000000953674</ele>
        <time>2021-11-14T09:15:53.000Z</time>
      </trkpt>
      <trkpt lat="47.389" lon="-2.08203">
        <ele>2.4000000953674</ele>
        <time>2021-11-14T09:15:57.000Z</time>
      </trkpt>
      <trkpt lat="47.38912" lon="-2.08206">
        <ele>2.4000000953674</ele>
        <time>2021-11-14T09:15:59.000Z</time>
      </trkpt>
      <trkpt lat="47.38919" lon="-2.08209">
        <ele>2.4000000953674</ele>
        <time>2021-11-14T09:16:00.000Z</time>
      </trkpt>
      <trkpt lat="47.38941" lon="-2.08223">
        <ele>2.4000000953674</ele>
        <time>2021-11-14T09:16:04.000Z</time>
      </trkpt>
      <trkpt lat="47.38972" lon="-2.08251">
        <ele>2.4000000953674</ele>
        <time>2021-11-14T09:16:10.000Z</time>
      </trkpt>
      <trkpt lat="47.39011" lon="-2.08293">
        <ele>2.4000000953674</ele>
        <time>2021-11-14T09:16:18.000Z</time>
      </trkpt>
      <trkpt lat="47.39036" lon="-2.08327">
        <ele>2.4000000953674</ele>
        <time>2021-11-14T09:16:24.000Z</time>
      </trkpt>
      <trkpt lat="47.39066" lon="-2.08363">
        <ele>2.4000000953674</ele>
        <time>2021-11-14T09:16:31.000Z</time>
      </trkpt>
      <trkpt lat="47.39074" lon="-2.08374">
        <ele>2.4000000953674</ele>
        <time>2021-11-14T09:16:33.000Z</time>
      </trkpt>
      <trkpt lat="47.39085" lon="-2.08391">
        <ele>2.4000000953674</ele>
        <time>2021-11-14T09:16:36.000Z</time>
      </trkpt>
      <trkpt lat="47.39099" lon="-2.08412">
        <ele>2.4000000953674</ele>
        <time>2021-11-14T09:16:40.000Z</time>
      </trkpt>
      <trkpt lat="47.39104" lon="-2.08416">
        <ele>2.4000000953674</ele>
        <time>2021-11-14T09:16:41.000Z</time>
      </trkpt>
      <trkpt lat="47.39124" lon="-2.08429">
        <ele>2.4000000953674</ele>
        <time>2021-11-14T09:16:45.000Z</time>
      </trkpt>
      <trkpt lat="47.39144" lon="-2.08455">
        <ele>2.4000000953674</ele>
        <time>2021-11-14T09:16:50.000Z</time>
      </trkpt>
      <trkpt lat="47.39156" lon="-2.08455">
        <ele>2.4000000953674</ele>
        <time>2021-11-14T09:16:53.000Z</time>
      </trkpt>
      <trkpt lat="47.39164" lon="-2.08448">
        <ele>2.4000000953674</ele>
        <time>2021-11-14T09:16:55.000Z</time>
      </trkpt>
      <trkpt lat="47.39172" lon="-2.08438">
        <ele>2.4000000953674</ele>
        <time>2021-11-14T09:16:57.000Z</time>
      </trkpt>
      <trkpt lat="47.39176" lon="-2.08432">
        <ele>2</ele>
        <time>2021-11-14T09:16:58.000Z</time>
      </trkpt>
      <trkpt lat="47.39181" lon="-2.08426">
        <ele>1.6000000238419</ele>
        <time>2021-11-14T09:16:59.000Z</time>
      </trkpt>
      <trkpt lat="47.39186" lon="-2.08419">
        <ele>1.2000000476837</ele>
        <time>2021-11-14T09:17:00.000Z</time>
      </trkpt>
      <trkpt lat="47.39191" lon="-2.08413">
        <ele>0.80000001192093</ele>
        <time>2021-11-14T09:17:01.000Z</time>
      </trkpt>
      <trkpt lat="47.39196" lon="-2.08407">
        <ele>0.40000000596046</ele>
        <time>2021-11-14T09:17:02.000Z</time>
      </trkpt>
      <trkpt lat="47.39201" lon="-2.08401">
        <ele>0.40000000596046</ele>
        <time>2021-11-14T09:17:03.000Z</time>
      </trkpt>
      <trkpt lat="47.39232" lon="-2.0836">
        <ele>0.40000000596046</ele>
        <time>2021-11-14T09:17:10.000Z</time>
      </trkpt>
      <trkpt lat="47.39239" lon="-2.08349">
        <ele>0.40000000596046</ele>
        <time>2021-11-14T09:17:12.000Z</time>
      </trkpt>
      <trkpt lat="47.3925" lon="-2.08334">
        <ele>0.40000000596046</ele>
        <time>2021-11-14T09:17:15.000Z</time>
      </trkpt>
      <trkpt lat="47.39287" lon="-2.0829">
        <ele>0.40000000596046</ele>
        <time>2021-11-14T09:17:23.000Z</time>
      </trkpt>
      <trkpt lat="47.39312" lon="-2.08261">
        <ele>0.40000000596046</ele>
        <time>2021-11-14T09:17:29.000Z</time>
      </trkpt>
      <trkpt lat="47.39319" lon="-2.08252">
        <ele>0.40000000596046</ele>
        <time>2021-11-14T09:17:31.000Z</time>
      </trkpt>
      <trkpt lat="47.39333" lon="-2.08235">
        <ele>0.40000000596046</ele>
        <time>2021-11-14T09:17:35.000Z</time>
      </trkpt>
      <trkpt lat="47.39337" lon="-2.08228">
        <ele>0.40000000596046</ele>
        <time>2021-11-14T09:17:38.000Z</time>
      </trkpt>
      <trkpt lat="47.39337" lon="-2.08224">
        <ele>0.40000000596046</ele>
        <time>2021-11-14T09:17:41.000Z</time>
      </trkpt>
      <trkpt lat="47.39333" lon="-2.08226">
        <ele>0.40000000596046</ele>
        <time>2021-11-14T09:17:43.000Z</time>
      </trkpt>
      <trkpt lat="47.39327" lon="-2.08228">
        <ele>0.40000000596046</ele>
        <time>2021-11-14T09:17:46.000Z</time>
      </trkpt>
      <trkpt lat="47.39327" lon="-2.0823">
        <ele>0.40000000596046</ele>
        <time>2021-11-14T09:17:47.000Z</time>
      </trkpt>
      <trkpt lat="47.39325" lon="-2.08236">
        <ele>0.40000000596046</ele>
        <time>2021-11-14T09:17:52.000Z</time>
      </trkpt>
      <trkpt lat="47.39324" lon="-2.08231">
        <ele>0.40000000596046</ele>
        <time>2021-11-14T09:17:55.000Z</time>
      </trkpt>
      <trkpt lat="47.39322" lon="-2.08225">
        <ele>0.40000000596046</ele>
        <time>2021-11-14T09:17:57.000Z</time>
      </trkpt>
      <trkpt lat="47.39319" lon="-2.08209">
        <ele>0.40000000596046</ele>
        <time>2021-11-14T09:18:01.000Z</time>
      </trkpt>
      <trkpt lat="47.39324" lon="-2.08203">
        <ele>0.40000000596046</ele>
        <time>2021-11-14T09:18:04.000Z</time>
      </trkpt>
      <trkpt lat="47.39332" lon="-2.08206">
        <ele>0.40000000596046</ele>
        <time>2021-11-14T09:18:08.000Z</time>
      </trkpt>
      <trkpt lat="47.39342" lon="-2.08204">
        <ele>0.40000000596046</ele>
        <time>2021-11-14T09:18:13.000Z</time>
      </trkpt>
      <trkpt lat="47.39348" lon="-2.08193">
        <ele>0.40000000596046</ele>
        <time>2021-11-14T09:18:18.000Z</time>
      </trkpt>
      <trkpt lat="47.39352" lon="-2.08185">
        <ele>0.40000000596046</ele>
        <time>2021-11-14T09:18:21.000Z</time>
      </trkpt>
      <trkpt lat="47.39352" lon="-2.08178">
        <ele>0.40000000596046</ele>
        <time>2021-11-14T09:18:23.000Z</time>
      </trkpt>
      <trkpt lat="47.39347" lon="-2.08172">
        <ele>0.40000000596046</ele>
        <time>2021-11-14T09:18:27.000Z</time>
      </trkpt>
      <trkpt lat="47.39336" lon="-2.08158">
        <ele>0.40000000596046</ele>
        <time>2021-11-14T09:18:32.000Z</time>
      </trkpt>
      <trkpt lat="47.39336" lon="-2.0815">
        <ele>0.40000000596046</ele>
        <time>2021-11-14T09:18:34.000Z</time>
      </trkpt>
      <trkpt lat="47.39336" lon="-2.08137">
        <ele>0.40000000596046</ele>
        <time>2021-11-14T09:18:37.000Z</time>
      </trkpt>
      <trkpt lat="47.39343" lon="-2.08123">
        <ele>0.40000000596046</ele>
        <time>2021-11-14T09:18:41.000Z</time>
      </trkpt>
      <trkpt lat="47.39354" lon="-2.08113">
        <ele>0.40000000596046</ele>
        <time>2021-11-14T09:18:46.000Z</time>
      </trkpt>
      <trkpt lat="47.39364" lon="-2.08098">
        <ele>0.40000000596046</ele>
        <time>2021-11-14T09:18:51.000Z</time>
      </trkpt>
      <trkpt lat="47.39375" lon="-2.08087">
        <ele>0.40000000596046</ele>
        <time>2021-11-14T09:18:56.000Z</time>
      </trkpt>
      <trkpt lat="47.39378" lon="-2.08086">
        <ele>0.40000000596046</ele>
        <time>2021-11-14T09:18:57.000Z</time>
      </trkpt>
      <trkpt lat="47.39387" lon="-2.08088">
        <ele>0.40000000596046</ele>
        <time>2021-11-14T09:19:00.000Z</time>
      </trkpt>
      <trkpt lat="47.39391" lon="-2.08098">
        <ele>0.40000000596046</ele>
        <time>2021-11-14T09:19:04.000Z</time>
      </trkpt>
      <trkpt lat="47.39382" lon="-2.08105">
        <ele>0.40000000596046</ele>
        <time>2021-11-14T09:19:08.000Z</time>
      </trkpt>
      <trkpt lat="47.39372" lon="-2.08107">
        <ele>0.40000000596046</ele>
        <time>2021-11-14T09:19:12.000Z</time>
      </trkpt>
      <trkpt lat="47.39364" lon="-2.08124">
        <ele>0.40000000596046</ele>
        <time>2021-11-14T09:19:17.000Z</time>
      </trkpt>
      <trkpt lat="47.39364" lon="-2.0813">
        <ele>0.40000000596046</ele>
        <time>2021-11-14T09:19:18.000Z</time>
      </trkpt>
      <trkpt lat="47.39366" lon="-2.0814">
        <ele>0.40000000596046</ele>
        <time>2021-11-14T09:19:20.000Z</time>
      </trkpt>
      <trkpt lat="47.39371" lon="-2.0816">
        <ele>0.40000000596046</ele>
        <time>2021-11-14T09:19:25.000Z</time>
      </trkpt>
      <trkpt lat="47.39383" lon="-2.08163">
        <ele>0.80000001192093</ele>
        <time>2021-11-14T09:19:29.000Z</time>
      </trkpt>
      <trkpt lat="47.39386" lon="-2.08162">
        <ele>1.2000000476837</ele>
        <time>2021-11-14T09:19:30.000Z</time>
      </trkpt>
      <trkpt lat="47.39388" lon="-2.08162">
        <ele>1.6000000238419</ele>
        <time>2021-11-14T09:19:31.000Z</time>
      </trkpt>
      <trkpt lat="47.39389" lon="-2.08164">
        <ele>2</ele>
        <time>2021-11-14T09:19:32.000Z</time>
      </trkpt>
      <trkpt lat="47.3939" lon="-2.08166">
        <ele>2.4000000953674</ele>
        <time>2021-11-14T09:19:33.000Z</time>
      </trkpt>
      <trkpt lat="47.39394" lon="-2.08176">
        <ele>2.4000000953674</ele>
        <time>2021-11-14T09:19:36.000Z</time>
      </trkpt>
      <trkpt lat="47.39395" lon="-2.08179">
        <ele>2.4000000953674</ele>
        <time>2021-11-14T09:19:37.000Z</time>
      </trkpt>
      <trkpt lat="47.39399" lon="-2.08177">
        <ele>2.4000000953674</ele>
        <time>2021-11-14T09:19:39.000Z</time>
      </trkpt>
      <trkpt lat="47.39402" lon="-2.08173">
        <ele>2.4000000953674</ele>
        <time>2021-11-14T09:19:41.000Z</time>
      </trkpt>
      <trkpt lat="47.39407" lon="-2.08173">
        <ele>2.4000000953674</ele>
        <time>2021-11-14T09:19:43.000Z</time>
      </trkpt>
      <trkpt lat="47.39416" lon="-2.08168">
        <ele>2.4000000953674</ele>
        <time>2021-11-14T09:19:47.000Z</time>
      </trkpt>
      <trkpt lat="47.39418" lon="-2.0816">
        <ele>2.4000000953674</ele>
        <time>2021-11-14T09:19:51.000Z</time>
      </trkpt>
      <trkpt lat="47.39418" lon="-2.08157">
        <ele>2.7999999523163</ele>
        <time>2021-11-14T09:19:52.000Z</time>
      </trkpt>
      <trkpt lat="47.39418" lon="-2.08154">
        <ele>3.2000000476837</ele>
        <time>2021-11-14T09:19:53.000Z</time>
      </trkpt>
      <trkpt lat="47.39419" lon="-2.08151">
        <ele>3.5999999046326</ele>
        <time>2021-11-14T09:19:54.000Z</time>
      </trkpt>
      <trkpt lat="47.3942" lon="-2.08148">
        <ele>4</ele>
        <time>2021-11-14T09:19:55.000Z</time>
      </trkpt>
      <trkpt lat="47.3942" lon="-2.08145">
        <ele>4.4000000953674</ele>
        <time>2021-11-14T09:19:56.000Z</time>
      </trkpt>
      <trkpt lat="47.39419" lon="-2.08141">
        <ele>4.4000000953674</ele>
        <time>2021-11-14T09:19:57.000Z</time>
      </trkpt>
      <trkpt lat="47.39414" lon="-2.08137">
        <ele>4.4000000953674</ele>
        <time>2021-11-14T09:19:59.000Z</time>
      </trkpt>
      <trkpt lat="47.39407" lon="-2.0813">
        <ele>4.4000000953674</ele>
        <time>2021-11-14T09:20:03.000Z</time>
      </trkpt>
      <trkpt lat="47.39405" lon="-2.08128">
        <ele>4.4000000953674</ele>
        <time>2021-11-14T09:20:04.000Z</time>
      </trkpt>
      <trkpt lat="47.39402" lon="-2.08119">
        <ele>4.4000000953674</ele>
        <time>2021-11-14T09:20:07.000Z</time>
      </trkpt>
      <trkpt lat="47.39404" lon="-2.08109">
        <ele>4</ele>
        <time>2021-11-14T09:20:09.000Z</time>
      </trkpt>
      <trkpt lat="47.39405" lon="-2.08104">
        <ele>3.5999999046326</ele>
        <time>2021-11-14T09:20:10.000Z</time>
      </trkpt>
      <trkpt lat="47.39406" lon="-2.08099">
        <ele>3.2000000476837</ele>
        <time>2021-11-14T09:20:11.000Z</time>
      </trkpt>
      <trkpt lat="47.39407" lon="-2.08096">
        <ele>2.7999999523163</ele>
        <time>2021-11-14T09:20:12.000Z</time>
      </trkpt>
      <trkpt lat="47.39408" lon="-2.08096">
        <ele>2.4000000953674</ele>
        <time>2021-11-14T09:20:13.000Z</time>
      </trkpt>
      <trkpt lat="47.3941" lon="-2.08099">
        <ele>2.4000000953674</ele>
        <time>2021-11-14T09:20:15.000Z</time>
      </trkpt>
      <trkpt lat="47.39412" lon="-2.0811">
        <ele>2.4000000953674</ele>
        <time>2021-11-14T09:20:19.000Z</time>
      </trkpt>
      <trkpt lat="47.39412" lon="-2.08117">
        <ele>2.4000000953674</ele>
        <time>2021-11-14T09:20:21.000Z</time>
      </trkpt>
      <trkpt lat="47.39413" lon="-2.08122">
        <ele>2.4000000953674</ele>
        <time>2021-11-14T09:20:24.000Z</time>
      </trkpt>
      <trkpt lat="47.39415" lon="-2.08122">
        <ele>2.4000000953674</ele>
        <time>2021-11-14T09:20:25.000Z</time>
      </trkpt>
      <trkpt lat="47.39423" lon="-2.08124">
        <ele>2.4000000953674</ele>
        <time>2021-11-14T09:20:29.000Z</time>
      </trkpt>
      <trkpt lat="47.39428" lon="-2.0812">
        <ele>2.4000000953674</ele>
        <time>2021-11-14T09:20:32.000Z</time>
      </trkpt>
      <trkpt lat="47.39427" lon="-2.08111">
        <ele>2.4000000953674</ele>
        <time>2021-11-14T09:20:36.000Z</time>
      </trkpt>
      <trkpt lat="47.39427" lon="-2.08097">
        <ele>2.4000000953674</ele>
        <time>2021-11-14T09:20:40.000Z</time>
      </trkpt>
      <trkpt lat="47.3943" lon="-2.08097">
        <ele>2.4000000953674</ele>
        <time>2021-11-14T09:20:42.000Z</time>
      </trkpt>
      <trkpt lat="47.39432" lon="-2.081">
        <ele>2.4000000953674</ele>
        <time>2021-11-14T09:20:43.000Z</time>
      </trkpt>
      <trkpt lat="47.39437" lon="-2.08114">
        <ele>2.4000000953674</ele>
        <time>2021-11-14T09:20:47.000Z</time>
      </trkpt>
      <trkpt lat="47.39441" lon="-2.08133">
        <ele>2.4000000953674</ele>
        <time>2021-11-14T09:20:52.000Z</time>
      </trkpt>
      <trkpt lat="47.39443" lon="-2.08135">
        <ele>2.7999999523163</ele>
        <time>2021-11-14T09:20:53.000Z</time>
      </trkpt>
      <trkpt lat="47.39445" lon="-2.08137">
        <ele>3.2000000476837</ele>
        <time>2021-11-14T09:20:54.000Z</time>
      </trkpt>
      <trkpt lat="47.39446" lon="-2.08139">
        <ele>3.5999999046326</ele>
        <time>2021-11-14T09:20:55.000Z</time>
      </trkpt>
      <trkpt lat="47.39448" lon="-2.0814">
        <ele>4.1999998092651</ele>
        <time>2021-11-14T09:20:56.000Z</time>
      </trkpt>
      <trkpt lat="47.3945" lon="-2.08141">
        <ele>4.5999999046326</ele>
        <time>2021-11-14T09:20:57.000Z</time>
      </trkpt>
      <trkpt lat="47.39462" lon="-2.08149">
        <ele>4.5999999046326</ele>
        <time>2021-11-14T09:21:02.000Z</time>
      </trkpt>
      <trkpt lat="47.39471" lon="-2.08151">
        <ele>4.5999999046326</ele>
        <time>2021-11-14T09:21:05.000Z</time>
      </trkpt>
      <trkpt lat="47.39475" lon="-2.08144">
        <ele>4.5999999046326</ele>
        <time>2021-11-14T09:21:08.000Z</time>
      </trkpt>
      <trkpt lat="47.39475" lon="-2.08132">
        <ele>4.5999999046326</ele>
        <time>2021-11-14T09:21:12.000Z</time>
      </trkpt>
      <trkpt lat="47.3948" lon="-2.08129">
        <ele>4.5999999046326</ele>
        <time>2021-11-14T09:21:15.000Z</time>
      </trkpt>
      <trkpt lat="47.39484" lon="-2.08127">
        <ele>4.1999998092651</ele>
        <time>2021-11-14T09:21:17.000Z</time>
      </trkpt>
      <trkpt lat="47.39484" lon="-2.08126">
        <ele>3.5999999046326</ele>
        <time>2021-11-14T09:21:18.000Z</time>
      </trkpt>
      <trkpt lat="47.39483" lon="-2.08125">
        <ele>3.2000000476837</ele>
        <time>2021-11-14T09:21:19.000Z</time>
      </trkpt>
      <trkpt lat="47.39481" lon="-2.08123">
        <ele>2.7999999523163</ele>
        <time>2021-11-14T09:21:20.000Z</time>
      </trkpt>
      <trkpt lat="47.3948" lon="-2.08122">
        <ele>2.4000000953674</ele>
        <time>2021-11-14T09:21:21.000Z</time>
      </trkpt>
      <trkpt lat="47.39479" lon="-2.0812">
        <ele>2.4000000953674</ele>
        <time>2021-11-14T09:21:22.000Z</time>
      </trkpt>
      <trkpt lat="47.39475" lon="-2.08117">
        <ele>2.4000000953674</ele>
        <time>2021-11-14T09:21:24.000Z</time>
      </trkpt>
      <trkpt lat="47.39468" lon="-2.08118">
        <ele>2.4000000953674</ele>
        <time>2021-11-14T09:21:27.000Z</time>
      </trkpt>
      <trkpt lat="47.39466" lon="-2.08119">
        <ele>2.4000000953674</ele>
        <time>2021-11-14T09:21:28.000Z</time>
      </trkpt>
      <trkpt lat="47.39462" lon="-2.08116">
        <ele>2.4000000953674</ele>
        <time>2021-11-14T09:21:31.000Z</time>
      </trkpt>
      <trkpt lat="47.39461" lon="-2.08113">
        <ele>2.4000000953674</ele>
        <time>2021-11-14T09:21:32.000Z</time>
      </trkpt>
      <trkpt lat="47.39462" lon="-2.08103">
        <ele>2.4000000953674</ele>
        <time>2021-11-14T09:21:37.000Z</time>
      </trkpt>
      <trkpt lat="47.39469" lon="-2.08096">
        <ele>2.4000000953674</ele>
        <time>2021-11-14T09:21:41.000Z</time>
      </trkpt>
      <trkpt lat="47.3947" lon="-2.08096">
        <ele>2</ele>
        <time>2021-11-14T09:21:42.000Z</time>
      </trkpt>
      <trkpt lat="47.39471" lon="-2.08098">
        <ele>1.6000000238419</ele>
        <time>2021-11-14T09:21:43.000Z</time>
      </trkpt>
      <trkpt lat="47.39471" lon="-2.081">
        <ele>1.2000000476837</ele>
        <time>2021-11-14T09:21:44.000Z</time>
      </trkpt>
      <trkpt lat="47.39473" lon="-2.08102">
        <ele>0.80000001192093</ele>
        <time>2021-11-14T09:21:45.000Z</time>
      </trkpt>
      <trkpt lat="47.39474" lon="-2.08102">
        <ele>0.40000000596046</ele>
        <time>2021-11-14T09:21:46.000Z</time>
      </trkpt>
      <trkpt lat="47.3948" lon="-2.08104">
        <ele>0.40000000596046</ele>
        <time>2021-11-14T09:21:49.000Z</time>
      </trkpt>
      <trkpt lat="47.39486" lon="-2.08107">
        <ele>0.40000000596046</ele>
        <time>2021-11-14T09:21:51.000Z</time>
      </trkpt>
      <trkpt lat="47.39493" lon="-2.08119">
        <ele>0.40000000596046</ele>
        <time>2021-11-14T09:21:55.000Z</time>
      </trkpt>
      <trkpt lat="47.39489" lon="-2.08132">
        <ele>0.40000000596046</ele>
        <time>2021-11-14T09:21:59.000Z</time>
      </trkpt>
      <trkpt lat="47.39488" lon="-2.08138">
        <ele>0.40000000596046</ele>
        <time>2021-11-14T09:22:01.000Z</time>
      </trkpt>
      <trkpt lat="47.39491" lon="-2.08142">
        <ele>0.40000000596046</ele>
        <time>2021-11-14T09:22:03.000Z</time>
      </trkpt>
      <trkpt lat="47.39495" lon="-2.08151">
        <ele>0.40000000596046</ele>
        <time>2021-11-14T09:22:06.000Z</time>
      </trkpt>
      <trkpt lat="47.39496" lon="-2.08154">
        <ele>0.40000000596046</ele>
        <time>2021-11-14T09:22:07.000Z</time>
      </trkpt>
      <trkpt lat="47.39495" lon="-2.08164">
        <ele>0.40000000596046</ele>
        <time>2021-11-14T09:22:11.000Z</time>
      </trkpt>
      <trkpt lat="47.39488" lon="-2.08167">
        <ele>0.40000000596046</ele>
        <time>2021-11-14T09:22:14.000Z</time>
      </trkpt>
      <trkpt lat="47.39486" lon="-2.0817">
        <ele>0.40000000596046</ele>
        <time>2021-11-14T09:22:15.000Z</time>
      </trkpt>
      <trkpt lat="47.39486" lon="-2.08174">
        <ele>0.40000000596046</ele>
        <time>2021-11-14T09:22:16.000Z</time>
      </trkpt>
      <trkpt lat="47.39486" lon="-2.08194">
        <ele>0.40000000596046</ele>
        <time>2021-11-14T09:22:21.000Z</time>
      </trkpt>
      <trkpt lat="47.39485" lon="-2.08202">
        <ele>0.40000000596046</ele>
        <time>2021-11-14T09:22:23.000Z</time>
      </trkpt>
      <trkpt lat="47.3948" lon="-2.0821">
        <ele>0.40000000596046</ele>
        <time>2021-11-14T09:22:25.000Z</time>
      </trkpt>
      <trkpt lat="47.3947" lon="-2.08208">
        <ele>0.40000000596046</ele>
        <time>2021-11-14T09:22:29.000Z</time>
      </trkpt>
      <trkpt lat="47.39467" lon="-2.08196">
        <ele>0.80000001192093</ele>
        <time>2021-11-14T09:22:33.000Z</time>
      </trkpt>
      <trkpt lat="47.39467" lon="-2.08193">
        <ele>1.2000000476837</ele>
        <time>2021-11-14T09:22:34.000Z</time>
      </trkpt>
      <trkpt lat="47.39467" lon="-2.08191">
        <ele>1.6000000238419</ele>
        <time>2021-11-14T09:22:35.000Z</time>
      </trkpt>
      <trkpt lat="47.39467" lon="-2.08188">
        <ele>2</ele>
        <time>2021-11-14T09:22:36.000Z</time>
      </trkpt>
      <trkpt lat="47.39467" lon="-2.08185">
        <ele>2.4000000953674</ele>
        <time>2021-11-14T09:22:37.000Z</time>
      </trkpt>
      <trkpt lat="47.39467" lon="-2.08174">
        <ele>2.4000000953674</ele>
        <time>2021-11-14T09:22:40.000Z</time>
      </trkpt>
      <trkpt lat="47.39465" lon="-2.08172">
        <ele>2.4000000953674</ele>
        <time>2021-11-14T09:22:41.000Z</time>
      </trkpt>
      <trkpt lat="47.39461" lon="-2.08171">
        <ele>2.4000000953674</ele>
        <time>2021-11-14T09:22:44.000Z</time>
      </trkpt>
      <trkpt lat="47.39456" lon="-2.08162">
        <ele>2.7999999523163</ele>
        <time>2021-11-14T09:22:48.000Z</time>
      </trkpt>
      <trkpt lat="47.39455" lon="-2.08162">
        <ele>3.2000000476837</ele>
        <time>2021-11-14T09:22:49.000Z</time>
      </trkpt>
      <trkpt lat="47.39453" lon="-2.08162">
        <ele>3.5999999046326</ele>
        <time>2021-11-14T09:22:50.000Z</time>
      </trkpt>
      <trkpt lat="47.39451" lon="-2.08162">
        <ele>4</ele>
        <time>2021-11-14T09:22:51.000Z</time>
      </trkpt>
      <trkpt lat="47.39449" lon="-2.08161">
        <ele>4.4000000953674</ele>
        <time>2021-11-14T09:22:52.000Z</time>
      </trkpt>
      <trkpt lat="47.39447" lon="-2.08159">
        <ele>4.4000000953674</ele>
        <time>2021-11-14T09:22:53.000Z</time>
      </trkpt>
      <trkpt lat="47.39436" lon="-2.08152">
        <ele>4.4000000953674</ele>
        <time>2021-11-14T09:22:58.000Z</time>
      </trkpt>
      <trkpt lat="47.39437" lon="-2.0814">
        <ele>4.4000000953674</ele>
        <time>2021-11-14T09:23:02.000Z</time>
      </trkpt>
      <trkpt lat="47.39436" lon="-2.08138">
        <ele>4.4000000953674</ele>
        <time>2021-11-14T09:23:03.000Z</time>
      </trkpt>
      <trkpt lat="47.39433" lon="-2.08139">
        <ele>4.4000000953674</ele>
        <time>2021-11-14T09:23:06.000Z</time>
      </trkpt>
      <trkpt lat="47.39429" lon="-2.0815">
        <ele>4.4000000953674</ele>
        <time>2021-11-14T09:23:10.000Z</time>
      </trkpt>
      <trkpt lat="47.39434" lon="-2.08162">
        <ele>4.4000000953674</ele>
        <time>2021-11-14T09:23:14.000Z</time>
      </trkpt>
      <trkpt lat="47.39434" lon="-2.08171">
        <ele>4.4000000953674</ele>
        <time>2021-11-14T09:23:18.000Z</time>
      </trkpt>
      <trkpt lat="47.3943" lon="-2.08179">
        <ele>4.4000000953674</ele>
        <time>2021-11-14T09:23:22.000Z</time>
      </trkpt>
      <trkpt lat="47.39432" lon="-2.08186">
        <ele>4.4000000953674</ele>
        <time>2021-11-14T09:23:24.000Z</time>
      </trkpt>
      <trkpt lat="47.39435" lon="-2.0819">
        <ele>4.4000000953674</ele>
        <time>2021-11-14T09:23:25.000Z</time>
      </trkpt>
      <trkpt lat="47.39438" lon="-2.08193">
        <ele>4.4000000953674</ele>
        <time>2021-11-14T09:23:26.000Z</time>
      </trkpt>
      <trkpt lat="47.39452" lon="-2.08203">
        <ele>4.4000000953674</ele>
        <time>2021-11-14T09:23:30.000Z</time>
      </trkpt>
      <trkpt lat="47.39455" lon="-2.08207">
        <ele>4.4000000953674</ele>
        <time>2021-11-14T09:23:31.000Z</time>
      </trkpt>
      <trkpt lat="47.39459" lon="-2.08215">
        <ele>4</ele>
        <time>2021-11-14T09:23:33.000Z</time>
      </trkpt>
      <trkpt lat="47.3946" lon="-2.0822">
        <ele>3.4000000953674</ele>
        <time>2021-11-14T09:23:34.000Z</time>
      </trkpt>
      <trkpt lat="47.3946" lon="-2.08225">
        <ele>3</ele>
        <time>2021-11-14T09:23:35.000Z</time>
      </trkpt>
      <trkpt lat="47.39459" lon="-2.08231">
        <ele>2.4000000953674</ele>
        <time>2021-11-14T09:23:36.000Z</time>
      </trkpt>
      <trkpt lat="47.39455" lon="-2.08236">
        <ele>2</ele>
        <time>2021-11-14T09:23:37.000Z</time>
      </trkpt>
      <trkpt lat="47.3945" lon="-2.08241">
        <ele>2</ele>
        <time>2021-11-14T09:23:39.000Z</time>
      </trkpt>
      <trkpt lat="47.39443" lon="-2.08236">
        <ele>2</ele>
        <time>2021-11-14T09:23:44.000Z</time>
      </trkpt>
      <trkpt lat="47.39439" lon="-2.0822">
        <ele>2</ele>
        <time>2021-11-14T09:23:48.000Z</time>
      </trkpt>
      <trkpt lat="47.39438" lon="-2.08217">
        <ele>2</ele>
        <time>2021-11-14T09:23:49.000Z</time>
      </trkpt>
      <trkpt lat="47.39436" lon="-2.08215">
        <ele>2</ele>
        <time>2021-11-14T09:23:50.000Z</time>
      </trkpt>
      <trkpt lat="47.39432" lon="-2.08213">
        <ele>2</ele>
        <time>2021-11-14T09:23:53.000Z</time>
      </trkpt>
      <trkpt lat="47.39432" lon="-2.0821">
        <ele>2</ele>
        <time>2021-11-14T09:23:54.000Z</time>
      </trkpt>
      <trkpt lat="47.39428" lon="-2.08194">
        <ele>2.4000000953674</ele>
        <time>2021-11-14T09:23:58.000Z</time>
      </trkpt>
      <trkpt lat="47.39426" lon="-2.08191">
        <ele>2.7999999523163</ele>
        <time>2021-11-14T09:23:59.000Z</time>
      </trkpt>
      <trkpt lat="47.39424" lon="-2.08189">
        <ele>3.2000000476837</ele>
        <time>2021-11-14T09:24:00.000Z</time>
      </trkpt>
      <trkpt lat="47.39421" lon="-2.0819">
        <ele>3.5999999046326</ele>
        <time>2021-11-14T09:24:01.000Z</time>
      </trkpt>
      <trkpt lat="47.39418" lon="-2.08191">
        <ele>4</ele>
        <time>2021-11-14T09:24:02.000Z</time>
      </trkpt>
      <trkpt lat="47.39401" lon="-2.08195">
        <ele>4</ele>
        <time>2021-11-14T09:24:08.000Z</time>
      </trkpt>
      <trkpt lat="47.39404" lon="-2.08202">
        <ele>4</ele>
        <time>2021-11-14T09:24:12.000Z</time>
      </trkpt>
      <trkpt lat="47.39407" lon="-2.08207">
        <ele>4</ele>
        <time>2021-11-14T09:24:14.000Z</time>
      </trkpt>
      <trkpt lat="47.39414" lon="-2.08216">
        <ele>4</ele>
        <time>2021-11-14T09:24:17.000Z</time>
      </trkpt>
      <trkpt lat="47.39418" lon="-2.08228">
        <ele>4</ele>
        <time>2021-11-14T09:24:20.000Z</time>
      </trkpt>
      <trkpt lat="47.39417" lon="-2.08233">
        <ele>4</ele>
        <time>2021-11-14T09:24:21.000Z</time>
      </trkpt>
      <trkpt lat="47.39414" lon="-2.08235">
        <ele>3.5999999046326</ele>
        <time>2021-11-14T09:24:23.000Z</time>
      </trkpt>
      <trkpt lat="47.39412" lon="-2.08236">
        <ele>3.2000000476837</ele>
        <time>2021-11-14T09:24:24.000Z</time>
      </trkpt>
      <trkpt lat="47.3941" lon="-2.08236">
        <ele>2.7999999523163</ele>
        <time>2021-11-14T09:24:25.000Z</time>
      </trkpt>
      <trkpt lat="47.39408" lon="-2.08235">
        <ele>2.4000000953674</ele>
        <time>2021-11-14T09:24:26.000Z</time>
      </trkpt>
      <trkpt lat="47.39406" lon="-2.08234">
        <ele>1.7999999523163</ele>
        <time>2021-11-14T09:24:27.000Z</time>
      </trkpt>
      <trkpt lat="47.39403" lon="-2.08232">
        <ele>1.7999999523163</ele>
        <time>2021-11-14T09:24:28.000Z</time>
      </trkpt>
      <trkpt lat="47.39393" lon="-2.08218">
        <ele>1.7999999523163</ele>
        <time>2021-11-14T09:24:33.000Z</time>
      </trkpt>
      <trkpt lat="47.39385" lon="-2.0821">
        <ele>1.7999999523163</ele>
        <time>2021-11-14T09:24:36.000Z</time>
      </trkpt>
      <trkpt lat="47.39379" lon="-2.0821">
        <ele>1.7999999523163</ele>
        <time>2021-11-14T09:24:38.000Z</time>
      </trkpt>
      <trkpt lat="47.39368" lon="-2.08216">
        <ele>1.7999999523163</ele>
        <time>2021-11-14T09:24:42.000Z</time>
      </trkpt>
      <trkpt lat="47.39361" lon="-2.08224">
        <ele>1.3999999761581</ele>
        <time>2021-11-14T09:24:44.000Z</time>
      </trkpt>
      <trkpt lat="47.39357" lon="-2.08228">
        <ele>1</ele>
        <time>2021-11-14T09:24:45.000Z</time>
      </trkpt>
      <trkpt lat="47.39353" lon="-2.08232">
        <ele>0.60000002384186</ele>
        <time>2021-11-14T09:24:46.000Z</time>
      </trkpt>
      <trkpt lat="47.3935" lon="-2.08235">
        <ele>0.20000000298023</ele>
        <time>2021-11-14T09:24:47.000Z</time>
      </trkpt>
      <trkpt lat="47.39348" lon="-2.08238">
        <ele>-0.20000000298023</ele>
        <time>2021-11-14T09:24:48.000Z</time>
      </trkpt>
      <trkpt lat="47.39343" lon="-2.0824">
        <ele>-0.20000000298023</ele>
        <time>2021-11-14T09:24:52.000Z</time>
      </trkpt>
      <trkpt lat="47.39341" lon="-2.08241">
        <ele>-0.20000000298023</ele>
        <time>2021-11-14T09:24:53.000Z</time>
      </trkpt>
      <trkpt lat="47.39335" lon="-2.08247">
        <ele>-0.20000000298023</ele>
        <time>2021-11-14T09:24:57.000Z</time>
      </trkpt>
      <trkpt lat="47.39324" lon="-2.08261">
        <ele>-0.20000000298023</ele>
        <time>2021-11-14T09:25:02.000Z</time>
      </trkpt>
      <trkpt lat="47.39306" lon="-2.08277">
        <ele>-0.20000000298023</ele>
        <time>2021-11-14T09:25:08.000Z</time>
      </trkpt>
      <trkpt lat="47.39296" lon="-2.08288">
        <ele>-0.20000000298023</ele>
        <time>2021-11-14T09:25:11.000Z</time>
      </trkpt>
      <trkpt lat="47.39289" lon="-2.08296">
        <ele>-0.20000000298023</ele>
        <time>2021-11-14T09:25:13.000Z</time>
      </trkpt>
      <trkpt lat="47.39282" lon="-2.08305">
        <ele>-0.20000000298023</ele>
        <time>2021-11-14T09:25:15.000Z</time>
      </trkpt>
      <trkpt lat="47.39271" lon="-2.0832">
        <ele>-0.20000000298023</ele>
        <time>2021-11-14T09:25:18.000Z</time>
      </trkpt>
      <trkpt lat="47.39267" lon="-2.08324">
        <ele>-0.20000000298023</ele>
        <time>2021-11-14T09:25:19.000Z</time>
      </trkpt>
      <trkpt lat="47.39247" lon="-2.08347">
        <ele>-0.20000000298023</ele>
        <time>2021-11-14T09:25:24.000Z</time>
      </trkpt>
      <trkpt lat="47.39225" lon="-2.08376">
        <ele>-0.20000000298023</ele>
        <time>2021-11-14T09:25:30.000Z</time>
      </trkpt>
      <trkpt lat="47.39214" lon="-2.08389">
        <ele>-0.20000000298023</ele>
        <time>2021-11-14T09:25:33.000Z</time>
      </trkpt>
      <trkpt lat="47.39206" lon="-2.08399">
        <ele>-0.20000000298023</ele>
        <time>2021-11-14T09:25:35.000Z</time>
      </trkpt>
      <trkpt lat="47.39178" lon="-2.08432">
        <ele>-0.20000000298023</ele>
        <time>2021-11-14T09:25:42.000Z</time>
      </trkpt>
      <trkpt lat="47.39158" lon="-2.08458">
        <ele>-0.20000000298023</ele>
        <time>2021-11-14T09:25:49.000Z</time>
      </trkpt>
      <trkpt lat="47.39151" lon="-2.08481">
        <ele>-0.20000000298023</ele>
        <time>2021-11-14T09:25:54.000Z</time>
      </trkpt>
      <trkpt lat="47.39153" lon="-2.08518">
        <ele>-0.20000000298023</ele>
        <time>2021-11-14T09:26:00.000Z</time>
      </trkpt>
      <trkpt lat="47.39148" lon="-2.08551">
        <ele>-0.20000000298023</ele>
        <time>2021-11-14T09:26:05.000Z</time>
      </trkpt>
      <trkpt lat="47.39141" lon="-2.08602">
        <ele>-0.20000000298023</ele>
        <time>2021-11-14T09:26:12.000Z</time>
      </trkpt>
      <trkpt lat="47.3914" lon="-2.08649">
        <ele>-0.20000000298023</ele>
        <time>2021-11-14T09:26:18.000Z</time>
      </trkpt>
      <trkpt lat="47.3914" lon="-2.08657">
        <ele>-0.20000000298023</ele>
        <time>2021-11-14T09:26:19.000Z</time>
      </trkpt>
      <trkpt lat="47.3914" lon="-2.08697">
        <ele>-0.20000000298023</ele>
        <time>2021-11-14T09:26:24.000Z</time>
      </trkpt>
      <trkpt lat="47.39139" lon="-2.08705">
        <ele>-0.20000000298023</ele>
        <time>2021-11-14T09:26:25.000Z</time>
      </trkpt>
      <trkpt lat="47.39137" lon="-2.08719">
        <ele>0.20000000298023</ele>
        <time>2021-11-14T09:26:27.000Z</time>
      </trkpt>
      <trkpt lat="47.39136" lon="-2.08726">
        <ele>0.60000002384186</ele>
        <time>2021-11-14T09:26:28.000Z</time>
      </trkpt>
      <trkpt lat="47.39134" lon="-2.08732">
        <ele>1</ele>
        <time>2021-11-14T09:26:29.000Z</time>
      </trkpt>
      <trkpt lat="47.39133" lon="-2.08738">
        <ele>1.3999999761581</ele>
        <time>2021-11-14T09:26:30.000Z</time>
      </trkpt>
      <trkpt lat="47.39132" lon="-2.08745">
        <ele>1.7999999523163</ele>
        <time>2021-11-14T09:26:31.000Z</time>
      </trkpt>
      <trkpt lat="47.39131" lon="-2.08751">
        <ele>1.7999999523163</ele>
        <time>2021-11-14T09:26:32.000Z</time>
      </trkpt>
      <trkpt lat="47.3913" lon="-2.08765">
        <ele>1.7999999523163</ele>
        <time>2021-11-14T09:26:34.000Z</time>
      </trkpt>
      <trkpt lat="47.39127" lon="-2.08783">
        <ele>1.7999999523163</ele>
        <time>2021-11-14T09:26:37.000Z</time>
      </trkpt>
      <trkpt lat="47.39127" lon="-2.08799">
        <ele>1.7999999523163</ele>
        <time>2021-11-14T09:26:40.000Z</time>
      </trkpt>
      <trkpt lat="47.39129" lon="-2.08804">
        <ele>2.2000000476837</ele>
        <time>2021-11-14T09:26:41.000Z</time>
      </trkpt>
      <trkpt lat="47.39133" lon="-2.08808">
        <ele>2.5999999046326</ele>
        <time>2021-11-14T09:26:42.000Z</time>
      </trkpt>
      <trkpt lat="47.39137" lon="-2.08812">
        <ele>3</ele>
        <time>2021-11-14T09:26:43.000Z</time>
      </trkpt>
      <trkpt lat="47.39141" lon="-2.08816">
        <ele>3.5999999046326</ele>
        <time>2021-11-14T09:26:44.000Z</time>
      </trkpt>
      <trkpt lat="47.39146" lon="-2.0882">
        <ele>4</ele>
        <time>2021-11-14T09:26:45.000Z</time>
      </trkpt>
      <trkpt lat="47.39177" lon="-2.08847">
        <ele>4</ele>
        <time>2021-11-14T09:26:51.000Z</time>
      </trkpt>
      <trkpt lat="47.39211" lon="-2.08873">
        <ele>4</ele>
        <time>2021-11-14T09:26:58.000Z</time>
      </trkpt>
      <trkpt lat="47.39216" lon="-2.08875">
        <ele>4</ele>
        <time>2021-11-14T09:26:59.000Z</time>
      </trkpt>
      <trkpt lat="47.39233" lon="-2.08879">
        <ele>4</ele>
        <time>2021-11-14T09:27:02.000Z</time>
      </trkpt>
      <trkpt lat="47.3924" lon="-2.0888">
        <ele>3.4000000953674</ele>
        <time>2021-11-14T09:27:03.000Z</time>
      </trkpt>
      <trkpt lat="47.39246" lon="-2.0888">
        <ele>3</ele>
        <time>2021-11-14T09:27:04.000Z</time>
      </trkpt>
      <trkpt lat="47.39253" lon="-2.08878">
        <ele>2.5999999046326</ele>
        <time>2021-11-14T09:27:05.000Z</time>
      </trkpt>
      <trkpt lat="47.39259" lon="-2.08874">
        <ele>2.2000000476837</ele>
        <time>2021-11-14T09:27:06.000Z</time>
      </trkpt>
      <trkpt lat="47.39265" lon="-2.08871">
        <ele>1.7999999523163</ele>
        <time>2021-11-14T09:27:07.000Z</time>
      </trkpt>
      <trkpt lat="47.39297" lon="-2.08852">
        <ele>1.7999999523163</ele>
        <time>2021-11-14T09:27:12.000Z</time>
      </trkpt>
      <trkpt lat="47.39347" lon="-2.08825">
        <ele>1.7999999523163</ele>
        <time>2021-11-14T09:27:20.000Z</time>
      </trkpt>
      <trkpt lat="47.394" lon="-2.088">
        <ele>1.7999999523163</ele>
        <time>2021-11-14T09:27:28.000Z</time>
      </trkpt>
      <trkpt lat="47.39454" lon="-2.08781">
        <ele>1.7999999523163</ele>
        <time>2021-11-14T09:27:36.000Z</time>
      </trkpt>
      <trkpt lat="47.3949" lon="-2.08769">
        <ele>1.7999999523163</ele>
        <time>2021-11-14T09:27:42.000Z</time>
      </trkpt>
      <trkpt lat="47.3952" lon="-2.08757">
        <ele>1.7999999523163</ele>
        <time>2021-11-14T09:27:47.000Z</time>
      </trkpt>
      <trkpt lat="47.39568" lon="-2.08741">
        <ele>1.7999999523163</ele>
        <time>2021-11-14T09:27:55.000Z</time>
      </trkpt>
      <trkpt lat="47.39574" lon="-2.0874">
        <ele>1.7999999523163</ele>
        <time>2021-11-14T09:27:56.000Z</time>
      </trkpt>
      <trkpt lat="47.39592" lon="-2.08742">
        <ele>1.7999999523163</ele>
        <time>2021-11-14T09:27:59.000Z</time>
      </trkpt>
      <trkpt lat="47.39598" lon="-2.08744">
        <ele>1.7999999523163</ele>
        <time>2021-11-14T09:28:00.000Z</time>
      </trkpt>
      <trkpt lat="47.39613" lon="-2.08739">
        <ele>1.7999999523163</ele>
        <time>2021-11-14T09:28:03.000Z</time>
      </trkpt>
      <trkpt lat="47.3962" lon="-2.08719">
        <ele>1.7999999523163</ele>
        <time>2021-11-14T09:28:06.000Z</time>
      </trkpt>
      <trkpt lat="47.39616" lon="-2.08695">
        <ele>1.7999999523163</ele>
        <time>2021-11-14T09:28:09.000Z</time>
      </trkpt>
      <trkpt lat="47.396" lon="-2.08669">
        <ele>1.7999999523163</ele>
        <time>2021-11-14T09:28:13.000Z</time>
      </trkpt>
      <trkpt lat="47.39563" lon="-2.08614">
        <ele>1.7999999523163</ele>
        <time>2021-11-14T09:28:21.000Z</time>
      </trkpt>
      <trkpt lat="47.39556" lon="-2.086">
        <ele>1.7999999523163</ele>
        <time>2021-11-14T09:28:23.000Z</time>
      </trkpt>
      <trkpt lat="47.39552" lon="-2.08583">
        <ele>1.7999999523163</ele>
        <time>2021-11-14T09:28:25.000Z</time>
      </trkpt>
      <trkpt lat="47.39543" lon="-2.08541">
        <ele>1.7999999523163</ele>
        <time>2021-11-14T09:28:30.000Z</time>
      </trkpt>
      <trkpt lat="47.39542" lon="-2.08524">
        <ele>1.7999999523163</ele>
        <time>2021-11-14T09:28:32.000Z</time>
      </trkpt>
      <trkpt lat="47.39542" lon="-2.08515">
        <ele>1.7999999523163</ele>
        <time>2021-11-14T09:28:33.000Z</time>
      </trkpt>
      <trkpt lat="47.39547" lon="-2.08481">
        <ele>1.7999999523163</ele>
        <time>2021-11-14T09:28:37.000Z</time>
      </trkpt>
      <trkpt lat="47.39549" lon="-2.08475">
        <ele>1.7999999523163</ele>
        <time>2021-11-14T09:28:38.000Z</time>
      </trkpt>
      <trkpt lat="47.39558" lon="-2.08468">
        <ele>1.3999999761581</ele>
        <time>2021-11-14T09:28:40.000Z</time>
      </trkpt>
      <trkpt lat="47.39564" lon="-2.08466">
        <ele>1</ele>
        <time>2021-11-14T09:28:41.000Z</time>
      </trkpt>
      <trkpt lat="47.3957" lon="-2.08465">
        <ele>0.60000002384186</ele>
        <time>2021-11-14T09:28:42.000Z</time>
      </trkpt>
      <trkpt lat="47.39576" lon="-2.08464">
        <ele>1.2</ele>
        <time>2021-11-14T09:28:43.000Z</time>
      </trkpt>
      <trkpt lat="47.39582" lon="-2.08464">
        <ele>-0.40000000596046</ele>
        <time>2021-11-14T09:28:44.000Z</time>
      </trkpt>
      <trkpt lat="47.39588" lon="-2.08464">
        <ele>-0.40000000596046</ele>
        <time>2021-11-14T09:28:45.000Z</time>
      </trkpt>
      <trkpt lat="47.39602" lon="-2.08474">
        <ele>-0.40000000596046</ele>
        <time>2021-11-14T09:28:48.000Z</time>
      </trkpt>
      <trkpt lat="47.39606" lon="-2.08484">
        <ele>-0.40000000596046</ele>
        <time>2021-11-14T09:28:50.000Z</time>
      </trkpt>
      <trkpt lat="47.3961" lon="-2.08489">
        <ele>-0.40000000596046</ele>
        <time>2021-11-14T09:28:51.000Z</time>
      </trkpt>
      <trkpt lat="47.39624" lon="-2.08496">
        <ele>-0.40000000596046</ele>
        <time>2021-11-14T09:28:54.000Z</time>
      </trkpt>
      <trkpt lat="47.39629" lon="-2.08497">
        <ele>-0.40000000596046</ele>
        <time>2021-11-14T09:28:55.000Z</time>
      </trkpt>
      <trkpt lat="47.39649" lon="-2.085">
        <ele>-0.40000000596046</ele>
        <time>2021-11-14T09:28:59.000Z</time>
      </trkpt>
      <trkpt lat="47.39678" lon="-2.08506">
        <ele>-0.40000000596046</ele>
        <time>2021-11-14T09:29:05.000Z</time>
      </trkpt>
      <trkpt lat="47.39704" lon="-2.08518">
        <ele>-0.40000000596046</ele>
        <time>2021-11-14T09:29:11.000Z</time>
      </trkpt>
      <trkpt lat="47.39706" lon="-2.08535">
        <ele>-0.40000000596046</ele>
        <time>2021-11-14T09:29:14.000Z</time>
      </trkpt>
      <trkpt lat="47.39703" lon="-2.08575">
        <ele>-0.40000000596046</ele>
        <time>2021-11-14T09:29:20.000Z</time>
      </trkpt>
      <trkpt lat="47.39702" lon="-2.08598">
        <ele>-0.40000000596046</ele>
        <time>2021-11-14T09:29:23.000Z</time>
      </trkpt>
      <trkpt lat="47.39702" lon="-2.08625">
        <ele>-0.40000000596046</ele>
        <time>2021-11-14T09:29:27.000Z</time>
      </trkpt>
      <trkpt lat="47.39701" lon="-2.08631">
        <ele>0.20000000298023</ele>
        <time>2021-11-14T09:29:28.000Z</time>
      </trkpt>
      <trkpt lat="47.39701" lon="-2.08638">
        <ele>1</ele>
        <time>2021-11-14T09:29:29.000Z</time>
      </trkpt>
      <trkpt lat="47.397" lon="-2.08644">
        <ele>1.6000000238419</ele>
        <time>2021-11-14T09:29:30.000Z</time>
      </trkpt>
      <trkpt lat="47.397" lon="-2.0865">
        <ele>2</ele>
        <time>2021-11-14T09:29:31.000Z</time>
      </trkpt>
      <trkpt lat="47.39699" lon="-2.08669">
        <ele>2</ele>
        <time>2021-11-14T09:29:34.000Z</time>
      </trkpt>
      <trkpt lat="47.39698" lon="-2.08682">
        <ele>2</ele>
        <time>2021-11-14T09:29:36.000Z</time>
      </trkpt>
      <trkpt lat="47.39698" lon="-2.08699">
        <ele>2</ele>
        <time>2021-11-14T09:29:39.000Z</time>
      </trkpt>
      <trkpt lat="47.39708" lon="-2.08725">
        <ele>2</ele>
        <time>2021-11-14T09:29:43.000Z</time>
      </trkpt>
      <trkpt lat="47.39711" lon="-2.08733">
        <ele>2</ele>
        <time>2021-11-14T09:29:44.000Z</time>
      </trkpt>
      <trkpt lat="47.39714" lon="-2.08749">
        <ele>2</ele>
        <time>2021-11-14T09:29:46.000Z</time>
      </trkpt>
      <trkpt lat="47.39716" lon="-2.08767">
        <ele>2</ele>
        <time>2021-11-14T09:29:48.000Z</time>
      </trkpt>
      <trkpt lat="47.39718" lon="-2.08775">
        <ele>2</ele>
        <time>2021-11-14T09:29:49.000Z</time>
      </trkpt>
      <trkpt lat="47.39727" lon="-2.08783">
        <ele>2</ele>
        <time>2021-11-14T09:29:51.000Z</time>
      </trkpt>
      <trkpt lat="47.39742" lon="-2.08778">
        <ele>2</ele>
        <time>2021-11-14T09:29:54.000Z</time>
      </trkpt>
      <trkpt lat="47.39759" lon="-2.08773">
        <ele>2</ele>
        <time>2021-11-14T09:29:57.000Z</time>
      </trkpt>
      <trkpt lat="47.39778" lon="-2.08771">
        <ele>2</ele>
        <time>2021-11-14T09:30:00.000Z</time>
      </trkpt>
      <trkpt lat="47.39808" lon="-2.0876">
        <ele>2</ele>
        <time>2021-11-14T09:30:05.000Z</time>
      </trkpt>
      <trkpt lat="47.39814" lon="-2.08756">
        <ele>2</ele>
        <time>2021-11-14T09:30:06.000Z</time>
      </trkpt>
      <trkpt lat="47.39819" lon="-2.08752">
        <ele>2</ele>
        <time>2021-11-14T09:30:07.000Z</time>
      </trkpt>
      <trkpt lat="47.39834" lon="-2.08737">
        <ele>2</ele>
        <time>2021-11-14T09:30:10.000Z</time>
      </trkpt>
      <trkpt lat="47.39854" lon="-2.08716">
        <ele>2</ele>
        <time>2021-11-14T09:30:14.000Z</time>
      </trkpt>
      <trkpt lat="47.39863" lon="-2.08704">
        <ele>2</ele>
        <time>2021-11-14T09:30:16.000Z</time>
      </trkpt>
      <trkpt lat="47.39878" lon="-2.08688">
        <ele>2</ele>
        <time>2021-11-14T09:30:19.000Z</time>
      </trkpt>
      <trkpt lat="47.39892" lon="-2.0867">
        <ele>2</ele>
        <time>2021-11-14T09:30:22.000Z</time>
      </trkpt>
      <trkpt lat="47.3992" lon="-2.08634">
        <ele>2</ele>
        <time>2021-11-14T09:30:29.000Z</time>
      </trkpt>
      <trkpt lat="47.39928" lon="-2.08626">
        <ele>2</ele>
        <time>2021-11-14T09:30:31.000Z</time>
      </trkpt>
      <trkpt lat="47.39938" lon="-2.08615">
        <ele>2</ele>
        <time>2021-11-14T09:30:34.000Z</time>
      </trkpt>
      <trkpt lat="47.39941" lon="-2.0861">
        <ele>2</ele>
        <time>2021-11-14T09:30:35.000Z</time>
      </trkpt>
      <trkpt lat="47.39959" lon="-2.08587">
        <ele>2</ele>
        <time>2021-11-14T09:30:41.000Z</time>
      </trkpt>
      <trkpt lat="47.39961" lon="-2.08585">
        <ele>1.6000000238419</ele>
        <time>2021-11-14T09:30:44.000Z</time>
      </trkpt>
      <trkpt lat="47.39955" lon="-2.0859">
        <ele>3</ele>
        <time>2021-11-14T09:36:02.000Z</time>
      </trkpt>
      <trkpt lat="47.39952" lon="-2.08594">
        <ele>3</ele>
        <time>2021-11-14T09:36:04.000Z</time>
      </trkpt>
      <trkpt lat="47.39943" lon="-2.08608">
        <ele>3</ele>
        <time>2021-11-14T09:36:09.000Z</time>
      </trkpt>
      <trkpt lat="47.39941" lon="-2.08613">
        <ele>3</ele>
        <time>2021-11-14T09:36:10.000Z</time>
      </trkpt>
      <trkpt lat="47.39941" lon="-2.08635">
        <ele>3</ele>
        <time>2021-11-14T09:36:14.000Z</time>
      </trkpt>
      <trkpt lat="47.39951" lon="-2.08655">
        <ele>3.4</ele>
        <time>2021-11-14T09:36:18.000Z</time>
      </trkpt>
      <trkpt lat="47.39955" lon="-2.08659">
        <ele>3.5</ele>
        <time>2021-11-14T09:36:19.000Z</time>
      </trkpt>
      <trkpt lat="47.39976" lon="-2.08689">
        <ele>2.9</ele>
        <time>2021-11-14T09:36:26.000Z</time>
      </trkpt>
      <trkpt lat="47.39984" lon="-2.08697">
        <ele>2.6</ele>
        <time>2021-11-14T09:36:29.000Z</time>
      </trkpt>
      <trkpt lat="47.39987" lon="-2.08696">
        <ele>2.5</ele>
        <time>2021-11-14T09:36:30.000Z</time>
      </trkpt>
      <trkpt lat="47.39999" lon="-2.0868">
        <ele>2.1</ele>
        <time>2021-11-14T09:36:34.000Z</time>
      </trkpt>
      <trkpt lat="47.40005" lon="-2.0867">
        <ele>2</ele>
        <time>2021-11-14T09:36:36.000Z</time>
      </trkpt>
      <trkpt lat="47.40016" lon="-2.0865">
        <ele>2</ele>
        <time>2021-11-14T09:36:40.000Z</time>
      </trkpt>
      <trkpt lat="47.40023" lon="-2.08632">
        <ele>2</ele>
        <time>2021-11-14T09:36:44.000Z</time>
      </trkpt>
      <trkpt lat="47.40036" lon="-2.08613">
        <ele>2</ele>
        <time>2021-11-14T09:36:48.000Z</time>
      </trkpt>
      <trkpt lat="47.40053" lon="-2.08588">
        <ele>2</ele>
        <time>2021-11-14T09:36:54.000Z</time>
      </trkpt>
      <trkpt lat="47.40061" lon="-2.0857">
        <ele>2</ele>
        <time>2021-11-14T09:36:59.000Z</time>
      </trkpt>
      <trkpt lat="47.40063" lon="-2.08568">
        <ele>2</ele>
        <time>2021-11-14T09:37:00.000Z</time>
      </trkpt>
      <trkpt lat="47.40069" lon="-2.08571">
        <ele>2</ele>
        <time>2021-11-14T09:37:03.000Z</time>
      </trkpt>
      <trkpt lat="47.40072" lon="-2.08587">
        <ele>1.9</ele>
        <time>2021-11-14T09:37:09.000Z</time>
      </trkpt>
      <trkpt lat="47.4007" lon="-2.08596">
        <ele>1.8</ele>
        <time>2021-11-14T09:37:12.000Z</time>
      </trkpt>
      <trkpt lat="47.40065" lon="-2.08604">
        <ele>1.7</ele>
        <time>2021-11-14T09:37:14.000Z</time>
      </trkpt>
      <trkpt lat="47.40061" lon="-2.08616">
        <ele>1.9</ele>
        <time>2021-11-14T09:37:17.000Z</time>
      </trkpt>
      <trkpt lat="47.4006" lon="-2.08621">
        <ele>1.9</ele>
        <time>2021-11-14T09:37:18.000Z</time>
      </trkpt>
      <trkpt lat="47.40053" lon="-2.08647">
        <ele>2</ele>
        <time>2021-11-14T09:37:23.000Z</time>
      </trkpt>
      <trkpt lat="47.40051" lon="-2.08648">
        <ele>2</ele>
        <time>2021-11-14T09:37:24.000Z</time>
      </trkpt>
      <trkpt lat="47.40045" lon="-2.08645">
        <ele>2</ele>
        <time>2021-11-14T09:37:28.000Z</time>
      </trkpt>
      <trkpt lat="47.4004" lon="-2.08638">
        <ele>2</ele>
        <time>2021-11-14T09:37:32.000Z</time>
      </trkpt>
      <trkpt lat="47.40038" lon="-2.08639">
        <ele>2</ele>
        <time>2021-11-14T09:37:33.000Z</time>
      </trkpt>
      <trkpt lat="47.40033" lon="-2.08647">
        <ele>2</ele>
        <time>2021-11-14T09:37:36.000Z</time>
      </trkpt>
      <trkpt lat="47.4003" lon="-2.08669">
        <ele>2</ele>
        <time>2021-11-14T09:37:41.000Z</time>
      </trkpt>
      <trkpt lat="47.40023" lon="-2.08681">
        <ele>2</ele>
        <time>2021-11-14T09:37:44.000Z</time>
      </trkpt>
      <trkpt lat="47.40019" lon="-2.08687">
        <ele>2</ele>
        <time>2021-11-14T09:37:47.000Z</time>
      </trkpt>
      <trkpt lat="47.40019" lon="-2.08689">
        <ele>2</ele>
        <time>2021-11-14T09:37:48.000Z</time>
      </trkpt>
      <trkpt lat="47.4002" lon="-2.0869">
        <ele>2</ele>
        <time>2021-11-14T09:37:50.000Z</time>
      </trkpt>
      <trkpt lat="47.40022" lon="-2.08697">
        <ele>2</ele>
        <time>2021-11-14T09:37:52.000Z</time>
      </trkpt>
      <trkpt lat="47.40024" lon="-2.08699">
        <ele>2</ele>
        <time>2021-11-14T09:37:53.000Z</time>
      </trkpt>
      <trkpt lat="47.40028" lon="-2.08704">
        <ele>2</ele>
        <time>2021-11-14T09:37:55.000Z</time>
      </trkpt>
      <trkpt lat="47.40034" lon="-2.08702">
        <ele>2</ele>
        <time>2021-11-14T09:37:57.000Z</time>
      </trkpt>
      <trkpt lat="47.4005" lon="-2.08692">
        <ele>2</ele>
        <time>2021-11-14T09:38:03.000Z</time>
      </trkpt>
      <trkpt lat="47.40052" lon="-2.08695">
        <ele>2</ele>
        <time>2021-11-14T09:38:04.000Z</time>
      </trkpt>
      <trkpt lat="47.40053" lon="-2.08701">
        <ele>2</ele>
        <time>2021-11-14T09:38:06.000Z</time>
      </trkpt>
      <trkpt lat="47.40052" lon="-2.08709">
        <ele>2</ele>
        <time>2021-11-14T09:38:09.000Z</time>
      </trkpt>
      <trkpt lat="47.40048" lon="-2.08712">
        <ele>2</ele>
        <time>2021-11-14T09:38:12.000Z</time>
      </trkpt>
      <trkpt lat="47.40037" lon="-2.08718">
        <ele>2</ele>
        <time>2021-11-14T09:38:16.000Z</time>
      </trkpt>
      <trkpt lat="47.40035" lon="-2.0872">
        <ele>2</ele>
        <time>2021-11-14T09:38:17.000Z</time>
      </trkpt>
      <trkpt lat="47.40033" lon="-2.08723">
        <ele>2</ele>
        <time>2021-11-14T09:38:18.000Z</time>
      </trkpt>
      <trkpt lat="47.40033" lon="-2.08729">
        <ele>2.3</ele>
        <time>2021-11-14T09:38:20.000Z</time>
      </trkpt>
      <trkpt lat="47.40037" lon="-2.08739">
        <ele>2.6</ele>
        <time>2021-11-14T09:38:23.000Z</time>
      </trkpt>
      <trkpt lat="47.40041" lon="-2.08745">
        <ele>2.8</ele>
        <time>2021-11-14T09:38:25.000Z</time>
      </trkpt>
      <trkpt lat="47.40045" lon="-2.0875">
        <ele>3</ele>
        <time>2021-11-14T09:38:27.000Z</time>
      </trkpt>
      <trkpt lat="47.40048" lon="-2.08748">
        <ele>2.9</ele>
        <time>2021-11-14T09:38:29.000Z</time>
      </trkpt>
      <trkpt lat="47.4005" lon="-2.0874">
        <ele>2.6</ele>
        <time>2021-11-14T09:38:32.000Z</time>
      </trkpt>
      <trkpt lat="47.40052" lon="-2.08732">
        <ele>2.4</ele>
        <time>2021-11-14T09:38:34.000Z</time>
      </trkpt>
      <trkpt lat="47.40055" lon="-2.08723">
        <ele>2</ele>
        <time>2021-11-14T09:38:37.000Z</time>
      </trkpt>
      <trkpt lat="47.40056" lon="-2.08715">
        <ele>2</ele>
        <time>2021-11-14T09:38:39.000Z</time>
      </trkpt>
      <trkpt lat="47.40066" lon="-2.08695">
        <ele>2</ele>
        <time>2021-11-14T09:38:44.000Z</time>
      </trkpt>
      <trkpt lat="47.40073" lon="-2.08691">
        <ele>2</ele>
        <time>2021-11-14T09:38:46.000Z</time>
      </trkpt>
      <trkpt lat="47.40085" lon="-2.08685">
        <ele>2</ele>
        <time>2021-11-14T09:38:49.000Z</time>
      </trkpt>
      <trkpt lat="47.40095" lon="-2.08685">
        <ele>2</ele>
        <time>2021-11-14T09:38:53.000Z</time>
      </trkpt>
      <trkpt lat="47.40096" lon="-2.08686">
        <ele>2</ele>
        <time>2021-11-14T09:38:54.000Z</time>
      </trkpt>
      <trkpt lat="47.40096" lon="-2.08686">
        <ele>2</ele>
        <time>2021-11-14T09:38:55.000Z</time>
      </trkpt>
      <trkpt lat="47.40093" lon="-2.0869">
        <ele>2</ele>
        <time>2021-11-14T09:38:57.000Z</time>
      </trkpt>
      <trkpt lat="47.40083" lon="-2.08712">
        <ele>2</ele>
        <time>2021-11-14T09:39:03.000Z</time>
      </trkpt>
      <trkpt lat="47.40081" lon="-2.08716">
        <ele>2</ele>
        <time>2021-11-14T09:39:04.000Z</time>
      </trkpt>
      <trkpt lat="47.40081" lon="-2.08725">
        <ele>2.1</ele>
        <time>2021-11-14T09:39:06.000Z</time>
      </trkpt>
      <trkpt lat="47.40085" lon="-2.08727">
        <ele>2.2</ele>
        <time>2021-11-14T09:39:10.000Z</time>
      </trkpt>
      <trkpt lat="47.4009" lon="-2.08715">
        <ele>2</ele>
        <time>2021-11-14T09:39:14.000Z</time>
      </trkpt>
      <trkpt lat="47.40095" lon="-2.08703">
        <ele>2</ele>
        <time>2021-11-14T09:39:18.000Z</time>
      </trkpt>
      <trkpt lat="47.40102" lon="-2.08693">
        <ele>2</ele>
        <time>2021-11-14T09:39:22.000Z</time>
      </trkpt>
      <trkpt lat="47.40105" lon="-2.08686">
        <ele>2</ele>
        <time>2021-11-14T09:39:24.000Z</time>
      </trkpt>
      <trkpt lat="47.40105" lon="-2.08682">
        <ele>2</ele>
        <time>2021-11-14T09:39:25.000Z</time>
      </trkpt>
      <trkpt lat="47.40104" lon="-2.08672">
        <ele>2</ele>
        <time>2021-11-14T09:39:27.000Z</time>
      </trkpt>
      <trkpt lat="47.40108" lon="-2.08656">
        <ele>1.7</ele>
        <time>2021-11-14T09:39:32.000Z</time>
      </trkpt>
      <trkpt lat="47.40122" lon="-2.08661">
        <ele>1.8</ele>
        <time>2021-11-14T09:39:37.000Z</time>
      </trkpt>
      <trkpt lat="47.40125" lon="-2.08663">
        <ele>1.9</ele>
        <time>2021-11-14T09:39:38.000Z</time>
      </trkpt>
      <trkpt lat="47.40132" lon="-2.08675">
        <ele>2</ele>
        <time>2021-11-14T09:39:42.000Z</time>
      </trkpt>
      <trkpt lat="47.40135" lon="-2.0869">
        <ele>2</ele>
        <time>2021-11-14T09:39:47.000Z</time>
      </trkpt>
      <trkpt lat="47.40148" lon="-2.08693">
        <ele>2</ele>
        <time>2021-11-14T09:39:51.000Z</time>
      </trkpt>
      <trkpt lat="47.40158" lon="-2.08698">
        <ele>2</ele>
        <time>2021-11-14T09:39:55.000Z</time>
      </trkpt>
      <trkpt lat="47.40159" lon="-2.08703">
        <ele>2</ele>
        <time>2021-11-14T09:39:57.000Z</time>
      </trkpt>
      <trkpt lat="47.40158" lon="-2.08705">
        <ele>2</ele>
        <time>2021-11-14T09:39:58.000Z</time>
      </trkpt>
      <trkpt lat="47.40148" lon="-2.08718">
        <ele>2</ele>
        <time>2021-11-14T09:40:03.000Z</time>
      </trkpt>
      <trkpt lat="47.40136" lon="-2.08723">
        <ele>2</ele>
        <time>2021-11-14T09:40:08.000Z</time>
      </trkpt>
      <trkpt lat="47.40119" lon="-2.08721">
        <ele>2</ele>
        <time>2021-11-14T09:40:15.000Z</time>
      </trkpt>
      <trkpt lat="47.40112" lon="-2.08734">
        <ele>2</ele>
        <time>2021-11-14T09:40:20.000Z</time>
      </trkpt>
      <trkpt lat="47.40108" lon="-2.08752">
        <ele>2.2</ele>
        <time>2021-11-14T09:40:25.000Z</time>
      </trkpt>
      <trkpt lat="47.40114" lon="-2.08743">
        <ele>2</ele>
        <time>2021-11-14T09:40:28.000Z</time>
      </trkpt>
      <trkpt lat="47.40117" lon="-2.08741">
        <ele>2</ele>
        <time>2021-11-14T09:40:29.000Z</time>
      </trkpt>
      <trkpt lat="47.40124" lon="-2.0874">
        <ele>2</ele>
        <time>2021-11-14T09:40:31.000Z</time>
      </trkpt>
      <trkpt lat="47.40137" lon="-2.08742">
        <ele>2</ele>
        <time>2021-11-14T09:40:35.000Z</time>
      </trkpt>
      <trkpt lat="47.40136" lon="-2.08745">
        <ele>2</ele>
        <time>2021-11-14T09:40:37.000Z</time>
      </trkpt>
      <trkpt lat="47.40134" lon="-2.08751">
        <ele>2</ele>
        <time>2021-11-14T09:40:39.000Z</time>
      </trkpt>
      <trkpt lat="47.40125" lon="-2.08753">
        <ele>2.1</ele>
        <time>2021-11-14T09:40:42.000Z</time>
      </trkpt>
      <trkpt lat="47.40114" lon="-2.08757">
        <ele>2.3</ele>
        <time>2021-11-14T09:40:46.000Z</time>
      </trkpt>
      <trkpt lat="47.40105" lon="-2.08764">
        <ele>2.6</ele>
        <time>2021-11-14T09:40:50.000Z</time>
      </trkpt>
      <trkpt lat="47.40098" lon="-2.08756">
        <ele>2.6</ele>
        <time>2021-11-14T09:40:54.000Z</time>
      </trkpt>
      <trkpt lat="47.40097" lon="-2.08755">
        <ele>2.6</ele>
        <time>2021-11-14T09:40:55.000Z</time>
      </trkpt>
      <trkpt lat="47.40096" lon="-2.08757">
        <ele>2.7</ele>
        <time>2021-11-14T09:40:57.000Z</time>
      </trkpt>
      <trkpt lat="47.40095" lon="-2.08759">
        <ele>2.7</ele>
        <time>2021-11-14T09:40:58.000Z</time>
      </trkpt>
      <trkpt lat="47.40096" lon="-2.08775">
        <ele>3</ele>
        <time>2021-11-14T09:41:02.000Z</time>
      </trkpt>
      <trkpt lat="47.40102" lon="-2.08781">
        <ele>3</ele>
        <time>2021-11-14T09:41:04.000Z</time>
      </trkpt>
      <trkpt lat="47.4011" lon="-2.08787">
        <ele>3</ele>
        <time>2021-11-14T09:41:06.000Z</time>
      </trkpt>
      <trkpt lat="47.40114" lon="-2.08789">
        <ele>3</ele>
        <time>2021-11-14T09:41:07.000Z</time>
      </trkpt>
      <trkpt lat="47.40132" lon="-2.08795">
        <ele>3.5</ele>
        <time>2021-11-14T09:41:11.000Z</time>
      </trkpt>
      <trkpt lat="47.40164" lon="-2.0879">
        <ele>3.4</ele>
        <time>2021-11-14T09:41:17.000Z</time>
      </trkpt>
      <trkpt lat="47.40179" lon="-2.08786">
        <ele>3.3</ele>
        <time>2021-11-14T09:41:20.000Z</time>
      </trkpt>
      <trkpt lat="47.40194" lon="-2.08781">
        <ele>3.1</ele>
        <time>2021-11-14T09:41:23.000Z</time>
      </trkpt>
      <trkpt lat="47.40203" lon="-2.08776">
        <ele>3.3</ele>
        <time>2021-11-14T09:41:25.000Z</time>
      </trkpt>
      <trkpt lat="47.40226" lon="-2.08761">
        <ele>3.4</ele>
        <time>2021-11-14T09:41:30.000Z</time>
      </trkpt>
      <trkpt lat="47.40259" lon="-2.08734">
        <ele>3.3</ele>
        <time>2021-11-14T09:41:37.000Z</time>
      </trkpt>
      <trkpt lat="47.40277" lon="-2.08713">
        <ele>3.6</ele>
        <time>2021-11-14T09:41:41.000Z</time>
      </trkpt>
      <trkpt lat="47.40286" lon="-2.08704">
        <ele>3.3</ele>
        <time>2021-11-14T09:41:43.000Z</time>
      </trkpt>
      <trkpt lat="47.40291" lon="-2.087">
        <ele>3.2</ele>
        <time>2021-11-14T09:41:44.000Z</time>
      </trkpt>
      <trkpt lat="47.40328" lon="-2.08675">
        <ele>3.2</ele>
        <time>2021-11-14T09:41:51.000Z</time>
      </trkpt>
      <trkpt lat="47.40342" lon="-2.08663">
        <ele>3.3</ele>
        <time>2021-11-14T09:41:54.000Z</time>
      </trkpt>
      <trkpt lat="47.40349" lon="-2.08652">
        <ele>3.3</ele>
        <time>2021-11-14T09:41:56.000Z</time>
      </trkpt>
      <trkpt lat="47.40352" lon="-2.08645">
        <ele>3.1</ele>
        <time>2021-11-14T09:41:57.000Z</time>
      </trkpt>
      <trkpt lat="47.40354" lon="-2.08621">
        <ele>2.5</ele>
        <time>2021-11-14T09:42:00.000Z</time>
      </trkpt>
      <trkpt lat="47.40354" lon="-2.08585">
        <ele>2.3</ele>
        <time>2021-11-14T09:42:05.000Z</time>
      </trkpt>
      <trkpt lat="47.4036" lon="-2.08584">
        <ele>2</ele>
        <time>2021-11-14T09:42:08.000Z</time>
      </trkpt>
      <trkpt lat="47.40368" lon="-2.08587">
        <ele>1.8</ele>
        <time>2021-11-14T09:42:11.000Z</time>
      </trkpt>
      <trkpt lat="47.40372" lon="-2.0859">
        <ele>1.7</ele>
        <time>2021-11-14T09:42:13.000Z</time>
      </trkpt>
      <trkpt lat="47.40375" lon="-2.08606">
        <ele>1.9</ele>
        <time>2021-11-14T09:42:18.000Z</time>
      </trkpt>
      <trkpt lat="47.40384" lon="-2.08621">
        <ele>2.4</ele>
        <time>2021-11-14T09:42:23.000Z</time>
      </trkpt>
      <trkpt lat="47.40389" lon="-2.08633">
        <ele>2.8</ele>
        <time>2021-11-14T09:42:26.000Z</time>
      </trkpt>
      <trkpt lat="47.40397" lon="-2.08635">
        <ele>2.6</ele>
        <time>2021-11-14T09:42:28.000Z</time>
      </trkpt>
      <trkpt lat="47.40406" lon="-2.08635">
        <ele>2.2</ele>
        <time>2021-11-14T09:42:30.000Z</time>
      </trkpt>
      <trkpt lat="47.40419" lon="-2.08635">
        <ele>1.9</ele>
        <time>2021-11-14T09:42:33.000Z</time>
      </trkpt>
      <trkpt lat="47.40433" lon="-2.08643">
        <ele>2.1</ele>
        <time>2021-11-14T09:42:37.000Z</time>
      </trkpt>
      <trkpt lat="47.40445" lon="-2.08662">
        <ele>2</ele>
        <time>2021-11-14T09:42:42.000Z</time>
      </trkpt>
      <trkpt lat="47.40452" lon="-2.08669">
        <ele>2.4</ele>
        <time>2021-11-14T09:42:46.000Z</time>
      </trkpt>
      <trkpt lat="47.40454" lon="-2.08668">
        <ele>2.4</ele>
        <time>2021-11-14T09:42:47.000Z</time>
      </trkpt>
      <trkpt lat="47.40457" lon="-2.08659">
        <ele>2.5</ele>
        <time>2021-11-14T09:42:50.000Z</time>
      </trkpt>
      <trkpt lat="47.40458" lon="-2.08655">
        <ele>2.5</ele>
        <time>2021-11-14T09:42:51.000Z</time>
      </trkpt>
      <trkpt lat="47.40456" lon="-2.08645">
        <ele>2.4</ele>
        <time>2021-11-14T09:42:55.000Z</time>
      </trkpt>
      <trkpt lat="47.40452" lon="-2.0864">
        <ele>2.3</ele>
        <time>2021-11-14T09:42:59.000Z</time>
      </trkpt>
      <trkpt lat="47.40452" lon="-2.08628">
        <ele>2.3</ele>
        <time>2021-11-14T09:43:02.000Z</time>
      </trkpt>
      <trkpt lat="47.40454" lon="-2.08626">
        <ele>2.3</ele>
        <time>2021-11-14T09:43:03.000Z</time>
      </trkpt>
      <trkpt lat="47.40458" lon="-2.08624">
        <ele>2.5</ele>
        <time>2021-11-14T09:43:06.000Z</time>
      </trkpt>
      <trkpt lat="47.40463" lon="-2.0861">
        <ele>2.6</ele>
        <time>2021-11-14T09:43:10.000Z</time>
      </trkpt>
      <trkpt lat="47.40462" lon="-2.08605">
        <ele>2.4</ele>
        <time>2021-11-14T09:43:11.000Z</time>
      </trkpt>
      <trkpt lat="47.40464" lon="-2.08597">
        <ele>2.2</ele>
        <time>2021-11-14T09:43:13.000Z</time>
      </trkpt>
      <trkpt lat="47.40468" lon="-2.08596">
        <ele>2.3</ele>
        <time>2021-11-14T09:43:15.000Z</time>
      </trkpt>
      <trkpt lat="47.40472" lon="-2.08605">
        <ele>2.8</ele>
        <time>2021-11-14T09:43:19.000Z</time>
      </trkpt>
      <trkpt lat="47.40473" lon="-2.08609">
        <ele>2.9</ele>
        <time>2021-11-14T09:43:20.000Z</time>
      </trkpt>
      <trkpt lat="47.40477" lon="-2.08626">
        <ele>3.2</ele>
        <time>2021-11-14T09:43:24.000Z</time>
      </trkpt>
      <trkpt lat="47.40484" lon="-2.08656">
        <ele>3.4</ele>
        <time>2021-11-14T09:43:30.000Z</time>
      </trkpt>
      <trkpt lat="47.40489" lon="-2.08663">
        <ele>3.6</ele>
        <time>2021-11-14T09:43:33.000Z</time>
      </trkpt>
      <trkpt lat="47.40491" lon="-2.08662">
        <ele>3.7</ele>
        <time>2021-11-14T09:43:34.000Z</time>
      </trkpt>
      <trkpt lat="47.40495" lon="-2.0865">
        <ele>3.8</ele>
        <time>2021-11-14T09:43:38.000Z</time>
      </trkpt>
      <trkpt lat="47.40495" lon="-2.08649">
        <ele>3.8</ele>
        <time>2021-11-14T09:43:39.000Z</time>
      </trkpt>
      <trkpt lat="47.40491" lon="-2.08637">
        <ele>3.7</ele>
        <time>2021-11-14T09:43:43.000Z</time>
      </trkpt>
      <trkpt lat="47.40482" lon="-2.08618">
        <ele>3.3</ele>
        <time>2021-11-14T09:43:49.000Z</time>
      </trkpt>
      <trkpt lat="47.40476" lon="-2.08604">
        <ele>2.9</ele>
        <time>2021-11-14T09:43:54.000Z</time>
      </trkpt>
      <trkpt lat="47.40473" lon="-2.08586">
        <ele>2.1</ele>
        <time>2021-11-14T09:44:00.000Z</time>
      </trkpt>
      <trkpt lat="47.4048" lon="-2.08557">
        <ele>2.3</ele>
        <time>2021-11-14T09:44:05.000Z</time>
      </trkpt>
      <trkpt lat="47.40486" lon="-2.08548">
        <ele>2.4</ele>
        <time>2021-11-14T09:44:07.000Z</time>
      </trkpt>
      <trkpt lat="47.4049" lon="-2.08547">
        <ele>2.4</ele>
        <time>2021-11-14T09:44:08.000Z</time>
      </trkpt>
      <trkpt lat="47.40502" lon="-2.08543">
        <ele>2.6</ele>
        <time>2021-11-14T09:44:12.000Z</time>
      </trkpt>
      <trkpt lat="47.4051" lon="-2.08531">
        <ele>2.1</ele>
        <time>2021-11-14T09:44:15.000Z</time>
      </trkpt>
      <trkpt lat="47.4052" lon="-2.08529">
        <ele>2.1</ele>
        <time>2021-11-14T09:44:19.000Z</time>
      </trkpt>
      <trkpt lat="47.40533" lon="-2.08547">
        <ele>2.7</ele>
        <time>2021-11-14T09:44:24.000Z</time>
      </trkpt>
      <trkpt lat="47.40542" lon="-2.08567">
        <ele>3.2</ele>
        <time>2021-11-14T09:44:29.000Z</time>
      </trkpt>
      <trkpt lat="47.40553" lon="-2.08565">
        <ele>3.3</ele>
        <time>2021-11-14T09:44:32.000Z</time>
      </trkpt>
      <trkpt lat="47.40584" lon="-2.08552">
        <ele>3.9</ele>
        <time>2021-11-14T09:44:38.000Z</time>
      </trkpt>
      <trkpt lat="47.40594" lon="-2.08545">
        <ele>3.6</ele>
        <time>2021-11-14T09:44:40.000Z</time>
      </trkpt>
      <trkpt lat="47.40607" lon="-2.08529">
        <ele>3.1</ele>
        <time>2021-11-14T09:44:43.000Z</time>
      </trkpt>
      <trkpt lat="47.40644" lon="-2.08486">
        <ele>3.5</ele>
        <time>2021-11-14T09:44:51.000Z</time>
      </trkpt>
      <trkpt lat="47.4066" lon="-2.08472">
        <ele>3</ele>
        <time>2021-11-14T09:44:54.000Z</time>
      </trkpt>
      <trkpt lat="47.40672" lon="-2.08466">
        <ele>3</ele>
        <time>2021-11-14T09:44:56.000Z</time>
      </trkpt>
      <trkpt lat="47.40685" lon="-2.08462">
        <ele>3</ele>
        <time>2021-11-14T09:44:58.000Z</time>
      </trkpt>
      <trkpt lat="47.40706" lon="-2.08462">
        <ele>3.2</ele>
        <time>2021-11-14T09:45:01.000Z</time>
      </trkpt>
      <trkpt lat="47.40712" lon="-2.08463">
        <ele>3.4</ele>
        <time>2021-11-14T09:45:02.000Z</time>
      </trkpt>
      <trkpt lat="47.40742" lon="-2.08474">
        <ele>3.3</ele>
        <time>2021-11-14T09:45:07.000Z</time>
      </trkpt>
      <trkpt lat="47.40784" lon="-2.08489">
        <ele>3.4</ele>
        <time>2021-11-14T09:45:14.000Z</time>
      </trkpt>
      <trkpt lat="47.4079" lon="-2.08493">
        <ele>3.3</ele>
        <time>2021-11-14T09:45:15.000Z</time>
      </trkpt>
      <trkpt lat="47.40806" lon="-2.0851">
        <ele>3.3</ele>
        <time>2021-11-14T09:45:18.000Z</time>
      </trkpt>
      <trkpt lat="47.40812" lon="-2.08529">
        <ele>3.8</ele>
        <time>2021-11-14T09:45:20.000Z</time>
      </trkpt>
      <trkpt lat="47.40811" lon="-2.08566">
        <ele>3.9</ele>
        <time>2021-11-14T09:45:24.000Z</time>
      </trkpt>
      <trkpt lat="47.40807" lon="-2.08573">
        <ele>0.40000000596046</ele>
        <time>2021-11-14T09:45:25.000Z</time>
      </trkpt>
      <trkpt lat="47.40803" lon="-2.08579">
        <ele>0.80000001192093</ele>
        <time>2021-11-14T09:45:26.000Z</time>
      </trkpt>
      <trkpt lat="47.40798" lon="-2.08584">
        <ele>1.2000000476837</ele>
        <time>2021-11-14T09:45:27.000Z</time>
      </trkpt>
      <trkpt lat="47.40792" lon="-2.08588">
        <ele>2</ele>
        <time>2021-11-14T09:45:28.000Z</time>
      </trkpt>
      <trkpt lat="47.40771" lon="-2.08594">
        <ele>2</ele>
        <time>2021-11-14T09:45:31.000Z</time>
      </trkpt>
      <trkpt lat="47.40756" lon="-2.08599">
        <ele>2</ele>
        <time>2021-11-14T09:45:33.000Z</time>
      </trkpt>
      <trkpt lat="47.40741" lon="-2.08607">
        <ele>2</ele>
        <time>2021-11-14T09:45:35.000Z</time>
      </trkpt>
      <trkpt lat="47.40735" lon="-2.08613">
        <ele>2</ele>
        <time>2021-11-14T09:45:36.000Z</time>
      </trkpt>
      <trkpt lat="47.40721" lon="-2.08639">
        <ele>2</ele>
        <time>2021-11-14T09:45:39.000Z</time>
      </trkpt>
      <trkpt lat="47.40717" lon="-2.08679">
        <ele>2</ele>
        <time>2021-11-14T09:45:43.000Z</time>
      </trkpt>
      <trkpt lat="47.4072" lon="-2.0871">
        <ele>2</ele>
        <time>2021-11-14T09:45:46.000Z</time>
      </trkpt>
      <trkpt lat="47.40722" lon="-2.0872">
        <ele>2</ele>
        <time>2021-11-14T09:45:47.000Z</time>
      </trkpt>
      <trkpt lat="47.40736" lon="-2.08765">
        <ele>2</ele>
        <time>2021-11-14T09:45:52.000Z</time>
      </trkpt>
      <trkpt lat="47.40759" lon="-2.08813">
        <ele>2</ele>
        <time>2021-11-14T09:45:58.000Z</time>
      </trkpt>
      <trkpt lat="47.40762" lon="-2.0882">
        <ele>2</ele>
        <time>2021-11-14T09:45:59.000Z</time>
      </trkpt>
      <trkpt lat="47.40773" lon="-2.0884">
        <ele>2</ele>
        <time>2021-11-14T09:46:02.000Z</time>
      </trkpt>
      <trkpt lat="47.40782" lon="-2.08851">
        <ele>2</ele>
        <time>2021-11-14T09:46:04.000Z</time>
      </trkpt>
      <trkpt lat="47.40814" lon="-2.08893">
        <ele>2</ele>
        <time>2021-11-14T09:46:11.000Z</time>
      </trkpt>
      <trkpt lat="47.40825" lon="-2.08914">
        <ele>2</ele>
        <time>2021-11-14T09:46:14.000Z</time>
      </trkpt>
      <trkpt lat="47.4083" lon="-2.0893">
        <ele>2</ele>
        <time>2021-11-14T09:46:16.000Z</time>
      </trkpt>
      <trkpt lat="47.40831" lon="-2.08946">
        <ele>2</ele>
        <time>2021-11-14T09:46:18.000Z</time>
      </trkpt>
      <trkpt lat="47.40833" lon="-2.08968">
        <ele>2</ele>
        <time>2021-11-14T09:46:21.000Z</time>
      </trkpt>
      <trkpt lat="47.40832" lon="-2.09">
        <ele>2</ele>
        <time>2021-11-14T09:46:26.000Z</time>
      </trkpt>
      <trkpt lat="47.40829" lon="-2.09026">
        <ele>2</ele>
        <time>2021-11-14T09:46:31.000Z</time>
      </trkpt>
      <trkpt lat="47.40821" lon="-2.09045">
        <ele>2</ele>
        <time>2021-11-14T09:46:34.000Z</time>
      </trkpt>
      <trkpt lat="47.40817" lon="-2.09052">
        <ele>2</ele>
        <time>2021-11-14T09:46:35.000Z</time>
      </trkpt>
      <trkpt lat="47.40804" lon="-2.09069">
        <ele>2</ele>
        <time>2021-11-14T09:46:38.000Z</time>
      </trkpt>
      <trkpt lat="47.408" lon="-2.09071">
        <ele>2</ele>
        <time>2021-11-14T09:46:39.000Z</time>
      </trkpt>
      <trkpt lat="47.40768" lon="-2.09084">
        <ele>2</ele>
        <time>2021-11-14T09:46:45.000Z</time>
      </trkpt>
      <trkpt lat="47.40756" lon="-2.09103">
        <ele>2</ele>
        <time>2021-11-14T09:46:48.000Z</time>
      </trkpt>
      <trkpt lat="47.40746" lon="-2.09137">
        <ele>2</ele>
        <time>2021-11-14T09:46:52.000Z</time>
      </trkpt>
      <trkpt lat="47.40744" lon="-2.09146">
        <ele>2</ele>
        <time>2021-11-14T09:46:53.000Z</time>
      </trkpt>
      <trkpt lat="47.40738" lon="-2.09202">
        <ele>2</ele>
        <time>2021-11-14T09:46:59.000Z</time>
      </trkpt>
      <trkpt lat="47.40735" lon="-2.09229">
        <ele>2</ele>
        <time>2021-11-14T09:47:03.000Z</time>
      </trkpt>
      <trkpt lat="47.40728" lon="-2.09254">
        <ele>2</ele>
        <time>2021-11-14T09:47:06.000Z</time>
      </trkpt>
      <trkpt lat="47.40705" lon="-2.09312">
        <ele>2</ele>
        <time>2021-11-14T09:47:14.000Z</time>
      </trkpt>
      <trkpt lat="47.40703" lon="-2.09319">
        <ele>2</ele>
        <time>2021-11-14T09:47:15.000Z</time>
      </trkpt>
      <trkpt lat="47.40704" lon="-2.09343">
        <ele>2</ele>
        <time>2021-11-14T09:47:18.000Z</time>
      </trkpt>
      <trkpt lat="47.40705" lon="-2.09351">
        <ele>2</ele>
        <time>2021-11-14T09:47:19.000Z</time>
      </trkpt>
      <trkpt lat="47.4071" lon="-2.09378">
        <ele>2</ele>
        <time>2021-11-14T09:47:23.000Z</time>
      </trkpt>
      <trkpt lat="47.40711" lon="-2.09384">
        <ele>2.4000000953674</ele>
        <time>2021-11-14T09:47:24.000Z</time>
      </trkpt>
      <trkpt lat="47.40711" lon="-2.0939">
        <ele>2.7999999523163</ele>
        <time>2021-11-14T09:47:25.000Z</time>
      </trkpt>
      <trkpt lat="47.40711" lon="-2.09396">
        <ele>3.2000000476837</ele>
        <time>2021-11-14T09:47:26.000Z</time>
      </trkpt>
      <trkpt lat="47.40711" lon="-2.09403">
        <ele>3.5999999046326</ele>
        <time>2021-11-14T09:47:27.000Z</time>
      </trkpt>
      <trkpt lat="47.40712" lon="-2.09409">
        <ele>4</ele>
        <time>2021-11-14T09:47:28.000Z</time>
      </trkpt>
      <trkpt lat="47.40712" lon="-2.09416">
        <ele>4.5999999046326</ele>
        <time>2021-11-14T09:47:29.000Z</time>
      </trkpt>
      <trkpt lat="47.40712" lon="-2.09424">
        <ele>5</ele>
        <time>2021-11-14T09:47:30.000Z</time>
      </trkpt>
      <trkpt lat="47.40713" lon="-2.09432">
        <ele>5.4000000953674</ele>
        <time>2021-11-14T09:47:31.000Z</time>
      </trkpt>
      <trkpt lat="47.40714" lon="-2.09442">
        <ele>6.4000000953674</ele>
        <time>2021-11-14T09:47:32.000Z</time>
      </trkpt>
      <trkpt lat="47.40718" lon="-2.09463">
        <ele>6.4000000953674</ele>
        <time>2021-11-14T09:47:34.000Z</time>
      </trkpt>
      <trkpt lat="47.40721" lon="-2.09474">
        <ele>6</ele>
        <time>2021-11-14T09:47:35.000Z</time>
      </trkpt>
      <trkpt lat="47.40725" lon="-2.09485">
        <ele>5.4000000953674</ele>
        <time>2021-11-14T09:47:36.000Z</time>
      </trkpt>
      <trkpt lat="47.40729" lon="-2.09495">
        <ele>5</ele>
        <time>2021-11-14T09:47:37.000Z</time>
      </trkpt>
      <trkpt lat="47.40733" lon="-2.09505">
        <ele>4.5999999046326</ele>
        <time>2021-11-14T09:47:38.000Z</time>
      </trkpt>
      <trkpt lat="47.40737" lon="-2.09515">
        <ele>4.1999998092651</ele>
        <time>2021-11-14T09:47:39.000Z</time>
      </trkpt>
      <trkpt lat="47.40761" lon="-2.09571">
        <ele>4.1999998092651</ele>
        <time>2021-11-14T09:47:45.000Z</time>
      </trkpt>
      <trkpt lat="47.40781" lon="-2.0963">
        <ele>3.7999999523163</ele>
        <time>2021-11-14T09:47:51.000Z</time>
      </trkpt>
      <trkpt lat="47.40784" lon="-2.09639">
        <ele>3.4000000953674</ele>
        <time>2021-11-14T09:47:52.000Z</time>
      </trkpt>
      <trkpt lat="47.40787" lon="-2.09649">
        <ele>3</ele>
        <time>2021-11-14T09:47:53.000Z</time>
      </trkpt>
      <trkpt lat="47.4079" lon="-2.09659">
        <ele>2.5999999046326</ele>
        <time>2021-11-14T09:47:54.000Z</time>
      </trkpt>
      <trkpt lat="47.40792" lon="-2.09668">
        <ele>2.2000000476837</ele>
        <time>2021-11-14T09:47:55.000Z</time>
      </trkpt>
      <trkpt lat="47.40797" lon="-2.09699">
        <ele>2.2000000476837</ele>
        <time>2021-11-14T09:47:58.000Z</time>
      </trkpt>
      <trkpt lat="47.40797" lon="-2.09709">
        <ele>2.2000000476837</ele>
        <time>2021-11-14T09:47:59.000Z</time>
      </trkpt>
      <trkpt lat="47.40793" lon="-2.09737">
        <ele>2.2000000476837</ele>
        <time>2021-11-14T09:48:02.000Z</time>
      </trkpt>
      <trkpt lat="47.40792" lon="-2.09747">
        <ele>2.2000000476837</ele>
        <time>2021-11-14T09:48:03.000Z</time>
      </trkpt>
      <trkpt lat="47.40791" lon="-2.09757">
        <ele>1.7999999523163</ele>
        <time>2021-11-14T09:48:04.000Z</time>
      </trkpt>
      <trkpt lat="47.40789" lon="-2.09767">
        <ele>1.3999999761581</ele>
        <time>2021-11-14T09:48:05.000Z</time>
      </trkpt>
      <trkpt lat="47.40788" lon="-2.09776">
        <ele>1</ele>
        <time>2021-11-14T09:48:06.000Z</time>
      </trkpt>
      <trkpt lat="47.40787" lon="-2.09786">
        <ele>0.60000002384186</ele>
        <time>2021-11-14T09:48:07.000Z</time>
      </trkpt>
      <trkpt lat="47.40787" lon="-2.09794">
        <ele>0.20000000298023</ele>
        <time>2021-11-14T09:48:08.000Z</time>
      </trkpt>
      <trkpt lat="47.40787" lon="-2.09802">
        <ele>0.20000000298023</ele>
        <time>2021-11-14T09:48:09.000Z</time>
      </trkpt>
      <trkpt lat="47.40787" lon="-2.09811">
        <ele>0.20000000298023</ele>
        <time>2021-11-14T09:48:10.000Z</time>
      </trkpt>
      <trkpt lat="47.40788" lon="-2.09828">
        <ele>0.20000000298023</ele>
        <time>2021-11-14T09:48:13.000Z</time>
      </trkpt>
      <trkpt lat="47.40783" lon="-2.09847">
        <ele>0.20000000298023</ele>
        <time>2021-11-14T09:48:17.000Z</time>
      </trkpt>
      <trkpt lat="47.40774" lon="-2.09871">
        <ele>0.20000000298023</ele>
        <time>2021-11-14T09:48:22.000Z</time>
      </trkpt>
      <trkpt lat="47.40767" lon="-2.09885">
        <ele>0.20000000298023</ele>
        <time>2021-11-14T09:48:25.000Z</time>
      </trkpt>
      <trkpt lat="47.40759" lon="-2.09893">
        <ele>0.20000000298023</ele>
        <time>2021-11-14T09:48:27.000Z</time>
      </trkpt>
      <trkpt lat="47.40746" lon="-2.09907">
        <ele>0.20000000298023</ele>
        <time>2021-11-14T09:48:30.000Z</time>
      </trkpt>
      <trkpt lat="47.40743" lon="-2.09912">
        <ele>0.20000000298023</ele>
        <time>2021-11-14T09:48:31.000Z</time>
      </trkpt>
      <trkpt lat="47.40741" lon="-2.09918">
        <ele>0.20000000298023</ele>
        <time>2021-11-14T09:48:32.000Z</time>
      </trkpt>
      <trkpt lat="47.40739" lon="-2.09926">
        <ele>0.60000002384186</ele>
        <time>2021-11-14T09:48:33.000Z</time>
      </trkpt>
      <trkpt lat="47.40738" lon="-2.09933">
        <ele>1</ele>
        <time>2021-11-14T09:48:34.000Z</time>
      </trkpt>
      <trkpt lat="47.40737" lon="-2.09941">
        <ele>1.3999999761581</ele>
        <time>2021-11-14T09:48:35.000Z</time>
      </trkpt>
      <trkpt lat="47.40737" lon="-2.09948">
        <ele>1.7999999523163</ele>
        <time>2021-11-14T09:48:36.000Z</time>
      </trkpt>
      <trkpt lat="47.40738" lon="-2.09956">
        <ele>2.2000000476837</ele>
        <time>2021-11-14T09:48:37.000Z</time>
      </trkpt>
      <trkpt lat="47.40741" lon="-2.09971">
        <ele>2.2000000476837</ele>
        <time>2021-11-14T09:48:39.000Z</time>
      </trkpt>
      <trkpt lat="47.40744" lon="-2.09985">
        <ele>2.2000000476837</ele>
        <time>2021-11-14T09:48:41.000Z</time>
      </trkpt>
      <trkpt lat="47.40754" lon="-2.10027">
        <ele>2.2000000476837</ele>
        <time>2021-11-14T09:48:47.000Z</time>
      </trkpt>
      <trkpt lat="47.40766" lon="-2.10082">
        <ele>2.2000000476837</ele>
        <time>2021-11-14T09:48:54.000Z</time>
      </trkpt>
      <trkpt lat="47.4078" lon="-2.10143">
        <ele>2.2000000476837</ele>
        <time>2021-11-14T09:49:02.000Z</time>
      </trkpt>
      <trkpt lat="47.40787" lon="-2.10174">
        <ele>2.5999999046326</ele>
        <time>2021-11-14T09:49:06.000Z</time>
      </trkpt>
      <trkpt lat="47.40788" lon="-2.10182">
        <ele>3</ele>
        <time>2021-11-14T09:49:07.000Z</time>
      </trkpt>
      <trkpt lat="47.40789" lon="-2.1019">
        <ele>3.4000000953674</ele>
        <time>2021-11-14T09:49:08.000Z</time>
      </trkpt>
      <trkpt lat="47.4079" lon="-2.10199">
        <ele>3.7999999523163</ele>
        <time>2021-11-14T09:49:09.000Z</time>
      </trkpt>
      <trkpt lat="47.40791" lon="-2.10207">
        <ele>4.1999998092651</ele>
        <time>2021-11-14T09:49:10.000Z</time>
      </trkpt>
      <trkpt lat="47.4079" lon="-2.10224">
        <ele>4.1999998092651</ele>
        <time>2021-11-14T09:49:12.000Z</time>
      </trkpt>
      <trkpt lat="47.40788" lon="-2.10241">
        <ele>4.1999998092651</ele>
        <time>2021-11-14T09:49:14.000Z</time>
      </trkpt>
      <trkpt lat="47.40785" lon="-2.10302">
        <ele>4.1999998092651</ele>
        <time>2021-11-14T09:49:21.000Z</time>
      </trkpt>
      <trkpt lat="47.40787" lon="-2.10327">
        <ele>4.1999998092651</ele>
        <time>2021-11-14T09:49:24.000Z</time>
      </trkpt>
      <trkpt lat="47.4079" lon="-2.10342">
        <ele>4.1999998092651</ele>
        <time>2021-11-14T09:49:26.000Z</time>
      </trkpt>
      <trkpt lat="47.40804" lon="-2.10398">
        <ele>4.1999998092651</ele>
        <time>2021-11-14T09:49:33.000Z</time>
      </trkpt>
      <trkpt lat="47.40818" lon="-2.1046">
        <ele>4.1999998092651</ele>
        <time>2021-11-14T09:49:40.000Z</time>
      </trkpt>
      <trkpt lat="47.4083" lon="-2.10514">
        <ele>4.1999998092651</ele>
        <time>2021-11-14T09:49:46.000Z</time>
      </trkpt>
      <trkpt lat="47.40846" lon="-2.10581">
        <ele>4.1999998092651</ele>
        <time>2021-11-14T09:49:54.000Z</time>
      </trkpt>
      <trkpt lat="47.40852" lon="-2.10605">
        <ele>4.1999998092651</ele>
        <time>2021-11-14T09:49:57.000Z</time>
      </trkpt>
      <trkpt lat="47.4086" lon="-2.10614">
        <ele>4.1999998092651</ele>
        <time>2021-11-14T09:49:59.000Z</time>
      </trkpt>
      <trkpt lat="47.40879" lon="-2.10622">
        <ele>4.1999998092651</ele>
        <time>2021-11-14T09:50:03.000Z</time>
      </trkpt>
      <trkpt lat="47.40907" lon="-2.1064">
        <ele>4.1999998092651</ele>
        <time>2021-11-14T09:50:09.000Z</time>
      </trkpt>
      <trkpt lat="47.40911" lon="-2.10643">
        <ele>4.1999998092651</ele>
        <time>2021-11-14T09:50:10.000Z</time>
      </trkpt>
      <trkpt lat="47.40915" lon="-2.10647">
        <ele>4.1999998092651</ele>
        <time>2021-11-14T09:50:11.000Z</time>
      </trkpt>
      <trkpt lat="47.40921" lon="-2.10657">
        <ele>4.5999999046326</ele>
        <time>2021-11-14T09:50:13.000Z</time>
      </trkpt>
      <trkpt lat="47.40924" lon="-2.10662">
        <ele>5</ele>
        <time>2021-11-14T09:50:14.000Z</time>
      </trkpt>
      <trkpt lat="47.40927" lon="-2.10666">
        <ele>5.4000000953674</ele>
        <time>2021-11-14T09:50:15.000Z</time>
      </trkpt>
      <trkpt lat="47.40931" lon="-2.1067">
        <ele>5.8000001907349</ele>
        <time>2021-11-14T09:50:16.000Z</time>
      </trkpt>
      <trkpt lat="47.40936" lon="-2.10672">
        <ele>6.1999998092651</ele>
        <time>2021-11-14T09:50:17.000Z</time>
      </trkpt>
      <trkpt lat="47.40941" lon="-2.10671">
        <ele>6.1999998092651</ele>
        <time>2021-11-14T09:50:18.000Z</time>
      </trkpt>
      <trkpt lat="47.40969" lon="-2.10668">
        <ele>6.1999998092651</ele>
        <time>2021-11-14T09:50:23.000Z</time>
      </trkpt>
      <trkpt lat="47.40998" lon="-2.10675">
        <ele>5.8000001907349</ele>
        <time>2021-11-14T09:50:27.000Z</time>
      </trkpt>
      <trkpt lat="47.41005" lon="-2.10677">
        <ele>5.4000000953674</ele>
        <time>2021-11-14T09:50:28.000Z</time>
      </trkpt>
      <trkpt lat="47.41012" lon="-2.1068">
        <ele>5</ele>
        <time>2021-11-14T09:50:29.000Z</time>
      </trkpt>
      <trkpt lat="47.41019" lon="-2.10683">
        <ele>4.4000000953674</ele>
        <time>2021-11-14T09:50:30.000Z</time>
      </trkpt>
      <trkpt lat="47.41026" lon="-2.10686">
        <ele>4</ele>
        <time>2021-11-14T09:50:31.000Z</time>
      </trkpt>
      <trkpt lat="47.41041" lon="-2.10692">
        <ele>3.5999999046326</ele>
        <time>2021-11-14T09:50:33.000Z</time>
      </trkpt>
      <trkpt lat="47.41049" lon="-2.10695">
        <ele>3.2000000476837</ele>
        <time>2021-11-14T09:50:34.000Z</time>
      </trkpt>
      <trkpt lat="47.41056" lon="-2.10697">
        <ele>2.7999999523163</ele>
        <time>2021-11-14T09:50:35.000Z</time>
      </trkpt>
      <trkpt lat="47.41063" lon="-2.107">
        <ele>2.4000000953674</ele>
        <time>2021-11-14T09:50:36.000Z</time>
      </trkpt>
      <trkpt lat="47.41069" lon="-2.10702">
        <ele>1.7999999523163</ele>
        <time>2021-11-14T09:50:37.000Z</time>
      </trkpt>
      <trkpt lat="47.4108" lon="-2.10702">
        <ele>1.7999999523163</ele>
        <time>2021-11-14T09:50:39.000Z</time>
      </trkpt>
      <trkpt lat="47.41085" lon="-2.10702">
        <ele>1.7999999523163</ele>
        <time>2021-11-14T09:50:40.000Z</time>
      </trkpt>
      <trkpt lat="47.41096" lon="-2.10712">
        <ele>1.7999999523163</ele>
        <time>2021-11-14T09:50:43.000Z</time>
      </trkpt>
      <trkpt lat="47.41095" lon="-2.10729">
        <ele>1.7999999523163</ele>
        <time>2021-11-14T09:50:46.000Z</time>
      </trkpt>
      <trkpt lat="47.41093" lon="-2.10735">
        <ele>1.7999999523163</ele>
        <time>2021-11-14T09:50:47.000Z</time>
      </trkpt>
      <trkpt lat="47.41089" lon="-2.10753">
        <ele>1.7999999523163</ele>
        <time>2021-11-14T09:50:50.000Z</time>
      </trkpt>
      <trkpt lat="47.41087" lon="-2.10771">
        <ele>1.7999999523163</ele>
        <time>2021-11-14T09:50:53.000Z</time>
      </trkpt>
      <trkpt lat="47.41086" lon="-2.10783">
        <ele>2.4000000953674</ele>
        <time>2021-11-14T09:50:55.000Z</time>
      </trkpt>
      <trkpt lat="47.41084" lon="-2.10789">
        <ele>2.7999999523163</ele>
        <time>2021-11-14T09:50:56.000Z</time>
      </trkpt>
      <trkpt lat="47.41083" lon="-2.10794">
        <ele>3.2000000476837</ele>
        <time>2021-11-14T09:50:57.000Z</time>
      </trkpt>
      <trkpt lat="47.41082" lon="-2.108">
        <ele>3.5999999046326</ele>
        <time>2021-11-14T09:50:58.000Z</time>
      </trkpt>
      <trkpt lat="47.41082" lon="-2.10806">
        <ele>4</ele>
        <time>2021-11-14T09:50:59.000Z</time>
      </trkpt>
      <trkpt lat="47.41081" lon="-2.10812">
        <ele>4</ele>
        <time>2021-11-14T09:51:00.000Z</time>
      </trkpt>
      <trkpt lat="47.41078" lon="-2.10839">
        <ele>4.4000000953674</ele>
        <time>2021-11-14T09:51:04.000Z</time>
      </trkpt>
      <trkpt lat="47.41077" lon="-2.10847">
        <ele>4.8000001907349</ele>
        <time>2021-11-14T09:51:05.000Z</time>
      </trkpt>
      <trkpt lat="47.41076" lon="-2.10854">
        <ele>5.4000000953674</ele>
        <time>2021-11-14T09:51:06.000Z</time>
      </trkpt>
      <trkpt lat="47.41075" lon="-2.10862">
        <ele>5.8000001907349</ele>
        <time>2021-11-14T09:51:07.000Z</time>
      </trkpt>
      <trkpt lat="47.41074" lon="-2.1087">
        <ele>6.1999998092651</ele>
        <time>2021-11-14T09:51:08.000Z</time>
      </trkpt>
      <trkpt lat="47.41069" lon="-2.10903">
        <ele>6.1999998092651</ele>
        <time>2021-11-14T09:51:12.000Z</time>
      </trkpt>
      <trkpt lat="47.41068" lon="-2.1092">
        <ele>6.1999998092651</ele>
        <time>2021-11-14T09:51:14.000Z</time>
      </trkpt>
      <trkpt lat="47.41064" lon="-2.10953">
        <ele>6.1999998092651</ele>
        <time>2021-11-14T09:51:18.000Z</time>
      </trkpt>
      <trkpt lat="47.41063" lon="-2.10962">
        <ele>6.1999998092651</ele>
        <time>2021-11-14T09:51:19.000Z</time>
      </trkpt>
      <trkpt lat="47.41058" lon="-2.11001">
        <ele>6.1999998092651</ele>
        <time>2021-11-14T09:51:24.000Z</time>
      </trkpt>
      <trkpt lat="47.41053" lon="-2.1103">
        <ele>6.1999998092651</ele>
        <time>2021-11-14T09:51:28.000Z</time>
      </trkpt>
      <trkpt lat="47.41052" lon="-2.11043">
        <ele>6.1999998092651</ele>
        <time>2021-11-14T09:51:30.000Z</time>
      </trkpt>
      <trkpt lat="47.41049" lon="-2.11063">
        <ele>6.5999999046326</ele>
        <time>2021-11-14T09:51:33.000Z</time>
      </trkpt>
      <trkpt lat="47.41048" lon="-2.1107">
        <ele>7</ele>
        <time>2021-11-14T09:51:34.000Z</time>
      </trkpt>
      <trkpt lat="47.41047" lon="-2.11077">
        <ele>7.4000000953674</ele>
        <time>2021-11-14T09:51:35.000Z</time>
      </trkpt>
      <trkpt lat="47.41046" lon="-2.11085">
        <ele>8</ele>
        <time>2021-11-14T09:51:36.000Z</time>
      </trkpt>
      <trkpt lat="47.41044" lon="-2.11092">
        <ele>8.3999996185303</ele>
        <time>2021-11-14T09:51:37.000Z</time>
      </trkpt>
      <trkpt lat="47.41043" lon="-2.11099">
        <ele>8.3999996185303</ele>
        <time>2021-11-14T09:51:38.000Z</time>
      </trkpt>
      <trkpt lat="47.41037" lon="-2.11149">
        <ele>8.3999996185303</ele>
        <time>2021-11-14T09:51:45.000Z</time>
      </trkpt>
      <trkpt lat="47.4103" lon="-2.11195">
        <ele>8.3999996185303</ele>
        <time>2021-11-14T09:51:52.000Z</time>
      </trkpt>
      <trkpt lat="47.4103" lon="-2.11202">
        <ele>8.3999996185303</ele>
        <time>2021-11-14T09:51:53.000Z</time>
      </trkpt>
      <trkpt lat="47.41028" lon="-2.11215">
        <ele>8.8000001907349</ele>
        <time>2021-11-14T09:51:55.000Z</time>
      </trkpt>
      <trkpt lat="47.41027" lon="-2.11222">
        <ele>9.1999998092651</ele>
        <time>2021-11-14T09:51:56.000Z</time>
      </trkpt>
      <trkpt lat="47.41026" lon="-2.11229">
        <ele>9.6000003814697</ele>
        <time>2021-11-14T09:51:57.000Z</time>
      </trkpt>
      <trkpt lat="47.41025" lon="-2.11236">
        <ele>10</ele>
        <time>2021-11-14T09:51:58.000Z</time>
      </trkpt>
      <trkpt lat="47.41024" lon="-2.11242">
        <ele>10.60000038147</ele>
        <time>2021-11-14T09:51:59.000Z</time>
      </trkpt>
      <trkpt lat="47.41016" lon="-2.11292">
        <ele>10.60000038147</ele>
        <time>2021-11-14T09:52:06.000Z</time>
      </trkpt>
      <trkpt lat="47.41008" lon="-2.11345">
        <ele>10.60000038147</ele>
        <time>2021-11-14T09:52:13.000Z</time>
      </trkpt>
      <trkpt lat="47.40998" lon="-2.11408">
        <ele>10.60000038147</ele>
        <time>2021-11-14T09:52:21.000Z</time>
      </trkpt>
      <trkpt lat="47.40996" lon="-2.11423">
        <ele>10.60000038147</ele>
        <time>2021-11-14T09:52:23.000Z</time>
      </trkpt>
      <trkpt lat="47.40992" lon="-2.11447">
        <ele>10.60000038147</ele>
        <time>2021-11-14T09:52:26.000Z</time>
      </trkpt>
      <trkpt lat="47.40988" lon="-2.1147">
        <ele>10.60000038147</ele>
        <time>2021-11-14T09:52:29.000Z</time>
      </trkpt>
      <trkpt lat="47.40986" lon="-2.11493">
        <ele>10.60000038147</ele>
        <time>2021-11-14T09:52:32.000Z</time>
      </trkpt>
      <trkpt lat="47.40977" lon="-2.11545">
        <ele>10.60000038147</ele>
        <time>2021-11-14T09:52:39.000Z</time>
      </trkpt>
      <trkpt lat="47.40959" lon="-2.11604">
        <ele>10.60000038147</ele>
        <time>2021-11-14T09:52:47.000Z</time>
      </trkpt>
      <trkpt lat="47.40937" lon="-2.1167">
        <ele>10.60000038147</ele>
        <time>2021-11-14T09:52:55.000Z</time>
      </trkpt>
      <trkpt lat="47.40934" lon="-2.1168">
        <ele>10.199999809265</ele>
        <time>2021-11-14T09:52:56.000Z</time>
      </trkpt>
      <trkpt lat="47.40931" lon="-2.1169">
        <ele>9.6000003814697</ele>
        <time>2021-11-14T09:52:57.000Z</time>
      </trkpt>
      <trkpt lat="47.40928" lon="-2.117">
        <ele>9.1999998092651</ele>
        <time>2021-11-14T09:52:58.000Z</time>
      </trkpt>
      <trkpt lat="47.40925" lon="-2.11711">
        <ele>8.8000001907349</ele>
        <time>2021-11-14T09:52:59.000Z</time>
      </trkpt>
      <trkpt lat="47.40921" lon="-2.11721">
        <ele>8.3999996185303</ele>
        <time>2021-11-14T09:53:00.000Z</time>
      </trkpt>
      <trkpt lat="47.40918" lon="-2.11731">
        <ele>8</ele>
        <time>2021-11-14T09:53:01.000Z</time>
      </trkpt>
      <trkpt lat="47.40914" lon="-2.11741">
        <ele>7.5999999046326</ele>
        <time>2021-11-14T09:53:02.000Z</time>
      </trkpt>
      <trkpt lat="47.40911" lon="-2.11751">
        <ele>7</ele>
        <time>2021-11-14T09:53:03.000Z</time>
      </trkpt>
      <trkpt lat="47.40908" lon="-2.11762">
        <ele>6.5999999046326</ele>
        <time>2021-11-14T09:53:04.000Z</time>
      </trkpt>
      <trkpt lat="47.40905" lon="-2.11772">
        <ele>6.1999998092651</ele>
        <time>2021-11-14T09:53:05.000Z</time>
      </trkpt>
      <trkpt lat="47.40898" lon="-2.1179">
        <ele>6.1999998092651</ele>
        <time>2021-11-14T09:53:07.000Z</time>
      </trkpt>
      <trkpt lat="47.40895" lon="-2.118">
        <ele>5.8000001907349</ele>
        <time>2021-11-14T09:53:08.000Z</time>
      </trkpt>
      <trkpt lat="47.40892" lon="-2.11809">
        <ele>5.1999998092651</ele>
        <time>2021-11-14T09:53:09.000Z</time>
      </trkpt>
      <trkpt lat="47.40889" lon="-2.11819">
        <ele>4.8000001907349</ele>
        <time>2021-11-14T09:53:10.000Z</time>
      </trkpt>
      <trkpt lat="47.40886" lon="-2.11829">
        <ele>4.4000000953674</ele>
        <time>2021-11-14T09:53:11.000Z</time>
      </trkpt>
      <trkpt lat="47.40883" lon="-2.11839">
        <ele>4</ele>
        <time>2021-11-14T09:53:12.000Z</time>
      </trkpt>
      <trkpt lat="47.40879" lon="-2.11858">
        <ele>4</ele>
        <time>2021-11-14T09:53:14.000Z</time>
      </trkpt>
      <trkpt lat="47.40879" lon="-2.11868">
        <ele>4</ele>
        <time>2021-11-14T09:53:15.000Z</time>
      </trkpt>
      <trkpt lat="47.40878" lon="-2.11925">
        <ele>4</ele>
        <time>2021-11-14T09:53:21.000Z</time>
      </trkpt>
      <trkpt lat="47.40878" lon="-2.11943">
        <ele>3.5999999046326</ele>
        <time>2021-11-14T09:53:23.000Z</time>
      </trkpt>
      <trkpt lat="47.40878" lon="-2.11953">
        <ele>3</ele>
        <time>2021-11-14T09:53:24.000Z</time>
      </trkpt>
      <trkpt lat="47.40878" lon="-2.11963">
        <ele>2.5999999046326</ele>
        <time>2021-11-14T09:53:25.000Z</time>
      </trkpt>
      <trkpt lat="47.40877" lon="-2.11973">
        <ele>2.2000000476837</ele>
        <time>2021-11-14T09:53:26.000Z</time>
      </trkpt>
      <trkpt lat="47.40877" lon="-2.11983">
        <ele>1.7999999523163</ele>
        <time>2021-11-14T09:53:27.000Z</time>
      </trkpt>
      <trkpt lat="47.40878" lon="-2.11992">
        <ele>1.7999999523163</ele>
        <time>2021-11-14T09:53:28.000Z</time>
      </trkpt>
      <trkpt lat="47.4088" lon="-2.12001">
        <ele>1.7999999523163</ele>
        <time>2021-11-14T09:53:29.000Z</time>
      </trkpt>
      <trkpt lat="47.40891" lon="-2.12018">
        <ele>1.7999999523163</ele>
        <time>2021-11-14T09:53:32.000Z</time>
      </trkpt>
      <trkpt lat="47.40906" lon="-2.12032">
        <ele>1.7999999523163</ele>
        <time>2021-11-14T09:53:35.000Z</time>
      </trkpt>
      <trkpt lat="47.40921" lon="-2.12044">
        <ele>1.7999999523163</ele>
        <time>2021-11-14T09:53:38.000Z</time>
      </trkpt>
      <trkpt lat="47.40945" lon="-2.1207">
        <ele>1.7999999523163</ele>
        <time>2021-11-14T09:53:43.000Z</time>
      </trkpt>
      <trkpt lat="47.40958" lon="-2.12089">
        <ele>1.7999999523163</ele>
        <time>2021-11-14T09:53:46.000Z</time>
      </trkpt>
      <trkpt lat="47.40983" lon="-2.12139">
        <ele>1.7999999523163</ele>
        <time>2021-11-14T09:53:53.000Z</time>
      </trkpt>
      <trkpt lat="47.41009" lon="-2.1219">
        <ele>1.7999999523163</ele>
        <time>2021-11-14T09:54:01.000Z</time>
      </trkpt>
      <trkpt lat="47.41035" lon="-2.12239">
        <ele>1.7999999523163</ele>
        <time>2021-11-14T09:54:09.000Z</time>
      </trkpt>
      <trkpt lat="47.41037" lon="-2.12245">
        <ele>1.7999999523163</ele>
        <time>2021-11-14T09:54:10.000Z</time>
      </trkpt>
      <trkpt lat="47.4104" lon="-2.12258">
        <ele>2.2000000476837</ele>
        <time>2021-11-14T09:54:12.000Z</time>
      </trkpt>
      <trkpt lat="47.41042" lon="-2.12265">
        <ele>2.5999999046326</ele>
        <time>2021-11-14T09:54:13.000Z</time>
      </trkpt>
      <trkpt lat="47.41043" lon="-2.12272">
        <ele>3</ele>
        <time>2021-11-14T09:54:14.000Z</time>
      </trkpt>
      <trkpt lat="47.41044" lon="-2.12279">
        <ele>3.4000000953674</ele>
        <time>2021-11-14T09:54:15.000Z</time>
      </trkpt>
      <trkpt lat="47.41045" lon="-2.12286">
        <ele>3.7999999523163</ele>
        <time>2021-11-14T09:54:16.000Z</time>
      </trkpt>
      <trkpt lat="47.41049" lon="-2.12321">
        <ele>3.7999999523163</ele>
        <time>2021-11-14T09:54:21.000Z</time>
      </trkpt>
      <trkpt lat="47.41053" lon="-2.12363">
        <ele>3.7999999523163</ele>
        <time>2021-11-14T09:54:27.000Z</time>
      </trkpt>
      <trkpt lat="47.41056" lon="-2.1239">
        <ele>4.8000001907349</ele>
        <time>2021-11-14T09:54:31.000Z</time>
      </trkpt>
      <trkpt lat="47.41057" lon="-2.12396">
        <ele>5.1999998092651</ele>
        <time>2021-11-14T09:54:32.000Z</time>
      </trkpt>
      <trkpt lat="47.41057" lon="-2.12403">
        <ele>5.5999999046326</ele>
        <time>2021-11-14T09:54:33.000Z</time>
      </trkpt>
      <trkpt lat="47.41058" lon="-2.1241">
        <ele>6</ele>
        <time>2021-11-14T09:54:34.000Z</time>
      </trkpt>
      <trkpt lat="47.41058" lon="-2.12417">
        <ele>6</ele>
        <time>2021-11-14T09:54:35.000Z</time>
      </trkpt>
      <trkpt lat="47.41063" lon="-2.12464">
        <ele>6</ele>
        <time>2021-11-14T09:54:42.000Z</time>
      </trkpt>
      <trkpt lat="47.41064" lon="-2.1247">
        <ele>6</ele>
        <time>2021-11-14T09:54:43.000Z</time>
      </trkpt>
      <trkpt lat="47.41067" lon="-2.12499">
        <ele>6</ele>
        <time>2021-11-14T09:54:47.000Z</time>
      </trkpt>
      <trkpt lat="47.41075" lon="-2.12559">
        <ele>6</ele>
        <time>2021-11-14T09:54:54.000Z</time>
      </trkpt>
      <trkpt lat="47.41088" lon="-2.12603">
        <ele>6</ele>
        <time>2021-11-14T09:54:59.000Z</time>
      </trkpt>
      <trkpt lat="47.4111" lon="-2.12668">
        <ele>6</ele>
        <time>2021-11-14T09:55:07.000Z</time>
      </trkpt>
      <trkpt lat="47.41112" lon="-2.12708">
        <ele>6</ele>
        <time>2021-11-14T09:55:12.000Z</time>
      </trkpt>
      <trkpt lat="47.41099" lon="-2.12737">
        <ele>6</ele>
        <time>2021-11-14T09:55:16.000Z</time>
      </trkpt>
      <trkpt lat="47.41081" lon="-2.12772">
        <ele>6</ele>
        <time>2021-11-14T09:55:21.000Z</time>
      </trkpt>
      <trkpt lat="47.41079" lon="-2.12781">
        <ele>6</ele>
        <time>2021-11-14T09:55:22.000Z</time>
      </trkpt>
      <trkpt lat="47.41067" lon="-2.1283">
        <ele>6</ele>
        <time>2021-11-14T09:55:28.000Z</time>
      </trkpt>
      <trkpt lat="47.41048" lon="-2.12875">
        <ele>6</ele>
        <time>2021-11-14T09:55:34.000Z</time>
      </trkpt>
      <trkpt lat="47.41037" lon="-2.12895">
        <ele>6</ele>
        <time>2021-11-14T09:55:37.000Z</time>
      </trkpt>
      <trkpt lat="47.41025" lon="-2.12914">
        <ele>6</ele>
        <time>2021-11-14T09:55:40.000Z</time>
      </trkpt>
      <trkpt lat="47.40995" lon="-2.12969">
        <ele>6</ele>
        <time>2021-11-14T09:55:48.000Z</time>
      </trkpt>
      <trkpt lat="47.40964" lon="-2.13022">
        <ele>6</ele>
        <time>2021-11-14T09:55:56.000Z</time>
      </trkpt>
      <trkpt lat="47.40932" lon="-2.13072">
        <ele>6</ele>
        <time>2021-11-14T09:56:04.000Z</time>
      </trkpt>
      <trkpt lat="47.409" lon="-2.13098">
        <ele>6</ele>
        <time>2021-11-14T09:56:10.000Z</time>
      </trkpt>
      <trkpt lat="47.40866" lon="-2.13118">
        <ele>6</ele>
        <time>2021-11-14T09:56:16.000Z</time>
      </trkpt>
      <trkpt lat="47.40825" lon="-2.13142">
        <ele>6</ele>
        <time>2021-11-14T09:56:23.000Z</time>
      </trkpt>
      <trkpt lat="47.40808" lon="-2.13154">
        <ele>6.4000000953674</ele>
        <time>2021-11-14T09:56:26.000Z</time>
      </trkpt>
      <trkpt lat="47.40802" lon="-2.13158">
        <ele>6.8000001907349</ele>
        <time>2021-11-14T09:56:27.000Z</time>
      </trkpt>
      <trkpt lat="47.40796" lon="-2.13162">
        <ele>7.1999998092651</ele>
        <time>2021-11-14T09:56:28.000Z</time>
      </trkpt>
      <trkpt lat="47.4079" lon="-2.13166">
        <ele>7.5999999046326</ele>
        <time>2021-11-14T09:56:29.000Z</time>
      </trkpt>
      <trkpt lat="47.40784" lon="-2.1317">
        <ele>8</ele>
        <time>2021-11-14T09:56:30.000Z</time>
      </trkpt>
      <trkpt lat="47.40728" lon="-2.13198">
        <ele>8</ele>
        <time>2021-11-14T09:56:39.000Z</time>
      </trkpt>
      <trkpt lat="47.40679" lon="-2.13223">
        <ele>8</ele>
        <time>2021-11-14T09:56:47.000Z</time>
      </trkpt>
      <trkpt lat="47.40644" lon="-2.13251">
        <ele>8</ele>
        <time>2021-11-14T09:56:53.000Z</time>
      </trkpt>
      <trkpt lat="47.40628" lon="-2.1328">
        <ele>8</ele>
        <time>2021-11-14T09:56:57.000Z</time>
      </trkpt>
      <trkpt lat="47.40611" lon="-2.13309">
        <ele>8</ele>
        <time>2021-11-14T09:57:01.000Z</time>
      </trkpt>
      <trkpt lat="47.40606" lon="-2.13314">
        <ele>8</ele>
        <time>2021-11-14T09:57:02.000Z</time>
      </trkpt>
      <trkpt lat="47.40582" lon="-2.13325">
        <ele>8</ele>
        <time>2021-11-14T09:57:06.000Z</time>
      </trkpt>
      <trkpt lat="47.40577" lon="-2.13326">
        <ele>8</ele>
        <time>2021-11-14T09:57:07.000Z</time>
      </trkpt>
      <trkpt lat="47.40559" lon="-2.13328">
        <ele>8</ele>
        <time>2021-11-14T09:57:11.000Z</time>
      </trkpt>
      <trkpt lat="47.40552" lon="-2.13311">
        <ele>8</ele>
        <time>2021-11-14T09:57:15.000Z</time>
      </trkpt>
      <trkpt lat="47.40552" lon="-2.13281">
        <ele>8</ele>
        <time>2021-11-14T09:57:19.000Z</time>
      </trkpt>
      <trkpt lat="47.40555" lon="-2.13222">
        <ele>8</ele>
        <time>2021-11-14T09:57:25.000Z</time>
      </trkpt>
      <trkpt lat="47.40554" lon="-2.13147">
        <ele>8</ele>
        <time>2021-11-14T09:57:32.000Z</time>
      </trkpt>
      <trkpt lat="47.40552" lon="-2.13137">
        <ele>8</ele>
        <time>2021-11-14T09:57:33.000Z</time>
      </trkpt>
      <trkpt lat="47.40546" lon="-2.13085">
        <ele>8</ele>
        <time>2021-11-14T09:57:38.000Z</time>
      </trkpt>
      <trkpt lat="47.40537" lon="-2.13001">
        <ele>8</ele>
        <time>2021-11-14T09:57:46.000Z</time>
      </trkpt>
      <trkpt lat="47.40534" lon="-2.12981">
        <ele>8</ele>
        <time>2021-11-14T09:57:48.000Z</time>
      </trkpt>
      <trkpt lat="47.40527" lon="-2.12939">
        <ele>7.5999999046326</ele>
        <time>2021-11-14T09:57:52.000Z</time>
      </trkpt>
      <trkpt lat="47.40525" lon="-2.12929">
        <ele>7.1999998092651</ele>
        <time>2021-11-14T09:57:53.000Z</time>
      </trkpt>
      <trkpt lat="47.40522" lon="-2.12919">
        <ele>6.8000001907349</ele>
        <time>2021-11-14T09:57:54.000Z</time>
      </trkpt>
      <trkpt lat="47.40519" lon="-2.12909">
        <ele>6.4000000953674</ele>
        <time>2021-11-14T09:57:55.000Z</time>
      </trkpt>
      <trkpt lat="47.40515" lon="-2.129">
        <ele>6</ele>
        <time>2021-11-14T09:57:56.000Z</time>
      </trkpt>
      <trkpt lat="47.405" lon="-2.12873">
        <ele>6</ele>
        <time>2021-11-14T09:57:59.000Z</time>
      </trkpt>
      <trkpt lat="47.40488" lon="-2.12858">
        <ele>6</ele>
        <time>2021-11-14T09:58:01.000Z</time>
      </trkpt>
      <trkpt lat="47.40476" lon="-2.12847">
        <ele>6</ele>
        <time>2021-11-14T09:58:03.000Z</time>
      </trkpt>
      <trkpt lat="47.4043" lon="-2.12809">
        <ele>6</ele>
        <time>2021-11-14T09:58:10.000Z</time>
      </trkpt>
      <trkpt lat="47.40393" lon="-2.12774">
        <ele>6</ele>
        <time>2021-11-14T09:58:16.000Z</time>
      </trkpt>
      <trkpt lat="47.40383" lon="-2.1276">
        <ele>6</ele>
        <time>2021-11-14T09:58:18.000Z</time>
      </trkpt>
      <trkpt lat="47.40372" lon="-2.12735">
        <ele>6</ele>
        <time>2021-11-14T09:58:21.000Z</time>
      </trkpt>
      <trkpt lat="47.40369" lon="-2.12725">
        <ele>6</ele>
        <time>2021-11-14T09:58:22.000Z</time>
      </trkpt>
      <trkpt lat="47.4036" lon="-2.12695">
        <ele>5.5999999046326</ele>
        <time>2021-11-14T09:58:25.000Z</time>
      </trkpt>
      <trkpt lat="47.40357" lon="-2.12684">
        <ele>5.1999998092651</ele>
        <time>2021-11-14T09:58:26.000Z</time>
      </trkpt>
      <trkpt lat="47.40353" lon="-2.12675">
        <ele>4.8000001907349</ele>
        <time>2021-11-14T09:58:27.000Z</time>
      </trkpt>
      <trkpt lat="47.40349" lon="-2.12665">
        <ele>4.4000000953674</ele>
        <time>2021-11-14T09:58:28.000Z</time>
      </trkpt>
      <trkpt lat="47.40345" lon="-2.12657">
        <ele>4</ele>
        <time>2021-11-14T09:58:29.000Z</time>
      </trkpt>
      <trkpt lat="47.4034" lon="-2.12648">
        <ele>4</ele>
        <time>2021-11-14T09:58:30.000Z</time>
      </trkpt>
      <trkpt lat="47.40329" lon="-2.12633">
        <ele>4</ele>
        <time>2021-11-14T09:58:32.000Z</time>
      </trkpt>
      <trkpt lat="47.40292" lon="-2.12587">
        <ele>4</ele>
        <time>2021-11-14T09:58:39.000Z</time>
      </trkpt>
      <trkpt lat="47.40272" lon="-2.12568">
        <ele>4</ele>
        <time>2021-11-14T09:58:43.000Z</time>
      </trkpt>
      <trkpt lat="47.40267" lon="-2.12569">
        <ele>4</ele>
        <time>2021-11-14T09:58:44.000Z</time>
      </trkpt>
      <trkpt lat="47.40259" lon="-2.1258">
        <ele>4</ele>
        <time>2021-11-14T09:58:46.000Z</time>
      </trkpt>
      <trkpt lat="47.40255" lon="-2.12595">
        <ele>4</ele>
        <time>2021-11-14T09:58:48.000Z</time>
      </trkpt>
      <trkpt lat="47.4025" lon="-2.12611">
        <ele>4</ele>
        <time>2021-11-14T09:58:50.000Z</time>
      </trkpt>
      <trkpt lat="47.40233" lon="-2.12676">
        <ele>4</ele>
        <time>2021-11-14T09:58:58.000Z</time>
      </trkpt>
      <trkpt lat="47.40224" lon="-2.12727">
        <ele>4</ele>
        <time>2021-11-14T09:59:04.000Z</time>
      </trkpt>
      <trkpt lat="47.40215" lon="-2.12766">
        <ele>4</ele>
        <time>2021-11-14T09:59:09.000Z</time>
      </trkpt>
      <trkpt lat="47.40212" lon="-2.12772">
        <ele>4</ele>
        <time>2021-11-14T09:59:10.000Z</time>
      </trkpt>
      <trkpt lat="47.40211" lon="-2.1278">
        <ele>4</ele>
        <time>2021-11-14T09:59:11.000Z</time>
      </trkpt>
      <trkpt lat="47.40214" lon="-2.12796">
        <ele>4</ele>
        <time>2021-11-14T09:59:13.000Z</time>
      </trkpt>
      <trkpt lat="47.40228" lon="-2.12852">
        <ele>4</ele>
        <time>2021-11-14T09:59:20.000Z</time>
      </trkpt>
      <trkpt lat="47.40229" lon="-2.12868">
        <ele>4.4000000953674</ele>
        <time>2021-11-14T09:59:22.000Z</time>
      </trkpt>
      <trkpt lat="47.40228" lon="-2.12877">
        <ele>4.8000001907349</ele>
        <time>2021-11-14T09:59:23.000Z</time>
      </trkpt>
      <trkpt lat="47.40228" lon="-2.12886">
        <ele>5.1999998092651</ele>
        <time>2021-11-14T09:59:24.000Z</time>
      </trkpt>
      <trkpt lat="47.40227" lon="-2.12894">
        <ele>5.5999999046326</ele>
        <time>2021-11-14T09:59:25.000Z</time>
      </trkpt>
      <trkpt lat="47.40225" lon="-2.12902">
        <ele>6</ele>
        <time>2021-11-14T09:59:26.000Z</time>
      </trkpt>
      <trkpt lat="47.40223" lon="-2.1291">
        <ele>6</ele>
        <time>2021-11-14T09:59:27.000Z</time>
      </trkpt>
      <trkpt lat="47.40217" lon="-2.12934">
        <ele>6</ele>
        <time>2021-11-14T09:59:30.000Z</time>
      </trkpt>
      <trkpt lat="47.40195" lon="-2.12996">
        <ele>6</ele>
        <time>2021-11-14T09:59:38.000Z</time>
      </trkpt>
      <trkpt lat="47.40177" lon="-2.1306">
        <ele>6</ele>
        <time>2021-11-14T09:59:46.000Z</time>
      </trkpt>
      <trkpt lat="47.40175" lon="-2.13096">
        <ele>6</ele>
        <time>2021-11-14T09:59:50.000Z</time>
      </trkpt>
      <trkpt lat="47.40175" lon="-2.13104">
        <ele>6</ele>
        <time>2021-11-14T09:59:51.000Z</time>
      </trkpt>
      <trkpt lat="47.40179" lon="-2.13131">
        <ele>6</ele>
        <time>2021-11-14T09:59:54.000Z</time>
      </trkpt>
      <trkpt lat="47.40184" lon="-2.13148">
        <ele>6</ele>
        <time>2021-11-14T09:59:56.000Z</time>
      </trkpt>
      <trkpt lat="47.40204" lon="-2.13192">
        <ele>6</ele>
        <time>2021-11-14T10:00:02.000Z</time>
      </trkpt>
      <trkpt lat="47.40228" lon="-2.13232">
        <ele>6</ele>
        <time>2021-11-14T10:00:08.000Z</time>
      </trkpt>
      <trkpt lat="47.40256" lon="-2.13274">
        <ele>6.4000000953674</ele>
        <time>2021-11-14T10:00:15.000Z</time>
      </trkpt>
      <trkpt lat="47.4026" lon="-2.1328">
        <ele>6.8000001907349</ele>
        <time>2021-11-14T10:00:16.000Z</time>
      </trkpt>
      <trkpt lat="47.40264" lon="-2.13286">
        <ele>7.5999999046326</ele>
        <time>2021-11-14T10:00:17.000Z</time>
      </trkpt>
      <trkpt lat="47.40268" lon="-2.13291">
        <ele>8</ele>
        <time>2021-11-14T10:00:18.000Z</time>
      </trkpt>
      <trkpt lat="47.40282" lon="-2.13315">
        <ele>8</ele>
        <time>2021-11-14T10:00:22.000Z</time>
      </trkpt>
      <trkpt lat="47.40298" lon="-2.13339">
        <ele>8.3999996185303</ele>
        <time>2021-11-14T10:00:26.000Z</time>
      </trkpt>
      <trkpt lat="47.40302" lon="-2.13344">
        <ele>8.8000001907349</ele>
        <time>2021-11-14T10:00:27.000Z</time>
      </trkpt>
      <trkpt lat="47.40305" lon="-2.13349">
        <ele>9.1999998092651</ele>
        <time>2021-11-14T10:00:28.000Z</time>
      </trkpt>
      <trkpt lat="47.40309" lon="-2.13355">
        <ele>9.8000001907349</ele>
        <time>2021-11-14T10:00:29.000Z</time>
      </trkpt>
      <trkpt lat="47.40313" lon="-2.13361">
        <ele>10.199999809265</ele>
        <time>2021-11-14T10:00:30.000Z</time>
      </trkpt>
      <trkpt lat="47.4033" lon="-2.13387">
        <ele>10.199999809265</ele>
        <time>2021-11-14T10:00:35.000Z</time>
      </trkpt>
      <trkpt lat="47.40333" lon="-2.13392">
        <ele>10.60000038147</ele>
        <time>2021-11-14T10:00:36.000Z</time>
      </trkpt>
      <trkpt lat="47.40335" lon="-2.13397">
        <ele>11</ele>
        <time>2021-11-14T10:00:37.000Z</time>
      </trkpt>
      <trkpt lat="47.40338" lon="-2.13403">
        <ele>11.39999961853</ele>
        <time>2021-11-14T10:00:38.000Z</time>
      </trkpt>
      <trkpt lat="47.4034" lon="-2.13409">
        <ele>11.800000190735</ele>
        <time>2021-11-14T10:00:39.000Z</time>
      </trkpt>
      <trkpt lat="47.4034" lon="-2.13416">
        <ele>12.199999809265</ele>
        <time>2021-11-14T10:00:40.000Z</time>
      </trkpt>
      <trkpt lat="47.40336" lon="-2.13439">
        <ele>12.199999809265</ele>
        <time>2021-11-14T10:00:43.000Z</time>
      </trkpt>
      <trkpt lat="47.40335" lon="-2.13447">
        <ele>12.199999809265</ele>
        <time>2021-11-14T10:00:44.000Z</time>
      </trkpt>
      <trkpt lat="47.40324" lon="-2.13486">
        <ele>11.800000190735</ele>
        <time>2021-11-14T10:00:48.000Z</time>
      </trkpt>
      <trkpt lat="47.40322" lon="-2.13499">
        <ele>11.39999961853</ele>
        <time>2021-11-14T10:00:49.000Z</time>
      </trkpt>
      <trkpt lat="47.4032" lon="-2.13508">
        <ele>11</ele>
        <time>2021-11-14T10:00:50.000Z</time>
      </trkpt>
      <trkpt lat="47.40318" lon="-2.1352">
        <ele>10.60000038147</ele>
        <time>2021-11-14T10:00:51.000Z</time>
      </trkpt>
      <trkpt lat="47.40315" lon="-2.13531">
        <ele>10.199999809265</ele>
        <time>2021-11-14T10:00:52.000Z</time>
      </trkpt>
      <trkpt lat="47.40311" lon="-2.13543">
        <ele>9.8000001907349</ele>
        <time>2021-11-14T10:00:53.000Z</time>
      </trkpt>
      <trkpt lat="47.40308" lon="-2.13554">
        <ele>9.3999996185303</ele>
        <time>2021-11-14T10:00:54.000Z</time>
      </trkpt>
      <trkpt lat="47.40303" lon="-2.13565">
        <ele>9</ele>
        <time>2021-11-14T10:00:55.000Z</time>
      </trkpt>
      <trkpt lat="47.40298" lon="-2.13575">
        <ele>8.6000003814697</ele>
        <time>2021-11-14T10:00:56.000Z</time>
      </trkpt>
      <trkpt lat="47.40292" lon="-2.13585">
        <ele>8.1999998092651</ele>
        <time>2021-11-14T10:00:57.000Z</time>
      </trkpt>
      <trkpt lat="47.40285" lon="-2.13594">
        <ele>7.5999999046326</ele>
        <time>2021-11-14T10:00:58.000Z</time>
      </trkpt>
      <trkpt lat="47.40279" lon="-2.13602">
        <ele>7.1999998092651</ele>
        <time>2021-11-14T10:00:59.000Z</time>
      </trkpt>
      <trkpt lat="47.40273" lon="-2.1361">
        <ele>6.8000001907349</ele>
        <time>2021-11-14T10:01:00.000Z</time>
      </trkpt>
      <trkpt lat="47.40266" lon="-2.13617">
        <ele>6.4000000953674</ele>
        <time>2021-11-14T10:01:01.000Z</time>
      </trkpt>
      <trkpt lat="47.40261" lon="-2.13624">
        <ele>6</ele>
        <time>2021-11-14T10:01:02.000Z</time>
      </trkpt>
      <trkpt lat="47.4025" lon="-2.13638">
        <ele>6</ele>
        <time>2021-11-14T10:01:04.000Z</time>
      </trkpt>
      <trkpt lat="47.40217" lon="-2.1369">
        <ele>6</ele>
        <time>2021-11-14T10:01:11.000Z</time>
      </trkpt>
      <trkpt lat="47.40193" lon="-2.13736">
        <ele>6</ele>
        <time>2021-11-14T10:01:17.000Z</time>
      </trkpt>
      <trkpt lat="47.40165" lon="-2.13789">
        <ele>6</ele>
        <time>2021-11-14T10:01:24.000Z</time>
      </trkpt>
      <trkpt lat="47.40141" lon="-2.13837">
        <ele>6</ele>
        <time>2021-11-14T10:01:31.000Z</time>
      </trkpt>
      <trkpt lat="47.40145" lon="-2.13859">
        <ele>6</ele>
        <time>2021-11-14T10:01:34.000Z</time>
      </trkpt>
      <trkpt lat="47.40153" lon="-2.13866">
        <ele>6</ele>
        <time>2021-11-14T10:01:36.000Z</time>
      </trkpt>
      <trkpt lat="47.40157" lon="-2.13871">
        <ele>6</ele>
        <time>2021-11-14T10:01:37.000Z</time>
      </trkpt>
      <trkpt lat="47.40187" lon="-2.13904">
        <ele>6</ele>
        <time>2021-11-14T10:01:43.000Z</time>
      </trkpt>
      <trkpt lat="47.4023" lon="-2.13952">
        <ele>6</ele>
        <time>2021-11-14T10:01:51.000Z</time>
      </trkpt>
      <trkpt lat="47.4027" lon="-2.13997">
        <ele>6</ele>
        <time>2021-11-14T10:01:58.000Z</time>
      </trkpt>
      <trkpt lat="47.40302" lon="-2.14033">
        <ele>6</ele>
        <time>2021-11-14T10:02:04.000Z</time>
      </trkpt>
      <trkpt lat="47.40341" lon="-2.14075">
        <ele>6</ele>
        <time>2021-11-14T10:02:12.000Z</time>
      </trkpt>
      <trkpt lat="47.40375" lon="-2.14109">
        <ele>6</ele>
        <time>2021-11-14T10:02:19.000Z</time>
      </trkpt>
      <trkpt lat="47.40407" lon="-2.14136">
        <ele>6</ele>
        <time>2021-11-14T10:02:25.000Z</time>
      </trkpt>
      <trkpt lat="47.40442" lon="-2.14168">
        <ele>6</ele>
        <time>2021-11-14T10:02:32.000Z</time>
      </trkpt>
      <trkpt lat="47.40474" lon="-2.14195">
        <ele>6</ele>
        <time>2021-11-14T10:02:38.000Z</time>
      </trkpt>
      <trkpt lat="47.40515" lon="-2.14235">
        <ele>6</ele>
        <time>2021-11-14T10:02:46.000Z</time>
      </trkpt>
      <trkpt lat="47.40549" lon="-2.14274">
        <ele>6</ele>
        <time>2021-11-14T10:02:53.000Z</time>
      </trkpt>
      <trkpt lat="47.40558" lon="-2.14286">
        <ele>6</ele>
        <time>2021-11-14T10:02:55.000Z</time>
      </trkpt>
      <trkpt lat="47.40569" lon="-2.14306">
        <ele>6</ele>
        <time>2021-11-14T10:02:58.000Z</time>
      </trkpt>
      <trkpt lat="47.40576" lon="-2.14317">
        <ele>6</ele>
        <time>2021-11-14T10:03:00.000Z</time>
      </trkpt>
      <trkpt lat="47.4058" lon="-2.14328">
        <ele>6</ele>
        <time>2021-11-14T10:03:02.000Z</time>
      </trkpt>
      <trkpt lat="47.40576" lon="-2.14339">
        <ele>6</ele>
        <time>2021-11-14T10:03:04.000Z</time>
      </trkpt>
      <trkpt lat="47.40575" lon="-2.14347">
        <ele>6</ele>
        <time>2021-11-14T10:03:06.000Z</time>
      </trkpt>
      <trkpt lat="47.40577" lon="-2.14351">
        <ele>6</ele>
        <time>2021-11-14T10:03:08.000Z</time>
      </trkpt>
      <trkpt lat="47.4058" lon="-2.14364">
        <ele>6</ele>
        <time>2021-11-14T10:03:12.000Z</time>
      </trkpt>
      <trkpt lat="47.40571" lon="-2.14376">
        <ele>6</ele>
        <time>2021-11-14T10:03:16.000Z</time>
      </trkpt>
      <trkpt lat="47.40569" lon="-2.14394">
        <ele>6</ele>
        <time>2021-11-14T10:03:21.000Z</time>
      </trkpt>
      <trkpt lat="47.40577" lon="-2.14391">
        <ele>6</ele>
        <time>2021-11-14T10:03:24.000Z</time>
      </trkpt>
      <trkpt lat="47.40588" lon="-2.14374">
        <ele>6</ele>
        <time>2021-11-14T10:03:28.000Z</time>
      </trkpt>
      <trkpt lat="47.40595" lon="-2.14373">
        <ele>6</ele>
        <time>2021-11-14T10:03:31.000Z</time>
      </trkpt>
      <trkpt lat="47.40596" lon="-2.14375">
        <ele>6</ele>
        <time>2021-11-14T10:03:33.000Z</time>
      </trkpt>
      <trkpt lat="47.40593" lon="-2.14379">
        <ele>6</ele>
        <time>2021-11-14T10:03:34.000Z</time>
      </trkpt>
      <trkpt lat="47.40591" lon="-2.14384">
        <ele>6</ele>
        <time>2021-11-14T10:03:35.000Z</time>
      </trkpt>
      <trkpt lat="47.40586" lon="-2.144">
        <ele>6</ele>
        <time>2021-11-14T10:03:39.000Z</time>
      </trkpt>
      <trkpt lat="47.40589" lon="-2.14403">
        <ele>6</ele>
        <time>2021-11-14T10:03:42.000Z</time>
      </trkpt>
      <trkpt lat="47.40597" lon="-2.14391">
        <ele>6</ele>
        <time>2021-11-14T10:03:45.000Z</time>
      </trkpt>
      <trkpt lat="47.40608" lon="-2.14392">
        <ele>6</ele>
        <time>2021-11-14T10:03:48.000Z</time>
      </trkpt>
      <trkpt lat="47.40611" lon="-2.14395">
        <ele>6</ele>
        <time>2021-11-14T10:03:49.000Z</time>
      </trkpt>
      <trkpt lat="47.40615" lon="-2.14402">
        <ele>6</ele>
        <time>2021-11-14T10:03:51.000Z</time>
      </trkpt>
      <trkpt lat="47.40615" lon="-2.14406">
        <ele>6</ele>
        <time>2021-11-14T10:03:52.000Z</time>
      </trkpt>
      <trkpt lat="47.40611" lon="-2.14415">
        <ele>6</ele>
        <time>2021-11-14T10:03:54.000Z</time>
      </trkpt>
      <trkpt lat="47.40602" lon="-2.14438">
        <ele>6</ele>
        <time>2021-11-14T10:04:00.000Z</time>
      </trkpt>
      <trkpt lat="47.40605" lon="-2.14444">
        <ele>6</ele>
        <time>2021-11-14T10:04:02.000Z</time>
      </trkpt>
      <trkpt lat="47.40607" lon="-2.14442">
        <ele>6</ele>
        <time>2021-11-14T10:04:03.000Z</time>
      </trkpt>
      <trkpt lat="47.40615" lon="-2.14426">
        <ele>6</ele>
        <time>2021-11-14T10:04:07.000Z</time>
      </trkpt>
      <trkpt lat="47.40617" lon="-2.14426">
        <ele>6</ele>
        <time>2021-11-14T10:04:08.000Z</time>
      </trkpt>
      <trkpt lat="47.40621" lon="-2.14433">
        <ele>6</ele>
        <time>2021-11-14T10:04:10.000Z</time>
      </trkpt>
      <trkpt lat="47.40621" lon="-2.1444">
        <ele>6</ele>
        <time>2021-11-14T10:04:12.000Z</time>
      </trkpt>
      <trkpt lat="47.40619" lon="-2.14449">
        <ele>6</ele>
        <time>2021-11-14T10:04:14.000Z</time>
      </trkpt>
      <trkpt lat="47.40615" lon="-2.14463">
        <ele>6</ele>
        <time>2021-11-14T10:04:16.000Z</time>
      </trkpt>
      <trkpt lat="47.40611" lon="-2.14482">
        <ele>6</ele>
        <time>2021-11-14T10:04:19.000Z</time>
      </trkpt>
      <trkpt lat="47.40611" lon="-2.14497">
        <ele>6</ele>
        <time>2021-11-14T10:04:23.000Z</time>
      </trkpt>
      <trkpt lat="47.40616" lon="-2.14497">
        <ele>6</ele>
        <time>2021-11-14T10:04:25.000Z</time>
      </trkpt>
      <trkpt lat="47.40618" lon="-2.14495">
        <ele>6</ele>
        <time>2021-11-14T10:04:26.000Z</time>
      </trkpt>
      <trkpt lat="47.40621" lon="-2.1449">
        <ele>6</ele>
        <time>2021-11-14T10:04:28.000Z</time>
      </trkpt>
      <trkpt lat="47.4062" lon="-2.14485">
        <ele>6</ele>
        <time>2021-11-14T10:04:31.000Z</time>
      </trkpt>
      <trkpt lat="47.40622" lon="-2.14478">
        <ele>6</ele>
        <time>2021-11-14T10:04:33.000Z</time>
      </trkpt>
      <trkpt lat="47.40622" lon="-2.14475">
        <ele>6</ele>
        <time>2021-11-14T10:04:34.000Z</time>
      </trkpt>
      <trkpt lat="47.40621" lon="-2.14466">
        <ele>6</ele>
        <time>2021-11-14T10:04:37.000Z</time>
      </trkpt>
      <trkpt lat="47.40622" lon="-2.14461">
        <ele>6</ele>
        <time>2021-11-14T10:04:38.000Z</time>
      </trkpt>
      <trkpt lat="47.40623" lon="-2.14456">
        <ele>6</ele>
        <time>2021-11-14T10:04:39.000Z</time>
      </trkpt>
      <trkpt lat="47.40629" lon="-2.1445">
        <ele>6</ele>
        <time>2021-11-14T10:04:42.000Z</time>
      </trkpt>
      <trkpt lat="47.4063" lon="-2.14458">
        <ele>6</ele>
        <time>2021-11-14T10:04:45.000Z</time>
      </trkpt>
      <trkpt lat="47.40629" lon="-2.14467">
        <ele>6</ele>
        <time>2021-11-14T10:04:47.000Z</time>
      </trkpt>
      <trkpt lat="47.40631" lon="-2.14468">
        <ele>6</ele>
        <time>2021-11-14T10:04:48.000Z</time>
      </trkpt>
      <trkpt lat="47.40641" lon="-2.14466">
        <ele>6</ele>
        <time>2021-11-14T10:04:52.000Z</time>
      </trkpt>
      <trkpt lat="47.40645" lon="-2.14467">
        <ele>6</ele>
        <time>2021-11-14T10:04:54.000Z</time>
      </trkpt>
      <trkpt lat="47.40647" lon="-2.14473">
        <ele>6</ele>
        <time>2021-11-14T10:04:55.000Z</time>
      </trkpt>
      <trkpt lat="47.40647" lon="-2.14477">
        <ele>6</ele>
        <time>2021-11-14T10:04:56.000Z</time>
      </trkpt>
      <trkpt lat="47.40645" lon="-2.14481">
        <ele>6</ele>
        <time>2021-11-14T10:04:57.000Z</time>
      </trkpt>
      <trkpt lat="47.40641" lon="-2.14485">
        <ele>6</ele>
        <time>2021-11-14T10:04:59.000Z</time>
      </trkpt>
      <trkpt lat="47.40635" lon="-2.14493">
        <ele>6</ele>
        <time>2021-11-14T10:05:03.000Z</time>
      </trkpt>
      <trkpt lat="47.40637" lon="-2.14497">
        <ele>6</ele>
        <time>2021-11-14T10:05:05.000Z</time>
      </trkpt>
      <trkpt lat="47.4065" lon="-2.14496">
        <ele>6</ele>
        <time>2021-11-14T10:05:09.000Z</time>
      </trkpt>
      <trkpt lat="47.40657" lon="-2.14492">
        <ele>6</ele>
        <time>2021-11-14T10:05:11.000Z</time>
      </trkpt>
      <trkpt lat="47.40662" lon="-2.14487">
        <ele>6</ele>
        <time>2021-11-14T10:05:13.000Z</time>
      </trkpt>
      <trkpt lat="47.40666" lon="-2.14492">
        <ele>6</ele>
        <time>2021-11-14T10:05:16.000Z</time>
      </trkpt>
      <trkpt lat="47.40667" lon="-2.14495">
        <ele>6</ele>
        <time>2021-11-14T10:05:17.000Z</time>
      </trkpt>
      <trkpt lat="47.40667" lon="-2.14499">
        <ele>6</ele>
        <time>2021-11-14T10:05:18.000Z</time>
      </trkpt>
      <trkpt lat="47.40662" lon="-2.14507">
        <ele>6</ele>
        <time>2021-11-14T10:05:21.000Z</time>
      </trkpt>
      <trkpt lat="47.40657" lon="-2.14517">
        <ele>6</ele>
        <time>2021-11-14T10:05:25.000Z</time>
      </trkpt>
      <trkpt lat="47.40656" lon="-2.14524">
        <ele>6</ele>
        <time>2021-11-14T10:05:27.000Z</time>
      </trkpt>
      <trkpt lat="47.40659" lon="-2.14527">
        <ele>6</ele>
        <time>2021-11-14T10:05:29.000Z</time>
      </trkpt>
      <trkpt lat="47.40665" lon="-2.14525">
        <ele>6</ele>
        <time>2021-11-14T10:05:33.000Z</time>
      </trkpt>
      <trkpt lat="47.40675" lon="-2.14534">
        <ele>6</ele>
        <time>2021-11-14T10:05:37.000Z</time>
      </trkpt>
      <trkpt lat="47.40672" lon="-2.14548">
        <ele>6</ele>
        <time>2021-11-14T10:05:40.000Z</time>
      </trkpt>
      <trkpt lat="47.40659" lon="-2.1457">
        <ele>6</ele>
        <time>2021-11-14T10:05:45.000Z</time>
      </trkpt>
      <trkpt lat="47.4065" lon="-2.14579">
        <ele>6.4000000953674</ele>
        <time>2021-11-14T10:05:49.000Z</time>
      </trkpt>
      <trkpt lat="47.40648" lon="-2.1458">
        <ele>6.8000001907349</ele>
        <time>2021-11-14T10:05:50.000Z</time>
      </trkpt>
      <trkpt lat="47.40646" lon="-2.1458">
        <ele>7.4000000953674</ele>
        <time>2021-11-14T10:05:51.000Z</time>
      </trkpt>
      <trkpt lat="47.40646" lon="-2.1458">
        <ele>7.8000001907349</ele>
        <time>2021-11-14T10:05:52.000Z</time>
      </trkpt>
      <trkpt lat="47.40646" lon="-2.14579">
        <ele>8.1999998092651</ele>
        <time>2021-11-14T10:05:53.000Z</time>
      </trkpt>
      <trkpt lat="47.40646" lon="-2.14571">
        <ele>8.1999998092651</ele>
        <time>2021-11-14T10:05:56.000Z</time>
      </trkpt>
      <trkpt lat="47.40646" lon="-2.14563">
        <ele>8.1999998092651</ele>
        <time>2021-11-14T10:05:58.000Z</time>
      </trkpt>
      <trkpt lat="47.40642" lon="-2.14551">
        <ele>8.1999998092651</ele>
        <time>2021-11-14T10:06:01.000Z</time>
      </trkpt>
      <trkpt lat="47.4064" lon="-2.14552">
        <ele>8.1999998092651</ele>
        <time>2021-11-14T10:06:02.000Z</time>
      </trkpt>
      <trkpt lat="47.40635" lon="-2.14551">
        <ele>8.1999998092651</ele>
        <time>2021-11-14T10:06:05.000Z</time>
      </trkpt>
      <trkpt lat="47.40638" lon="-2.14536">
        <ele>8.1999998092651</ele>
        <time>2021-11-14T10:06:09.000Z</time>
      </trkpt>
      <trkpt lat="47.40636" lon="-2.14533">
        <ele>8.1999998092651</ele>
        <time>2021-11-14T10:06:12.000Z</time>
      </trkpt>
      <trkpt lat="47.40627" lon="-2.1455">
        <ele>8.1999998092651</ele>
        <time>2021-11-14T10:06:17.000Z</time>
      </trkpt>
      <trkpt lat="47.40625" lon="-2.14571">
        <ele>8.1999998092651</ele>
        <time>2021-11-14T10:06:22.000Z</time>
      </trkpt>
      <trkpt lat="47.40624" lon="-2.14573">
        <ele>8.1999998092651</ele>
        <time>2021-11-14T10:06:23.000Z</time>
      </trkpt>
      <trkpt lat="47.40622" lon="-2.14573">
        <ele>8.1999998092651</ele>
        <time>2021-11-14T10:06:25.000Z</time>
      </trkpt>
      <trkpt lat="47.40622" lon="-2.14573">
        <ele>8.1999998092651</ele>
        <time>2021-11-14T10:06:26.000Z</time>
      </trkpt>
      <trkpt lat="47.40622" lon="-2.14567">
        <ele>8.1999998092651</ele>
        <time>2021-11-14T10:06:28.000Z</time>
      </trkpt>
      <trkpt lat="47.40619" lon="-2.14558">
        <ele>8.1999998092651</ele>
        <time>2021-11-14T10:06:31.000Z</time>
      </trkpt>
      <trkpt lat="47.4061" lon="-2.14552">
        <ele>8.1999998092651</ele>
        <time>2021-11-14T10:06:35.000Z</time>
      </trkpt>
      <trkpt lat="47.40613" lon="-2.14539">
        <ele>8.1999998092651</ele>
        <time>2021-11-14T10:06:38.000Z</time>
      </trkpt>
      <trkpt lat="47.40615" lon="-2.14526">
        <ele>8.1999998092651</ele>
        <time>2021-11-14T10:06:41.000Z</time>
      </trkpt>
      <trkpt lat="47.40615" lon="-2.14522">
        <ele>8.1999998092651</ele>
        <time>2021-11-14T10:06:42.000Z</time>
      </trkpt>
      <trkpt lat="47.40614" lon="-2.14495">
        <ele>8.1999998092651</ele>
        <time>2021-11-14T10:06:48.000Z</time>
      </trkpt>
      <trkpt lat="47.40604" lon="-2.14476">
        <ele>7.8000001907349</ele>
        <time>2021-11-14T10:06:53.000Z</time>
      </trkpt>
      <trkpt lat="47.40603" lon="-2.14471">
        <ele>7.4000000953674</ele>
        <time>2021-11-14T10:06:54.000Z</time>
      </trkpt>
      <trkpt lat="47.40601" lon="-2.14466">
        <ele>6.8000001907349</ele>
        <time>2021-11-14T10:06:55.000Z</time>
      </trkpt>
      <trkpt lat="47.40601" lon="-2.14462">
        <ele>6.4000000953674</ele>
        <time>2021-11-14T10:06:56.000Z</time>
      </trkpt>
      <trkpt lat="47.40601" lon="-2.14459">
        <ele>6</ele>
        <time>2021-11-14T10:06:57.000Z</time>
      </trkpt>
      <trkpt lat="47.40601" lon="-2.14457">
        <ele>6</ele>
        <time>2021-11-14T10:06:58.000Z</time>
      </trkpt>
      <trkpt lat="47.406" lon="-2.14455">
        <ele>6</ele>
        <time>2021-11-14T10:06:59.000Z</time>
      </trkpt>
      <trkpt lat="47.40594" lon="-2.1445">
        <ele>6</ele>
        <time>2021-11-14T10:07:03.000Z</time>
      </trkpt>
      <trkpt lat="47.4059" lon="-2.14441">
        <ele>6</ele>
        <time>2021-11-14T10:07:06.000Z</time>
      </trkpt>
      <trkpt lat="47.40585" lon="-2.14435">
        <ele>6</ele>
        <time>2021-11-14T10:07:09.000Z</time>
      </trkpt>
      <trkpt lat="47.40584" lon="-2.14434">
        <ele>6</ele>
        <time>2021-11-14T10:07:10.000Z</time>
      </trkpt>
      <trkpt lat="47.40574" lon="-2.14438">
        <ele>6</ele>
        <time>2021-11-14T10:07:14.000Z</time>
      </trkpt>
      <trkpt lat="47.40561" lon="-2.1444">
        <ele>6</ele>
        <time>2021-11-14T10:07:18.000Z</time>
      </trkpt>
      <trkpt lat="47.4055" lon="-2.14441">
        <ele>6</ele>
        <time>2021-11-14T10:07:22.000Z</time>
      </trkpt>
      <trkpt lat="47.40539" lon="-2.14439">
        <ele>6</ele>
        <time>2021-11-14T10:07:27.000Z</time>
      </trkpt>
      <trkpt lat="47.40509" lon="-2.14443">
        <ele>6</ele>
        <time>2021-11-14T10:07:31.000Z</time>
      </trkpt>
      <trkpt lat="47.40502" lon="-2.14446">
        <ele>6</ele>
        <time>2021-11-14T10:07:32.000Z</time>
      </trkpt>
      <trkpt lat="47.40474" lon="-2.1447">
        <ele>6.4000000953674</ele>
        <time>2021-11-14T10:07:37.000Z</time>
      </trkpt>
      <trkpt lat="47.40469" lon="-2.14474">
        <ele>6.8000001907349</ele>
        <time>2021-11-14T10:07:38.000Z</time>
      </trkpt>
      <trkpt lat="47.40465" lon="-2.14479">
        <ele>7.1999998092651</ele>
        <time>2021-11-14T10:07:39.000Z</time>
      </trkpt>
      <trkpt lat="47.40462" lon="-2.14483">
        <ele>7.5999999046326</ele>
        <time>2021-11-14T10:07:40.000Z</time>
      </trkpt>
      <trkpt lat="47.40458" lon="-2.14487">
        <ele>8.1999998092651</ele>
        <time>2021-11-14T10:07:41.000Z</time>
      </trkpt>
      <trkpt lat="47.4045" lon="-2.14494">
        <ele>8.1999998092651</ele>
        <time>2021-11-14T10:07:43.000Z</time>
      </trkpt>
      <trkpt lat="47.40439" lon="-2.14506">
        <ele>8.6000003814697</ele>
        <time>2021-11-14T10:07:46.000Z</time>
      </trkpt>
      <trkpt lat="47.40436" lon="-2.1451">
        <ele>9</ele>
        <time>2021-11-14T10:07:47.000Z</time>
      </trkpt>
      <trkpt lat="47.40432" lon="-2.14514">
        <ele>9.3999996185303</ele>
        <time>2021-11-14T10:07:48.000Z</time>
      </trkpt>
      <trkpt lat="47.40429" lon="-2.14518">
        <ele>10</ele>
        <time>2021-11-14T10:07:49.000Z</time>
      </trkpt>
      <trkpt lat="47.40426" lon="-2.14522">
        <ele>10.39999961853</ele>
        <time>2021-11-14T10:07:50.000Z</time>
      </trkpt>
      <trkpt lat="47.40419" lon="-2.14529">
        <ele>10.800000190735</ele>
        <time>2021-11-14T10:07:52.000Z</time>
      </trkpt>
      <trkpt lat="47.40415" lon="-2.14533">
        <ele>11.199999809265</ele>
        <time>2021-11-14T10:07:53.000Z</time>
      </trkpt>
      <trkpt lat="47.40412" lon="-2.14537">
        <ele>11.60000038147</ele>
        <time>2021-11-14T10:07:54.000Z</time>
      </trkpt>
      <trkpt lat="47.40409" lon="-2.1454">
        <ele>12</ele>
        <time>2021-11-14T10:07:55.000Z</time>
      </trkpt>
      <trkpt lat="47.40406" lon="-2.14544">
        <ele>12.39999961853</ele>
        <time>2021-11-14T10:07:56.000Z</time>
      </trkpt>
      <trkpt lat="47.40403" lon="-2.14547">
        <ele>12.39999961853</ele>
        <time>2021-11-14T10:07:57.000Z</time>
      </trkpt>
      <trkpt lat="47.40398" lon="-2.14553">
        <ele>12.800000190735</ele>
        <time>2021-11-14T10:07:59.000Z</time>
      </trkpt>
      <trkpt lat="47.40395" lon="-2.14556">
        <ele>13.199999809265</ele>
        <time>2021-11-14T10:08:00.000Z</time>
      </trkpt>
      <trkpt lat="47.40392" lon="-2.14559">
        <ele>13.800000190735</ele>
        <time>2021-11-14T10:08:01.000Z</time>
      </trkpt>
      <trkpt lat="47.40389" lon="-2.14562">
        <ele>14.199999809265</ele>
        <time>2021-11-14T10:08:02.000Z</time>
      </trkpt>
      <trkpt lat="47.40387" lon="-2.14566">
        <ele>14.60000038147</ele>
        <time>2021-11-14T10:08:03.000Z</time>
      </trkpt>
      <trkpt lat="47.40384" lon="-2.1457">
        <ele>14.60000038147</ele>
        <time>2021-11-14T10:08:04.000Z</time>
      </trkpt>
      <trkpt lat="47.40367" lon="-2.14589">
        <ele>15</ele>
        <time>2021-11-14T10:08:09.000Z</time>
      </trkpt>
      <trkpt lat="47.40364" lon="-2.14593">
        <ele>15.39999961853</ele>
        <time>2021-11-14T10:08:10.000Z</time>
      </trkpt>
      <trkpt lat="47.4036" lon="-2.14598">
        <ele>15.800000190735</ele>
        <time>2021-11-14T10:08:11.000Z</time>
      </trkpt>
      <trkpt lat="47.40356" lon="-2.14602">
        <ele>16.200000762939</ele>
        <time>2021-11-14T10:08:12.000Z</time>
      </trkpt>
      <trkpt lat="47.40353" lon="-2.14606">
        <ele>16.60000038147</ele>
        <time>2021-11-14T10:08:13.000Z</time>
      </trkpt>
      <trkpt lat="47.40337" lon="-2.14623">
        <ele>16.60000038147</ele>
        <time>2021-11-14T10:08:17.000Z</time>
      </trkpt>
      <trkpt lat="47.40309" lon="-2.14651">
        <ele>16.60000038147</ele>
        <time>2021-11-14T10:08:24.000Z</time>
      </trkpt>
      <trkpt lat="47.40278" lon="-2.14685">
        <ele>16.60000038147</ele>
        <time>2021-11-14T10:08:31.000Z</time>
      </trkpt>
      <trkpt lat="47.40269" lon="-2.14697">
        <ele>16.60000038147</ele>
        <time>2021-11-14T10:08:33.000Z</time>
      </trkpt>
      <trkpt lat="47.4026" lon="-2.14707">
        <ele>16.60000038147</ele>
        <time>2021-11-14T10:08:35.000Z</time>
      </trkpt>
      <trkpt lat="47.40257" lon="-2.14713">
        <ele>16.60000038147</ele>
        <time>2021-11-14T10:08:36.000Z</time>
      </trkpt>
      <trkpt lat="47.40258" lon="-2.14728">
        <ele>16.200000762939</ele>
        <time>2021-11-14T10:08:38.000Z</time>
      </trkpt>
      <trkpt lat="47.40261" lon="-2.14735">
        <ele>15.800000190735</ele>
        <time>2021-11-14T10:08:39.000Z</time>
      </trkpt>
      <trkpt lat="47.40264" lon="-2.14741">
        <ele>15.199999809265</ele>
        <time>2021-11-14T10:08:40.000Z</time>
      </trkpt>
      <trkpt lat="47.40268" lon="-2.14747">
        <ele>14.800000190735</ele>
        <time>2021-11-14T10:08:41.000Z</time>
      </trkpt>
      <trkpt lat="47.40272" lon="-2.14753">
        <ele>14.39999961853</ele>
        <time>2021-11-14T10:08:42.000Z</time>
      </trkpt>
      <trkpt lat="47.40283" lon="-2.14774">
        <ele>14.39999961853</ele>
        <time>2021-11-14T10:08:45.000Z</time>
      </trkpt>
      <trkpt lat="47.40322" lon="-2.1484">
        <ele>14</ele>
        <time>2021-11-14T10:08:54.000Z</time>
      </trkpt>
      <trkpt lat="47.40326" lon="-2.14848">
        <ele>13.39999961853</ele>
        <time>2021-11-14T10:08:55.000Z</time>
      </trkpt>
      <trkpt lat="47.4033" lon="-2.14856">
        <ele>12.60000038147</ele>
        <time>2021-11-14T10:08:56.000Z</time>
      </trkpt>
      <trkpt lat="47.40335" lon="-2.14864">
        <ele>12</ele>
        <time>2021-11-14T10:08:57.000Z</time>
      </trkpt>
      <trkpt lat="47.4035" lon="-2.1489">
        <ele>11.60000038147</ele>
        <time>2021-11-14T10:09:00.000Z</time>
      </trkpt>
      <trkpt lat="47.40354" lon="-2.149">
        <ele>11.199999809265</ele>
        <time>2021-11-14T10:09:01.000Z</time>
      </trkpt>
      <trkpt lat="47.40359" lon="-2.14909">
        <ele>10.800000190735</ele>
        <time>2021-11-14T10:09:02.000Z</time>
      </trkpt>
      <trkpt lat="47.40364" lon="-2.14918">
        <ele>10.39999961853</ele>
        <time>2021-11-14T10:09:03.000Z</time>
      </trkpt>
      <trkpt lat="47.40369" lon="-2.14927">
        <ele>10</ele>
        <time>2021-11-14T10:09:04.000Z</time>
      </trkpt>
      <trkpt lat="47.40375" lon="-2.14937">
        <ele>9.6000003814697</ele>
        <time>2021-11-14T10:09:05.000Z</time>
      </trkpt>
      <trkpt lat="47.4038" lon="-2.14946">
        <ele>9.1999998092651</ele>
        <time>2021-11-14T10:09:06.000Z</time>
      </trkpt>
      <trkpt lat="47.40385" lon="-2.14954">
        <ele>8.6000003814697</ele>
        <time>2021-11-14T10:09:07.000Z</time>
      </trkpt>
      <trkpt lat="47.4039" lon="-2.14963">
        <ele>8.1999998092651</ele>
        <time>2021-11-14T10:09:08.000Z</time>
      </trkpt>
      <trkpt lat="47.40395" lon="-2.14972">
        <ele>7.5999999046326</ele>
        <time>2021-11-14T10:09:09.000Z</time>
      </trkpt>
      <trkpt lat="47.404" lon="-2.14981">
        <ele>7.1999998092651</ele>
        <time>2021-11-14T10:09:10.000Z</time>
      </trkpt>
      <trkpt lat="47.40404" lon="-2.1499">
        <ele>6.8000001907349</ele>
        <time>2021-11-14T10:09:11.000Z</time>
      </trkpt>
      <trkpt lat="47.40409" lon="-2.15">
        <ele>6.4000000953674</ele>
        <time>2021-11-14T10:09:12.000Z</time>
      </trkpt>
      <trkpt lat="47.40414" lon="-2.15008">
        <ele>5.8000001907349</ele>
        <time>2021-11-14T10:09:13.000Z</time>
      </trkpt>
      <trkpt lat="47.40419" lon="-2.15017">
        <ele>5.4000000953674</ele>
        <time>2021-11-14T10:09:14.000Z</time>
      </trkpt>
      <trkpt lat="47.40446" lon="-2.15065">
        <ele>5</ele>
        <time>2021-11-14T10:09:19.000Z</time>
      </trkpt>
      <trkpt lat="47.40451" lon="-2.15074">
        <ele>4.5999999046326</ele>
        <time>2021-11-14T10:09:20.000Z</time>
      </trkpt>
      <trkpt lat="47.40457" lon="-2.15083">
        <ele>3.7999999523163</ele>
        <time>2021-11-14T10:09:21.000Z</time>
      </trkpt>
      <trkpt lat="47.40462" lon="-2.15092">
        <ele>3.4000000953674</ele>
        <time>2021-11-14T10:09:22.000Z</time>
      </trkpt>
      <trkpt lat="47.40487" lon="-2.15135">
        <ele>3.4000000953674</ele>
        <time>2021-11-14T10:09:27.000Z</time>
      </trkpt>
      <trkpt lat="47.40522" lon="-2.15186">
        <ele>3.4000000953674</ele>
        <time>2021-11-14T10:09:34.000Z</time>
      </trkpt>
      <trkpt lat="47.40529" lon="-2.15191">
        <ele>3.4000000953674</ele>
        <time>2021-11-14T10:09:35.000Z</time>
      </trkpt>
      <trkpt lat="47.4055" lon="-2.15201">
        <ele>3.4000000953674</ele>
        <time>2021-11-14T10:09:38.000Z</time>
      </trkpt>
      <trkpt lat="47.40557" lon="-2.15203">
        <ele>3.4000000953674</ele>
        <time>2021-11-14T10:09:39.000Z</time>
      </trkpt>
      <trkpt lat="47.40565" lon="-2.15204">
        <ele>3.4000000953674</ele>
        <time>2021-11-14T10:09:40.000Z</time>
      </trkpt>
      <trkpt lat="47.40594" lon="-2.15207">
        <ele>3.4000000953674</ele>
        <time>2021-11-14T10:09:44.000Z</time>
      </trkpt>
      <trkpt lat="47.4065" lon="-2.1521">
        <ele>3.4000000953674</ele>
        <time>2021-11-14T10:09:52.000Z</time>
      </trkpt>
      <trkpt lat="47.40697" lon="-2.15217">
        <ele>3.4000000953674</ele>
        <time>2021-11-14T10:09:59.000Z</time>
      </trkpt>
      <trkpt lat="47.40736" lon="-2.15231">
        <ele>3.4000000953674</ele>
        <time>2021-11-14T10:10:05.000Z</time>
      </trkpt>
      <trkpt lat="47.40778" lon="-2.15249">
        <ele>3.4000000953674</ele>
        <time>2021-11-14T10:10:12.000Z</time>
      </trkpt>
      <trkpt lat="47.40815" lon="-2.15267">
        <ele>3.4000000953674</ele>
        <time>2021-11-14T10:10:18.000Z</time>
      </trkpt>
      <trkpt lat="47.40848" lon="-2.15295">
        <ele>3.4000000953674</ele>
        <time>2021-11-14T10:10:24.000Z</time>
      </trkpt>
      <trkpt lat="47.40883" lon="-2.15335">
        <ele>3.4000000953674</ele>
        <time>2021-11-14T10:10:31.000Z</time>
      </trkpt>
      <trkpt lat="47.40888" lon="-2.1534">
        <ele>3.4000000953674</ele>
        <time>2021-11-14T10:10:32.000Z</time>
      </trkpt>
      <trkpt lat="47.40913" lon="-2.15366">
        <ele>3.4000000953674</ele>
        <time>2021-11-14T10:10:37.000Z</time>
      </trkpt>
      <trkpt lat="47.40933" lon="-2.15392">
        <ele>3.4000000953674</ele>
        <time>2021-11-14T10:10:42.000Z</time>
      </trkpt>
      <trkpt lat="47.40936" lon="-2.15397">
        <ele>3.4000000953674</ele>
        <time>2021-11-14T10:10:43.000Z</time>
      </trkpt>
      <trkpt lat="47.40936" lon="-2.15415">
        <ele>3.4000000953674</ele>
        <time>2021-11-14T10:10:46.000Z</time>
      </trkpt>
      <trkpt lat="47.40934" lon="-2.15421">
        <ele>3.4000000953674</ele>
        <time>2021-11-14T10:10:47.000Z</time>
      </trkpt>
      <trkpt lat="47.40932" lon="-2.15426">
        <ele>3.4000000953674</ele>
        <time>2021-11-14T10:10:48.000Z</time>
      </trkpt>
      <trkpt lat="47.40925" lon="-2.15447">
        <ele>3.4000000953674</ele>
        <time>2021-11-14T10:10:51.000Z</time>
      </trkpt>
      <trkpt lat="47.40923" lon="-2.15455">
        <ele>3.4000000953674</ele>
        <time>2021-11-14T10:10:52.000Z</time>
      </trkpt>
      <trkpt lat="47.4092" lon="-2.15472">
        <ele>3.4000000953674</ele>
        <time>2021-11-14T10:10:54.000Z</time>
      </trkpt>
      <trkpt lat="47.4092" lon="-2.15481">
        <ele>3.4000000953674</ele>
        <time>2021-11-14T10:10:55.000Z</time>
      </trkpt>
      <trkpt lat="47.4092" lon="-2.15507">
        <ele>3.4000000953674</ele>
        <time>2021-11-14T10:10:58.000Z</time>
      </trkpt>
      <trkpt lat="47.40919" lon="-2.15523">
        <ele>3.4000000953674</ele>
        <time>2021-11-14T10:11:00.000Z</time>
      </trkpt>
      <trkpt lat="47.40905" lon="-2.15555">
        <ele>3.4000000953674</ele>
        <time>2021-11-14T10:11:04.000Z</time>
      </trkpt>
      <trkpt lat="47.40868" lon="-2.15614">
        <ele>3.4000000953674</ele>
        <time>2021-11-14T10:11:12.000Z</time>
      </trkpt>
      <trkpt lat="47.40857" lon="-2.15637">
        <ele>3.4000000953674</ele>
        <time>2021-11-14T10:11:15.000Z</time>
      </trkpt>
      <trkpt lat="47.40854" lon="-2.15654">
        <ele>3.4000000953674</ele>
        <time>2021-11-14T10:11:17.000Z</time>
      </trkpt>
      <trkpt lat="47.40854" lon="-2.15672">
        <ele>3.4000000953674</ele>
        <time>2021-11-14T10:11:19.000Z</time>
      </trkpt>
      <trkpt lat="47.40854" lon="-2.15705">
        <ele>3.4000000953674</ele>
        <time>2021-11-14T10:11:23.000Z</time>
      </trkpt>
      <trkpt lat="47.40845" lon="-2.15734">
        <ele>3.4000000953674</ele>
        <time>2021-11-14T10:11:27.000Z</time>
      </trkpt>
      <trkpt lat="47.40842" lon="-2.1574">
        <ele>3.4000000953674</ele>
        <time>2021-11-14T10:11:28.000Z</time>
      </trkpt>
      <trkpt lat="47.40819" lon="-2.15772">
        <ele>3.4000000953674</ele>
        <time>2021-11-14T10:11:34.000Z</time>
      </trkpt>
      <trkpt lat="47.40815" lon="-2.15778">
        <ele>3.4000000953674</ele>
        <time>2021-11-14T10:11:35.000Z</time>
      </trkpt>
      <trkpt lat="47.40813" lon="-2.15785">
        <ele>3.7999999523163</ele>
        <time>2021-11-14T10:11:36.000Z</time>
      </trkpt>
      <trkpt lat="47.40812" lon="-2.15792">
        <ele>4.1999998092651</ele>
        <time>2021-11-14T10:11:37.000Z</time>
      </trkpt>
      <trkpt lat="47.40812" lon="-2.15798">
        <ele>4.5999999046326</ele>
        <time>2021-11-14T10:11:38.000Z</time>
      </trkpt>
      <trkpt lat="47.40812" lon="-2.15806">
        <ele>5.1999998092651</ele>
        <time>2021-11-14T10:11:39.000Z</time>
      </trkpt>
      <trkpt lat="47.40812" lon="-2.15813">
        <ele>5.5999999046326</ele>
        <time>2021-11-14T10:11:40.000Z</time>
      </trkpt>
      <trkpt lat="47.40813" lon="-2.15822">
        <ele>5.5999999046326</ele>
        <time>2021-11-14T10:11:41.000Z</time>
      </trkpt>
      <trkpt lat="47.40814" lon="-2.1583">
        <ele>5.5999999046326</ele>
        <time>2021-11-14T10:11:42.000Z</time>
      </trkpt>
      <trkpt lat="47.40825" lon="-2.15876">
        <ele>5.5999999046326</ele>
        <time>2021-11-14T10:11:48.000Z</time>
      </trkpt>
      <trkpt lat="47.40836" lon="-2.15912">
        <ele>6</ele>
        <time>2021-11-14T10:11:53.000Z</time>
      </trkpt>
      <trkpt lat="47.40839" lon="-2.15918">
        <ele>6.4000000953674</ele>
        <time>2021-11-14T10:11:54.000Z</time>
      </trkpt>
      <trkpt lat="47.40842" lon="-2.15924">
        <ele>6.8000001907349</ele>
        <time>2021-11-14T10:11:55.000Z</time>
      </trkpt>
      <trkpt lat="47.40845" lon="-2.1593">
        <ele>7.1999998092651</ele>
        <time>2021-11-14T10:11:56.000Z</time>
      </trkpt>
      <trkpt lat="47.40849" lon="-2.15936">
        <ele>7.5999999046326</ele>
        <time>2021-11-14T10:11:57.000Z</time>
      </trkpt>
      <trkpt lat="47.40858" lon="-2.15953">
        <ele>7.5999999046326</ele>
        <time>2021-11-14T10:12:00.000Z</time>
      </trkpt>
      <trkpt lat="47.40879" lon="-2.15987">
        <ele>7.5999999046326</ele>
        <time>2021-11-14T10:12:06.000Z</time>
      </trkpt>
      <trkpt lat="47.40891" lon="-2.16008">
        <ele>7.5999999046326</ele>
        <time>2021-11-14T10:12:10.000Z</time>
      </trkpt>
      <trkpt lat="47.40893" lon="-2.16021">
        <ele>7.5999999046326</ele>
        <time>2021-11-14T10:12:12.000Z</time>
      </trkpt>
      <trkpt lat="47.40888" lon="-2.16029">
        <ele>7.5999999046326</ele>
        <time>2021-11-14T10:12:15.000Z</time>
      </trkpt>
      <trkpt lat="47.40886" lon="-2.16031">
        <ele>7.5999999046326</ele>
        <time>2021-11-14T10:12:16.000Z</time>
      </trkpt>
      <trkpt lat="47.40873" lon="-2.1604">
        <ele>7.5999999046326</ele>
        <time>2021-11-14T10:12:21.000Z</time>
      </trkpt>
      <trkpt lat="47.40866" lon="-2.16045">
        <ele>7.5999999046326</ele>
        <time>2021-11-14T10:12:26.000Z</time>
      </trkpt>
      <trkpt lat="47.40866" lon="-2.16045">
        <ele>7.5999999046326</ele>
        <time>2021-11-14T10:12:27.000Z</time>
      </trkpt>
      <trkpt lat="47.40862" lon="-2.16048">
        <ele>8.3999996185303</ele>
        <time>2021-11-14T10:12:36.000Z</time>
      </trkpt>
      <trkpt lat="47.4086" lon="-2.16049">
        <ele>9.1999998092651</ele>
        <time>2021-11-14T10:12:37.000Z</time>
      </trkpt>
      <trkpt lat="47.40859" lon="-2.1605">
        <ele>9.6000003814697</ele>
        <time>2021-11-14T10:12:38.000Z</time>
      </trkpt>
      <trkpt lat="47.40847" lon="-2.16059">
        <ele>9.6000003814697</ele>
        <time>2021-11-14T10:12:45.000Z</time>
      </trkpt>
      <trkpt lat="47.40845" lon="-2.16061">
        <ele>9.6000003814697</ele>
        <time>2021-11-14T10:12:47.000Z</time>
      </trkpt>
      <trkpt lat="47.4084" lon="-2.16058">
        <ele>9.6000003814697</ele>
        <time>2021-11-14T10:12:50.000Z</time>
      </trkpt>
      <trkpt lat="47.40832" lon="-2.16048">
        <ele>9.6000003814697</ele>
        <time>2021-11-14T10:12:55.000Z</time>
      </trkpt>
      <trkpt lat="47.40825" lon="-2.16039">
        <ele>9.6000003814697</ele>
        <time>2021-11-14T10:13:00.000Z</time>
      </trkpt>
      <trkpt lat="47.40821" lon="-2.16038">
        <ele>9.6000003814697</ele>
        <time>2021-11-14T10:13:02.000Z</time>
      </trkpt>
      <trkpt lat="47.40816" lon="-2.16039">
        <ele>9.6000003814697</ele>
        <time>2021-11-14T10:13:04.000Z</time>
      </trkpt>
      <trkpt lat="47.40806" lon="-2.16044">
        <ele>9.6000003814697</ele>
        <time>2021-11-14T10:13:07.000Z</time>
      </trkpt>
      <trkpt lat="47.4078" lon="-2.16061">
        <ele>9.6000003814697</ele>
        <time>2021-11-14T10:13:13.000Z</time>
      </trkpt>
      <trkpt lat="47.40765" lon="-2.16073">
        <ele>9.6000003814697</ele>
        <time>2021-11-14T10:13:16.000Z</time>
      </trkpt>
      <trkpt lat="47.40762" lon="-2.16084">
        <ele>9.6000003814697</ele>
        <time>2021-11-14T10:13:18.000Z</time>
      </trkpt>
      <trkpt lat="47.40766" lon="-2.16098">
        <ele>9.6000003814697</ele>
        <time>2021-11-14T10:13:21.000Z</time>
      </trkpt>
      <trkpt lat="47.40769" lon="-2.16107">
        <ele>9.6000003814697</ele>
        <time>2021-11-14T10:13:23.000Z</time>
      </trkpt>
      <trkpt lat="47.40778" lon="-2.1613">
        <ele>9.6000003814697</ele>
        <time>2021-11-14T10:13:28.000Z</time>
      </trkpt>
      <trkpt lat="47.40791" lon="-2.16162">
        <ele>9.1999998092651</ele>
        <time>2021-11-14T10:13:34.000Z</time>
      </trkpt>
      <trkpt lat="47.40793" lon="-2.16168">
        <ele>8.8000001907349</ele>
        <time>2021-11-14T10:13:35.000Z</time>
      </trkpt>
      <trkpt lat="47.40796" lon="-2.16174">
        <ele>8.3999996185303</ele>
        <time>2021-11-14T10:13:36.000Z</time>
      </trkpt>
      <trkpt lat="47.40798" lon="-2.1618">
        <ele>8</ele>
        <time>2021-11-14T10:13:37.000Z</time>
      </trkpt>
      <trkpt lat="47.408" lon="-2.16185">
        <ele>7.4000000953674</ele>
        <time>2021-11-14T10:13:38.000Z</time>
      </trkpt>
      <trkpt lat="47.40803" lon="-2.16198">
        <ele>7.4000000953674</ele>
        <time>2021-11-14T10:13:41.000Z</time>
      </trkpt>
      <trkpt lat="47.40796" lon="-2.16218">
        <ele>7.4000000953674</ele>
        <time>2021-11-14T10:13:45.000Z</time>
      </trkpt>
      <trkpt lat="47.40792" lon="-2.16224">
        <ele>7</ele>
        <time>2021-11-14T10:13:48.000Z</time>
      </trkpt>
      <trkpt lat="47.40792" lon="-2.16225">
        <ele>6.5999999046326</ele>
        <time>2021-11-14T10:13:49.000Z</time>
      </trkpt>
      <trkpt lat="47.40791" lon="-2.16225">
        <ele>5.8000001907349</ele>
        <time>2021-11-14T10:13:50.000Z</time>
      </trkpt>
      <trkpt lat="47.40789" lon="-2.16226">
        <ele>5.4000000953674</ele>
        <time>2021-11-14T10:13:51.000Z</time>
      </trkpt>
      <trkpt lat="47.40788" lon="-2.16228">
        <ele>5.4000000953674</ele>
        <time>2021-11-14T10:13:53.000Z</time>
      </trkpt>
      <trkpt lat="47.40778" lon="-2.16235">
        <ele>5.4000000953674</ele>
        <time>2021-11-14T10:13:57.000Z</time>
      </trkpt>
      <trkpt lat="47.40764" lon="-2.1625">
        <ele>5.4000000953674</ele>
        <time>2021-11-14T10:14:02.000Z</time>
      </trkpt>
      <trkpt lat="47.40763" lon="-2.16253">
        <ele>5</ele>
        <time>2021-11-14T10:14:03.000Z</time>
      </trkpt>
      <trkpt lat="47.40761" lon="-2.16255">
        <ele>4.5999999046326</ele>
        <time>2021-11-14T10:14:04.000Z</time>
      </trkpt>
      <trkpt lat="47.40759" lon="-2.16257">
        <ele>4.1999998092651</ele>
        <time>2021-11-14T10:14:05.000Z</time>
      </trkpt>
      <trkpt lat="47.40756" lon="-2.16258">
        <ele>3.7999999523163</ele>
        <time>2021-11-14T10:14:06.000Z</time>
      </trkpt>
      <trkpt lat="47.40753" lon="-2.16259">
        <ele>3.4000000953674</ele>
        <time>2021-11-14T10:14:07.000Z</time>
      </trkpt>
      <trkpt lat="47.40744" lon="-2.16269">
        <ele>3.4000000953674</ele>
        <time>2021-11-14T10:14:11.000Z</time>
      </trkpt>
      <trkpt lat="47.40743" lon="-2.16284">
        <ele>3.4000000953674</ele>
        <time>2021-11-14T10:14:15.000Z</time>
      </trkpt>
      <trkpt lat="47.40746" lon="-2.16299">
        <ele>3.4000000953674</ele>
        <time>2021-11-14T10:14:18.000Z</time>
      </trkpt>
      <trkpt lat="47.40748" lon="-2.16304">
        <ele>3.4000000953674</ele>
        <time>2021-11-14T10:14:19.000Z</time>
      </trkpt>
      <trkpt lat="47.40755" lon="-2.16313">
        <ele>3.4000000953674</ele>
        <time>2021-11-14T10:14:21.000Z</time>
      </trkpt>
      <trkpt lat="47.40768" lon="-2.16327">
        <ele>3.4000000953674</ele>
        <time>2021-11-14T10:14:24.000Z</time>
      </trkpt>
      <trkpt lat="47.40777" lon="-2.16334">
        <ele>3.4000000953674</ele>
        <time>2021-11-14T10:14:26.000Z</time>
      </trkpt>
      <trkpt lat="47.40786" lon="-2.16331">
        <ele>3.4000000953674</ele>
        <time>2021-11-14T10:14:28.000Z</time>
      </trkpt>
      <trkpt lat="47.40798" lon="-2.16321">
        <ele>3.4000000953674</ele>
        <time>2021-11-14T10:14:31.000Z</time>
      </trkpt>
      <trkpt lat="47.40811" lon="-2.16331">
        <ele>3.4000000953674</ele>
        <time>2021-11-14T10:14:34.000Z</time>
      </trkpt>
      <trkpt lat="47.40824" lon="-2.16357">
        <ele>3.7999999523163</ele>
        <time>2021-11-14T10:14:38.000Z</time>
      </trkpt>
      <trkpt lat="47.40827" lon="-2.16364">
        <ele>4.1999998092651</ele>
        <time>2021-11-14T10:14:39.000Z</time>
      </trkpt>
      <trkpt lat="47.4083" lon="-2.1637">
        <ele>5</ele>
        <time>2021-11-14T10:14:40.000Z</time>
      </trkpt>
      <trkpt lat="47.40833" lon="-2.16376">
        <ele>5.5999999046326</ele>
        <time>2021-11-14T10:14:41.000Z</time>
      </trkpt>
      <trkpt lat="47.40841" lon="-2.16391">
        <ele>5.5999999046326</ele>
        <time>2021-11-14T10:14:44.000Z</time>
      </trkpt>
      <trkpt lat="47.40843" lon="-2.16396">
        <ele>5.5999999046326</ele>
        <time>2021-11-14T10:14:45.000Z</time>
      </trkpt>
      <trkpt lat="47.40841" lon="-2.164">
        <ele>5.5999999046326</ele>
        <time>2021-11-14T10:14:46.000Z</time>
      </trkpt>
      <trkpt lat="47.40829" lon="-2.16412">
        <ele>5.5999999046326</ele>
        <time>2021-11-14T10:14:50.000Z</time>
      </trkpt>
      <trkpt lat="47.40825" lon="-2.16418">
        <ele>5.5999999046326</ele>
        <time>2021-11-14T10:14:52.000Z</time>
      </trkpt>
      <trkpt lat="47.40822" lon="-2.16419">
        <ele>5.5999999046326</ele>
        <time>2021-11-14T10:14:53.000Z</time>
      </trkpt>
      <trkpt lat="47.40808" lon="-2.16425">
        <ele>5.5999999046326</ele>
        <time>2021-11-14T10:14:57.000Z</time>
      </trkpt>
      <trkpt lat="47.40804" lon="-2.16428">
        <ele>5.5999999046326</ele>
        <time>2021-11-14T10:14:58.000Z</time>
      </trkpt>
      <trkpt lat="47.40787" lon="-2.16441">
        <ele>5.5999999046326</ele>
        <time>2021-11-14T10:15:03.000Z</time>
      </trkpt>
      <trkpt lat="47.40777" lon="-2.16454">
        <ele>5.5999999046326</ele>
        <time>2021-11-14T10:15:06.000Z</time>
      </trkpt>
      <trkpt lat="47.40775" lon="-2.1646">
        <ele>5</ele>
        <time>2021-11-14T10:15:07.000Z</time>
      </trkpt>
      <trkpt lat="47.40772" lon="-2.16465">
        <ele>4.5999999046326</ele>
        <time>2021-11-14T10:15:08.000Z</time>
      </trkpt>
      <trkpt lat="47.40769" lon="-2.1647">
        <ele>4.1999998092651</ele>
        <time>2021-11-14T10:15:09.000Z</time>
      </trkpt>
      <trkpt lat="47.40764" lon="-2.16475">
        <ele>3.7999999523163</ele>
        <time>2021-11-14T10:15:10.000Z</time>
      </trkpt>
      <trkpt lat="47.40761" lon="-2.16481">
        <ele>3.4000000953674</ele>
        <time>2021-11-14T10:15:11.000Z</time>
      </trkpt>
      <trkpt lat="47.4076" lon="-2.16497">
        <ele>3.4000000953674</ele>
        <time>2021-11-14T10:15:13.000Z</time>
      </trkpt>
      <trkpt lat="47.40764" lon="-2.1651">
        <ele>3.4000000953674</ele>
        <time>2021-11-14T10:15:15.000Z</time>
      </trkpt>
      <trkpt lat="47.40767" lon="-2.16515">
        <ele>3.4000000953674</ele>
        <time>2021-11-14T10:15:16.000Z</time>
      </trkpt>
      <trkpt lat="47.40771" lon="-2.16517">
        <ele>3.4000000953674</ele>
        <time>2021-11-14T10:15:17.000Z</time>
      </trkpt>
      <trkpt lat="47.40785" lon="-2.16515">
        <ele>3.4000000953674</ele>
        <time>2021-11-14T10:15:20.000Z</time>
      </trkpt>
      <trkpt lat="47.4079" lon="-2.16514">
        <ele>3.4000000953674</ele>
        <time>2021-11-14T10:15:21.000Z</time>
      </trkpt>
      <trkpt lat="47.40819" lon="-2.16507">
        <ele>4.4000000953674</ele>
        <time>2021-11-14T10:15:28.000Z</time>
      </trkpt>
      <trkpt lat="47.40823" lon="-2.16506">
        <ele>4.8000001907349</ele>
        <time>2021-11-14T10:15:29.000Z</time>
      </trkpt>
      <trkpt lat="47.40827" lon="-2.16506">
        <ele>5.1999998092651</ele>
        <time>2021-11-14T10:15:30.000Z</time>
      </trkpt>
      <trkpt lat="47.40831" lon="-2.16505">
        <ele>5.8000001907349</ele>
        <time>2021-11-14T10:15:31.000Z</time>
      </trkpt>
      <trkpt lat="47.40849" lon="-2.16503">
        <ele>5.8000001907349</ele>
        <time>2021-11-14T10:15:35.000Z</time>
      </trkpt>
      <trkpt lat="47.40853" lon="-2.16501">
        <ele>5.8000001907349</ele>
        <time>2021-11-14T10:15:36.000Z</time>
      </trkpt>
      <trkpt lat="47.40868" lon="-2.16497">
        <ele>5.8000001907349</ele>
        <time>2021-11-14T10:15:40.000Z</time>
      </trkpt>
      <trkpt lat="47.40879" lon="-2.16486">
        <ele>5.8000001907349</ele>
        <time>2021-11-14T10:15:43.000Z</time>
      </trkpt>
      <trkpt lat="47.40887" lon="-2.16472">
        <ele>5.8000001907349</ele>
        <time>2021-11-14T10:15:46.000Z</time>
      </trkpt>
      <trkpt lat="47.40895" lon="-2.16471">
        <ele>5.8000001907349</ele>
        <time>2021-11-14T10:15:49.000Z</time>
      </trkpt>
      <trkpt lat="47.40904" lon="-2.16471">
        <ele>5.8000001907349</ele>
        <time>2021-11-14T10:15:53.000Z</time>
      </trkpt>
      <trkpt lat="47.40916" lon="-2.16461">
        <ele>5.8000001907349</ele>
        <time>2021-11-14T10:15:58.000Z</time>
      </trkpt>
      <trkpt lat="47.40915" lon="-2.16454">
        <ele>5.8000001907349</ele>
        <time>2021-11-14T10:16:01.000Z</time>
      </trkpt>
      <trkpt lat="47.40914" lon="-2.16447">
        <ele>5.8000001907349</ele>
        <time>2021-11-14T10:16:03.000Z</time>
      </trkpt>
      <trkpt lat="47.40911" lon="-2.16437">
        <ele>5.8000001907349</ele>
        <time>2021-11-14T10:16:06.000Z</time>
      </trkpt>
      <trkpt lat="47.40908" lon="-2.16421">
        <ele>5.8000001907349</ele>
        <time>2021-11-14T10:16:11.000Z</time>
      </trkpt>
      <trkpt lat="47.40903" lon="-2.1641">
        <ele>5.8000001907349</ele>
        <time>2021-11-14T10:16:16.000Z</time>
      </trkpt>
      <trkpt lat="47.4091" lon="-2.16395">
        <ele>5.8000001907349</ele>
        <time>2021-11-14T10:16:20.000Z</time>
      </trkpt>
      <trkpt lat="47.40917" lon="-2.16388">
        <ele>5.8000001907349</ele>
        <time>2021-11-14T10:16:22.000Z</time>
      </trkpt>
      <trkpt lat="47.40922" lon="-2.1638">
        <ele>5.8000001907349</ele>
        <time>2021-11-14T10:16:24.000Z</time>
      </trkpt>
      <trkpt lat="47.40924" lon="-2.16375">
        <ele>5.8000001907349</ele>
        <time>2021-11-14T10:16:25.000Z</time>
      </trkpt>
      <trkpt lat="47.40928" lon="-2.16365">
        <ele>5.8000001907349</ele>
        <time>2021-11-14T10:16:28.000Z</time>
      </trkpt>
      <trkpt lat="47.4093" lon="-2.16364">
        <ele>5.8000001907349</ele>
        <time>2021-11-14T10:16:29.000Z</time>
      </trkpt>
      <trkpt lat="47.40943" lon="-2.16351">
        <ele>5.8000001907349</ele>
        <time>2021-11-14T10:16:34.000Z</time>
      </trkpt>
      <trkpt lat="47.40948" lon="-2.16339">
        <ele>6.1999998092651</ele>
        <time>2021-11-14T10:16:37.000Z</time>
      </trkpt>
      <trkpt lat="47.4095" lon="-2.16336">
        <ele>6.5999999046326</ele>
        <time>2021-11-14T10:16:38.000Z</time>
      </trkpt>
      <trkpt lat="47.40952" lon="-2.16334">
        <ele>7</ele>
        <time>2021-11-14T10:16:39.000Z</time>
      </trkpt>
      <trkpt lat="47.40956" lon="-2.16332">
        <ele>7.4000000953674</ele>
        <time>2021-11-14T10:16:40.000Z</time>
      </trkpt>
      <trkpt lat="47.40959" lon="-2.1633">
        <ele>7.8000001907349</ele>
        <time>2021-11-14T10:16:41.000Z</time>
      </trkpt>
      <trkpt lat="47.40961" lon="-2.16327">
        <ele>7.8000001907349</ele>
        <time>2021-11-14T10:16:42.000Z</time>
      </trkpt>
      <trkpt lat="47.40973" lon="-2.16316">
        <ele>7.8000001907349</ele>
        <time>2021-11-14T10:16:46.000Z</time>
      </trkpt>
      <trkpt lat="47.40976" lon="-2.16314">
        <ele>7.8000001907349</ele>
        <time>2021-11-14T10:16:47.000Z</time>
      </trkpt>
      <trkpt lat="47.40987" lon="-2.16304">
        <ele>7.8000001907349</ele>
        <time>2021-11-14T10:16:51.000Z</time>
      </trkpt>
      <trkpt lat="47.40994" lon="-2.1631">
        <ele>7.8000001907349</ele>
        <time>2021-11-14T10:16:54.000Z</time>
      </trkpt>
      <trkpt lat="47.41005" lon="-2.16314">
        <ele>7.8000001907349</ele>
        <time>2021-11-14T10:16:59.000Z</time>
      </trkpt>
      <trkpt lat="47.41018" lon="-2.16305">
        <ele>7.8000001907349</ele>
        <time>2021-11-14T10:17:04.000Z</time>
      </trkpt>
      <trkpt lat="47.41021" lon="-2.16303">
        <ele>7.8000001907349</ele>
        <time>2021-11-14T10:17:05.000Z</time>
      </trkpt>
      <trkpt lat="47.41027" lon="-2.16302">
        <ele>7.8000001907349</ele>
        <time>2021-11-14T10:17:07.000Z</time>
      </trkpt>
      <trkpt lat="47.41034" lon="-2.16304">
        <ele>7.8000001907349</ele>
        <time>2021-11-14T10:17:09.000Z</time>
      </trkpt>
      <trkpt lat="47.4105" lon="-2.1631">
        <ele>7.8000001907349</ele>
        <time>2021-11-14T10:17:14.000Z</time>
      </trkpt>
      <trkpt lat="47.41064" lon="-2.16309">
        <ele>7.8000001907349</ele>
        <time>2021-11-14T10:17:18.000Z</time>
      </trkpt>
      <trkpt lat="47.41088" lon="-2.1631">
        <ele>7.8000001907349</ele>
        <time>2021-11-14T10:17:24.000Z</time>
      </trkpt>
      <trkpt lat="47.41106" lon="-2.16305">
        <ele>7.4000000953674</ele>
        <time>2021-11-14T10:17:29.000Z</time>
      </trkpt>
      <trkpt lat="47.4111" lon="-2.16306">
        <ele>7</ele>
        <time>2021-11-14T10:17:30.000Z</time>
      </trkpt>
      <trkpt lat="47.41113" lon="-2.16307">
        <ele>6.1999998092651</ele>
        <time>2021-11-14T10:17:31.000Z</time>
      </trkpt>
      <trkpt lat="47.41116" lon="-2.16308">
        <ele>5.8000001907349</ele>
        <time>2021-11-14T10:17:32.000Z</time>
      </trkpt>
      <trkpt lat="47.41126" lon="-2.16315">
        <ele>5.8000001907349</ele>
        <time>2021-11-14T10:17:35.000Z</time>
      </trkpt>
      <trkpt lat="47.41137" lon="-2.16322">
        <ele>5.8000001907349</ele>
        <time>2021-11-14T10:17:40.000Z</time>
      </trkpt>
      <trkpt lat="47.41141" lon="-2.16328">
        <ele>5.8000001907349</ele>
        <time>2021-11-14T10:17:44.000Z</time>
      </trkpt>
      <trkpt lat="47.41143" lon="-2.16328">
        <ele>5.8000001907349</ele>
        <time>2021-11-14T10:17:45.000Z</time>
      </trkpt>
      <trkpt lat="47.41152" lon="-2.16334">
        <ele>5.8000001907349</ele>
        <time>2021-11-14T10:17:48.000Z</time>
      </trkpt>
      <trkpt lat="47.41158" lon="-2.16336">
        <ele>5.4000000953674</ele>
        <time>2021-11-14T10:17:50.000Z</time>
      </trkpt>
      <trkpt lat="47.41161" lon="-2.16338">
        <ele>5</ele>
        <time>2021-11-14T10:17:51.000Z</time>
      </trkpt>
      <trkpt lat="47.41162" lon="-2.16339">
        <ele>4.5999999046326</ele>
        <time>2021-11-14T10:17:52.000Z</time>
      </trkpt>
      <trkpt lat="47.41164" lon="-2.1634">
        <ele>4</ele>
        <time>2021-11-14T10:17:53.000Z</time>
      </trkpt>
      <trkpt lat="47.41166" lon="-2.1634">
        <ele>3.5999999046326</ele>
        <time>2021-11-14T10:17:54.000Z</time>
      </trkpt>
      <trkpt lat="47.41168" lon="-2.1634">
        <ele>3.5999999046326</ele>
        <time>2021-11-14T10:17:55.000Z</time>
      </trkpt>
      <trkpt lat="47.41171" lon="-2.16335">
        <ele>3.5999999046326</ele>
        <time>2021-11-14T10:17:58.000Z</time>
      </trkpt>
      <trkpt lat="47.41172" lon="-2.1633">
        <ele>3.5999999046326</ele>
        <time>2021-11-14T10:18:00.000Z</time>
      </trkpt>
      <trkpt lat="47.41175" lon="-2.16317">
        <ele>3.5999999046326</ele>
        <time>2021-11-14T10:18:04.000Z</time>
      </trkpt>
      <trkpt lat="47.41181" lon="-2.16303">
        <ele>3.5999999046326</ele>
        <time>2021-11-14T10:18:08.000Z</time>
      </trkpt>
      <trkpt lat="47.41183" lon="-2.16301">
        <ele>3.5999999046326</ele>
        <time>2021-11-14T10:18:09.000Z</time>
      </trkpt>
      <trkpt lat="47.41185" lon="-2.163">
        <ele>3.5999999046326</ele>
        <time>2021-11-14T10:18:10.000Z</time>
      </trkpt>
      <trkpt lat="47.41189" lon="-2.16303">
        <ele>3.5999999046326</ele>
        <time>2021-11-14T10:18:13.000Z</time>
      </trkpt>
      <trkpt lat="47.41195" lon="-2.1632">
        <ele>3.5999999046326</ele>
        <time>2021-11-14T10:18:18.000Z</time>
      </trkpt>
      <trkpt lat="47.41191" lon="-2.16339">
        <ele>3.5999999046326</ele>
        <time>2021-11-14T10:18:22.000Z</time>
      </trkpt>
      <trkpt lat="47.41188" lon="-2.16346">
        <ele>3.5999999046326</ele>
        <time>2021-11-14T10:18:24.000Z</time>
      </trkpt>
      <trkpt lat="47.41184" lon="-2.16354">
        <ele>3.5999999046326</ele>
        <time>2021-11-14T10:18:28.000Z</time>
      </trkpt>
      <trkpt lat="47.41186" lon="-2.16368">
        <ele>3.5999999046326</ele>
        <time>2021-11-14T10:18:31.000Z</time>
      </trkpt>
      <trkpt lat="47.41179" lon="-2.16384">
        <ele>3.5999999046326</ele>
        <time>2021-11-14T10:18:35.000Z</time>
      </trkpt>
      <trkpt lat="47.41171" lon="-2.16389">
        <ele>3.5999999046326</ele>
        <time>2021-11-14T10:18:39.000Z</time>
      </trkpt>
      <trkpt lat="47.41162" lon="-2.16386">
        <ele>3.5999999046326</ele>
        <time>2021-11-14T10:18:43.000Z</time>
      </trkpt>
      <trkpt lat="47.41155" lon="-2.16373">
        <ele>3.5999999046326</ele>
        <time>2021-11-14T10:18:48.000Z</time>
      </trkpt>
      <trkpt lat="47.41146" lon="-2.16367">
        <ele>3.5999999046326</ele>
        <time>2021-11-14T10:18:52.000Z</time>
      </trkpt>
      <trkpt lat="47.41145" lon="-2.16365">
        <ele>3.5999999046326</ele>
        <time>2021-11-14T10:18:53.000Z</time>
      </trkpt>
      <trkpt lat="47.41143" lon="-2.16361">
        <ele>3.5999999046326</ele>
        <time>2021-11-14T10:18:54.000Z</time>
      </trkpt>
      <trkpt lat="47.41142" lon="-2.16355">
        <ele>3.5999999046326</ele>
        <time>2021-11-14T10:18:56.000Z</time>
      </trkpt>
      <trkpt lat="47.41136" lon="-2.16343">
        <ele>3.5999999046326</ele>
        <time>2021-11-14T10:19:00.000Z</time>
      </trkpt>
      <trkpt lat="47.41131" lon="-2.16333">
        <ele>3.5999999046326</ele>
        <time>2021-11-14T10:19:05.000Z</time>
      </trkpt>
      <trkpt lat="47.41126" lon="-2.16322">
        <ele>3.5999999046326</ele>
        <time>2021-11-14T10:19:11.000Z</time>
      </trkpt>
      <trkpt lat="47.41121" lon="-2.16318">
        <ele>3.5999999046326</ele>
        <time>2021-11-14T10:19:14.000Z</time>
      </trkpt>
      <trkpt lat="47.41118" lon="-2.16319">
        <ele>3.5999999046326</ele>
        <time>2021-11-14T10:19:15.000Z</time>
      </trkpt>
      <trkpt lat="47.41112" lon="-2.16323">
        <ele>4.1999998092651</ele>
        <time>2021-11-14T10:19:18.000Z</time>
      </trkpt>
      <trkpt lat="47.41112" lon="-2.16325">
        <ele>4.5999999046326</ele>
        <time>2021-11-14T10:19:19.000Z</time>
      </trkpt>
      <trkpt lat="47.41112" lon="-2.16327">
        <ele>5</ele>
        <time>2021-11-14T10:19:20.000Z</time>
      </trkpt>
      <trkpt lat="47.41113" lon="-2.1633">
        <ele>5.4000000953674</ele>
        <time>2021-11-14T10:19:21.000Z</time>
      </trkpt>
      <trkpt lat="47.41114" lon="-2.16334">
        <ele>5.8000001907349</ele>
        <time>2021-11-14T10:19:22.000Z</time>
      </trkpt>
      <trkpt lat="47.41117" lon="-2.16339">
        <ele>5.8000001907349</ele>
        <time>2021-11-14T10:19:24.000Z</time>
      </trkpt>
      <trkpt lat="47.41124" lon="-2.16351">
        <ele>5.8000001907349</ele>
        <time>2021-11-14T10:19:28.000Z</time>
      </trkpt>
      <trkpt lat="47.41124" lon="-2.16353">
        <ele>5.8000001907349</ele>
        <time>2021-11-14T10:19:29.000Z</time>
      </trkpt>
      <trkpt lat="47.41123" lon="-2.16356">
        <ele>5.8000001907349</ele>
        <time>2021-11-14T10:19:31.000Z</time>
      </trkpt>
      <trkpt lat="47.41119" lon="-2.16358">
        <ele>5.8000001907349</ele>
        <time>2021-11-14T10:19:33.000Z</time>
      </trkpt>
      <trkpt lat="47.41116" lon="-2.16362">
        <ele>5.8000001907349</ele>
        <time>2021-11-14T10:19:35.000Z</time>
      </trkpt>
      <trkpt lat="47.41112" lon="-2.16366">
        <ele>5.8000001907349</ele>
        <time>2021-11-14T10:19:37.000Z</time>
      </trkpt>
      <trkpt lat="47.41105" lon="-2.16367">
        <ele>5.8000001907349</ele>
        <time>2021-11-14T10:19:40.000Z</time>
      </trkpt>
      <trkpt lat="47.41101" lon="-2.16363">
        <ele>5.8000001907349</ele>
        <time>2021-11-14T10:19:42.000Z</time>
      </trkpt>
      <trkpt lat="47.411" lon="-2.16354">
        <ele>5.8000001907349</ele>
        <time>2021-11-14T10:19:45.000Z</time>
      </trkpt>
      <trkpt lat="47.41097" lon="-2.1635">
        <ele>5.8000001907349</ele>
        <time>2021-11-14T10:19:49.000Z</time>
      </trkpt>
      <trkpt lat="47.41092" lon="-2.16345">
        <ele>5.8000001907349</ele>
        <time>2021-11-14T10:19:52.000Z</time>
      </trkpt>
      <trkpt lat="47.41086" lon="-2.16341">
        <ele>5.8000001907349</ele>
        <time>2021-11-14T10:19:55.000Z</time>
      </trkpt>
      <trkpt lat="47.41069" lon="-2.16329">
        <ele>5.8000001907349</ele>
        <time>2021-11-14T10:20:00.000Z</time>
      </trkpt>
      <trkpt lat="47.41066" lon="-2.16331">
        <ele>6.1999998092651</ele>
        <time>2021-11-14T10:20:01.000Z</time>
      </trkpt>
      <trkpt lat="47.41063" lon="-2.16332">
        <ele>6.5999999046326</ele>
        <time>2021-11-14T10:20:02.000Z</time>
      </trkpt>
      <trkpt lat="47.4106" lon="-2.16334">
        <ele>7</ele>
        <time>2021-11-14T10:20:03.000Z</time>
      </trkpt>
      <trkpt lat="47.41058" lon="-2.16336">
        <ele>7.4000000953674</ele>
        <time>2021-11-14T10:20:04.000Z</time>
      </trkpt>
      <trkpt lat="47.41055" lon="-2.16336">
        <ele>7.8000001907349</ele>
        <time>2021-11-14T10:20:05.000Z</time>
      </trkpt>
      <trkpt lat="47.41052" lon="-2.16333">
        <ele>7.8000001907349</ele>
        <time>2021-11-14T10:20:07.000Z</time>
      </trkpt>
      <trkpt lat="47.41049" lon="-2.16329">
        <ele>7.8000001907349</ele>
        <time>2021-11-14T10:20:09.000Z</time>
      </trkpt>
      <trkpt lat="47.41044" lon="-2.16325">
        <ele>7.8000001907349</ele>
        <time>2021-11-14T10:20:11.000Z</time>
      </trkpt>
      <trkpt lat="47.41037" lon="-2.16324">
        <ele>7.8000001907349</ele>
        <time>2021-11-14T10:20:13.000Z</time>
      </trkpt>
      <trkpt lat="47.41033" lon="-2.16325">
        <ele>7.8000001907349</ele>
        <time>2021-11-14T10:20:16.000Z</time>
      </trkpt>
      <trkpt lat="47.41028" lon="-2.16329">
        <ele>7.8000001907349</ele>
        <time>2021-11-14T10:20:19.000Z</time>
      </trkpt>
      <trkpt lat="47.41026" lon="-2.16331">
        <ele>7.8000001907349</ele>
        <time>2021-11-14T10:20:20.000Z</time>
      </trkpt>
      <trkpt lat="47.41023" lon="-2.16336">
        <ele>7.8000001907349</ele>
        <time>2021-11-14T10:20:22.000Z</time>
      </trkpt>
      <trkpt lat="47.41021" lon="-2.16335">
        <ele>7.8000001907349</ele>
        <time>2021-11-14T10:20:23.000Z</time>
      </trkpt>
      <trkpt lat="47.41015" lon="-2.16336">
        <ele>7.8000001907349</ele>
        <time>2021-11-14T10:20:25.000Z</time>
      </trkpt>
      <trkpt lat="47.41009" lon="-2.16342">
        <ele>7.8000001907349</ele>
        <time>2021-11-14T10:20:27.000Z</time>
      </trkpt>
      <trkpt lat="47.41" lon="-2.16348">
        <ele>7.8000001907349</ele>
        <time>2021-11-14T10:20:30.000Z</time>
      </trkpt>
      <trkpt lat="47.40975" lon="-2.16358">
        <ele>7.8000001907349</ele>
        <time>2021-11-14T10:20:36.000Z</time>
      </trkpt>
      <trkpt lat="47.4096" lon="-2.16374">
        <ele>7.8000001907349</ele>
        <time>2021-11-14T10:20:41.000Z</time>
      </trkpt>
      <trkpt lat="47.40959" lon="-2.16383">
        <ele>7.8000001907349</ele>
        <time>2021-11-14T10:20:43.000Z</time>
      </trkpt>
      <trkpt lat="47.40959" lon="-2.16386">
        <ele>7.8000001907349</ele>
        <time>2021-11-14T10:20:44.000Z</time>
      </trkpt>
      <trkpt lat="47.40962" lon="-2.16404">
        <ele>7</ele>
        <time>2021-11-14T10:20:48.000Z</time>
      </trkpt>
      <trkpt lat="47.40964" lon="-2.16409">
        <ele>6.5999999046326</ele>
        <time>2021-11-14T10:20:49.000Z</time>
      </trkpt>
      <trkpt lat="47.40965" lon="-2.16412">
        <ele>6.1999998092651</ele>
        <time>2021-11-14T10:20:50.000Z</time>
      </trkpt>
      <trkpt lat="47.40967" lon="-2.16414">
        <ele>5.8000001907349</ele>
        <time>2021-11-14T10:20:51.000Z</time>
      </trkpt>
      <trkpt lat="47.4097" lon="-2.16414">
        <ele>5.8000001907349</ele>
        <time>2021-11-14T10:20:52.000Z</time>
      </trkpt>
      <trkpt lat="47.40975" lon="-2.16411">
        <ele>5.8000001907349</ele>
        <time>2021-11-14T10:20:54.000Z</time>
      </trkpt>
      <trkpt lat="47.40987" lon="-2.16411">
        <ele>5.8000001907349</ele>
        <time>2021-11-14T10:20:58.000Z</time>
      </trkpt>
      <trkpt lat="47.40989" lon="-2.16414">
        <ele>5.8000001907349</ele>
        <time>2021-11-14T10:20:59.000Z</time>
      </trkpt>
      <trkpt lat="47.41" lon="-2.16415">
        <ele>5.8000001907349</ele>
        <time>2021-11-14T10:21:02.000Z</time>
      </trkpt>
      <trkpt lat="47.41002" lon="-2.16412">
        <ele>5.8000001907349</ele>
        <time>2021-11-14T10:21:03.000Z</time>
      </trkpt>
      <trkpt lat="47.41009" lon="-2.16398">
        <ele>5.8000001907349</ele>
        <time>2021-11-14T10:21:07.000Z</time>
      </trkpt>
      <trkpt lat="47.4101" lon="-2.16391">
        <ele>5.8000001907349</ele>
        <time>2021-11-14T10:21:10.000Z</time>
      </trkpt>
      <trkpt lat="47.4101" lon="-2.16389">
        <ele>5.8000001907349</ele>
        <time>2021-11-14T10:21:11.000Z</time>
      </trkpt>
      <trkpt lat="47.41012" lon="-2.16394">
        <ele>5.8000001907349</ele>
        <time>2021-11-14T10:21:15.000Z</time>
      </trkpt>
      <trkpt lat="47.41011" lon="-2.16408">
        <ele>5.8000001907349</ele>
        <time>2021-11-14T10:21:20.000Z</time>
      </trkpt>
      <trkpt lat="47.41007" lon="-2.16425">
        <ele>5.8000001907349</ele>
        <time>2021-11-14T10:21:25.000Z</time>
      </trkpt>
      <trkpt lat="47.41007" lon="-2.16435">
        <ele>5.8000001907349</ele>
        <time>2021-11-14T10:21:27.000Z</time>
      </trkpt>
      <trkpt lat="47.41008" lon="-2.16438">
        <ele>5.4000000953674</ele>
        <time>2021-11-14T10:21:28.000Z</time>
      </trkpt>
      <trkpt lat="47.41009" lon="-2.16442">
        <ele>5</ele>
        <time>2021-11-14T10:21:29.000Z</time>
      </trkpt>
      <trkpt lat="47.4101" lon="-2.16445">
        <ele>4.5999999046326</ele>
        <time>2021-11-14T10:21:30.000Z</time>
      </trkpt>
      <trkpt lat="47.4101" lon="-2.16447">
        <ele>4</ele>
        <time>2021-11-14T10:21:31.000Z</time>
      </trkpt>
      <trkpt lat="47.41012" lon="-2.1645">
        <ele>3.5999999046326</ele>
        <time>2021-11-14T10:21:32.000Z</time>
      </trkpt>
      <trkpt lat="47.41016" lon="-2.16455">
        <ele>3.5999999046326</ele>
        <time>2021-11-14T10:21:34.000Z</time>
      </trkpt>
      <trkpt lat="47.41022" lon="-2.16456">
        <ele>3.5999999046326</ele>
        <time>2021-11-14T10:21:36.000Z</time>
      </trkpt>
      <trkpt lat="47.41027" lon="-2.16459">
        <ele>3.5999999046326</ele>
        <time>2021-11-14T10:21:38.000Z</time>
      </trkpt>
      <trkpt lat="47.41036" lon="-2.16475">
        <ele>3.5999999046326</ele>
        <time>2021-11-14T10:21:43.000Z</time>
      </trkpt>
      <trkpt lat="47.41038" lon="-2.16492">
        <ele>3.5999999046326</ele>
        <time>2021-11-14T10:21:47.000Z</time>
      </trkpt>
      <trkpt lat="47.4104" lon="-2.16497">
        <ele>3.5999999046326</ele>
        <time>2021-11-14T10:21:48.000Z</time>
      </trkpt>
      <trkpt lat="47.41043" lon="-2.16508">
        <ele>3.5999999046326</ele>
        <time>2021-11-14T10:21:50.000Z</time>
      </trkpt>
      <trkpt lat="47.41041" lon="-2.16518">
        <ele>3.5999999046326</ele>
        <time>2021-11-14T10:21:52.000Z</time>
      </trkpt>
      <trkpt lat="47.41038" lon="-2.1653">
        <ele>3.5999999046326</ele>
        <time>2021-11-14T10:21:54.000Z</time>
      </trkpt>
      <trkpt lat="47.41034" lon="-2.16537">
        <ele>3.2000000476837</ele>
        <time>2021-11-14T10:21:56.000Z</time>
      </trkpt>
      <trkpt lat="47.41031" lon="-2.16538">
        <ele>2.7999999523163</ele>
        <time>2021-11-14T10:21:57.000Z</time>
      </trkpt>
      <trkpt lat="47.41028" lon="-2.16536">
        <ele>2.4000000953674</ele>
        <time>2021-11-14T10:21:58.000Z</time>
      </trkpt>
      <trkpt lat="47.41026" lon="-2.16533">
        <ele>2</ele>
        <time>2021-11-14T10:21:59.000Z</time>
      </trkpt>
      <trkpt lat="47.41023" lon="-2.16529">
        <ele>1.6000000238419</ele>
        <time>2021-11-14T10:22:00.000Z</time>
      </trkpt>
      <trkpt lat="47.41021" lon="-2.16525">
        <ele>1.6000000238419</ele>
        <time>2021-11-14T10:22:01.000Z</time>
      </trkpt>
      <trkpt lat="47.41018" lon="-2.1652">
        <ele>1.6000000238419</ele>
        <time>2021-11-14T10:22:03.000Z</time>
      </trkpt>
      <trkpt lat="47.41017" lon="-2.16517">
        <ele>1.6000000238419</ele>
        <time>2021-11-14T10:22:04.000Z</time>
      </trkpt>
      <trkpt lat="47.4101" lon="-2.16509">
        <ele>1.6000000238419</ele>
        <time>2021-11-14T10:22:08.000Z</time>
      </trkpt>
      <trkpt lat="47.41006" lon="-2.165">
        <ele>1.6000000238419</ele>
        <time>2021-11-14T10:22:12.000Z</time>
      </trkpt>
      <trkpt lat="47.41003" lon="-2.16498">
        <ele>1.6000000238419</ele>
        <time>2021-11-14T10:22:13.000Z</time>
      </trkpt>
      <trkpt lat="47.41001" lon="-2.16494">
        <ele>1.6000000238419</ele>
        <time>2021-11-14T10:22:15.000Z</time>
      </trkpt>
      <trkpt lat="47.40998" lon="-2.16487">
        <ele>1.6000000238419</ele>
        <time>2021-11-14T10:22:17.000Z</time>
      </trkpt>
      <trkpt lat="47.40987" lon="-2.1647">
        <ele>1.6000000238419</ele>
        <time>2021-11-14T10:22:22.000Z</time>
      </trkpt>
      <trkpt lat="47.40986" lon="-2.16466">
        <ele>1.6000000238419</ele>
        <time>2021-11-14T10:22:23.000Z</time>
      </trkpt>
      <trkpt lat="47.40982" lon="-2.16458">
        <ele>2</ele>
        <time>2021-11-14T10:22:26.000Z</time>
      </trkpt>
      <trkpt lat="47.40979" lon="-2.16457">
        <ele>2.7999999523163</ele>
        <time>2021-11-14T10:22:27.000Z</time>
      </trkpt>
      <trkpt lat="47.40977" lon="-2.16455">
        <ele>3.4000000953674</ele>
        <time>2021-11-14T10:22:28.000Z</time>
      </trkpt>
      <trkpt lat="47.40975" lon="-2.16454">
        <ele>3.7999999523163</ele>
        <time>2021-11-14T10:22:29.000Z</time>
      </trkpt>
      <trkpt lat="47.4097" lon="-2.1646">
        <ele>3.7999999523163</ele>
        <time>2021-11-14T10:22:31.000Z</time>
      </trkpt>
      <trkpt lat="47.4097" lon="-2.16472">
        <ele>3.7999999523163</ele>
        <time>2021-11-14T10:22:34.000Z</time>
      </trkpt>
      <trkpt lat="47.4097" lon="-2.16475">
        <ele>3.7999999523163</ele>
        <time>2021-11-14T10:22:35.000Z</time>
      </trkpt>
      <trkpt lat="47.40969" lon="-2.16479">
        <ele>3.7999999523163</ele>
        <time>2021-11-14T10:22:36.000Z</time>
      </trkpt>
      <trkpt lat="47.40965" lon="-2.16485">
        <ele>3.7999999523163</ele>
        <time>2021-11-14T10:22:38.000Z</time>
      </trkpt>
      <trkpt lat="47.40962" lon="-2.16478">
        <ele>3.7999999523163</ele>
        <time>2021-11-14T10:22:41.000Z</time>
      </trkpt>
      <trkpt lat="47.40962" lon="-2.16476">
        <ele>3.7999999523163</ele>
        <time>2021-11-14T10:22:42.000Z</time>
      </trkpt>
      <trkpt lat="47.40961" lon="-2.16472">
        <ele>3.7999999523163</ele>
        <time>2021-11-14T10:22:43.000Z</time>
      </trkpt>
      <trkpt lat="47.40954" lon="-2.16462">
        <ele>3.7999999523163</ele>
        <time>2021-11-14T10:22:47.000Z</time>
      </trkpt>
      <trkpt lat="47.40949" lon="-2.16461">
        <ele>3.7999999523163</ele>
        <time>2021-11-14T10:22:49.000Z</time>
      </trkpt>
      <trkpt lat="47.40939" lon="-2.16457">
        <ele>3.7999999523163</ele>
        <time>2021-11-14T10:22:53.000Z</time>
      </trkpt>
      <trkpt lat="47.40935" lon="-2.16457">
        <ele>3.7999999523163</ele>
        <time>2021-11-14T10:22:54.000Z</time>
      </trkpt>
      <trkpt lat="47.40929" lon="-2.1646">
        <ele>3.7999999523163</ele>
        <time>2021-11-14T10:22:57.000Z</time>
      </trkpt>
      <trkpt lat="47.40933" lon="-2.16471">
        <ele>3.7999999523163</ele>
        <time>2021-11-14T10:23:01.000Z</time>
      </trkpt>
      <trkpt lat="47.40937" lon="-2.16479">
        <ele>3.7999999523163</ele>
        <time>2021-11-14T10:23:03.000Z</time>
      </trkpt>
      <trkpt lat="47.4094" lon="-2.16494">
        <ele>3.7999999523163</ele>
        <time>2021-11-14T10:23:06.000Z</time>
      </trkpt>
      <trkpt lat="47.40944" lon="-2.16515">
        <ele>3.7999999523163</ele>
        <time>2021-11-14T10:23:10.000Z</time>
      </trkpt>
      <trkpt lat="47.40947" lon="-2.16519">
        <ele>3.7999999523163</ele>
        <time>2021-11-14T10:23:11.000Z</time>
      </trkpt>
      <trkpt lat="47.40955" lon="-2.16528">
        <ele>3.7999999523163</ele>
        <time>2021-11-14T10:23:14.000Z</time>
      </trkpt>
      <trkpt lat="47.40956" lon="-2.16534">
        <ele>3</ele>
        <time>2021-11-14T10:23:16.000Z</time>
      </trkpt>
      <trkpt lat="47.40954" lon="-2.16539">
        <ele>2.5999999046326</ele>
        <time>2021-11-14T10:23:17.000Z</time>
      </trkpt>
      <trkpt lat="47.40952" lon="-2.16545">
        <ele>2.2000000476837</ele>
        <time>2021-11-14T10:23:18.000Z</time>
      </trkpt>
      <trkpt lat="47.40954" lon="-2.16549">
        <ele>1.7999999523163</ele>
        <time>2021-11-14T10:23:19.000Z</time>
      </trkpt>
      <trkpt lat="47.40956" lon="-2.1655">
        <ele>1.7999999523163</ele>
        <time>2021-11-14T10:23:20.000Z</time>
      </trkpt>
      <trkpt lat="47.40959" lon="-2.16553">
        <ele>1.7999999523163</ele>
        <time>2021-11-14T10:23:21.000Z</time>
      </trkpt>
      <trkpt lat="47.40969" lon="-2.16565">
        <ele>1.7999999523163</ele>
        <time>2021-11-14T10:23:25.000Z</time>
      </trkpt>
      <trkpt lat="47.40972" lon="-2.16568">
        <ele>1.2000000476837</ele>
        <time>2021-11-14T10:23:26.000Z</time>
      </trkpt>
      <trkpt lat="47.40974" lon="-2.16572">
        <ele>0.80000001192093</ele>
        <time>2021-11-14T10:23:27.000Z</time>
      </trkpt>
      <trkpt lat="47.40978" lon="-2.16572">
        <ele>0.40000000596046</ele>
        <time>2021-11-14T10:23:28.000Z</time>
      </trkpt>
      <trkpt lat="47.40981" lon="-2.16572">
        <ele>3.4</ele>
        <time>2021-11-14T10:23:29.000Z</time>
      </trkpt>
      <trkpt lat="47.40981" lon="-2.16574">
        <ele>-0.40000000596046</ele>
        <time>2021-11-14T10:23:30.000Z</time>
      </trkpt>
      <trkpt lat="47.40981" lon="-2.16572">
        <ele>-0.40000000596046</ele>
        <time>2021-11-14T10:23:31.000Z</time>
      </trkpt>
      <trkpt lat="47.40981" lon="-2.16568">
        <ele>-0.40000000596046</ele>
        <time>2021-11-14T10:23:32.000Z</time>
      </trkpt>
      <trkpt lat="47.40984" lon="-2.16554">
        <ele>-0.40000000596046</ele>
        <time>2021-11-14T10:23:37.000Z</time>
      </trkpt>
      <trkpt lat="47.40989" lon="-2.1655">
        <ele>-0.40000000596046</ele>
        <time>2021-11-14T10:23:42.000Z</time>
      </trkpt>
      <trkpt lat="47.4099" lon="-2.16551">
        <ele>-0.40000000596046</ele>
        <time>2021-11-14T10:23:43.000Z</time>
      </trkpt>
      <trkpt lat="47.40993" lon="-2.16551">
        <ele>-0.40000000596046</ele>
        <time>2021-11-14T10:23:46.000Z</time>
      </trkpt>
      <trkpt lat="47.40999" lon="-2.16551">
        <ele>-0.40000000596046</ele>
        <time>2021-11-14T10:23:48.000Z</time>
      </trkpt>
      <trkpt lat="47.41016" lon="-2.16548">
        <ele>-0.40000000596046</ele>
        <time>2021-11-14T10:23:53.000Z</time>
      </trkpt>
      <trkpt lat="47.41034" lon="-2.16559">
        <ele>-0.40000000596046</ele>
        <time>2021-11-14T10:23:57.000Z</time>
      </trkpt>
      <trkpt lat="47.41037" lon="-2.16566">
        <ele>-0.40000000596046</ele>
        <time>2021-11-14T10:23:58.000Z</time>
      </trkpt>
      <trkpt lat="47.41045" lon="-2.16583">
        <ele>-0.40000000596046</ele>
        <time>2021-11-14T10:24:01.000Z</time>
      </trkpt>
      <trkpt lat="47.4105" lon="-2.16588">
        <ele>-0.40000000596046</ele>
        <time>2021-11-14T10:24:02.000Z</time>
      </trkpt>
      <trkpt lat="47.41064" lon="-2.16591">
        <ele>-0.40000000596046</ele>
        <time>2021-11-14T10:24:05.000Z</time>
      </trkpt>
      <trkpt lat="47.4107" lon="-2.1659">
        <ele>-0.40000000596046</ele>
        <time>2021-11-14T10:24:06.000Z</time>
      </trkpt>
      <trkpt lat="47.41075" lon="-2.16588">
        <ele>-0.40000000596046</ele>
        <time>2021-11-14T10:24:07.000Z</time>
      </trkpt>
      <trkpt lat="47.41094" lon="-2.16578">
        <ele>-0.40000000596046</ele>
        <time>2021-11-14T10:24:11.000Z</time>
      </trkpt>
      <trkpt lat="47.41095" lon="-2.16566">
        <ele>-0.40000000596046</ele>
        <time>2021-11-14T10:24:14.000Z</time>
      </trkpt>
      <trkpt lat="47.41101" lon="-2.16541">
        <ele>-0.40000000596046</ele>
        <time>2021-11-14T10:24:20.000Z</time>
      </trkpt>
      <trkpt lat="47.41106" lon="-2.16535">
        <ele>4.7</ele>
        <time>2021-11-14T10:24:22.000Z</time>
      </trkpt>
      <trkpt lat="47.4111" lon="-2.16532">
        <ele>0.40000000596046</ele>
        <time>2021-11-14T10:24:23.000Z</time>
      </trkpt>
      <trkpt lat="47.41114" lon="-2.16529">
        <ele>0.80000001192093</ele>
        <time>2021-11-14T10:24:24.000Z</time>
      </trkpt>
      <trkpt lat="47.41117" lon="-2.16526">
        <ele>1.2000000476837</ele>
        <time>2021-11-14T10:24:25.000Z</time>
      </trkpt>
      <trkpt lat="47.4112" lon="-2.16522">
        <ele>1.6000000238419</ele>
        <time>2021-11-14T10:24:26.000Z</time>
      </trkpt>
      <trkpt lat="47.41123" lon="-2.16513">
        <ele>1.6000000238419</ele>
        <time>2021-11-14T10:24:28.000Z</time>
      </trkpt>
      <trkpt lat="47.4112" lon="-2.16509">
        <ele>1.6000000238419</ele>
        <time>2021-11-14T10:24:30.000Z</time>
      </trkpt>
      <trkpt lat="47.41118" lon="-2.16509">
        <ele>1.6000000238419</ele>
        <time>2021-11-14T10:24:31.000Z</time>
      </trkpt>
      <trkpt lat="47.41114" lon="-2.16504">
        <ele>1.6000000238419</ele>
        <time>2021-11-14T10:24:33.000Z</time>
      </trkpt>
      <trkpt lat="47.41112" lon="-2.16496">
        <ele>1.6000000238419</ele>
        <time>2021-11-14T10:24:35.000Z</time>
      </trkpt>
      <trkpt lat="47.41109" lon="-2.16489">
        <ele>2</ele>
        <time>2021-11-14T10:24:37.000Z</time>
      </trkpt>
      <trkpt lat="47.41106" lon="-2.16488">
        <ele>2.4000000953674</ele>
        <time>2021-11-14T10:24:38.000Z</time>
      </trkpt>
      <trkpt lat="47.41103" lon="-2.16487">
        <ele>2.7999999523163</ele>
        <time>2021-11-14T10:24:39.000Z</time>
      </trkpt>
      <trkpt lat="47.41101" lon="-2.16484">
        <ele>3.2000000476837</ele>
        <time>2021-11-14T10:24:40.000Z</time>
      </trkpt>
      <trkpt lat="47.41099" lon="-2.1648">
        <ele>3.5999999046326</ele>
        <time>2021-11-14T10:24:41.000Z</time>
      </trkpt>
      <trkpt lat="47.41093" lon="-2.16473">
        <ele>3.5999999046326</ele>
        <time>2021-11-14T10:24:44.000Z</time>
      </trkpt>
      <trkpt lat="47.41088" lon="-2.1646">
        <ele>3.5999999046326</ele>
        <time>2021-11-14T10:24:48.000Z</time>
      </trkpt>
      <trkpt lat="47.4108" lon="-2.16457">
        <ele>3.5999999046326</ele>
        <time>2021-11-14T10:24:52.000Z</time>
      </trkpt>
      <trkpt lat="47.4108" lon="-2.16453">
        <ele>3.5999999046326</ele>
        <time>2021-11-14T10:24:54.000Z</time>
      </trkpt>
      <trkpt lat="47.4108" lon="-2.1645">
        <ele>3.5999999046326</ele>
        <time>2021-11-14T10:24:55.000Z</time>
      </trkpt>
      <trkpt lat="47.41081" lon="-2.16447">
        <ele>4</ele>
        <time>2021-11-14T10:24:56.000Z</time>
      </trkpt>
      <trkpt lat="47.4108" lon="-2.16443">
        <ele>4.4000000953674</ele>
        <time>2021-11-14T10:24:57.000Z</time>
      </trkpt>
      <trkpt lat="47.41079" lon="-2.1644">
        <ele>4.8000001907349</ele>
        <time>2021-11-14T10:24:58.000Z</time>
      </trkpt>
      <trkpt lat="47.41077" lon="-2.16439">
        <ele>5.1999998092651</ele>
        <time>2021-11-14T10:24:59.000Z</time>
      </trkpt>
      <trkpt lat="47.41075" lon="-2.16438">
        <ele>5.5999999046326</ele>
        <time>2021-11-14T10:25:00.000Z</time>
      </trkpt>
      <trkpt lat="47.41072" lon="-2.16438">
        <ele>5.5999999046326</ele>
        <time>2021-11-14T10:25:01.000Z</time>
      </trkpt>
      <trkpt lat="47.41068" lon="-2.16437">
        <ele>5.5999999046326</ele>
        <time>2021-11-14T10:25:03.000Z</time>
      </trkpt>
      <trkpt lat="47.41065" lon="-2.16438">
        <ele>5.5999999046326</ele>
        <time>2021-11-14T10:25:04.000Z</time>
      </trkpt>
      <trkpt lat="47.4106" lon="-2.16444">
        <ele>5.5999999046326</ele>
        <time>2021-11-14T10:25:07.000Z</time>
      </trkpt>
      <trkpt lat="47.41055" lon="-2.16451">
        <ele>5.5999999046326</ele>
        <time>2021-11-14T10:25:11.000Z</time>
      </trkpt>
      <trkpt lat="47.41045" lon="-2.16443">
        <ele>5.5999999046326</ele>
        <time>2021-11-14T10:25:15.000Z</time>
      </trkpt>
      <trkpt lat="47.41044" lon="-2.16437">
        <ele>5.5999999046326</ele>
        <time>2021-11-14T10:25:17.000Z</time>
      </trkpt>
      <trkpt lat="47.41042" lon="-2.16431">
        <ele>5.5999999046326</ele>
        <time>2021-11-14T10:25:19.000Z</time>
      </trkpt>
      <trkpt lat="47.4104" lon="-2.1641">
        <ele>5.5999999046326</ele>
        <time>2021-11-14T10:25:24.000Z</time>
      </trkpt>
      <trkpt lat="47.41034" lon="-2.16395">
        <ele>5.5999999046326</ele>
        <time>2021-11-14T10:25:28.000Z</time>
      </trkpt>
      <trkpt lat="47.41031" lon="-2.16395">
        <ele>6</ele>
        <time>2021-11-14T10:25:29.000Z</time>
      </trkpt>
      <trkpt lat="47.41028" lon="-2.16394">
        <ele>6.5999999046326</ele>
        <time>2021-11-14T10:25:30.000Z</time>
      </trkpt>
      <trkpt lat="47.41026" lon="-2.16391">
        <ele>7</ele>
        <time>2021-11-14T10:25:31.000Z</time>
      </trkpt>
      <trkpt lat="47.41025" lon="-2.16387">
        <ele>7.4000000953674</ele>
        <time>2021-11-14T10:25:32.000Z</time>
      </trkpt>
      <trkpt lat="47.41024" lon="-2.16384">
        <ele>7.8000001907349</ele>
        <time>2021-11-14T10:25:33.000Z</time>
      </trkpt>
      <trkpt lat="47.41027" lon="-2.16377">
        <ele>7.8000001907349</ele>
        <time>2021-11-14T10:25:36.000Z</time>
      </trkpt>
      <trkpt lat="47.41037" lon="-2.16377">
        <ele>7.8000001907349</ele>
        <time>2021-11-14T10:25:40.000Z</time>
      </trkpt>
      <trkpt lat="47.4104" lon="-2.16378">
        <ele>7.8000001907349</ele>
        <time>2021-11-14T10:25:41.000Z</time>
      </trkpt>
      <trkpt lat="47.41048" lon="-2.16384">
        <ele>7.8000001907349</ele>
        <time>2021-11-14T10:25:44.000Z</time>
      </trkpt>
      <trkpt lat="47.41052" lon="-2.16386">
        <ele>7.8000001907349</ele>
        <time>2021-11-14T10:25:46.000Z</time>
      </trkpt>
      <trkpt lat="47.41059" lon="-2.16387">
        <ele>7.8000001907349</ele>
        <time>2021-11-14T10:25:48.000Z</time>
      </trkpt>
      <trkpt lat="47.41068" lon="-2.1639">
        <ele>7.8000001907349</ele>
        <time>2021-11-14T10:25:51.000Z</time>
      </trkpt>
      <trkpt lat="47.41081" lon="-2.16407">
        <ele>7.8000001907349</ele>
        <time>2021-11-14T10:25:56.000Z</time>
      </trkpt>
      <trkpt lat="47.41085" lon="-2.16414">
        <ele>7.8000001907349</ele>
        <time>2021-11-14T10:25:58.000Z</time>
      </trkpt>
      <trkpt lat="47.41088" lon="-2.16425">
        <ele>7.8000001907349</ele>
        <time>2021-11-14T10:26:01.000Z</time>
      </trkpt>
      <trkpt lat="47.4109" lon="-2.16427">
        <ele>7.8000001907349</ele>
        <time>2021-11-14T10:26:02.000Z</time>
      </trkpt>
      <trkpt lat="47.41096" lon="-2.16434">
        <ele>7.8000001907349</ele>
        <time>2021-11-14T10:26:05.000Z</time>
      </trkpt>
      <trkpt lat="47.41098" lon="-2.16436">
        <ele>7.8000001907349</ele>
        <time>2021-11-14T10:26:06.000Z</time>
      </trkpt>
      <trkpt lat="47.411" lon="-2.16438">
        <ele>7.4000000953674</ele>
        <time>2021-11-14T10:26:07.000Z</time>
      </trkpt>
      <trkpt lat="47.41101" lon="-2.1644">
        <ele>7</ele>
        <time>2021-11-14T10:26:08.000Z</time>
      </trkpt>
      <trkpt lat="47.41104" lon="-2.16443">
        <ele>6.1999998092651</ele>
        <time>2021-11-14T10:26:09.000Z</time>
      </trkpt>
      <trkpt lat="47.41109" lon="-2.16448">
        <ele>5.5999999046326</ele>
        <time>2021-11-14T10:26:10.000Z</time>
      </trkpt>
      <trkpt lat="47.41115" lon="-2.16452">
        <ele>5.5999999046326</ele>
        <time>2021-11-14T10:26:11.000Z</time>
      </trkpt>
      <trkpt lat="47.4113" lon="-2.16462">
        <ele>5.1999998092651</ele>
        <time>2021-11-14T10:26:14.000Z</time>
      </trkpt>
      <trkpt lat="47.41133" lon="-2.16468">
        <ele>4.8000001907349</ele>
        <time>2021-11-14T10:26:15.000Z</time>
      </trkpt>
      <trkpt lat="47.41135" lon="-2.16473">
        <ele>4.1999998092651</ele>
        <time>2021-11-14T10:26:16.000Z</time>
      </trkpt>
      <trkpt lat="47.41136" lon="-2.16479">
        <ele>3.7999999523163</ele>
        <time>2021-11-14T10:26:17.000Z</time>
      </trkpt>
      <trkpt lat="47.41137" lon="-2.16484">
        <ele>3.4000000953674</ele>
        <time>2021-11-14T10:26:18.000Z</time>
      </trkpt>
      <trkpt lat="47.4114" lon="-2.16486">
        <ele>3.4000000953674</ele>
        <time>2021-11-14T10:26:19.000Z</time>
      </trkpt>
      <trkpt lat="47.41146" lon="-2.16484">
        <ele>3.4000000953674</ele>
        <time>2021-11-14T10:26:22.000Z</time>
      </trkpt>
      <trkpt lat="47.41148" lon="-2.16468">
        <ele>3.4000000953674</ele>
        <time>2021-11-14T10:26:26.000Z</time>
      </trkpt>
      <trkpt lat="47.41147" lon="-2.16464">
        <ele>3.4000000953674</ele>
        <time>2021-11-14T10:26:27.000Z</time>
      </trkpt>
      <trkpt lat="47.41145" lon="-2.16461">
        <ele>3.4000000953674</ele>
        <time>2021-11-14T10:26:28.000Z</time>
      </trkpt>
      <trkpt lat="47.41139" lon="-2.16457">
        <ele>3.4000000953674</ele>
        <time>2021-11-14T10:26:30.000Z</time>
      </trkpt>
      <trkpt lat="47.41127" lon="-2.16445">
        <ele>3.4000000953674</ele>
        <time>2021-11-14T10:26:34.000Z</time>
      </trkpt>
      <trkpt lat="47.41118" lon="-2.16437">
        <ele>3.7999999523163</ele>
        <time>2021-11-14T10:26:38.000Z</time>
      </trkpt>
      <trkpt lat="47.41116" lon="-2.16434">
        <ele>4.1999998092651</ele>
        <time>2021-11-14T10:26:39.000Z</time>
      </trkpt>
      <trkpt lat="47.41114" lon="-2.16432">
        <ele>4.5999999046326</ele>
        <time>2021-11-14T10:26:40.000Z</time>
      </trkpt>
      <trkpt lat="47.41112" lon="-2.16431">
        <ele>5</ele>
        <time>2021-11-14T10:26:41.000Z</time>
      </trkpt>
      <trkpt lat="47.4111" lon="-2.16429">
        <ele>5.4000000953674</ele>
        <time>2021-11-14T10:26:42.000Z</time>
      </trkpt>
      <trkpt lat="47.41108" lon="-2.16425">
        <ele>5.4000000953674</ele>
        <time>2021-11-14T10:26:43.000Z</time>
      </trkpt>
      <trkpt lat="47.41105" lon="-2.16408">
        <ele>5.4000000953674</ele>
        <time>2021-11-14T10:26:49.000Z</time>
      </trkpt>
      <trkpt lat="47.41107" lon="-2.16411">
        <ele>5.4000000953674</ele>
        <time>2021-11-14T10:26:51.000Z</time>
      </trkpt>
      <trkpt lat="47.4111" lon="-2.16412">
        <ele>5.4000000953674</ele>
        <time>2021-11-14T10:26:52.000Z</time>
      </trkpt>
      <trkpt lat="47.41123" lon="-2.16422">
        <ele>5.4000000953674</ele>
        <time>2021-11-14T10:26:56.000Z</time>
      </trkpt>
      <trkpt lat="47.41127" lon="-2.16423">
        <ele>5.4000000953674</ele>
        <time>2021-11-14T10:26:57.000Z</time>
      </trkpt>
      <trkpt lat="47.41142" lon="-2.16429">
        <ele>5.4000000953674</ele>
        <time>2021-11-14T10:27:01.000Z</time>
      </trkpt>
      <trkpt lat="47.41144" lon="-2.1643">
        <ele>5</ele>
        <time>2021-11-14T10:27:02.000Z</time>
      </trkpt>
      <trkpt lat="47.41146" lon="-2.16432">
        <ele>4.5999999046326</ele>
        <time>2021-11-14T10:27:03.000Z</time>
      </trkpt>
      <trkpt lat="47.41147" lon="-2.16434">
        <ele>4.1999998092651</ele>
        <time>2021-11-14T10:27:04.000Z</time>
      </trkpt>
      <trkpt lat="47.41148" lon="-2.16437">
        <ele>3.7999999523163</ele>
        <time>2021-11-14T10:27:05.000Z</time>
      </trkpt>
      <trkpt lat="47.41148" lon="-2.1644">
        <ele>3.4000000953674</ele>
        <time>2021-11-14T10:27:06.000Z</time>
      </trkpt>
      <trkpt lat="47.41149" lon="-2.16451">
        <ele>3.4000000953674</ele>
        <time>2021-11-14T10:27:08.000Z</time>
      </trkpt>
      <trkpt lat="47.41156" lon="-2.16457">
        <ele>3.4000000953674</ele>
        <time>2021-11-14T10:27:11.000Z</time>
      </trkpt>
      <trkpt lat="47.41161" lon="-2.16462">
        <ele>3</ele>
        <time>2021-11-14T10:27:13.000Z</time>
      </trkpt>
      <trkpt lat="47.41162" lon="-2.16464">
        <ele>2.4000000953674</ele>
        <time>2021-11-14T10:27:14.000Z</time>
      </trkpt>
      <trkpt lat="47.41164" lon="-2.16466">
        <ele>2</ele>
        <time>2021-11-14T10:27:15.000Z</time>
      </trkpt>
      <trkpt lat="47.41165" lon="-2.16467">
        <ele>1.6000000238419</ele>
        <time>2021-11-14T10:27:16.000Z</time>
      </trkpt>
      <trkpt lat="47.41168" lon="-2.16467">
        <ele>1.2000000476837</ele>
        <time>2021-11-14T10:27:17.000Z</time>
      </trkpt>
      <trkpt lat="47.41173" lon="-2.16467">
        <ele>1.2000000476837</ele>
        <time>2021-11-14T10:27:19.000Z</time>
      </trkpt>
      <trkpt lat="47.41181" lon="-2.16474">
        <ele>1.2000000476837</ele>
        <time>2021-11-14T10:27:22.000Z</time>
      </trkpt>
      <trkpt lat="47.41184" lon="-2.16478">
        <ele>1.2000000476837</ele>
        <time>2021-11-14T10:27:23.000Z</time>
      </trkpt>
      <trkpt lat="47.41202" lon="-2.16506">
        <ele>1.6000000238419</ele>
        <time>2021-11-14T10:27:30.000Z</time>
      </trkpt>
      <trkpt lat="47.41205" lon="-2.16508">
        <ele>2</ele>
        <time>2021-11-14T10:27:31.000Z</time>
      </trkpt>
      <trkpt lat="47.41208" lon="-2.16512">
        <ele>2.4000000953674</ele>
        <time>2021-11-14T10:27:32.000Z</time>
      </trkpt>
      <trkpt lat="47.4121" lon="-2.16516">
        <ele>2.7999999523163</ele>
        <time>2021-11-14T10:27:33.000Z</time>
      </trkpt>
      <trkpt lat="47.41213" lon="-2.1652">
        <ele>3.2000000476837</ele>
        <time>2021-11-14T10:27:34.000Z</time>
      </trkpt>
      <trkpt lat="47.41216" lon="-2.16524">
        <ele>3.2000000476837</ele>
        <time>2021-11-14T10:27:35.000Z</time>
      </trkpt>
      <trkpt lat="47.41236" lon="-2.16562">
        <ele>3.2000000476837</ele>
        <time>2021-11-14T10:27:42.000Z</time>
      </trkpt>
      <trkpt lat="47.41248" lon="-2.16587">
        <ele>3.2000000476837</ele>
        <time>2021-11-14T10:27:47.000Z</time>
      </trkpt>
      <trkpt lat="47.41253" lon="-2.16599">
        <ele>3.2000000476837</ele>
        <time>2021-11-14T10:27:49.000Z</time>
      </trkpt>
      <trkpt lat="47.41258" lon="-2.16615">
        <ele>3.2000000476837</ele>
        <time>2021-11-14T10:27:52.000Z</time>
      </trkpt>
      <trkpt lat="47.41262" lon="-2.16633">
        <ele>3.2000000476837</ele>
        <time>2021-11-14T10:27:57.000Z</time>
      </trkpt>
      <trkpt lat="47.41263" lon="-2.16638">
        <ele>3.2000000476837</ele>
        <time>2021-11-14T10:28:00.000Z</time>
      </trkpt>
      <trkpt lat="47.41261" lon="-2.16638">
        <ele>3.2000000476837</ele>
        <time>2021-11-14T10:28:02.000Z</time>
      </trkpt>
      <trkpt lat="47.4126" lon="-2.16636">
        <ele>3.2000000476837</ele>
        <time>2021-11-14T10:28:05.000Z</time>
      </trkpt>
      <trkpt lat="47.41263" lon="-2.16635">
        <ele>3.2000000476837</ele>
        <time>2021-11-14T10:28:29.000Z</time>
      </trkpt>
      <trkpt lat="47.41264" lon="-2.16635">
        <ele>3.2000000476837</ele>
        <time>2021-11-14T10:28:31.000Z</time>
      </trkpt>
      <trkpt lat="47.41266" lon="-2.16636">
        <ele>3.2000000476837</ele>
        <time>2021-11-14T10:29:07.000Z</time>
      </trkpt>
      <trkpt lat="47.41268" lon="-2.16634">
        <ele>3.2000000476837</ele>
        <time>2021-11-14T10:29:08.000Z</time>
      </trkpt>
      <trkpt lat="47.41269" lon="-2.16631">
        <ele>3.2000000476837</ele>
        <time>2021-11-14T10:29:09.000Z</time>
      </trkpt>
      <trkpt lat="47.41273" lon="-2.1662">
        <ele>3.2000000476837</ele>
        <time>2021-11-14T10:29:12.000Z</time>
      </trkpt>
      <trkpt lat="47.41282" lon="-2.16587">
        <ele>3.2000000476837</ele>
        <time>2021-11-14T10:29:18.000Z</time>
      </trkpt>
      <trkpt lat="47.41291" lon="-2.16549">
        <ele>3.2000000476837</ele>
        <time>2021-11-14T10:29:24.000Z</time>
      </trkpt>
      <trkpt lat="47.41301" lon="-2.16507">
        <ele>3.5999999046326</ele>
        <time>2021-11-14T10:29:30.000Z</time>
      </trkpt>
      <trkpt lat="47.41303" lon="-2.165">
        <ele>4</ele>
        <time>2021-11-14T10:29:31.000Z</time>
      </trkpt>
      <trkpt lat="47.41304" lon="-2.16493">
        <ele>4.4000000953674</ele>
        <time>2021-11-14T10:29:32.000Z</time>
      </trkpt>
      <trkpt lat="47.41306" lon="-2.16485">
        <ele>4.8000001907349</ele>
        <time>2021-11-14T10:29:33.000Z</time>
      </trkpt>
      <trkpt lat="47.41308" lon="-2.16477">
        <ele>5.1999998092651</ele>
        <time>2021-11-14T10:29:34.000Z</time>
      </trkpt>
      <trkpt lat="47.41316" lon="-2.16438">
        <ele>5.1999998092651</ele>
        <time>2021-11-14T10:29:39.000Z</time>
      </trkpt>
      <trkpt lat="47.41327" lon="-2.16384">
        <ele>5.1999998092651</ele>
        <time>2021-11-14T10:29:46.000Z</time>
      </trkpt>
      <trkpt lat="47.4134" lon="-2.16336">
        <ele>5.1999998092651</ele>
        <time>2021-11-14T10:29:52.000Z</time>
      </trkpt>
      <trkpt lat="47.41342" lon="-2.16329">
        <ele>5.1999998092651</ele>
        <time>2021-11-14T10:29:53.000Z</time>
      </trkpt>
      <trkpt lat="47.41348" lon="-2.16316">
        <ele>5.1999998092651</ele>
        <time>2021-11-14T10:29:55.000Z</time>
      </trkpt>
      <trkpt lat="47.41361" lon="-2.16305">
        <ele>5.1999998092651</ele>
        <time>2021-11-14T10:29:58.000Z</time>
      </trkpt>
      <trkpt lat="47.41371" lon="-2.16312">
        <ele>5.1999998092651</ele>
        <time>2021-11-14T10:30:00.000Z</time>
      </trkpt>
      <trkpt lat="47.41381" lon="-2.16332">
        <ele>5.1999998092651</ele>
        <time>2021-11-14T10:30:03.000Z</time>
      </trkpt>
      <trkpt lat="47.41392" lon="-2.16351">
        <ele>5.1999998092651</ele>
        <time>2021-11-14T10:30:06.000Z</time>
      </trkpt>
      <trkpt lat="47.41403" lon="-2.16368">
        <ele>5.1999998092651</ele>
        <time>2021-11-14T10:30:09.000Z</time>
      </trkpt>
      <trkpt lat="47.41429" lon="-2.16417">
        <ele>5.1999998092651</ele>
        <time>2021-11-14T10:30:17.000Z</time>
      </trkpt>
      <trkpt lat="47.4144" lon="-2.16444">
        <ele>5.1999998092651</ele>
        <time>2021-11-14T10:30:21.000Z</time>
      </trkpt>
      <trkpt lat="47.41443" lon="-2.1646">
        <ele>5.1999998092651</ele>
        <time>2021-11-14T10:30:23.000Z</time>
      </trkpt>
      <trkpt lat="47.41454" lon="-2.16509">
        <ele>5.1999998092651</ele>
        <time>2021-11-14T10:30:29.000Z</time>
      </trkpt>
      <trkpt lat="47.41456" lon="-2.16517">
        <ele>5.5999999046326</ele>
        <time>2021-11-14T10:30:30.000Z</time>
      </trkpt>
      <trkpt lat="47.41458" lon="-2.16525">
        <ele>6</ele>
        <time>2021-11-14T10:30:31.000Z</time>
      </trkpt>
      <trkpt lat="47.41459" lon="-2.16532">
        <ele>6.4000000953674</ele>
        <time>2021-11-14T10:30:32.000Z</time>
      </trkpt>
      <trkpt lat="47.41461" lon="-2.16541">
        <ele>6.8000001907349</ele>
        <time>2021-11-14T10:30:33.000Z</time>
      </trkpt>
      <trkpt lat="47.41463" lon="-2.16549">
        <ele>7.1999998092651</ele>
        <time>2021-11-14T10:30:34.000Z</time>
      </trkpt>
      <trkpt lat="47.41467" lon="-2.16566">
        <ele>7.1999998092651</ele>
        <time>2021-11-14T10:30:36.000Z</time>
      </trkpt>
      <trkpt lat="47.4148" lon="-2.16619">
        <ele>7.1999998092651</ele>
        <time>2021-11-14T10:30:43.000Z</time>
      </trkpt>
      <trkpt lat="47.41495" lon="-2.16667">
        <ele>7.1999998092651</ele>
        <time>2021-11-14T10:30:49.000Z</time>
      </trkpt>
      <trkpt lat="47.41508" lon="-2.16695">
        <ele>7.1999998092651</ele>
        <time>2021-11-14T10:30:53.000Z</time>
      </trkpt>
      <trkpt lat="47.41516" lon="-2.16707">
        <ele>7.1999998092651</ele>
        <time>2021-11-14T10:30:55.000Z</time>
      </trkpt>
      <trkpt lat="47.41525" lon="-2.16718">
        <ele>7.1999998092651</ele>
        <time>2021-11-14T10:30:57.000Z</time>
      </trkpt>
      <trkpt lat="47.41531" lon="-2.16731">
        <ele>7.1999998092651</ele>
        <time>2021-11-14T10:30:59.000Z</time>
      </trkpt>
      <trkpt lat="47.41532" lon="-2.16738">
        <ele>7.1999998092651</ele>
        <time>2021-11-14T10:31:00.000Z</time>
      </trkpt>
      <trkpt lat="47.41525" lon="-2.16761">
        <ele>7.1999998092651</ele>
        <time>2021-11-14T10:31:03.000Z</time>
      </trkpt>
      <trkpt lat="47.41522" lon="-2.16769">
        <ele>7.1999998092651</ele>
        <time>2021-11-14T10:31:04.000Z</time>
      </trkpt>
      <trkpt lat="47.41507" lon="-2.168">
        <ele>7.1999998092651</ele>
        <time>2021-11-14T10:31:08.000Z</time>
      </trkpt>
      <trkpt lat="47.41503" lon="-2.16808">
        <ele>7.1999998092651</ele>
        <time>2021-11-14T10:31:09.000Z</time>
      </trkpt>
      <trkpt lat="47.41488" lon="-2.16838">
        <ele>7.1999998092651</ele>
        <time>2021-11-14T10:31:13.000Z</time>
      </trkpt>
      <trkpt lat="47.4148" lon="-2.1685">
        <ele>7.1999998092651</ele>
        <time>2021-11-14T10:31:15.000Z</time>
      </trkpt>
      <trkpt lat="47.41477" lon="-2.16856">
        <ele>7.1999998092651</ele>
        <time>2021-11-14T10:31:16.000Z</time>
      </trkpt>
      <trkpt lat="47.41474" lon="-2.16871">
        <ele>7.1999998092651</ele>
        <time>2021-11-14T10:31:18.000Z</time>
      </trkpt>
      <trkpt lat="47.41472" lon="-2.16912">
        <ele>7.1999998092651</ele>
        <time>2021-11-14T10:31:22.000Z</time>
      </trkpt>
      <trkpt lat="47.41471" lon="-2.16954">
        <ele>7.1999998092651</ele>
        <time>2021-11-14T10:31:26.000Z</time>
      </trkpt>
      <trkpt lat="47.41471" lon="-2.16963">
        <ele>7.1999998092651</ele>
        <time>2021-11-14T10:31:27.000Z</time>
      </trkpt>
      <trkpt lat="47.41466" lon="-2.17042">
        <ele>7.1999998092651</ele>
        <time>2021-11-14T10:31:35.000Z</time>
      </trkpt>
      <trkpt lat="47.41459" lon="-2.17069">
        <ele>6.8000001907349</ele>
        <time>2021-11-14T10:31:38.000Z</time>
      </trkpt>
      <trkpt lat="47.41455" lon="-2.17077">
        <ele>6.4000000953674</ele>
        <time>2021-11-14T10:31:39.000Z</time>
      </trkpt>
      <trkpt lat="47.41452" lon="-2.17086">
        <ele>6</ele>
        <time>2021-11-14T10:31:40.000Z</time>
      </trkpt>
      <trkpt lat="47.41449" lon="-2.17095">
        <ele>5.5999999046326</ele>
        <time>2021-11-14T10:31:41.000Z</time>
      </trkpt>
      <trkpt lat="47.41445" lon="-2.17102">
        <ele>5</ele>
        <time>2021-11-14T10:31:42.000Z</time>
      </trkpt>
      <trkpt lat="47.41434" lon="-2.17133">
        <ele>5</ele>
        <time>2021-11-14T10:31:46.000Z</time>
      </trkpt>
      <trkpt lat="47.41421" lon="-2.17186">
        <ele>5</ele>
        <time>2021-11-14T10:31:52.000Z</time>
      </trkpt>
      <trkpt lat="47.41419" lon="-2.17205">
        <ele>5</ele>
        <time>2021-11-14T10:31:54.000Z</time>
      </trkpt>
      <trkpt lat="47.4142" lon="-2.17236">
        <ele>5</ele>
        <time>2021-11-14T10:31:57.000Z</time>
      </trkpt>
      <trkpt lat="47.41427" lon="-2.17271">
        <ele>5</ele>
        <time>2021-11-14T10:32:01.000Z</time>
      </trkpt>
      <trkpt lat="47.41429" lon="-2.1728">
        <ele>5</ele>
        <time>2021-11-14T10:32:02.000Z</time>
      </trkpt>
      <trkpt lat="47.41434" lon="-2.17324">
        <ele>5</ele>
        <time>2021-11-14T10:32:07.000Z</time>
      </trkpt>
      <trkpt lat="47.41434" lon="-2.17332">
        <ele>5</ele>
        <time>2021-11-14T10:32:08.000Z</time>
      </trkpt>
      <trkpt lat="47.41432" lon="-2.17341">
        <ele>5</ele>
        <time>2021-11-14T10:32:09.000Z</time>
      </trkpt>
      <trkpt lat="47.41424" lon="-2.17364">
        <ele>5</ele>
        <time>2021-11-14T10:32:12.000Z</time>
      </trkpt>
      <trkpt lat="47.4142" lon="-2.17371">
        <ele>5</ele>
        <time>2021-11-14T10:32:13.000Z</time>
      </trkpt>
      <trkpt lat="47.41413" lon="-2.17384">
        <ele>5</ele>
        <time>2021-11-14T10:32:15.000Z</time>
      </trkpt>
      <trkpt lat="47.41401" lon="-2.17405">
        <ele>5</ele>
        <time>2021-11-14T10:32:18.000Z</time>
      </trkpt>
      <trkpt lat="47.41367" lon="-2.17461">
        <ele>5</ele>
        <time>2021-11-14T10:32:26.000Z</time>
      </trkpt>
      <trkpt lat="47.41362" lon="-2.17466">
        <ele>5</ele>
        <time>2021-11-14T10:32:27.000Z</time>
      </trkpt>
      <trkpt lat="47.41347" lon="-2.17477">
        <ele>5</ele>
        <time>2021-11-14T10:32:30.000Z</time>
      </trkpt>
      <trkpt lat="47.4132" lon="-2.17495">
        <ele>5</ele>
        <time>2021-11-14T10:32:35.000Z</time>
      </trkpt>
      <trkpt lat="47.4131" lon="-2.17505">
        <ele>5</ele>
        <time>2021-11-14T10:32:37.000Z</time>
      </trkpt>
      <trkpt lat="47.41297" lon="-2.17514">
        <ele>5</ele>
        <time>2021-11-14T10:32:40.000Z</time>
      </trkpt>
      <trkpt lat="47.41293" lon="-2.17512">
        <ele>5</ele>
        <time>2021-11-14T10:32:41.000Z</time>
      </trkpt>
      <trkpt lat="47.41279" lon="-2.17498">
        <ele>4.5999999046326</ele>
        <time>2021-11-14T10:32:44.000Z</time>
      </trkpt>
      <trkpt lat="47.41274" lon="-2.17493">
        <ele>3.7999999523163</ele>
        <time>2021-11-14T10:32:45.000Z</time>
      </trkpt>
      <trkpt lat="47.41269" lon="-2.17489">
        <ele>3.4000000953674</ele>
        <time>2021-11-14T10:32:46.000Z</time>
      </trkpt>
      <trkpt lat="47.41264" lon="-2.17483">
        <ele>3</ele>
        <time>2021-11-14T10:32:47.000Z</time>
      </trkpt>
      <trkpt lat="47.41255" lon="-2.17472">
        <ele>3</ele>
        <time>2021-11-14T10:32:49.000Z</time>
      </trkpt>
      <trkpt lat="47.4125" lon="-2.17463">
        <ele>3</ele>
        <time>2021-11-14T10:32:51.000Z</time>
      </trkpt>
      <trkpt lat="47.41246" lon="-2.17456">
        <ele>3</ele>
        <time>2021-11-14T10:32:53.000Z</time>
      </trkpt>
      <trkpt lat="47.41244" lon="-2.17456">
        <ele>3</ele>
        <time>2021-11-14T10:32:54.000Z</time>
      </trkpt>
      <trkpt lat="47.41243" lon="-2.17457">
        <ele>3</ele>
        <time>2021-11-14T10:32:56.000Z</time>
      </trkpt>
      <trkpt lat="47.41243" lon="-2.17455">
        <ele>3</ele>
        <time>2021-11-14T10:32:57.000Z</time>
      </trkpt>
      <trkpt lat="47.41239" lon="-2.17447">
        <ele>3</ele>
        <time>2021-11-14T10:33:00.000Z</time>
      </trkpt>
      <trkpt lat="47.41229" lon="-2.17424">
        <ele>3</ele>
        <time>2021-11-14T10:33:05.000Z</time>
      </trkpt>
      <trkpt lat="47.41226" lon="-2.17418">
        <ele>3</ele>
        <time>2021-11-14T10:33:06.000Z</time>
      </trkpt>
      <trkpt lat="47.41225" lon="-2.17396">
        <ele>3</ele>
        <time>2021-11-14T10:33:09.000Z</time>
      </trkpt>
      <trkpt lat="47.41226" lon="-2.17376">
        <ele>3</ele>
        <time>2021-11-14T10:33:12.000Z</time>
      </trkpt>
      <trkpt lat="47.41226" lon="-2.17365">
        <ele>3</ele>
        <time>2021-11-14T10:33:14.000Z</time>
      </trkpt>
      <trkpt lat="47.41223" lon="-2.1736">
        <ele>3</ele>
        <time>2021-11-14T10:33:15.000Z</time>
      </trkpt>
      <trkpt lat="47.41217" lon="-2.1735">
        <ele>3</ele>
        <time>2021-11-14T10:33:17.000Z</time>
      </trkpt>
      <trkpt lat="47.41194" lon="-2.17322">
        <ele>3</ele>
        <time>2021-11-14T10:33:24.000Z</time>
      </trkpt>
      <trkpt lat="47.41183" lon="-2.17318">
        <ele>3</ele>
        <time>2021-11-14T10:33:28.000Z</time>
      </trkpt>
      <trkpt lat="47.41183" lon="-2.17317">
        <ele>3</ele>
        <time>2021-11-14T10:33:30.000Z</time>
      </trkpt>
    </trkseg>
  </trk>
</gpx>